<?xml version="1.0" encoding="UTF-8" standalone="no" ?>
<gpx xmlns="http://www.topografix.com/GPX/1/1" xmlns:xsi="http://www.w3.org/2001/XMLSchema-instance" xsi:schemaLocation="http://www.topografix.com/GPX/1/1 http://www.topografix.com/GPX/1/1/gpx.xsd" version="1.1" creator="VisuGPX - https://www.visugpx.com">
  <metadata>
    <name>Pornichet 28/02/2021</name>
    <desc><![CDATA[Sortie vtt du dimanche 28 février 2021]]></desc>
  </metadata>
  <trk>
    <name><![CDATA[Pornichet Cyclisme]]></name>
    <trkseg>
      <trkpt lat="47.26409" lon="-2.31566">
        <ele>4</ele>
        <time>2021-02-28T08:27:57.000Z</time>
      </trkpt>
      <trkpt lat="47.2641" lon="-2.3158">
        <ele>4</ele>
        <time>2021-02-28T08:28:00.000Z</time>
      </trkpt>
      <trkpt lat="47.2641" lon="-2.31585">
        <ele>4</ele>
        <time>2021-02-28T08:28:01.000Z</time>
      </trkpt>
      <trkpt lat="47.2641" lon="-2.31619">
        <ele>4</ele>
        <time>2021-02-28T08:28:08.000Z</time>
      </trkpt>
      <trkpt lat="47.26411" lon="-2.31652">
        <ele>4</ele>
        <time>2021-02-28T08:28:14.000Z</time>
      </trkpt>
      <trkpt lat="47.26408" lon="-2.31662">
        <ele>4</ele>
        <time>2021-02-28T08:28:16.000Z</time>
      </trkpt>
      <trkpt lat="47.26405" lon="-2.31665">
        <ele>4</ele>
        <time>2021-02-28T08:28:17.000Z</time>
      </trkpt>
      <trkpt lat="47.26393" lon="-2.31671">
        <ele>4</ele>
        <time>2021-02-28T08:28:20.000Z</time>
      </trkpt>
      <trkpt lat="47.26389" lon="-2.31673">
        <ele>4</ele>
        <time>2021-02-28T08:28:21.000Z</time>
      </trkpt>
      <trkpt lat="47.26384" lon="-2.31676">
        <ele>4</ele>
        <time>2021-02-28T08:28:22.000Z</time>
      </trkpt>
      <trkpt lat="47.26349" lon="-2.31698">
        <ele>3.5999999046326</ele>
        <time>2021-02-28T08:28:29.000Z</time>
      </trkpt>
      <trkpt lat="47.26344" lon="-2.31701">
        <ele>3.2000000476837</ele>
        <time>2021-02-28T08:28:30.000Z</time>
      </trkpt>
      <trkpt lat="47.26338" lon="-2.31703">
        <ele>2.7999999523163</ele>
        <time>2021-02-28T08:28:31.000Z</time>
      </trkpt>
      <trkpt lat="47.26332" lon="-2.31705">
        <ele>2.4000000953674</ele>
        <time>2021-02-28T08:28:32.000Z</time>
      </trkpt>
      <trkpt lat="47.26327" lon="-2.31708">
        <ele>1.7999999523163</ele>
        <time>2021-02-28T08:28:33.000Z</time>
      </trkpt>
      <trkpt lat="47.26317" lon="-2.31714">
        <ele>1.7999999523163</ele>
        <time>2021-02-28T08:28:35.000Z</time>
      </trkpt>
      <trkpt lat="47.26308" lon="-2.3172">
        <ele>1.3999999761581</ele>
        <time>2021-02-28T08:28:37.000Z</time>
      </trkpt>
      <trkpt lat="47.26305" lon="-2.31725">
        <ele>1</ele>
        <time>2021-02-28T08:28:38.000Z</time>
      </trkpt>
      <trkpt lat="47.26304" lon="-2.3173">
        <ele>0.60000002384186</ele>
        <time>2021-02-28T08:28:39.000Z</time>
      </trkpt>
      <trkpt lat="47.26304" lon="-2.31736">
        <ele>0.20000000298023</ele>
        <time>2021-02-28T08:28:40.000Z</time>
      </trkpt>
      <trkpt lat="47.26306" lon="-2.31742">
        <ele>-0.20000000298023</ele>
        <time>2021-02-28T08:28:41.000Z</time>
      </trkpt>
      <trkpt lat="47.26307" lon="-2.31747">
        <ele>-0.20000000298023</ele>
        <time>2021-02-28T08:28:42.000Z</time>
      </trkpt>
      <trkpt lat="47.26307" lon="-2.31753">
        <ele>-0.20000000298023</ele>
        <time>2021-02-28T08:28:43.000Z</time>
      </trkpt>
      <trkpt lat="47.26308" lon="-2.31783">
        <ele>-0.20000000298023</ele>
        <time>2021-02-28T08:28:48.000Z</time>
      </trkpt>
      <trkpt lat="47.26305" lon="-2.3183">
        <ele>-0.20000000298023</ele>
        <time>2021-02-28T08:28:55.000Z</time>
      </trkpt>
      <trkpt lat="47.26302" lon="-2.31863">
        <ele>-0.20000000298023</ele>
        <time>2021-02-28T08:29:01.000Z</time>
      </trkpt>
      <trkpt lat="47.26299" lon="-2.31879">
        <ele>-0.20000000298023</ele>
        <time>2021-02-28T08:29:05.000Z</time>
      </trkpt>
      <trkpt lat="47.26287" lon="-2.31893">
        <ele>-0.20000000298023</ele>
        <time>2021-02-28T08:29:10.000Z</time>
      </trkpt>
      <trkpt lat="47.26285" lon="-2.31895">
        <ele>-0.20000000298023</ele>
        <time>2021-02-28T08:29:11.000Z</time>
      </trkpt>
      <trkpt lat="47.26274" lon="-2.31911">
        <ele>-0.20000000298023</ele>
        <time>2021-02-28T08:29:17.000Z</time>
      </trkpt>
      <trkpt lat="47.2627" lon="-2.31925">
        <ele>-0.20000000298023</ele>
        <time>2021-02-28T08:29:24.000Z</time>
      </trkpt>
      <trkpt lat="47.26264" lon="-2.31939">
        <ele>-0.20000000298023</ele>
        <time>2021-02-28T08:29:29.000Z</time>
      </trkpt>
      <trkpt lat="47.26257" lon="-2.31953">
        <ele>-0.60000002384186</ele>
        <time>2021-02-28T08:29:33.000Z</time>
      </trkpt>
      <trkpt lat="47.26255" lon="-2.31958">
        <ele>-1.2000000476837</ele>
        <time>2021-02-28T08:29:34.000Z</time>
      </trkpt>
      <trkpt lat="47.26253" lon="-2.31962">
        <ele>-1.6000000238419</ele>
        <time>2021-02-28T08:29:35.000Z</time>
      </trkpt>
      <trkpt lat="47.26251" lon="-2.31965">
        <ele>-2</ele>
        <time>2021-02-28T08:29:36.000Z</time>
      </trkpt>
      <trkpt lat="47.26249" lon="-2.31968">
        <ele>-2.4000000953674</ele>
        <time>2021-02-28T08:29:37.000Z</time>
      </trkpt>
      <trkpt lat="47.26245" lon="-2.3197">
        <ele>-2.4000000953674</ele>
        <time>2021-02-28T08:29:38.000Z</time>
      </trkpt>
      <trkpt lat="47.26242" lon="-2.3197">
        <ele>-2.4000000953674</ele>
        <time>2021-02-28T08:29:39.000Z</time>
      </trkpt>
      <trkpt lat="47.26229" lon="-2.31979">
        <ele>-2.4000000953674</ele>
        <time>2021-02-28T08:29:44.000Z</time>
      </trkpt>
      <trkpt lat="47.26209" lon="-2.31997">
        <ele>-2.4000000953674</ele>
        <time>2021-02-28T08:29:51.000Z</time>
      </trkpt>
      <trkpt lat="47.26207" lon="-2.31999">
        <ele>-2.4000000953674</ele>
        <time>2021-02-28T08:29:52.000Z</time>
      </trkpt>
      <trkpt lat="47.26204" lon="-2.32003">
        <ele>-2.4000000953674</ele>
        <time>2021-02-28T08:29:54.000Z</time>
      </trkpt>
      <trkpt lat="47.26198" lon="-2.32013">
        <ele>-2.4000000953674</ele>
        <time>2021-02-28T08:29:59.000Z</time>
      </trkpt>
      <trkpt lat="47.26196" lon="-2.32014">
        <ele>-2.4000000953674</ele>
        <time>2021-02-28T08:30:00.000Z</time>
      </trkpt>
      <trkpt lat="47.26187" lon="-2.32017">
        <ele>-2.4000000953674</ele>
        <time>2021-02-28T08:30:05.000Z</time>
      </trkpt>
      <trkpt lat="47.26175" lon="-2.32028">
        <ele>-2.4000000953674</ele>
        <time>2021-02-28T08:30:10.000Z</time>
      </trkpt>
      <trkpt lat="47.26171" lon="-2.32033">
        <ele>-2.4000000953674</ele>
        <time>2021-02-28T08:30:11.000Z</time>
      </trkpt>
      <trkpt lat="47.26162" lon="-2.32051">
        <ele>-2.4000000953674</ele>
        <time>2021-02-28T08:30:14.000Z</time>
      </trkpt>
      <trkpt lat="47.26144" lon="-2.32101">
        <ele>-2.4000000953674</ele>
        <time>2021-02-28T08:30:22.000Z</time>
      </trkpt>
      <trkpt lat="47.26126" lon="-2.32152">
        <ele>-2.4000000953674</ele>
        <time>2021-02-28T08:30:30.000Z</time>
      </trkpt>
      <trkpt lat="47.26112" lon="-2.32189">
        <ele>-2.4000000953674</ele>
        <time>2021-02-28T08:30:36.000Z</time>
      </trkpt>
      <trkpt lat="47.26109" lon="-2.32196">
        <ele>-2.4000000953674</ele>
        <time>2021-02-28T08:30:37.000Z</time>
      </trkpt>
      <trkpt lat="47.26093" lon="-2.32223">
        <ele>-2.4000000953674</ele>
        <time>2021-02-28T08:30:42.000Z</time>
      </trkpt>
      <trkpt lat="47.26068" lon="-2.32253">
        <ele>-2.4000000953674</ele>
        <time>2021-02-28T08:30:49.000Z</time>
      </trkpt>
      <trkpt lat="47.26053" lon="-2.32271">
        <ele>-2.4000000953674</ele>
        <time>2021-02-28T08:30:53.000Z</time>
      </trkpt>
      <trkpt lat="47.26041" lon="-2.32285">
        <ele>-2</ele>
        <time>2021-02-28T08:30:56.000Z</time>
      </trkpt>
      <trkpt lat="47.26036" lon="-2.32289">
        <ele>-1.6000000238419</ele>
        <time>2021-02-28T08:30:57.000Z</time>
      </trkpt>
      <trkpt lat="47.26033" lon="-2.32293">
        <ele>-1.2000000476837</ele>
        <time>2021-02-28T08:30:58.000Z</time>
      </trkpt>
      <trkpt lat="47.26029" lon="-2.32298">
        <ele>-0.80000001192093</ele>
        <time>2021-02-28T08:30:59.000Z</time>
      </trkpt>
      <trkpt lat="47.26026" lon="-2.32302">
        <ele>-0.40000000596046</ele>
        <time>2021-02-28T08:31:00.000Z</time>
      </trkpt>
      <trkpt lat="47.26018" lon="-2.32312">
        <ele>-0.40000000596046</ele>
        <time>2021-02-28T08:31:02.000Z</time>
      </trkpt>
      <trkpt lat="47.25992" lon="-2.32345">
        <ele>-0.40000000596046</ele>
        <time>2021-02-28T08:31:09.000Z</time>
      </trkpt>
      <trkpt lat="47.25961" lon="-2.32383">
        <ele>-0.40000000596046</ele>
        <time>2021-02-28T08:31:17.000Z</time>
      </trkpt>
      <trkpt lat="47.25932" lon="-2.32421">
        <ele>-0.40000000596046</ele>
        <time>2021-02-28T08:31:25.000Z</time>
      </trkpt>
      <trkpt lat="47.25904" lon="-2.32456">
        <ele>-0.40000000596046</ele>
        <time>2021-02-28T08:31:33.000Z</time>
      </trkpt>
      <trkpt lat="47.25882" lon="-2.32474">
        <ele>-0.40000000596046</ele>
        <time>2021-02-28T08:31:39.000Z</time>
      </trkpt>
      <trkpt lat="47.25878" lon="-2.32475">
        <ele>-0.40000000596046</ele>
        <time>2021-02-28T08:31:40.000Z</time>
      </trkpt>
      <trkpt lat="47.25856" lon="-2.32477">
        <ele>-0.40000000596046</ele>
        <time>2021-02-28T08:31:45.000Z</time>
      </trkpt>
      <trkpt lat="47.25831" lon="-2.32471">
        <ele>-0.40000000596046</ele>
        <time>2021-02-28T08:31:50.000Z</time>
      </trkpt>
      <trkpt lat="47.25807" lon="-2.3246">
        <ele>-0.40000000596046</ele>
        <time>2021-02-28T08:31:55.000Z</time>
      </trkpt>
      <trkpt lat="47.25803" lon="-2.32459">
        <ele>-0.40000000596046</ele>
        <time>2021-02-28T08:31:56.000Z</time>
      </trkpt>
      <trkpt lat="47.25791" lon="-2.32461">
        <ele>-0.40000000596046</ele>
        <time>2021-02-28T08:31:59.000Z</time>
      </trkpt>
      <trkpt lat="47.25784" lon="-2.32459">
        <ele>-0.40000000596046</ele>
        <time>2021-02-28T08:32:01.000Z</time>
      </trkpt>
      <trkpt lat="47.25777" lon="-2.32451">
        <ele>-0.40000000596046</ele>
        <time>2021-02-28T08:32:03.000Z</time>
      </trkpt>
      <trkpt lat="47.25775" lon="-2.32446">
        <ele>-0.40000000596046</ele>
        <time>2021-02-28T08:32:04.000Z</time>
      </trkpt>
      <trkpt lat="47.25766" lon="-2.32431">
        <ele>-0.40000000596046</ele>
        <time>2021-02-28T08:32:07.000Z</time>
      </trkpt>
      <trkpt lat="47.25758" lon="-2.32428">
        <ele>-0.40000000596046</ele>
        <time>2021-02-28T08:32:09.000Z</time>
      </trkpt>
      <trkpt lat="47.25743" lon="-2.32427">
        <ele>-0.40000000596046</ele>
        <time>2021-02-28T08:32:12.000Z</time>
      </trkpt>
      <trkpt lat="47.25732" lon="-2.32427">
        <ele>-0.40000000596046</ele>
        <time>2021-02-28T08:32:14.000Z</time>
      </trkpt>
      <trkpt lat="47.25685" lon="-2.32423">
        <ele>-0.40000000596046</ele>
        <time>2021-02-28T08:32:24.000Z</time>
      </trkpt>
      <trkpt lat="47.25663" lon="-2.32426">
        <ele>-0.40000000596046</ele>
        <time>2021-02-28T08:32:30.000Z</time>
      </trkpt>
      <trkpt lat="47.25661" lon="-2.32431">
        <ele>-0.40000000596046</ele>
        <time>2021-02-28T08:32:31.000Z</time>
      </trkpt>
      <trkpt lat="47.25661" lon="-2.32443">
        <ele>-0.40000000596046</ele>
        <time>2021-02-28T08:32:33.000Z</time>
      </trkpt>
      <trkpt lat="47.25667" lon="-2.32465">
        <ele>-0.40000000596046</ele>
        <time>2021-02-28T08:32:37.000Z</time>
      </trkpt>
      <trkpt lat="47.25669" lon="-2.32471">
        <ele>-0.40000000596046</ele>
        <time>2021-02-28T08:32:38.000Z</time>
      </trkpt>
      <trkpt lat="47.25682" lon="-2.32508">
        <ele>7.4</ele>
        <time>2021-02-28T08:32:45.000Z</time>
      </trkpt>
      <trkpt lat="47.25684" lon="-2.32513">
        <ele>0.60000002384186</ele>
        <time>2021-02-28T08:32:46.000Z</time>
      </trkpt>
      <trkpt lat="47.25685" lon="-2.32518">
        <ele>1</ele>
        <time>2021-02-28T08:32:47.000Z</time>
      </trkpt>
      <trkpt lat="47.25687" lon="-2.32523">
        <ele>1.3999999761581</ele>
        <time>2021-02-28T08:32:48.000Z</time>
      </trkpt>
      <trkpt lat="47.25689" lon="-2.32529">
        <ele>1.7999999523163</ele>
        <time>2021-02-28T08:32:49.000Z</time>
      </trkpt>
      <trkpt lat="47.25698" lon="-2.32555">
        <ele>1.7999999523163</ele>
        <time>2021-02-28T08:32:54.000Z</time>
      </trkpt>
      <trkpt lat="47.25708" lon="-2.32589">
        <ele>2.2000000476837</ele>
        <time>2021-02-28T08:33:01.000Z</time>
      </trkpt>
      <trkpt lat="47.2571" lon="-2.32595">
        <ele>2.5999999046326</ele>
        <time>2021-02-28T08:33:02.000Z</time>
      </trkpt>
      <trkpt lat="47.2571" lon="-2.326">
        <ele>3.2000000476837</ele>
        <time>2021-02-28T08:33:03.000Z</time>
      </trkpt>
      <trkpt lat="47.25712" lon="-2.32606">
        <ele>3.5999999046326</ele>
        <time>2021-02-28T08:33:04.000Z</time>
      </trkpt>
      <trkpt lat="47.25712" lon="-2.32612">
        <ele>4</ele>
        <time>2021-02-28T08:33:05.000Z</time>
      </trkpt>
      <trkpt lat="47.2571" lon="-2.32623">
        <ele>4</ele>
        <time>2021-02-28T08:33:07.000Z</time>
      </trkpt>
      <trkpt lat="47.25699" lon="-2.32629">
        <ele>4</ele>
        <time>2021-02-28T08:33:10.000Z</time>
      </trkpt>
      <trkpt lat="47.25695" lon="-2.32631">
        <ele>4</ele>
        <time>2021-02-28T08:33:11.000Z</time>
      </trkpt>
      <trkpt lat="47.25668" lon="-2.32641">
        <ele>4</ele>
        <time>2021-02-28T08:33:18.000Z</time>
      </trkpt>
      <trkpt lat="47.25654" lon="-2.32648">
        <ele>4.4000000953674</ele>
        <time>2021-02-28T08:33:22.000Z</time>
      </trkpt>
      <trkpt lat="47.2565" lon="-2.3265">
        <ele>4.8000001907349</ele>
        <time>2021-02-28T08:33:23.000Z</time>
      </trkpt>
      <trkpt lat="47.25646" lon="-2.32651">
        <ele>5.1999998092651</ele>
        <time>2021-02-28T08:33:24.000Z</time>
      </trkpt>
      <trkpt lat="47.25643" lon="-2.32653">
        <ele>5.5999999046326</ele>
        <time>2021-02-28T08:33:25.000Z</time>
      </trkpt>
      <trkpt lat="47.25639" lon="-2.32654">
        <ele>6</ele>
        <time>2021-02-28T08:33:26.000Z</time>
      </trkpt>
      <trkpt lat="47.25635" lon="-2.32656">
        <ele>6</ele>
        <time>2021-02-28T08:33:27.000Z</time>
      </trkpt>
      <trkpt lat="47.25608" lon="-2.32667">
        <ele>6</ele>
        <time>2021-02-28T08:33:34.000Z</time>
      </trkpt>
      <trkpt lat="47.25576" lon="-2.32679">
        <ele>6</ele>
        <time>2021-02-28T08:33:42.000Z</time>
      </trkpt>
      <trkpt lat="47.25551" lon="-2.32689">
        <ele>6</ele>
        <time>2021-02-28T08:33:48.000Z</time>
      </trkpt>
      <trkpt lat="47.25524" lon="-2.32699">
        <ele>6</ele>
        <time>2021-02-28T08:33:54.000Z</time>
      </trkpt>
      <trkpt lat="47.25499" lon="-2.32702">
        <ele>6</ele>
        <time>2021-02-28T08:34:00.000Z</time>
      </trkpt>
      <trkpt lat="47.25486" lon="-2.32705">
        <ele>6</ele>
        <time>2021-02-28T08:34:03.000Z</time>
      </trkpt>
      <trkpt lat="47.25474" lon="-2.32715">
        <ele>6</ele>
        <time>2021-02-28T08:34:06.000Z</time>
      </trkpt>
      <trkpt lat="47.25471" lon="-2.32719">
        <ele>6</ele>
        <time>2021-02-28T08:34:07.000Z</time>
      </trkpt>
      <trkpt lat="47.25446" lon="-2.32754">
        <ele>6</ele>
        <time>2021-02-28T08:34:14.000Z</time>
      </trkpt>
      <trkpt lat="47.25437" lon="-2.32768">
        <ele>6</ele>
        <time>2021-02-28T08:34:18.000Z</time>
      </trkpt>
      <trkpt lat="47.25428" lon="-2.32789">
        <ele>6</ele>
        <time>2021-02-28T08:34:23.000Z</time>
      </trkpt>
      <trkpt lat="47.25422" lon="-2.32797">
        <ele>6</ele>
        <time>2021-02-28T08:34:25.000Z</time>
      </trkpt>
      <trkpt lat="47.25411" lon="-2.32814">
        <ele>6</ele>
        <time>2021-02-28T08:34:28.000Z</time>
      </trkpt>
      <trkpt lat="47.25399" lon="-2.3283">
        <ele>6</ele>
        <time>2021-02-28T08:34:31.000Z</time>
      </trkpt>
      <trkpt lat="47.25378" lon="-2.32855">
        <ele>6</ele>
        <time>2021-02-28T08:34:36.000Z</time>
      </trkpt>
      <trkpt lat="47.25345" lon="-2.32888">
        <ele>6</ele>
        <time>2021-02-28T08:34:44.000Z</time>
      </trkpt>
      <trkpt lat="47.2531" lon="-2.32926">
        <ele>6</ele>
        <time>2021-02-28T08:34:53.000Z</time>
      </trkpt>
      <trkpt lat="47.25307" lon="-2.32948">
        <ele>6</ele>
        <time>2021-02-28T08:34:56.000Z</time>
      </trkpt>
      <trkpt lat="47.25316" lon="-2.32975">
        <ele>6</ele>
        <time>2021-02-28T08:35:00.000Z</time>
      </trkpt>
      <trkpt lat="47.25338" lon="-2.33026">
        <ele>6</ele>
        <time>2021-02-28T08:35:08.000Z</time>
      </trkpt>
      <trkpt lat="47.25353" lon="-2.33062">
        <ele>6</ele>
        <time>2021-02-28T08:35:14.000Z</time>
      </trkpt>
      <trkpt lat="47.25363" lon="-2.33085">
        <ele>5.5999999046326</ele>
        <time>2021-02-28T08:35:20.000Z</time>
      </trkpt>
      <trkpt lat="47.25364" lon="-2.33086">
        <ele>5.1999998092651</ele>
        <time>2021-02-28T08:35:21.000Z</time>
      </trkpt>
      <trkpt lat="47.25364" lon="-2.33086">
        <ele>4.8000001907349</ele>
        <time>2021-02-28T08:35:22.000Z</time>
      </trkpt>
      <trkpt lat="47.25364" lon="-2.33086">
        <ele>4.4000000953674</ele>
        <time>2021-02-28T08:35:23.000Z</time>
      </trkpt>
      <trkpt lat="47.25373" lon="-2.33113">
        <ele>4</ele>
        <time>2021-02-28T08:37:57.000Z</time>
      </trkpt>
      <trkpt lat="47.25381" lon="-2.33133">
        <ele>4</ele>
        <time>2021-02-28T08:38:04.000Z</time>
      </trkpt>
      <trkpt lat="47.25383" lon="-2.33137">
        <ele>4</ele>
        <time>2021-02-28T08:38:06.000Z</time>
      </trkpt>
      <trkpt lat="47.25388" lon="-2.33136">
        <ele>4</ele>
        <time>2021-02-28T08:38:09.000Z</time>
      </trkpt>
      <trkpt lat="47.25396" lon="-2.33129">
        <ele>4</ele>
        <time>2021-02-28T08:38:14.000Z</time>
      </trkpt>
      <trkpt lat="47.25398" lon="-2.33128">
        <ele>4</ele>
        <time>2021-02-28T08:38:16.000Z</time>
      </trkpt>
      <trkpt lat="47.25412" lon="-2.33123">
        <ele>4</ele>
        <time>2021-02-28T08:38:22.000Z</time>
      </trkpt>
      <trkpt lat="47.25433" lon="-2.33114">
        <ele>4</ele>
        <time>2021-02-28T08:38:30.000Z</time>
      </trkpt>
      <trkpt lat="47.25452" lon="-2.33106">
        <ele>4</ele>
        <time>2021-02-28T08:38:38.000Z</time>
      </trkpt>
      <trkpt lat="47.25471" lon="-2.33097">
        <ele>4</ele>
        <time>2021-02-28T08:38:45.000Z</time>
      </trkpt>
      <trkpt lat="47.25491" lon="-2.33081">
        <ele>4</ele>
        <time>2021-02-28T08:38:53.000Z</time>
      </trkpt>
      <trkpt lat="47.25494" lon="-2.3308">
        <ele>4</ele>
        <time>2021-02-28T08:38:54.000Z</time>
      </trkpt>
      <trkpt lat="47.25499" lon="-2.33085">
        <ele>4</ele>
        <time>2021-02-28T08:38:56.000Z</time>
      </trkpt>
      <trkpt lat="47.25501" lon="-2.33097">
        <ele>4</ele>
        <time>2021-02-28T08:38:59.000Z</time>
      </trkpt>
      <trkpt lat="47.25501" lon="-2.33102">
        <ele>4</ele>
        <time>2021-02-28T08:39:00.000Z</time>
      </trkpt>
      <trkpt lat="47.25506" lon="-2.33135">
        <ele>4</ele>
        <time>2021-02-28T08:39:07.000Z</time>
      </trkpt>
      <trkpt lat="47.25513" lon="-2.33187">
        <ele>4</ele>
        <time>2021-02-28T08:39:17.000Z</time>
      </trkpt>
      <trkpt lat="47.25518" lon="-2.3323">
        <ele>4</ele>
        <time>2021-02-28T08:39:25.000Z</time>
      </trkpt>
      <trkpt lat="47.25524" lon="-2.33271">
        <ele>4</ele>
        <time>2021-02-28T08:39:33.000Z</time>
      </trkpt>
      <trkpt lat="47.25526" lon="-2.33283">
        <ele>4</ele>
        <time>2021-02-28T08:39:35.000Z</time>
      </trkpt>
      <trkpt lat="47.25528" lon="-2.33311">
        <ele>4</ele>
        <time>2021-02-28T08:39:39.000Z</time>
      </trkpt>
      <trkpt lat="47.25535" lon="-2.33364">
        <ele>4</ele>
        <time>2021-02-28T08:39:46.000Z</time>
      </trkpt>
      <trkpt lat="47.25548" lon="-2.33426">
        <ele>4</ele>
        <time>2021-02-28T08:39:54.000Z</time>
      </trkpt>
      <trkpt lat="47.25565" lon="-2.3347">
        <ele>4</ele>
        <time>2021-02-28T08:40:00.000Z</time>
      </trkpt>
      <trkpt lat="47.25592" lon="-2.33515">
        <ele>4</ele>
        <time>2021-02-28T08:40:07.000Z</time>
      </trkpt>
      <trkpt lat="47.25619" lon="-2.33545">
        <ele>4</ele>
        <time>2021-02-28T08:40:13.000Z</time>
      </trkpt>
      <trkpt lat="47.25655" lon="-2.33568">
        <ele>4</ele>
        <time>2021-02-28T08:40:20.000Z</time>
      </trkpt>
      <trkpt lat="47.25694" lon="-2.33579">
        <ele>4</ele>
        <time>2021-02-28T08:40:27.000Z</time>
      </trkpt>
      <trkpt lat="47.25733" lon="-2.33577">
        <ele>4</ele>
        <time>2021-02-28T08:40:34.000Z</time>
      </trkpt>
      <trkpt lat="47.25755" lon="-2.33576">
        <ele>4</ele>
        <time>2021-02-28T08:40:38.000Z</time>
      </trkpt>
      <trkpt lat="47.25766" lon="-2.33575">
        <ele>4</ele>
        <time>2021-02-28T08:40:40.000Z</time>
      </trkpt>
      <trkpt lat="47.25808" lon="-2.33572">
        <ele>4</ele>
        <time>2021-02-28T08:40:48.000Z</time>
      </trkpt>
      <trkpt lat="47.25845" lon="-2.3357">
        <ele>4</ele>
        <time>2021-02-28T08:40:56.000Z</time>
      </trkpt>
      <trkpt lat="47.25874" lon="-2.33565">
        <ele>4</ele>
        <time>2021-02-28T08:41:03.000Z</time>
      </trkpt>
      <trkpt lat="47.25878" lon="-2.33563">
        <ele>4</ele>
        <time>2021-02-28T08:41:04.000Z</time>
      </trkpt>
      <trkpt lat="47.25897" lon="-2.33553">
        <ele>4</ele>
        <time>2021-02-28T08:41:08.000Z</time>
      </trkpt>
      <trkpt lat="47.25906" lon="-2.33545">
        <ele>4</ele>
        <time>2021-02-28T08:41:10.000Z</time>
      </trkpt>
      <trkpt lat="47.25932" lon="-2.3352">
        <ele>3.2000000476837</ele>
        <time>2021-02-28T08:41:13.000Z</time>
      </trkpt>
      <trkpt lat="47.25937" lon="-2.33516">
        <ele>2.7999999523163</ele>
        <time>2021-02-28T08:41:16.000Z</time>
      </trkpt>
      <trkpt lat="47.25941" lon="-2.33512">
        <ele>2.4000000953674</ele>
        <time>2021-02-28T08:41:17.000Z</time>
      </trkpt>
      <trkpt lat="47.25945" lon="-2.33509">
        <ele>2</ele>
        <time>2021-02-28T08:41:18.000Z</time>
      </trkpt>
      <trkpt lat="47.2596" lon="-2.33495">
        <ele>2</ele>
        <time>2021-02-28T08:41:23.000Z</time>
      </trkpt>
      <trkpt lat="47.25963" lon="-2.33492">
        <ele>2</ele>
        <time>2021-02-28T08:41:24.000Z</time>
      </trkpt>
      <trkpt lat="47.25974" lon="-2.33493">
        <ele>2</ele>
        <time>2021-02-28T08:41:26.000Z</time>
      </trkpt>
      <trkpt lat="47.25985" lon="-2.33491">
        <ele>2</ele>
        <time>2021-02-28T08:41:28.000Z</time>
      </trkpt>
      <trkpt lat="47.26002" lon="-2.33489">
        <ele>2</ele>
        <time>2021-02-28T08:41:31.000Z</time>
      </trkpt>
      <trkpt lat="47.26036" lon="-2.33474">
        <ele>2</ele>
        <time>2021-02-28T08:41:38.000Z</time>
      </trkpt>
      <trkpt lat="47.26045" lon="-2.33454">
        <ele>2</ele>
        <time>2021-02-28T08:41:42.000Z</time>
      </trkpt>
      <trkpt lat="47.26061" lon="-2.33432">
        <ele>2</ele>
        <time>2021-02-28T08:41:47.000Z</time>
      </trkpt>
      <trkpt lat="47.26069" lon="-2.33414">
        <ele>2</ele>
        <time>2021-02-28T08:41:50.000Z</time>
      </trkpt>
      <trkpt lat="47.26074" lon="-2.33404">
        <ele>2</ele>
        <time>2021-02-28T08:41:52.000Z</time>
      </trkpt>
      <trkpt lat="47.26092" lon="-2.33398">
        <ele>2</ele>
        <time>2021-02-28T08:41:56.000Z</time>
      </trkpt>
      <trkpt lat="47.26109" lon="-2.33408">
        <ele>2</ele>
        <time>2021-02-28T08:42:00.000Z</time>
      </trkpt>
      <trkpt lat="47.26118" lon="-2.33423">
        <ele>2</ele>
        <time>2021-02-28T08:42:03.000Z</time>
      </trkpt>
      <trkpt lat="47.26124" lon="-2.33431">
        <ele>2</ele>
        <time>2021-02-28T08:42:05.000Z</time>
      </trkpt>
      <trkpt lat="47.26137" lon="-2.33437">
        <ele>2</ele>
        <time>2021-02-28T08:42:09.000Z</time>
      </trkpt>
      <trkpt lat="47.26142" lon="-2.33433">
        <ele>2</ele>
        <time>2021-02-28T08:42:10.000Z</time>
      </trkpt>
      <trkpt lat="47.26158" lon="-2.33435">
        <ele>2</ele>
        <time>2021-02-28T08:42:14.000Z</time>
      </trkpt>
      <trkpt lat="47.26168" lon="-2.33438">
        <ele>2</ele>
        <time>2021-02-28T08:42:16.000Z</time>
      </trkpt>
      <trkpt lat="47.26179" lon="-2.3344">
        <ele>2</ele>
        <time>2021-02-28T08:42:18.000Z</time>
      </trkpt>
      <trkpt lat="47.26184" lon="-2.33441">
        <ele>2</ele>
        <time>2021-02-28T08:42:19.000Z</time>
      </trkpt>
      <trkpt lat="47.26216" lon="-2.33436">
        <ele>2</ele>
        <time>2021-02-28T08:42:25.000Z</time>
      </trkpt>
      <trkpt lat="47.2626" lon="-2.33428">
        <ele>2</ele>
        <time>2021-02-28T08:42:33.000Z</time>
      </trkpt>
      <trkpt lat="47.2628" lon="-2.33423">
        <ele>1.6000000238419</ele>
        <time>2021-02-28T08:42:37.000Z</time>
      </trkpt>
      <trkpt lat="47.26285" lon="-2.33422">
        <ele>1.2000000476837</ele>
        <time>2021-02-28T08:42:38.000Z</time>
      </trkpt>
      <trkpt lat="47.2629" lon="-2.33421">
        <ele>0.80000001192093</ele>
        <time>2021-02-28T08:42:39.000Z</time>
      </trkpt>
      <trkpt lat="47.26296" lon="-2.3342">
        <ele>0.20000000298023</ele>
        <time>2021-02-28T08:42:40.000Z</time>
      </trkpt>
      <trkpt lat="47.26301" lon="-2.33419">
        <ele>-0.20000000298023</ele>
        <time>2021-02-28T08:42:41.000Z</time>
      </trkpt>
      <trkpt lat="47.26315" lon="-2.33413">
        <ele>-0.20000000298023</ele>
        <time>2021-02-28T08:42:44.000Z</time>
      </trkpt>
      <trkpt lat="47.26322" lon="-2.33404">
        <ele>-0.20000000298023</ele>
        <time>2021-02-28T08:42:46.000Z</time>
      </trkpt>
      <trkpt lat="47.2634" lon="-2.33392">
        <ele>-0.20000000298023</ele>
        <time>2021-02-28T08:42:50.000Z</time>
      </trkpt>
      <trkpt lat="47.26345" lon="-2.3339">
        <ele>-0.20000000298023</ele>
        <time>2021-02-28T08:42:51.000Z</time>
      </trkpt>
      <trkpt lat="47.26382" lon="-2.33371">
        <ele>-0.20000000298023</ele>
        <time>2021-02-28T08:42:59.000Z</time>
      </trkpt>
      <trkpt lat="47.26418" lon="-2.33349">
        <ele>-0.20000000298023</ele>
        <time>2021-02-28T08:43:08.000Z</time>
      </trkpt>
      <trkpt lat="47.2643" lon="-2.3334">
        <ele>-0.20000000298023</ele>
        <time>2021-02-28T08:43:11.000Z</time>
      </trkpt>
      <trkpt lat="47.26449" lon="-2.33326">
        <ele>-0.20000000298023</ele>
        <time>2021-02-28T08:43:16.000Z</time>
      </trkpt>
      <trkpt lat="47.26475" lon="-2.33302">
        <ele>-0.20000000298023</ele>
        <time>2021-02-28T08:43:23.000Z</time>
      </trkpt>
      <trkpt lat="47.26477" lon="-2.33296">
        <ele>-0.20000000298023</ele>
        <time>2021-02-28T08:43:24.000Z</time>
      </trkpt>
      <trkpt lat="47.26493" lon="-2.33255">
        <ele>-0.20000000298023</ele>
        <time>2021-02-28T08:43:31.000Z</time>
      </trkpt>
      <trkpt lat="47.26497" lon="-2.3325">
        <ele>-0.20000000298023</ele>
        <time>2021-02-28T08:43:32.000Z</time>
      </trkpt>
      <trkpt lat="47.26511" lon="-2.33233">
        <ele>-0.20000000298023</ele>
        <time>2021-02-28T08:43:36.000Z</time>
      </trkpt>
      <trkpt lat="47.26543" lon="-2.33212">
        <ele>-0.20000000298023</ele>
        <time>2021-02-28T08:43:43.000Z</time>
      </trkpt>
      <trkpt lat="47.26582" lon="-2.33186">
        <ele>-0.20000000298023</ele>
        <time>2021-02-28T08:43:51.000Z</time>
      </trkpt>
      <trkpt lat="47.26586" lon="-2.3318">
        <ele>-0.20000000298023</ele>
        <time>2021-02-28T08:43:52.000Z</time>
      </trkpt>
      <trkpt lat="47.26591" lon="-2.33167">
        <ele>-0.20000000298023</ele>
        <time>2021-02-28T08:43:54.000Z</time>
      </trkpt>
      <trkpt lat="47.26593" lon="-2.33152">
        <ele>-0.20000000298023</ele>
        <time>2021-02-28T08:43:56.000Z</time>
      </trkpt>
      <trkpt lat="47.26596" lon="-2.33147">
        <ele>-0.20000000298023</ele>
        <time>2021-02-28T08:43:57.000Z</time>
      </trkpt>
      <trkpt lat="47.266" lon="-2.33144">
        <ele>-0.20000000298023</ele>
        <time>2021-02-28T08:43:58.000Z</time>
      </trkpt>
      <trkpt lat="47.26613" lon="-2.33145">
        <ele>-0.20000000298023</ele>
        <time>2021-02-28T08:44:01.000Z</time>
      </trkpt>
      <trkpt lat="47.26623" lon="-2.33149">
        <ele>-0.20000000298023</ele>
        <time>2021-02-28T08:44:03.000Z</time>
      </trkpt>
      <trkpt lat="47.26632" lon="-2.3315">
        <ele>-0.20000000298023</ele>
        <time>2021-02-28T08:44:05.000Z</time>
      </trkpt>
      <trkpt lat="47.26637" lon="-2.33148">
        <ele>-0.20000000298023</ele>
        <time>2021-02-28T08:44:06.000Z</time>
      </trkpt>
      <trkpt lat="47.26656" lon="-2.33136">
        <ele>-0.20000000298023</ele>
        <time>2021-02-28T08:44:10.000Z</time>
      </trkpt>
      <trkpt lat="47.2666" lon="-2.33132">
        <ele>-0.20000000298023</ele>
        <time>2021-02-28T08:44:11.000Z</time>
      </trkpt>
      <trkpt lat="47.26686" lon="-2.33109">
        <ele>-0.20000000298023</ele>
        <time>2021-02-28T08:44:18.000Z</time>
      </trkpt>
      <trkpt lat="47.2671" lon="-2.33085">
        <ele>-0.20000000298023</ele>
        <time>2021-02-28T08:44:26.000Z</time>
      </trkpt>
      <trkpt lat="47.2672" lon="-2.3307">
        <ele>-0.20000000298023</ele>
        <time>2021-02-28T08:44:32.000Z</time>
      </trkpt>
      <trkpt lat="47.26726" lon="-2.33056">
        <ele>-0.20000000298023</ele>
        <time>2021-02-28T08:44:39.000Z</time>
      </trkpt>
      <trkpt lat="47.2673" lon="-2.3304">
        <ele>-0.20000000298023</ele>
        <time>2021-02-28T08:44:47.000Z</time>
      </trkpt>
      <trkpt lat="47.26732" lon="-2.33038">
        <ele>-0.20000000298023</ele>
        <time>2021-02-28T08:44:49.000Z</time>
      </trkpt>
      <trkpt lat="47.26734" lon="-2.33042">
        <ele>-0.20000000298023</ele>
        <time>2021-02-28T08:44:51.000Z</time>
      </trkpt>
      <trkpt lat="47.26732" lon="-2.33056">
        <ele>-0.20000000298023</ele>
        <time>2021-02-28T08:44:55.000Z</time>
      </trkpt>
      <trkpt lat="47.26738" lon="-2.33065">
        <ele>-0.20000000298023</ele>
        <time>2021-02-28T08:44:58.000Z</time>
      </trkpt>
      <trkpt lat="47.26741" lon="-2.33067">
        <ele>-0.20000000298023</ele>
        <time>2021-02-28T08:45:00.000Z</time>
      </trkpt>
      <trkpt lat="47.26744" lon="-2.33066">
        <ele>-0.20000000298023</ele>
        <time>2021-02-28T08:45:01.000Z</time>
      </trkpt>
      <trkpt lat="47.26746" lon="-2.33064">
        <ele>-0.20000000298023</ele>
        <time>2021-02-28T08:45:02.000Z</time>
      </trkpt>
      <trkpt lat="47.26765" lon="-2.33045">
        <ele>-0.20000000298023</ele>
        <time>2021-02-28T08:45:08.000Z</time>
      </trkpt>
      <trkpt lat="47.26789" lon="-2.3302">
        <ele>-0.20000000298023</ele>
        <time>2021-02-28T08:45:14.000Z</time>
      </trkpt>
      <trkpt lat="47.26818" lon="-2.32991">
        <ele>-0.20000000298023</ele>
        <time>2021-02-28T08:45:21.000Z</time>
      </trkpt>
      <trkpt lat="47.26822" lon="-2.32988">
        <ele>0.40000000596046</ele>
        <time>2021-02-28T08:45:22.000Z</time>
      </trkpt>
      <trkpt lat="47.26825" lon="-2.32985">
        <ele>0.80000001192093</ele>
        <time>2021-02-28T08:45:23.000Z</time>
      </trkpt>
      <trkpt lat="47.26828" lon="-2.32982">
        <ele>1.3999999761581</ele>
        <time>2021-02-28T08:45:24.000Z</time>
      </trkpt>
      <trkpt lat="47.26831" lon="-2.32978">
        <ele>1.7999999523163</ele>
        <time>2021-02-28T08:45:25.000Z</time>
      </trkpt>
      <trkpt lat="47.26835" lon="-2.32975">
        <ele>2.4000000953674</ele>
        <time>2021-02-28T08:45:26.000Z</time>
      </trkpt>
      <trkpt lat="47.26842" lon="-2.32969">
        <ele>2.4000000953674</ele>
        <time>2021-02-28T08:45:28.000Z</time>
      </trkpt>
      <trkpt lat="47.26869" lon="-2.32945">
        <ele>2.4000000953674</ele>
        <time>2021-02-28T08:45:35.000Z</time>
      </trkpt>
      <trkpt lat="47.26898" lon="-2.32917">
        <ele>2.4000000953674</ele>
        <time>2021-02-28T08:45:43.000Z</time>
      </trkpt>
      <trkpt lat="47.26918" lon="-2.32899">
        <ele>2.4000000953674</ele>
        <time>2021-02-28T08:45:49.000Z</time>
      </trkpt>
      <trkpt lat="47.26938" lon="-2.32878">
        <ele>2.4000000953674</ele>
        <time>2021-02-28T08:45:55.000Z</time>
      </trkpt>
      <trkpt lat="47.2697" lon="-2.32851">
        <ele>2.4000000953674</ele>
        <time>2021-02-28T08:46:03.000Z</time>
      </trkpt>
      <trkpt lat="47.27005" lon="-2.3282">
        <ele>2.4000000953674</ele>
        <time>2021-02-28T08:46:12.000Z</time>
      </trkpt>
      <trkpt lat="47.27037" lon="-2.3279">
        <ele>2.4000000953674</ele>
        <time>2021-02-28T08:46:20.000Z</time>
      </trkpt>
      <trkpt lat="47.27063" lon="-2.32768">
        <ele>2.4000000953674</ele>
        <time>2021-02-28T08:46:27.000Z</time>
      </trkpt>
      <trkpt lat="47.27079" lon="-2.32753">
        <ele>2.4000000953674</ele>
        <time>2021-02-28T08:46:34.000Z</time>
      </trkpt>
      <trkpt lat="47.27104" lon="-2.32729">
        <ele>2.4000000953674</ele>
        <time>2021-02-28T08:46:41.000Z</time>
      </trkpt>
      <trkpt lat="47.27131" lon="-2.32705">
        <ele>2.4000000953674</ele>
        <time>2021-02-28T08:46:48.000Z</time>
      </trkpt>
      <trkpt lat="47.27134" lon="-2.327">
        <ele>2.4000000953674</ele>
        <time>2021-02-28T08:46:49.000Z</time>
      </trkpt>
      <trkpt lat="47.27144" lon="-2.32686">
        <ele>2.4000000953674</ele>
        <time>2021-02-28T08:46:52.000Z</time>
      </trkpt>
      <trkpt lat="47.27147" lon="-2.32684">
        <ele>2.4000000953674</ele>
        <time>2021-02-28T08:46:53.000Z</time>
      </trkpt>
      <trkpt lat="47.27151" lon="-2.3268">
        <ele>2.4000000953674</ele>
        <time>2021-02-28T08:46:54.000Z</time>
      </trkpt>
      <trkpt lat="47.27165" lon="-2.32666">
        <ele>2.7999999523163</ele>
        <time>2021-02-28T08:46:58.000Z</time>
      </trkpt>
      <trkpt lat="47.27169" lon="-2.32662">
        <ele>3.2000000476837</ele>
        <time>2021-02-28T08:46:59.000Z</time>
      </trkpt>
      <trkpt lat="47.27173" lon="-2.32659">
        <ele>3.5999999046326</ele>
        <time>2021-02-28T08:47:00.000Z</time>
      </trkpt>
      <trkpt lat="47.27176" lon="-2.32655">
        <ele>4</ele>
        <time>2021-02-28T08:47:01.000Z</time>
      </trkpt>
      <trkpt lat="47.2718" lon="-2.32652">
        <ele>4.4000000953674</ele>
        <time>2021-02-28T08:47:02.000Z</time>
      </trkpt>
      <trkpt lat="47.27196" lon="-2.32637">
        <ele>4.4000000953674</ele>
        <time>2021-02-28T08:47:06.000Z</time>
      </trkpt>
      <trkpt lat="47.27233" lon="-2.326">
        <ele>4.4000000953674</ele>
        <time>2021-02-28T08:47:15.000Z</time>
      </trkpt>
      <trkpt lat="47.27264" lon="-2.32567">
        <ele>4.4000000953674</ele>
        <time>2021-02-28T08:47:23.000Z</time>
      </trkpt>
      <trkpt lat="47.27291" lon="-2.32532">
        <ele>4.4000000953674</ele>
        <time>2021-02-28T08:47:30.000Z</time>
      </trkpt>
      <trkpt lat="47.27313" lon="-2.32496">
        <ele>4.4000000953674</ele>
        <time>2021-02-28T08:47:37.000Z</time>
      </trkpt>
      <trkpt lat="47.27325" lon="-2.32473">
        <ele>4.4000000953674</ele>
        <time>2021-02-28T08:47:41.000Z</time>
      </trkpt>
      <trkpt lat="47.27332" lon="-2.3246">
        <ele>4.4000000953674</ele>
        <time>2021-02-28T08:47:43.000Z</time>
      </trkpt>
      <trkpt lat="47.27352" lon="-2.32412">
        <ele>4.4000000953674</ele>
        <time>2021-02-28T08:47:50.000Z</time>
      </trkpt>
      <trkpt lat="47.27361" lon="-2.32372">
        <ele>4.4000000953674</ele>
        <time>2021-02-28T08:47:56.000Z</time>
      </trkpt>
      <trkpt lat="47.27366" lon="-2.3234">
        <ele>4.4000000953674</ele>
        <time>2021-02-28T08:48:02.000Z</time>
      </trkpt>
      <trkpt lat="47.27376" lon="-2.32298">
        <ele>4.4000000953674</ele>
        <time>2021-02-28T08:48:09.000Z</time>
      </trkpt>
      <trkpt lat="47.27387" lon="-2.3225">
        <ele>4.4000000953674</ele>
        <time>2021-02-28T08:48:16.000Z</time>
      </trkpt>
      <trkpt lat="47.27394" lon="-2.32209">
        <ele>4.4000000953674</ele>
        <time>2021-02-28T08:48:21.000Z</time>
      </trkpt>
      <trkpt lat="47.27396" lon="-2.32183">
        <ele>4.4000000953674</ele>
        <time>2021-02-28T08:48:24.000Z</time>
      </trkpt>
      <trkpt lat="47.27401" lon="-2.3215">
        <ele>4</ele>
        <time>2021-02-28T08:48:28.000Z</time>
      </trkpt>
      <trkpt lat="47.27402" lon="-2.32143">
        <ele>3.5999999046326</ele>
        <time>2021-02-28T08:48:29.000Z</time>
      </trkpt>
      <trkpt lat="47.27403" lon="-2.32135">
        <ele>3.2000000476837</ele>
        <time>2021-02-28T08:48:30.000Z</time>
      </trkpt>
      <trkpt lat="47.27404" lon="-2.32128">
        <ele>2.7999999523163</ele>
        <time>2021-02-28T08:48:31.000Z</time>
      </trkpt>
      <trkpt lat="47.27405" lon="-2.32121">
        <ele>2.4000000953674</ele>
        <time>2021-02-28T08:48:32.000Z</time>
      </trkpt>
      <trkpt lat="47.27406" lon="-2.321">
        <ele>2.4000000953674</ele>
        <time>2021-02-28T08:48:35.000Z</time>
      </trkpt>
      <trkpt lat="47.27399" lon="-2.32075">
        <ele>2.4000000953674</ele>
        <time>2021-02-28T08:48:39.000Z</time>
      </trkpt>
      <trkpt lat="47.27393" lon="-2.32066">
        <ele>2.4000000953674</ele>
        <time>2021-02-28T08:48:41.000Z</time>
      </trkpt>
      <trkpt lat="47.27385" lon="-2.32055">
        <ele>2.4000000953674</ele>
        <time>2021-02-28T08:48:44.000Z</time>
      </trkpt>
      <trkpt lat="47.27367" lon="-2.32032">
        <ele>2.4000000953674</ele>
        <time>2021-02-28T08:48:50.000Z</time>
      </trkpt>
      <trkpt lat="47.27361" lon="-2.32023">
        <ele>2.4000000953674</ele>
        <time>2021-02-28T08:48:54.000Z</time>
      </trkpt>
      <trkpt lat="47.27353" lon="-2.32017">
        <ele>2.4000000953674</ele>
        <time>2021-02-28T08:49:00.000Z</time>
      </trkpt>
      <trkpt lat="47.27349" lon="-2.32006">
        <ele>2.4000000953674</ele>
        <time>2021-02-28T08:49:05.000Z</time>
      </trkpt>
      <trkpt lat="47.27353" lon="-2.32003">
        <ele>2.4000000953674</ele>
        <time>2021-02-28T08:51:17.000Z</time>
      </trkpt>
      <trkpt lat="47.27362" lon="-2.3201">
        <ele>2.4000000953674</ele>
        <time>2021-02-28T08:51:22.000Z</time>
      </trkpt>
      <trkpt lat="47.27381" lon="-2.32028">
        <ele>2.4000000953674</ele>
        <time>2021-02-28T08:51:30.000Z</time>
      </trkpt>
      <trkpt lat="47.274" lon="-2.32048">
        <ele>2.4000000953674</ele>
        <time>2021-02-28T08:51:39.000Z</time>
      </trkpt>
      <trkpt lat="47.27402" lon="-2.3205">
        <ele>2.7999999523163</ele>
        <time>2021-02-28T08:51:40.000Z</time>
      </trkpt>
      <trkpt lat="47.27404" lon="-2.32053">
        <ele>3.2000000476837</ele>
        <time>2021-02-28T08:51:41.000Z</time>
      </trkpt>
      <trkpt lat="47.27407" lon="-2.32055">
        <ele>3.5999999046326</ele>
        <time>2021-02-28T08:51:42.000Z</time>
      </trkpt>
      <trkpt lat="47.27409" lon="-2.32057">
        <ele>4</ele>
        <time>2021-02-28T08:51:43.000Z</time>
      </trkpt>
      <trkpt lat="47.27411" lon="-2.32059">
        <ele>4.4000000953674</ele>
        <time>2021-02-28T08:51:44.000Z</time>
      </trkpt>
      <trkpt lat="47.27419" lon="-2.32066">
        <ele>4.4000000953674</ele>
        <time>2021-02-28T08:51:47.000Z</time>
      </trkpt>
      <trkpt lat="47.27432" lon="-2.32082">
        <ele>4.8000001907349</ele>
        <time>2021-02-28T08:51:52.000Z</time>
      </trkpt>
      <trkpt lat="47.27435" lon="-2.32085">
        <ele>5.4000000953674</ele>
        <time>2021-02-28T08:51:53.000Z</time>
      </trkpt>
      <trkpt lat="47.27437" lon="-2.32088">
        <ele>5.8000001907349</ele>
        <time>2021-02-28T08:51:54.000Z</time>
      </trkpt>
      <trkpt lat="47.27439" lon="-2.32091">
        <ele>6.1999998092651</ele>
        <time>2021-02-28T08:51:55.000Z</time>
      </trkpt>
      <trkpt lat="47.27442" lon="-2.32094">
        <ele>6.5999999046326</ele>
        <time>2021-02-28T08:51:56.000Z</time>
      </trkpt>
      <trkpt lat="47.27466" lon="-2.32126">
        <ele>6.5999999046326</ele>
        <time>2021-02-28T08:52:05.000Z</time>
      </trkpt>
      <trkpt lat="47.27494" lon="-2.32164">
        <ele>6.5999999046326</ele>
        <time>2021-02-28T08:52:15.000Z</time>
      </trkpt>
      <trkpt lat="47.27511" lon="-2.32185">
        <ele>6.5999999046326</ele>
        <time>2021-02-28T08:52:21.000Z</time>
      </trkpt>
      <trkpt lat="47.27516" lon="-2.32192">
        <ele>7</ele>
        <time>2021-02-28T08:52:23.000Z</time>
      </trkpt>
      <trkpt lat="47.27519" lon="-2.32196">
        <ele>7.4000000953674</ele>
        <time>2021-02-28T08:52:24.000Z</time>
      </trkpt>
      <trkpt lat="47.27522" lon="-2.32199">
        <ele>7.8000001907349</ele>
        <time>2021-02-28T08:52:25.000Z</time>
      </trkpt>
      <trkpt lat="47.27525" lon="-2.32203">
        <ele>8.3999996185303</ele>
        <time>2021-02-28T08:52:26.000Z</time>
      </trkpt>
      <trkpt lat="47.27528" lon="-2.32206">
        <ele>8.8000001907349</ele>
        <time>2021-02-28T08:52:27.000Z</time>
      </trkpt>
      <trkpt lat="47.27533" lon="-2.32212">
        <ele>8.8000001907349</ele>
        <time>2021-02-28T08:52:29.000Z</time>
      </trkpt>
      <trkpt lat="47.27548" lon="-2.32226">
        <ele>9.1999998092651</ele>
        <time>2021-02-28T08:52:34.000Z</time>
      </trkpt>
      <trkpt lat="47.27552" lon="-2.32228">
        <ele>9.6000003814697</ele>
        <time>2021-02-28T08:52:35.000Z</time>
      </trkpt>
      <trkpt lat="47.27555" lon="-2.32231">
        <ele>10</ele>
        <time>2021-02-28T08:52:36.000Z</time>
      </trkpt>
      <trkpt lat="47.27558" lon="-2.32234">
        <ele>10.39999961853</ele>
        <time>2021-02-28T08:52:37.000Z</time>
      </trkpt>
      <trkpt lat="47.27561" lon="-2.32237">
        <ele>10.800000190735</ele>
        <time>2021-02-28T08:52:38.000Z</time>
      </trkpt>
      <trkpt lat="47.27585" lon="-2.32257">
        <ele>11.199999809265</ele>
        <time>2021-02-28T08:52:46.000Z</time>
      </trkpt>
      <trkpt lat="47.27588" lon="-2.3226">
        <ele>11.60000038147</ele>
        <time>2021-02-28T08:52:47.000Z</time>
      </trkpt>
      <trkpt lat="47.27591" lon="-2.32263">
        <ele>12</ele>
        <time>2021-02-28T08:52:48.000Z</time>
      </trkpt>
      <trkpt lat="47.27594" lon="-2.32265">
        <ele>12.39999961853</ele>
        <time>2021-02-28T08:52:49.000Z</time>
      </trkpt>
      <trkpt lat="47.27596" lon="-2.32268">
        <ele>12.800000190735</ele>
        <time>2021-02-28T08:52:50.000Z</time>
      </trkpt>
      <trkpt lat="47.27609" lon="-2.32273">
        <ele>12.800000190735</ele>
        <time>2021-02-28T08:52:54.000Z</time>
      </trkpt>
      <trkpt lat="47.27612" lon="-2.32272">
        <ele>13.39999961853</ele>
        <time>2021-02-28T08:52:55.000Z</time>
      </trkpt>
      <trkpt lat="47.27615" lon="-2.32271">
        <ele>13.800000190735</ele>
        <time>2021-02-28T08:52:56.000Z</time>
      </trkpt>
      <trkpt lat="47.27618" lon="-2.32268">
        <ele>14.199999809265</ele>
        <time>2021-02-28T08:52:57.000Z</time>
      </trkpt>
      <trkpt lat="47.27621" lon="-2.32265">
        <ele>14.800000190735</ele>
        <time>2021-02-28T08:52:58.000Z</time>
      </trkpt>
      <trkpt lat="47.27624" lon="-2.32262">
        <ele>15.199999809265</ele>
        <time>2021-02-28T08:52:59.000Z</time>
      </trkpt>
      <trkpt lat="47.27629" lon="-2.32248">
        <ele>15.800000190735</ele>
        <time>2021-02-28T08:53:02.000Z</time>
      </trkpt>
      <trkpt lat="47.27631" lon="-2.32244">
        <ele>16.200000762939</ele>
        <time>2021-02-28T08:53:03.000Z</time>
      </trkpt>
      <trkpt lat="47.27633" lon="-2.32239">
        <ele>16.60000038147</ele>
        <time>2021-02-28T08:53:04.000Z</time>
      </trkpt>
      <trkpt lat="47.27635" lon="-2.32234">
        <ele>17.60000038147</ele>
        <time>2021-02-28T08:53:05.000Z</time>
      </trkpt>
      <trkpt lat="47.27644" lon="-2.32202">
        <ele>17.60000038147</ele>
        <time>2021-02-28T08:53:11.000Z</time>
      </trkpt>
      <trkpt lat="47.27659" lon="-2.32152">
        <ele>17.60000038147</ele>
        <time>2021-02-28T08:53:19.000Z</time>
      </trkpt>
      <trkpt lat="47.27669" lon="-2.32116">
        <ele>17.200000762939</ele>
        <time>2021-02-28T08:53:24.000Z</time>
      </trkpt>
      <trkpt lat="47.27672" lon="-2.32109">
        <ele>16.799999237061</ele>
        <time>2021-02-28T08:53:25.000Z</time>
      </trkpt>
      <trkpt lat="47.27674" lon="-2.32101">
        <ele>16.200000762939</ele>
        <time>2021-02-28T08:53:26.000Z</time>
      </trkpt>
      <trkpt lat="47.27677" lon="-2.32094">
        <ele>15.800000190735</ele>
        <time>2021-02-28T08:53:27.000Z</time>
      </trkpt>
      <trkpt lat="47.2768" lon="-2.32087">
        <ele>15.39999961853</ele>
        <time>2021-02-28T08:53:28.000Z</time>
      </trkpt>
      <trkpt lat="47.27684" lon="-2.3208">
        <ele>15.39999961853</ele>
        <time>2021-02-28T08:53:29.000Z</time>
      </trkpt>
      <trkpt lat="47.27695" lon="-2.32072">
        <ele>15</ele>
        <time>2021-02-28T08:53:31.000Z</time>
      </trkpt>
      <trkpt lat="47.27701" lon="-2.3207">
        <ele>14.60000038147</ele>
        <time>2021-02-28T08:53:32.000Z</time>
      </trkpt>
      <trkpt lat="47.27706" lon="-2.32069">
        <ele>14.199999809265</ele>
        <time>2021-02-28T08:53:33.000Z</time>
      </trkpt>
      <trkpt lat="47.27712" lon="-2.32069">
        <ele>13.60000038147</ele>
        <time>2021-02-28T08:53:34.000Z</time>
      </trkpt>
      <trkpt lat="47.27717" lon="-2.32069">
        <ele>13.199999809265</ele>
        <time>2021-02-28T08:53:35.000Z</time>
      </trkpt>
      <trkpt lat="47.27723" lon="-2.3207">
        <ele>13.199999809265</ele>
        <time>2021-02-28T08:53:36.000Z</time>
      </trkpt>
      <trkpt lat="47.27759" lon="-2.32072">
        <ele>13.199999809265</ele>
        <time>2021-02-28T08:53:43.000Z</time>
      </trkpt>
      <trkpt lat="47.27763" lon="-2.32071">
        <ele>13.199999809265</ele>
        <time>2021-02-28T08:53:44.000Z</time>
      </trkpt>
      <trkpt lat="47.27776" lon="-2.32065">
        <ele>13.800000190735</ele>
        <time>2021-02-28T08:53:47.000Z</time>
      </trkpt>
      <trkpt lat="47.2778" lon="-2.32061">
        <ele>14.199999809265</ele>
        <time>2021-02-28T08:53:48.000Z</time>
      </trkpt>
      <trkpt lat="47.27783" lon="-2.32057">
        <ele>14.60000038147</ele>
        <time>2021-02-28T08:53:49.000Z</time>
      </trkpt>
      <trkpt lat="47.27787" lon="-2.32053">
        <ele>15</ele>
        <time>2021-02-28T08:53:50.000Z</time>
      </trkpt>
      <trkpt lat="47.27789" lon="-2.32048">
        <ele>15.39999961853</ele>
        <time>2021-02-28T08:53:51.000Z</time>
      </trkpt>
      <trkpt lat="47.27794" lon="-2.32038">
        <ele>15.39999961853</ele>
        <time>2021-02-28T08:53:53.000Z</time>
      </trkpt>
      <trkpt lat="47.278" lon="-2.32024">
        <ele>15.800000190735</ele>
        <time>2021-02-28T08:53:56.000Z</time>
      </trkpt>
      <trkpt lat="47.27802" lon="-2.3202">
        <ele>16.200000762939</ele>
        <time>2021-02-28T08:53:57.000Z</time>
      </trkpt>
      <trkpt lat="47.27804" lon="-2.32016">
        <ele>16.60000038147</ele>
        <time>2021-02-28T08:53:58.000Z</time>
      </trkpt>
      <trkpt lat="47.27806" lon="-2.32012">
        <ele>17.200000762939</ele>
        <time>2021-02-28T08:53:59.000Z</time>
      </trkpt>
      <trkpt lat="47.27808" lon="-2.32007">
        <ele>17.60000038147</ele>
        <time>2021-02-28T08:54:00.000Z</time>
      </trkpt>
      <trkpt lat="47.27821" lon="-2.31977">
        <ele>17.60000038147</ele>
        <time>2021-02-28T08:54:07.000Z</time>
      </trkpt>
      <trkpt lat="47.27825" lon="-2.31969">
        <ele>18</ele>
        <time>2021-02-28T08:54:09.000Z</time>
      </trkpt>
      <trkpt lat="47.27827" lon="-2.31966">
        <ele>18.39999961853</ele>
        <time>2021-02-28T08:54:10.000Z</time>
      </trkpt>
      <trkpt lat="47.2783" lon="-2.31963">
        <ele>18.799999237061</ele>
        <time>2021-02-28T08:54:11.000Z</time>
      </trkpt>
      <trkpt lat="47.27833" lon="-2.31961">
        <ele>19.200000762939</ele>
        <time>2021-02-28T08:54:12.000Z</time>
      </trkpt>
      <trkpt lat="47.27836" lon="-2.31959">
        <ele>19.60000038147</ele>
        <time>2021-02-28T08:54:13.000Z</time>
      </trkpt>
      <trkpt lat="47.27855" lon="-2.3195">
        <ele>19.60000038147</ele>
        <time>2021-02-28T08:54:18.000Z</time>
      </trkpt>
      <trkpt lat="47.27862" lon="-2.31943">
        <ele>19.60000038147</ele>
        <time>2021-02-28T08:54:20.000Z</time>
      </trkpt>
      <trkpt lat="47.27868" lon="-2.31933">
        <ele>19.60000038147</ele>
        <time>2021-02-28T08:54:22.000Z</time>
      </trkpt>
      <trkpt lat="47.27881" lon="-2.31892">
        <ele>19.60000038147</ele>
        <time>2021-02-28T08:54:29.000Z</time>
      </trkpt>
      <trkpt lat="47.27882" lon="-2.31873">
        <ele>19.60000038147</ele>
        <time>2021-02-28T08:54:32.000Z</time>
      </trkpt>
      <trkpt lat="47.27881" lon="-2.31853">
        <ele>19.60000038147</ele>
        <time>2021-02-28T08:54:35.000Z</time>
      </trkpt>
      <trkpt lat="47.27875" lon="-2.31799">
        <ele>19.60000038147</ele>
        <time>2021-02-28T08:54:43.000Z</time>
      </trkpt>
      <trkpt lat="47.27873" lon="-2.31748">
        <ele>19.60000038147</ele>
        <time>2021-02-28T08:54:51.000Z</time>
      </trkpt>
      <trkpt lat="47.27885" lon="-2.31729">
        <ele>19.60000038147</ele>
        <time>2021-02-28T08:54:55.000Z</time>
      </trkpt>
      <trkpt lat="47.27889" lon="-2.31726">
        <ele>19.60000038147</ele>
        <time>2021-02-28T08:54:56.000Z</time>
      </trkpt>
      <trkpt lat="47.27912" lon="-2.31711">
        <ele>19.60000038147</ele>
        <time>2021-02-28T08:55:01.000Z</time>
      </trkpt>
      <trkpt lat="47.27943" lon="-2.31683">
        <ele>19.60000038147</ele>
        <time>2021-02-28T08:55:08.000Z</time>
      </trkpt>
      <trkpt lat="47.27972" lon="-2.31662">
        <ele>19.60000038147</ele>
        <time>2021-02-28T08:55:14.000Z</time>
      </trkpt>
      <trkpt lat="47.28006" lon="-2.31644">
        <ele>19.200000762939</ele>
        <time>2021-02-28T08:55:20.000Z</time>
      </trkpt>
      <trkpt lat="47.28013" lon="-2.31642">
        <ele>18.799999237061</ele>
        <time>2021-02-28T08:55:21.000Z</time>
      </trkpt>
      <trkpt lat="47.28019" lon="-2.3164">
        <ele>18.39999961853</ele>
        <time>2021-02-28T08:55:22.000Z</time>
      </trkpt>
      <trkpt lat="47.28025" lon="-2.31637">
        <ele>18</ele>
        <time>2021-02-28T08:55:23.000Z</time>
      </trkpt>
      <trkpt lat="47.28031" lon="-2.31635">
        <ele>17.39999961853</ele>
        <time>2021-02-28T08:55:24.000Z</time>
      </trkpt>
      <trkpt lat="47.28061" lon="-2.31626">
        <ele>17</ele>
        <time>2021-02-28T08:55:29.000Z</time>
      </trkpt>
      <trkpt lat="47.28066" lon="-2.31626">
        <ele>16.60000038147</ele>
        <time>2021-02-28T08:55:30.000Z</time>
      </trkpt>
      <trkpt lat="47.28072" lon="-2.31626">
        <ele>16.200000762939</ele>
        <time>2021-02-28T08:55:31.000Z</time>
      </trkpt>
      <trkpt lat="47.28077" lon="-2.31626">
        <ele>15.800000190735</ele>
        <time>2021-02-28T08:55:32.000Z</time>
      </trkpt>
      <trkpt lat="47.28083" lon="-2.31627">
        <ele>15.39999961853</ele>
        <time>2021-02-28T08:55:33.000Z</time>
      </trkpt>
      <trkpt lat="47.28099" lon="-2.31628">
        <ele>15.39999961853</ele>
        <time>2021-02-28T08:55:36.000Z</time>
      </trkpt>
      <trkpt lat="47.28122" lon="-2.31626">
        <ele>16</ele>
        <time>2021-02-28T08:55:40.000Z</time>
      </trkpt>
      <trkpt lat="47.28129" lon="-2.31626">
        <ele>16.39999961853</ele>
        <time>2021-02-28T08:55:41.000Z</time>
      </trkpt>
      <trkpt lat="47.28135" lon="-2.31626">
        <ele>16.799999237061</ele>
        <time>2021-02-28T08:55:42.000Z</time>
      </trkpt>
      <trkpt lat="47.2814" lon="-2.31625">
        <ele>17.200000762939</ele>
        <time>2021-02-28T08:55:43.000Z</time>
      </trkpt>
      <trkpt lat="47.28146" lon="-2.31625">
        <ele>17.60000038147</ele>
        <time>2021-02-28T08:55:44.000Z</time>
      </trkpt>
      <trkpt lat="47.28187" lon="-2.31619">
        <ele>17.60000038147</ele>
        <time>2021-02-28T08:55:52.000Z</time>
      </trkpt>
      <trkpt lat="47.28219" lon="-2.31613">
        <ele>17.60000038147</ele>
        <time>2021-02-28T08:55:59.000Z</time>
      </trkpt>
      <trkpt lat="47.28227" lon="-2.31611">
        <ele>18</ele>
        <time>2021-02-28T08:56:01.000Z</time>
      </trkpt>
      <trkpt lat="47.28231" lon="-2.3161">
        <ele>18.39999961853</ele>
        <time>2021-02-28T08:56:02.000Z</time>
      </trkpt>
      <trkpt lat="47.28235" lon="-2.31609">
        <ele>18.799999237061</ele>
        <time>2021-02-28T08:56:03.000Z</time>
      </trkpt>
      <trkpt lat="47.28239" lon="-2.31608">
        <ele>19.200000762939</ele>
        <time>2021-02-28T08:56:04.000Z</time>
      </trkpt>
      <trkpt lat="47.28243" lon="-2.31607">
        <ele>19.799999237061</ele>
        <time>2021-02-28T08:56:05.000Z</time>
      </trkpt>
      <trkpt lat="47.2825" lon="-2.31605">
        <ele>19.799999237061</ele>
        <time>2021-02-28T08:56:07.000Z</time>
      </trkpt>
      <trkpt lat="47.28283" lon="-2.31595">
        <ele>19.799999237061</ele>
        <time>2021-02-28T08:56:15.000Z</time>
      </trkpt>
      <trkpt lat="47.28304" lon="-2.3159">
        <ele>19.799999237061</ele>
        <time>2021-02-28T08:56:21.000Z</time>
      </trkpt>
      <trkpt lat="47.28327" lon="-2.31587">
        <ele>19.799999237061</ele>
        <time>2021-02-28T08:56:28.000Z</time>
      </trkpt>
      <trkpt lat="47.28348" lon="-2.3158">
        <ele>19.799999237061</ele>
        <time>2021-02-28T08:56:33.000Z</time>
      </trkpt>
      <trkpt lat="47.28382" lon="-2.31568">
        <ele>19.799999237061</ele>
        <time>2021-02-28T08:56:40.000Z</time>
      </trkpt>
      <trkpt lat="47.28415" lon="-2.31555">
        <ele>19.799999237061</ele>
        <time>2021-02-28T08:56:46.000Z</time>
      </trkpt>
      <trkpt lat="47.28441" lon="-2.31533">
        <ele>19.799999237061</ele>
        <time>2021-02-28T08:56:51.000Z</time>
      </trkpt>
      <trkpt lat="47.2847" lon="-2.31509">
        <ele>19.799999237061</ele>
        <time>2021-02-28T08:56:57.000Z</time>
      </trkpt>
      <trkpt lat="47.28475" lon="-2.31507">
        <ele>19.799999237061</ele>
        <time>2021-02-28T08:56:58.000Z</time>
      </trkpt>
      <trkpt lat="47.28497" lon="-2.31504">
        <ele>19.799999237061</ele>
        <time>2021-02-28T08:57:02.000Z</time>
      </trkpt>
      <trkpt lat="47.28544" lon="-2.31496">
        <ele>20.200000762939</ele>
        <time>2021-02-28T08:57:11.000Z</time>
      </trkpt>
      <trkpt lat="47.28549" lon="-2.31495">
        <ele>20.60000038147</ele>
        <time>2021-02-28T08:57:12.000Z</time>
      </trkpt>
      <trkpt lat="47.28553" lon="-2.31494">
        <ele>21.39999961853</ele>
        <time>2021-02-28T08:57:13.000Z</time>
      </trkpt>
      <trkpt lat="47.28558" lon="-2.31493">
        <ele>21.799999237061</ele>
        <time>2021-02-28T08:57:14.000Z</time>
      </trkpt>
      <trkpt lat="47.28581" lon="-2.31484">
        <ele>21.799999237061</ele>
        <time>2021-02-28T08:57:19.000Z</time>
      </trkpt>
      <trkpt lat="47.28613" lon="-2.31471">
        <ele>22.200000762939</ele>
        <time>2021-02-28T08:57:26.000Z</time>
      </trkpt>
      <trkpt lat="47.28617" lon="-2.31469">
        <ele>22.60000038147</ele>
        <time>2021-02-28T08:57:27.000Z</time>
      </trkpt>
      <trkpt lat="47.28622" lon="-2.31468">
        <ele>23</ele>
        <time>2021-02-28T08:57:28.000Z</time>
      </trkpt>
      <trkpt lat="47.28626" lon="-2.31466">
        <ele>23.39999961853</ele>
        <time>2021-02-28T08:57:29.000Z</time>
      </trkpt>
      <trkpt lat="47.2863" lon="-2.31464">
        <ele>23.799999237061</ele>
        <time>2021-02-28T08:57:30.000Z</time>
      </trkpt>
      <trkpt lat="47.28661" lon="-2.31451">
        <ele>23.799999237061</ele>
        <time>2021-02-28T08:57:38.000Z</time>
      </trkpt>
      <trkpt lat="47.28671" lon="-2.3146">
        <ele>23.799999237061</ele>
        <time>2021-02-28T08:57:41.000Z</time>
      </trkpt>
      <trkpt lat="47.28675" lon="-2.31473">
        <ele>23.799999237061</ele>
        <time>2021-02-28T08:57:43.000Z</time>
      </trkpt>
      <trkpt lat="47.28678" lon="-2.3148">
        <ele>23.799999237061</ele>
        <time>2021-02-28T08:57:44.000Z</time>
      </trkpt>
      <trkpt lat="47.28682" lon="-2.31487">
        <ele>23.799999237061</ele>
        <time>2021-02-28T08:57:45.000Z</time>
      </trkpt>
      <trkpt lat="47.28698" lon="-2.31493">
        <ele>23.799999237061</ele>
        <time>2021-02-28T08:57:48.000Z</time>
      </trkpt>
      <trkpt lat="47.2871" lon="-2.3149">
        <ele>23.799999237061</ele>
        <time>2021-02-28T08:57:50.000Z</time>
      </trkpt>
      <trkpt lat="47.28722" lon="-2.31484">
        <ele>23.799999237061</ele>
        <time>2021-02-28T08:57:52.000Z</time>
      </trkpt>
      <trkpt lat="47.28761" lon="-2.31462">
        <ele>23.799999237061</ele>
        <time>2021-02-28T08:57:59.000Z</time>
      </trkpt>
      <trkpt lat="47.28793" lon="-2.31442">
        <ele>23.799999237061</ele>
        <time>2021-02-28T08:58:05.000Z</time>
      </trkpt>
      <trkpt lat="47.28834" lon="-2.31414">
        <ele>23.799999237061</ele>
        <time>2021-02-28T08:58:12.000Z</time>
      </trkpt>
      <trkpt lat="47.28887" lon="-2.31393">
        <ele>23.799999237061</ele>
        <time>2021-02-28T08:58:20.000Z</time>
      </trkpt>
      <trkpt lat="47.28928" lon="-2.3139">
        <ele>23.799999237061</ele>
        <time>2021-02-28T08:58:26.000Z</time>
      </trkpt>
      <trkpt lat="47.28935" lon="-2.31389">
        <ele>23</ele>
        <time>2021-02-28T08:58:27.000Z</time>
      </trkpt>
      <trkpt lat="47.28942" lon="-2.31387">
        <ele>22.60000038147</ele>
        <time>2021-02-28T08:58:28.000Z</time>
      </trkpt>
      <trkpt lat="47.28949" lon="-2.31384">
        <ele>22.200000762939</ele>
        <time>2021-02-28T08:58:29.000Z</time>
      </trkpt>
      <trkpt lat="47.28955" lon="-2.31381">
        <ele>21.799999237061</ele>
        <time>2021-02-28T08:58:30.000Z</time>
      </trkpt>
      <trkpt lat="47.28961" lon="-2.31376">
        <ele>21.799999237061</ele>
        <time>2021-02-28T08:58:31.000Z</time>
      </trkpt>
      <trkpt lat="47.28977" lon="-2.31359">
        <ele>21.799999237061</ele>
        <time>2021-02-28T08:58:34.000Z</time>
      </trkpt>
      <trkpt lat="47.28987" lon="-2.31345">
        <ele>21.799999237061</ele>
        <time>2021-02-28T08:58:36.000Z</time>
      </trkpt>
      <trkpt lat="47.29014" lon="-2.31292">
        <ele>21.799999237061</ele>
        <time>2021-02-28T08:58:43.000Z</time>
      </trkpt>
      <trkpt lat="47.29041" lon="-2.31228">
        <ele>21.799999237061</ele>
        <time>2021-02-28T08:58:51.000Z</time>
      </trkpt>
      <trkpt lat="47.29043" lon="-2.31219">
        <ele>21.799999237061</ele>
        <time>2021-02-28T08:58:52.000Z</time>
      </trkpt>
      <trkpt lat="47.29044" lon="-2.31192">
        <ele>21.799999237061</ele>
        <time>2021-02-28T08:58:55.000Z</time>
      </trkpt>
      <trkpt lat="47.29043" lon="-2.31183">
        <ele>21.799999237061</ele>
        <time>2021-02-28T08:58:56.000Z</time>
      </trkpt>
      <trkpt lat="47.2904" lon="-2.31155">
        <ele>21.39999961853</ele>
        <time>2021-02-28T08:58:59.000Z</time>
      </trkpt>
      <trkpt lat="47.29039" lon="-2.31146">
        <ele>20.799999237061</ele>
        <time>2021-02-28T08:59:00.000Z</time>
      </trkpt>
      <trkpt lat="47.29038" lon="-2.31137">
        <ele>20.39999961853</ele>
        <time>2021-02-28T08:59:01.000Z</time>
      </trkpt>
      <trkpt lat="47.29037" lon="-2.31128">
        <ele>20</ele>
        <time>2021-02-28T08:59:02.000Z</time>
      </trkpt>
      <trkpt lat="47.29036" lon="-2.31119">
        <ele>19.60000038147</ele>
        <time>2021-02-28T08:59:03.000Z</time>
      </trkpt>
      <trkpt lat="47.29032" lon="-2.31041">
        <ele>19.200000762939</ele>
        <time>2021-02-28T08:59:11.000Z</time>
      </trkpt>
      <trkpt lat="47.29032" lon="-2.31031">
        <ele>18.799999237061</ele>
        <time>2021-02-28T08:59:12.000Z</time>
      </trkpt>
      <trkpt lat="47.29032" lon="-2.31021">
        <ele>18.39999961853</ele>
        <time>2021-02-28T08:59:13.000Z</time>
      </trkpt>
      <trkpt lat="47.29033" lon="-2.31011">
        <ele>18</ele>
        <time>2021-02-28T08:59:14.000Z</time>
      </trkpt>
      <trkpt lat="47.29033" lon="-2.31001">
        <ele>17.60000038147</ele>
        <time>2021-02-28T08:59:15.000Z</time>
      </trkpt>
      <trkpt lat="47.29033" lon="-2.30971">
        <ele>17</ele>
        <time>2021-02-28T08:59:18.000Z</time>
      </trkpt>
      <trkpt lat="47.29033" lon="-2.30961">
        <ele>16.60000038147</ele>
        <time>2021-02-28T08:59:19.000Z</time>
      </trkpt>
      <trkpt lat="47.29032" lon="-2.30951">
        <ele>16.200000762939</ele>
        <time>2021-02-28T08:59:20.000Z</time>
      </trkpt>
      <trkpt lat="47.29032" lon="-2.30941">
        <ele>15.60000038147</ele>
        <time>2021-02-28T08:59:21.000Z</time>
      </trkpt>
      <trkpt lat="47.29032" lon="-2.3093">
        <ele>15.199999809265</ele>
        <time>2021-02-28T08:59:22.000Z</time>
      </trkpt>
      <trkpt lat="47.29028" lon="-2.30876">
        <ele>15.199999809265</ele>
        <time>2021-02-28T08:59:27.000Z</time>
      </trkpt>
      <trkpt lat="47.29027" lon="-2.30866">
        <ele>14.60000038147</ele>
        <time>2021-02-28T08:59:28.000Z</time>
      </trkpt>
      <trkpt lat="47.29025" lon="-2.30854">
        <ele>14.199999809265</ele>
        <time>2021-02-28T08:59:29.000Z</time>
      </trkpt>
      <trkpt lat="47.29024" lon="-2.30843">
        <ele>13.60000038147</ele>
        <time>2021-02-28T08:59:30.000Z</time>
      </trkpt>
      <trkpt lat="47.29023" lon="-2.30833">
        <ele>13</ele>
        <time>2021-02-28T08:59:31.000Z</time>
      </trkpt>
      <trkpt lat="47.29021" lon="-2.30823">
        <ele>12.39999961853</ele>
        <time>2021-02-28T08:59:32.000Z</time>
      </trkpt>
      <trkpt lat="47.2902" lon="-2.30814">
        <ele>12</ele>
        <time>2021-02-28T08:59:33.000Z</time>
      </trkpt>
      <trkpt lat="47.29019" lon="-2.30805">
        <ele>11.60000038147</ele>
        <time>2021-02-28T08:59:34.000Z</time>
      </trkpt>
      <trkpt lat="47.29017" lon="-2.30796">
        <ele>11</ele>
        <time>2021-02-28T08:59:35.000Z</time>
      </trkpt>
      <trkpt lat="47.29015" lon="-2.30788">
        <ele>10.60000038147</ele>
        <time>2021-02-28T08:59:36.000Z</time>
      </trkpt>
      <trkpt lat="47.29013" lon="-2.30779">
        <ele>10.199999809265</ele>
        <time>2021-02-28T08:59:37.000Z</time>
      </trkpt>
      <trkpt lat="47.29007" lon="-2.30752">
        <ele>10.199999809265</ele>
        <time>2021-02-28T08:59:40.000Z</time>
      </trkpt>
      <trkpt lat="47.29006" lon="-2.30743">
        <ele>9.3999996185303</ele>
        <time>2021-02-28T08:59:41.000Z</time>
      </trkpt>
      <trkpt lat="47.29005" lon="-2.30733">
        <ele>9</ele>
        <time>2021-02-28T08:59:42.000Z</time>
      </trkpt>
      <trkpt lat="47.29005" lon="-2.30722">
        <ele>8.6000003814697</ele>
        <time>2021-02-28T08:59:43.000Z</time>
      </trkpt>
      <trkpt lat="47.29005" lon="-2.30713">
        <ele>8.1999998092651</ele>
        <time>2021-02-28T08:59:44.000Z</time>
      </trkpt>
      <trkpt lat="47.29004" lon="-2.30703">
        <ele>8.1999998092651</ele>
        <time>2021-02-28T08:59:45.000Z</time>
      </trkpt>
      <trkpt lat="47.29002" lon="-2.30635">
        <ele>8.1999998092651</ele>
        <time>2021-02-28T08:59:53.000Z</time>
      </trkpt>
      <trkpt lat="47.29003" lon="-2.30628">
        <ele>8.1999998092651</ele>
        <time>2021-02-28T08:59:54.000Z</time>
      </trkpt>
      <trkpt lat="47.29003" lon="-2.30601">
        <ele>8.1999998092651</ele>
        <time>2021-02-28T08:59:58.000Z</time>
      </trkpt>
      <trkpt lat="47.28998" lon="-2.30559">
        <ele>8.1999998092651</ele>
        <time>2021-02-28T09:00:04.000Z</time>
      </trkpt>
      <trkpt lat="47.28989" lon="-2.30491">
        <ele>8.1999998092651</ele>
        <time>2021-02-28T09:00:13.000Z</time>
      </trkpt>
      <trkpt lat="47.28982" lon="-2.30444">
        <ele>8.1999998092651</ele>
        <time>2021-02-28T09:00:20.000Z</time>
      </trkpt>
      <trkpt lat="47.28979" lon="-2.30421">
        <ele>8.1999998092651</ele>
        <time>2021-02-28T09:00:25.000Z</time>
      </trkpt>
      <trkpt lat="47.28976" lon="-2.30398">
        <ele>8.1999998092651</ele>
        <time>2021-02-28T09:00:29.000Z</time>
      </trkpt>
      <trkpt lat="47.28976" lon="-2.3039">
        <ele>8.1999998092651</ele>
        <time>2021-02-28T09:00:30.000Z</time>
      </trkpt>
      <trkpt lat="47.28976" lon="-2.30338">
        <ele>8.1999998092651</ele>
        <time>2021-02-28T09:00:37.000Z</time>
      </trkpt>
      <trkpt lat="47.28972" lon="-2.30287">
        <ele>8.1999998092651</ele>
        <time>2021-02-28T09:00:43.000Z</time>
      </trkpt>
      <trkpt lat="47.28976" lon="-2.30259">
        <ele>8.1999998092651</ele>
        <time>2021-02-28T09:00:47.000Z</time>
      </trkpt>
      <trkpt lat="47.28989" lon="-2.30255">
        <ele>8.1999998092651</ele>
        <time>2021-02-28T09:00:50.000Z</time>
      </trkpt>
      <trkpt lat="47.29001" lon="-2.30254">
        <ele>7.5999999046326</ele>
        <time>2021-02-28T09:00:52.000Z</time>
      </trkpt>
      <trkpt lat="47.29006" lon="-2.30253">
        <ele>7.1999998092651</ele>
        <time>2021-02-28T09:00:53.000Z</time>
      </trkpt>
      <trkpt lat="47.29012" lon="-2.30251">
        <ele>6.4000000953674</ele>
        <time>2021-02-28T09:00:54.000Z</time>
      </trkpt>
      <trkpt lat="47.29017" lon="-2.3025">
        <ele>6</ele>
        <time>2021-02-28T09:00:55.000Z</time>
      </trkpt>
      <trkpt lat="47.29064" lon="-2.30234">
        <ele>6</ele>
        <time>2021-02-28T09:01:03.000Z</time>
      </trkpt>
      <trkpt lat="47.29106" lon="-2.30213">
        <ele>6</ele>
        <time>2021-02-28T09:01:11.000Z</time>
      </trkpt>
      <trkpt lat="47.29142" lon="-2.30193">
        <ele>6</ele>
        <time>2021-02-28T09:01:18.000Z</time>
      </trkpt>
      <trkpt lat="47.29177" lon="-2.30173">
        <ele>6</ele>
        <time>2021-02-28T09:01:25.000Z</time>
      </trkpt>
      <trkpt lat="47.29216" lon="-2.30152">
        <ele>6</ele>
        <time>2021-02-28T09:01:33.000Z</time>
      </trkpt>
      <trkpt lat="47.29248" lon="-2.3014">
        <ele>5.5999999046326</ele>
        <time>2021-02-28T09:01:39.000Z</time>
      </trkpt>
      <trkpt lat="47.29254" lon="-2.30139">
        <ele>5.1999998092651</ele>
        <time>2021-02-28T09:01:40.000Z</time>
      </trkpt>
      <trkpt lat="47.2926" lon="-2.30139">
        <ele>4.5999999046326</ele>
        <time>2021-02-28T09:01:41.000Z</time>
      </trkpt>
      <trkpt lat="47.29266" lon="-2.30138">
        <ele>4.1999998092651</ele>
        <time>2021-02-28T09:01:42.000Z</time>
      </trkpt>
      <trkpt lat="47.29271" lon="-2.30138">
        <ele>3.7999999523163</ele>
        <time>2021-02-28T09:01:43.000Z</time>
      </trkpt>
      <trkpt lat="47.29294" lon="-2.30136">
        <ele>3.7999999523163</ele>
        <time>2021-02-28T09:01:47.000Z</time>
      </trkpt>
      <trkpt lat="47.29307" lon="-2.30137">
        <ele>3.4000000953674</ele>
        <time>2021-02-28T09:01:50.000Z</time>
      </trkpt>
      <trkpt lat="47.2931" lon="-2.30137">
        <ele>3</ele>
        <time>2021-02-28T09:01:51.000Z</time>
      </trkpt>
      <trkpt lat="47.29314" lon="-2.30137">
        <ele>2.4000000953674</ele>
        <time>2021-02-28T09:01:52.000Z</time>
      </trkpt>
      <trkpt lat="47.29317" lon="-2.30137">
        <ele>2</ele>
        <time>2021-02-28T09:01:53.000Z</time>
      </trkpt>
      <trkpt lat="47.2932" lon="-2.30136">
        <ele>1.6000000238419</ele>
        <time>2021-02-28T09:01:54.000Z</time>
      </trkpt>
      <trkpt lat="47.29326" lon="-2.30135">
        <ele>1.6000000238419</ele>
        <time>2021-02-28T09:01:56.000Z</time>
      </trkpt>
      <trkpt lat="47.29328" lon="-2.30132">
        <ele>1.6000000238419</ele>
        <time>2021-02-28T09:01:57.000Z</time>
      </trkpt>
      <trkpt lat="47.29334" lon="-2.30112">
        <ele>1.6000000238419</ele>
        <time>2021-02-28T09:02:01.000Z</time>
      </trkpt>
      <trkpt lat="47.2934" lon="-2.30081">
        <ele>1.6000000238419</ele>
        <time>2021-02-28T09:02:06.000Z</time>
      </trkpt>
      <trkpt lat="47.29341" lon="-2.30074">
        <ele>2</ele>
        <time>2021-02-28T09:02:07.000Z</time>
      </trkpt>
      <trkpt lat="47.29342" lon="-2.30068">
        <ele>2.7999999523163</ele>
        <time>2021-02-28T09:02:08.000Z</time>
      </trkpt>
      <trkpt lat="47.29342" lon="-2.30061">
        <ele>3.2000000476837</ele>
        <time>2021-02-28T09:02:09.000Z</time>
      </trkpt>
      <trkpt lat="47.29343" lon="-2.30055">
        <ele>3.5999999046326</ele>
        <time>2021-02-28T09:02:10.000Z</time>
      </trkpt>
      <trkpt lat="47.29344" lon="-2.30044">
        <ele>3.5999999046326</ele>
        <time>2021-02-28T09:02:12.000Z</time>
      </trkpt>
      <trkpt lat="47.29345" lon="-2.30027">
        <ele>3.5999999046326</ele>
        <time>2021-02-28T09:02:16.000Z</time>
      </trkpt>
      <trkpt lat="47.29347" lon="-2.30006">
        <ele>3.5999999046326</ele>
        <time>2021-02-28T09:02:23.000Z</time>
      </trkpt>
      <trkpt lat="47.29348" lon="-2.30004">
        <ele>3.5999999046326</ele>
        <time>2021-02-28T09:02:24.000Z</time>
      </trkpt>
      <trkpt lat="47.29352" lon="-2.30004">
        <ele>3.5999999046326</ele>
        <time>2021-02-28T09:02:26.000Z</time>
      </trkpt>
      <trkpt lat="47.29363" lon="-2.30008">
        <ele>3.5999999046326</ele>
        <time>2021-02-28T09:02:29.000Z</time>
      </trkpt>
      <trkpt lat="47.29367" lon="-2.3001">
        <ele>3.5999999046326</ele>
        <time>2021-02-28T09:02:30.000Z</time>
      </trkpt>
      <trkpt lat="47.29383" lon="-2.30019">
        <ele>3.5999999046326</ele>
        <time>2021-02-28T09:02:33.000Z</time>
      </trkpt>
      <trkpt lat="47.29394" lon="-2.30022">
        <ele>3.5999999046326</ele>
        <time>2021-02-28T09:02:35.000Z</time>
      </trkpt>
      <trkpt lat="47.29411" lon="-2.30028">
        <ele>3.5999999046326</ele>
        <time>2021-02-28T09:02:38.000Z</time>
      </trkpt>
      <trkpt lat="47.29423" lon="-2.30029">
        <ele>3.5999999046326</ele>
        <time>2021-02-28T09:02:40.000Z</time>
      </trkpt>
      <trkpt lat="47.29462" lon="-2.30028">
        <ele>3.5999999046326</ele>
        <time>2021-02-28T09:02:46.000Z</time>
      </trkpt>
      <trkpt lat="47.29503" lon="-2.30025">
        <ele>3.5999999046326</ele>
        <time>2021-02-28T09:02:53.000Z</time>
      </trkpt>
      <trkpt lat="47.29527" lon="-2.30028">
        <ele>3.5999999046326</ele>
        <time>2021-02-28T09:02:57.000Z</time>
      </trkpt>
      <trkpt lat="47.29545" lon="-2.30023">
        <ele>3.5999999046326</ele>
        <time>2021-02-28T09:03:00.000Z</time>
      </trkpt>
      <trkpt lat="47.29582" lon="-2.3001">
        <ele>3.2000000476837</ele>
        <time>2021-02-28T09:03:06.000Z</time>
      </trkpt>
      <trkpt lat="47.29588" lon="-2.30008">
        <ele>2.7999999523163</ele>
        <time>2021-02-28T09:03:07.000Z</time>
      </trkpt>
      <trkpt lat="47.29594" lon="-2.30006">
        <ele>2.4000000953674</ele>
        <time>2021-02-28T09:03:08.000Z</time>
      </trkpt>
      <trkpt lat="47.29599" lon="-2.30005">
        <ele>2</ele>
        <time>2021-02-28T09:03:09.000Z</time>
      </trkpt>
      <trkpt lat="47.29605" lon="-2.30003">
        <ele>1.6000000238419</ele>
        <time>2021-02-28T09:03:10.000Z</time>
      </trkpt>
      <trkpt lat="47.29627" lon="-2.29995">
        <ele>1.6000000238419</ele>
        <time>2021-02-28T09:03:14.000Z</time>
      </trkpt>
      <trkpt lat="47.29637" lon="-2.29989">
        <ele>1.6000000238419</ele>
        <time>2021-02-28T09:03:16.000Z</time>
      </trkpt>
      <trkpt lat="47.29649" lon="-2.29984">
        <ele>1.6000000238419</ele>
        <time>2021-02-28T09:03:19.000Z</time>
      </trkpt>
      <trkpt lat="47.29663" lon="-2.29995">
        <ele>1.6000000238419</ele>
        <time>2021-02-28T09:03:22.000Z</time>
      </trkpt>
      <trkpt lat="47.29669" lon="-2.29998">
        <ele>1.6000000238419</ele>
        <time>2021-02-28T09:03:23.000Z</time>
      </trkpt>
      <trkpt lat="47.29687" lon="-2.30001">
        <ele>1.6000000238419</ele>
        <time>2021-02-28T09:03:26.000Z</time>
      </trkpt>
      <trkpt lat="47.29717" lon="-2.29998">
        <ele>1.6000000238419</ele>
        <time>2021-02-28T09:03:31.000Z</time>
      </trkpt>
      <trkpt lat="47.29723" lon="-2.29996">
        <ele>1.6000000238419</ele>
        <time>2021-02-28T09:03:32.000Z</time>
      </trkpt>
      <trkpt lat="47.29752" lon="-2.29979">
        <ele>1.6000000238419</ele>
        <time>2021-02-28T09:03:37.000Z</time>
      </trkpt>
      <trkpt lat="47.29757" lon="-2.29975">
        <ele>1.6000000238419</ele>
        <time>2021-02-28T09:03:38.000Z</time>
      </trkpt>
      <trkpt lat="47.29782" lon="-2.29957">
        <ele>1.6000000238419</ele>
        <time>2021-02-28T09:03:43.000Z</time>
      </trkpt>
      <trkpt lat="47.29792" lon="-2.29951">
        <ele>1.6000000238419</ele>
        <time>2021-02-28T09:03:45.000Z</time>
      </trkpt>
      <trkpt lat="47.29803" lon="-2.29952">
        <ele>1.6000000238419</ele>
        <time>2021-02-28T09:03:47.000Z</time>
      </trkpt>
      <trkpt lat="47.29839" lon="-2.29953">
        <ele>1.6000000238419</ele>
        <time>2021-02-28T09:03:53.000Z</time>
      </trkpt>
      <trkpt lat="47.29874" lon="-2.29945">
        <ele>1.6000000238419</ele>
        <time>2021-02-28T09:03:59.000Z</time>
      </trkpt>
      <trkpt lat="47.29903" lon="-2.29935">
        <ele>1.6000000238419</ele>
        <time>2021-02-28T09:04:04.000Z</time>
      </trkpt>
      <trkpt lat="47.29907" lon="-2.29929">
        <ele>1.6000000238419</ele>
        <time>2021-02-28T09:04:05.000Z</time>
      </trkpt>
      <trkpt lat="47.29908" lon="-2.29907">
        <ele>1.6000000238419</ele>
        <time>2021-02-28T09:04:09.000Z</time>
      </trkpt>
      <trkpt lat="47.29907" lon="-2.29894">
        <ele>1.6000000238419</ele>
        <time>2021-02-28T09:04:11.000Z</time>
      </trkpt>
      <trkpt lat="47.29903" lon="-2.29869">
        <ele>1.6000000238419</ele>
        <time>2021-02-28T09:04:15.000Z</time>
      </trkpt>
      <trkpt lat="47.29902" lon="-2.29852">
        <ele>1.6000000238419</ele>
        <time>2021-02-28T09:04:18.000Z</time>
      </trkpt>
      <trkpt lat="47.29906" lon="-2.29834">
        <ele>1.6000000238419</ele>
        <time>2021-02-28T09:04:21.000Z</time>
      </trkpt>
      <trkpt lat="47.29916" lon="-2.29821">
        <ele>1.6000000238419</ele>
        <time>2021-02-28T09:04:25.000Z</time>
      </trkpt>
      <trkpt lat="47.29923" lon="-2.29816">
        <ele>1.6000000238419</ele>
        <time>2021-02-28T09:04:27.000Z</time>
      </trkpt>
      <trkpt lat="47.29929" lon="-2.29813">
        <ele>1.6000000238419</ele>
        <time>2021-02-28T09:04:30.000Z</time>
      </trkpt>
      <trkpt lat="47.29932" lon="-2.2981">
        <ele>1.6000000238419</ele>
        <time>2021-02-28T09:04:32.000Z</time>
      </trkpt>
      <trkpt lat="47.29939" lon="-2.29801">
        <ele>1.6000000238419</ele>
        <time>2021-02-28T09:04:35.000Z</time>
      </trkpt>
      <trkpt lat="47.29947" lon="-2.29778">
        <ele>1.6000000238419</ele>
        <time>2021-02-28T09:04:40.000Z</time>
      </trkpt>
      <trkpt lat="47.29942" lon="-2.2976">
        <ele>1.6000000238419</ele>
        <time>2021-02-28T09:04:43.000Z</time>
      </trkpt>
      <trkpt lat="47.29938" lon="-2.29748">
        <ele>1.6000000238419</ele>
        <time>2021-02-28T09:04:45.000Z</time>
      </trkpt>
      <trkpt lat="47.29923" lon="-2.29698">
        <ele>1.6000000238419</ele>
        <time>2021-02-28T09:04:54.000Z</time>
      </trkpt>
      <trkpt lat="47.29918" lon="-2.29669">
        <ele>1.6000000238419</ele>
        <time>2021-02-28T09:05:00.000Z</time>
      </trkpt>
      <trkpt lat="47.2993" lon="-2.29657">
        <ele>1.6000000238419</ele>
        <time>2021-02-28T09:05:04.000Z</time>
      </trkpt>
      <trkpt lat="47.29952" lon="-2.29644">
        <ele>1.6000000238419</ele>
        <time>2021-02-28T09:05:09.000Z</time>
      </trkpt>
      <trkpt lat="47.2996" lon="-2.2964">
        <ele>1.6000000238419</ele>
        <time>2021-02-28T09:05:11.000Z</time>
      </trkpt>
      <trkpt lat="47.29984" lon="-2.29639">
        <ele>1.6000000238419</ele>
        <time>2021-02-28T09:05:16.000Z</time>
      </trkpt>
      <trkpt lat="47.30013" lon="-2.29638">
        <ele>1.6000000238419</ele>
        <time>2021-02-28T09:05:22.000Z</time>
      </trkpt>
      <trkpt lat="47.30021" lon="-2.29637">
        <ele>1.2000000476837</ele>
        <time>2021-02-28T09:05:24.000Z</time>
      </trkpt>
      <trkpt lat="47.30025" lon="-2.29637">
        <ele>0.80000001192093</ele>
        <time>2021-02-28T09:05:25.000Z</time>
      </trkpt>
      <trkpt lat="47.30029" lon="-2.29637">
        <ele>0.40000000596046</ele>
        <time>2021-02-28T09:05:26.000Z</time>
      </trkpt>
      <trkpt lat="47.30033" lon="-2.29637">
        <ele>-0.40000000596046</ele>
        <time>2021-02-28T09:05:27.000Z</time>
      </trkpt>
      <trkpt lat="47.30041" lon="-2.29636">
        <ele>-0.40000000596046</ele>
        <time>2021-02-28T09:05:29.000Z</time>
      </trkpt>
      <trkpt lat="47.30054" lon="-2.29638">
        <ele>-0.40000000596046</ele>
        <time>2021-02-28T09:05:32.000Z</time>
      </trkpt>
      <trkpt lat="47.30063" lon="-2.29641">
        <ele>-0.40000000596046</ele>
        <time>2021-02-28T09:05:34.000Z</time>
      </trkpt>
      <trkpt lat="47.30095" lon="-2.2965">
        <ele>-0.40000000596046</ele>
        <time>2021-02-28T09:05:42.000Z</time>
      </trkpt>
      <trkpt lat="47.30124" lon="-2.29656">
        <ele>-0.40000000596046</ele>
        <time>2021-02-28T09:05:49.000Z</time>
      </trkpt>
      <trkpt lat="47.30147" lon="-2.2966">
        <ele>-0.40000000596046</ele>
        <time>2021-02-28T09:05:54.000Z</time>
      </trkpt>
      <trkpt lat="47.30177" lon="-2.29675">
        <ele>-0.40000000596046</ele>
        <time>2021-02-28T09:06:00.000Z</time>
      </trkpt>
      <trkpt lat="47.30199" lon="-2.29688">
        <ele>-1</ele>
        <time>2021-02-28T09:06:04.000Z</time>
      </trkpt>
      <trkpt lat="47.30205" lon="-2.29691">
        <ele>-1.3999999761581</ele>
        <time>2021-02-28T09:06:05.000Z</time>
      </trkpt>
      <trkpt lat="47.30211" lon="-2.29695">
        <ele>-1.7999999523163</ele>
        <time>2021-02-28T09:06:06.000Z</time>
      </trkpt>
      <trkpt lat="47.30216" lon="-2.29699">
        <ele>-2.2000000476837</ele>
        <time>2021-02-28T09:06:07.000Z</time>
      </trkpt>
      <trkpt lat="47.30222" lon="-2.29702">
        <ele>-2.5999999046326</ele>
        <time>2021-02-28T09:06:08.000Z</time>
      </trkpt>
      <trkpt lat="47.30233" lon="-2.29707">
        <ele>-2.5999999046326</ele>
        <time>2021-02-28T09:06:10.000Z</time>
      </trkpt>
      <trkpt lat="47.30238" lon="-2.2971">
        <ele>-2.5999999046326</ele>
        <time>2021-02-28T09:06:11.000Z</time>
      </trkpt>
      <trkpt lat="47.30254" lon="-2.29717">
        <ele>-2.5999999046326</ele>
        <time>2021-02-28T09:06:14.000Z</time>
      </trkpt>
      <trkpt lat="47.30265" lon="-2.29719">
        <ele>-2.5999999046326</ele>
        <time>2021-02-28T09:06:16.000Z</time>
      </trkpt>
      <trkpt lat="47.30276" lon="-2.29717">
        <ele>-2.5999999046326</ele>
        <time>2021-02-28T09:06:18.000Z</time>
      </trkpt>
      <trkpt lat="47.30294" lon="-2.29712">
        <ele>-2.5999999046326</ele>
        <time>2021-02-28T09:06:21.000Z</time>
      </trkpt>
      <trkpt lat="47.30332" lon="-2.29699">
        <ele>-2.5999999046326</ele>
        <time>2021-02-28T09:06:27.000Z</time>
      </trkpt>
      <trkpt lat="47.30351" lon="-2.29692">
        <ele>-2.5999999046326</ele>
        <time>2021-02-28T09:06:30.000Z</time>
      </trkpt>
      <trkpt lat="47.30363" lon="-2.29688">
        <ele>-2.5999999046326</ele>
        <time>2021-02-28T09:06:32.000Z</time>
      </trkpt>
      <trkpt lat="47.30407" lon="-2.29675">
        <ele>-2.5999999046326</ele>
        <time>2021-02-28T09:06:39.000Z</time>
      </trkpt>
      <trkpt lat="47.30443" lon="-2.29664">
        <ele>-2.5999999046326</ele>
        <time>2021-02-28T09:06:45.000Z</time>
      </trkpt>
      <trkpt lat="47.30454" lon="-2.2966">
        <ele>-2.5999999046326</ele>
        <time>2021-02-28T09:06:47.000Z</time>
      </trkpt>
      <trkpt lat="47.30465" lon="-2.29656">
        <ele>-2.5999999046326</ele>
        <time>2021-02-28T09:06:49.000Z</time>
      </trkpt>
      <trkpt lat="47.30477" lon="-2.29652">
        <ele>-2.5999999046326</ele>
        <time>2021-02-28T09:06:51.000Z</time>
      </trkpt>
      <trkpt lat="47.3051" lon="-2.29642">
        <ele>-2.5999999046326</ele>
        <time>2021-02-28T09:06:57.000Z</time>
      </trkpt>
      <trkpt lat="47.30548" lon="-2.29627">
        <ele>-2.5999999046326</ele>
        <time>2021-02-28T09:07:04.000Z</time>
      </trkpt>
      <trkpt lat="47.30578" lon="-2.29618">
        <ele>-2.5999999046326</ele>
        <time>2021-02-28T09:07:10.000Z</time>
      </trkpt>
      <trkpt lat="47.30584" lon="-2.29618">
        <ele>-2.5999999046326</ele>
        <time>2021-02-28T09:07:11.000Z</time>
      </trkpt>
      <trkpt lat="47.30601" lon="-2.29613">
        <ele>-2.5999999046326</ele>
        <time>2021-02-28T09:07:14.000Z</time>
      </trkpt>
      <trkpt lat="47.3063" lon="-2.29603">
        <ele>-2.5999999046326</ele>
        <time>2021-02-28T09:07:19.000Z</time>
      </trkpt>
      <trkpt lat="47.30648" lon="-2.29598">
        <ele>-2.5999999046326</ele>
        <time>2021-02-28T09:07:22.000Z</time>
      </trkpt>
      <trkpt lat="47.3066" lon="-2.29593">
        <ele>-2.5999999046326</ele>
        <time>2021-02-28T09:07:24.000Z</time>
      </trkpt>
      <trkpt lat="47.30704" lon="-2.2958">
        <ele>-2.5999999046326</ele>
        <time>2021-02-28T09:07:32.000Z</time>
      </trkpt>
      <trkpt lat="47.30741" lon="-2.29567">
        <ele>-2.5999999046326</ele>
        <time>2021-02-28T09:07:39.000Z</time>
      </trkpt>
      <trkpt lat="47.30752" lon="-2.29563">
        <ele>-2.5999999046326</ele>
        <time>2021-02-28T09:07:41.000Z</time>
      </trkpt>
      <trkpt lat="47.30772" lon="-2.29557">
        <ele>-2.5999999046326</ele>
        <time>2021-02-28T09:07:45.000Z</time>
      </trkpt>
      <trkpt lat="47.3078" lon="-2.29554">
        <ele>-2.2000000476837</ele>
        <time>2021-02-28T09:07:47.000Z</time>
      </trkpt>
      <trkpt lat="47.30785" lon="-2.29553">
        <ele>-1.7999999523163</ele>
        <time>2021-02-28T09:07:48.000Z</time>
      </trkpt>
      <trkpt lat="47.30789" lon="-2.29551">
        <ele>-1.3999999761581</ele>
        <time>2021-02-28T09:07:49.000Z</time>
      </trkpt>
      <trkpt lat="47.30794" lon="-2.29549">
        <ele>-1</ele>
        <time>2021-02-28T09:07:50.000Z</time>
      </trkpt>
      <trkpt lat="47.30798" lon="-2.29548">
        <ele>-0.60000002384186</ele>
        <time>2021-02-28T09:07:51.000Z</time>
      </trkpt>
      <trkpt lat="47.30803" lon="-2.29547">
        <ele>-0.60000002384186</ele>
        <time>2021-02-28T09:07:52.000Z</time>
      </trkpt>
      <trkpt lat="47.30839" lon="-2.29542">
        <ele>-0.60000002384186</ele>
        <time>2021-02-28T09:07:59.000Z</time>
      </trkpt>
      <trkpt lat="47.30853" lon="-2.29546">
        <ele>-0.60000002384186</ele>
        <time>2021-02-28T09:08:02.000Z</time>
      </trkpt>
      <trkpt lat="47.30868" lon="-2.29551">
        <ele>-0.60000002384186</ele>
        <time>2021-02-28T09:08:05.000Z</time>
      </trkpt>
      <trkpt lat="47.30905" lon="-2.29561">
        <ele>-0.60000002384186</ele>
        <time>2021-02-28T09:08:12.000Z</time>
      </trkpt>
      <trkpt lat="47.30955" lon="-2.29575">
        <ele>0.20000000298023</ele>
        <time>2021-02-28T09:08:21.000Z</time>
      </trkpt>
      <trkpt lat="47.3096" lon="-2.29577">
        <ele>0.60000002384186</ele>
        <time>2021-02-28T09:08:22.000Z</time>
      </trkpt>
      <trkpt lat="47.30966" lon="-2.2958">
        <ele>1.2000000476837</ele>
        <time>2021-02-28T09:08:23.000Z</time>
      </trkpt>
      <trkpt lat="47.30972" lon="-2.29582">
        <ele>1.6000000238419</ele>
        <time>2021-02-28T09:08:24.000Z</time>
      </trkpt>
      <trkpt lat="47.30994" lon="-2.29594">
        <ele>1.6000000238419</ele>
        <time>2021-02-28T09:08:28.000Z</time>
      </trkpt>
      <trkpt lat="47.31011" lon="-2.29616">
        <ele>1.6000000238419</ele>
        <time>2021-02-28T09:08:32.000Z</time>
      </trkpt>
      <trkpt lat="47.3102" lon="-2.29637">
        <ele>1.6000000238419</ele>
        <time>2021-02-28T09:08:35.000Z</time>
      </trkpt>
      <trkpt lat="47.31025" lon="-2.29651">
        <ele>1.6000000238419</ele>
        <time>2021-02-28T09:08:37.000Z</time>
      </trkpt>
      <trkpt lat="47.31036" lon="-2.29688">
        <ele>1.6000000238419</ele>
        <time>2021-02-28T09:08:43.000Z</time>
      </trkpt>
      <trkpt lat="47.31039" lon="-2.29694">
        <ele>1.6000000238419</ele>
        <time>2021-02-28T09:08:44.000Z</time>
      </trkpt>
      <trkpt lat="47.31049" lon="-2.29698">
        <ele>1.6000000238419</ele>
        <time>2021-02-28T09:08:46.000Z</time>
      </trkpt>
      <trkpt lat="47.31063" lon="-2.29688">
        <ele>1.6000000238419</ele>
        <time>2021-02-28T09:08:49.000Z</time>
      </trkpt>
      <trkpt lat="47.31071" lon="-2.2968">
        <ele>1.6000000238419</ele>
        <time>2021-02-28T09:08:51.000Z</time>
      </trkpt>
      <trkpt lat="47.31082" lon="-2.29666">
        <ele>1.6000000238419</ele>
        <time>2021-02-28T09:08:54.000Z</time>
      </trkpt>
      <trkpt lat="47.31106" lon="-2.29636">
        <ele>1.6000000238419</ele>
        <time>2021-02-28T09:09:01.000Z</time>
      </trkpt>
      <trkpt lat="47.31134" lon="-2.29607">
        <ele>1.6000000238419</ele>
        <time>2021-02-28T09:09:07.000Z</time>
      </trkpt>
      <trkpt lat="47.31163" lon="-2.29585">
        <ele>1.6000000238419</ele>
        <time>2021-02-28T09:09:13.000Z</time>
      </trkpt>
      <trkpt lat="47.31169" lon="-2.29561">
        <ele>1.6000000238419</ele>
        <time>2021-02-28T09:09:16.000Z</time>
      </trkpt>
      <trkpt lat="47.31167" lon="-2.29544">
        <ele>1.6000000238419</ele>
        <time>2021-02-28T09:09:18.000Z</time>
      </trkpt>
      <trkpt lat="47.31165" lon="-2.29537">
        <ele>1.6000000238419</ele>
        <time>2021-02-28T09:09:19.000Z</time>
      </trkpt>
      <trkpt lat="47.31161" lon="-2.29521">
        <ele>1.6000000238419</ele>
        <time>2021-02-28T09:09:21.000Z</time>
      </trkpt>
      <trkpt lat="47.31148" lon="-2.29474">
        <ele>1.6000000238419</ele>
        <time>2021-02-28T09:09:27.000Z</time>
      </trkpt>
      <trkpt lat="47.31158" lon="-2.29457">
        <ele>1.6000000238419</ele>
        <time>2021-02-28T09:09:30.000Z</time>
      </trkpt>
      <trkpt lat="47.31168" lon="-2.29449">
        <ele>1.6000000238419</ele>
        <time>2021-02-28T09:09:32.000Z</time>
      </trkpt>
      <trkpt lat="47.31183" lon="-2.29436">
        <ele>1.6000000238419</ele>
        <time>2021-02-28T09:09:35.000Z</time>
      </trkpt>
      <trkpt lat="47.31214" lon="-2.29415">
        <ele>1.6000000238419</ele>
        <time>2021-02-28T09:09:41.000Z</time>
      </trkpt>
      <trkpt lat="47.31234" lon="-2.294">
        <ele>1.6000000238419</ele>
        <time>2021-02-28T09:09:45.000Z</time>
      </trkpt>
      <trkpt lat="47.31243" lon="-2.29392">
        <ele>1.6000000238419</ele>
        <time>2021-02-28T09:09:47.000Z</time>
      </trkpt>
      <trkpt lat="47.31256" lon="-2.29381">
        <ele>1.6000000238419</ele>
        <time>2021-02-28T09:09:50.000Z</time>
      </trkpt>
      <trkpt lat="47.31264" lon="-2.29369">
        <ele>1.6000000238419</ele>
        <time>2021-02-28T09:09:52.000Z</time>
      </trkpt>
      <trkpt lat="47.31273" lon="-2.29342">
        <ele>1.6000000238419</ele>
        <time>2021-02-28T09:09:56.000Z</time>
      </trkpt>
      <trkpt lat="47.31277" lon="-2.29332">
        <ele>1.6000000238419</ele>
        <time>2021-02-28T09:09:58.000Z</time>
      </trkpt>
      <trkpt lat="47.3128" lon="-2.29326">
        <ele>1.6000000238419</ele>
        <time>2021-02-28T09:10:00.000Z</time>
      </trkpt>
      <trkpt lat="47.31289" lon="-2.2931">
        <ele>1.6000000238419</ele>
        <time>2021-02-28T09:10:05.000Z</time>
      </trkpt>
      <trkpt lat="47.313" lon="-2.293">
        <ele>1.6000000238419</ele>
        <time>2021-02-28T09:10:10.000Z</time>
      </trkpt>
      <trkpt lat="47.31313" lon="-2.29295">
        <ele>1.6000000238419</ele>
        <time>2021-02-28T09:10:17.000Z</time>
      </trkpt>
      <trkpt lat="47.31328" lon="-2.29298">
        <ele>1.6000000238419</ele>
        <time>2021-02-28T09:10:22.000Z</time>
      </trkpt>
      <trkpt lat="47.31357" lon="-2.29309">
        <ele>1.6000000238419</ele>
        <time>2021-02-28T09:10:29.000Z</time>
      </trkpt>
      <trkpt lat="47.31391" lon="-2.29323">
        <ele>1.6000000238419</ele>
        <time>2021-02-28T09:10:37.000Z</time>
      </trkpt>
      <trkpt lat="47.31395" lon="-2.29326">
        <ele>2</ele>
        <time>2021-02-28T09:10:38.000Z</time>
      </trkpt>
      <trkpt lat="47.31399" lon="-2.29329">
        <ele>2.4000000953674</ele>
        <time>2021-02-28T09:10:39.000Z</time>
      </trkpt>
      <trkpt lat="47.31403" lon="-2.29332">
        <ele>2.7999999523163</ele>
        <time>2021-02-28T09:10:40.000Z</time>
      </trkpt>
      <trkpt lat="47.31406" lon="-2.29335">
        <ele>3.2000000476837</ele>
        <time>2021-02-28T09:10:41.000Z</time>
      </trkpt>
      <trkpt lat="47.31409" lon="-2.29339">
        <ele>3.5999999046326</ele>
        <time>2021-02-28T09:10:42.000Z</time>
      </trkpt>
      <trkpt lat="47.31431" lon="-2.29363">
        <ele>3.5999999046326</ele>
        <time>2021-02-28T09:10:49.000Z</time>
      </trkpt>
      <trkpt lat="47.31448" lon="-2.29385">
        <ele>3.5999999046326</ele>
        <time>2021-02-28T09:10:55.000Z</time>
      </trkpt>
      <trkpt lat="47.31457" lon="-2.29395">
        <ele>4</ele>
        <time>2021-02-28T09:10:58.000Z</time>
      </trkpt>
      <trkpt lat="47.3146" lon="-2.29398">
        <ele>4.4000000953674</ele>
        <time>2021-02-28T09:10:59.000Z</time>
      </trkpt>
      <trkpt lat="47.31464" lon="-2.29398">
        <ele>4.8000001907349</ele>
        <time>2021-02-28T09:11:00.000Z</time>
      </trkpt>
      <trkpt lat="47.31468" lon="-2.29398">
        <ele>5.1999998092651</ele>
        <time>2021-02-28T09:11:01.000Z</time>
      </trkpt>
      <trkpt lat="47.31471" lon="-2.29397">
        <ele>5.5999999046326</ele>
        <time>2021-02-28T09:11:02.000Z</time>
      </trkpt>
      <trkpt lat="47.31479" lon="-2.29395">
        <ele>5.5999999046326</ele>
        <time>2021-02-28T09:11:04.000Z</time>
      </trkpt>
      <trkpt lat="47.31482" lon="-2.29394">
        <ele>5.5999999046326</ele>
        <time>2021-02-28T09:11:05.000Z</time>
      </trkpt>
      <trkpt lat="47.31499" lon="-2.29395">
        <ele>5.5999999046326</ele>
        <time>2021-02-28T09:11:09.000Z</time>
      </trkpt>
      <trkpt lat="47.31502" lon="-2.29396">
        <ele>5.5999999046326</ele>
        <time>2021-02-28T09:11:10.000Z</time>
      </trkpt>
      <trkpt lat="47.31515" lon="-2.29411">
        <ele>5.5999999046326</ele>
        <time>2021-02-28T09:11:14.000Z</time>
      </trkpt>
      <trkpt lat="47.31522" lon="-2.29426">
        <ele>6</ele>
        <time>2021-02-28T09:11:17.000Z</time>
      </trkpt>
      <trkpt lat="47.31524" lon="-2.29431">
        <ele>6.4000000953674</ele>
        <time>2021-02-28T09:11:18.000Z</time>
      </trkpt>
      <trkpt lat="47.31525" lon="-2.29436">
        <ele>6.8000001907349</ele>
        <time>2021-02-28T09:11:19.000Z</time>
      </trkpt>
      <trkpt lat="47.31527" lon="-2.29441">
        <ele>7.1999998092651</ele>
        <time>2021-02-28T09:11:20.000Z</time>
      </trkpt>
      <trkpt lat="47.31529" lon="-2.29446">
        <ele>7.5999999046326</ele>
        <time>2021-02-28T09:11:21.000Z</time>
      </trkpt>
      <trkpt lat="47.31536" lon="-2.29467">
        <ele>7.5999999046326</ele>
        <time>2021-02-28T09:11:26.000Z</time>
      </trkpt>
      <trkpt lat="47.31544" lon="-2.29498">
        <ele>8</ele>
        <time>2021-02-28T09:11:33.000Z</time>
      </trkpt>
      <trkpt lat="47.31545" lon="-2.29503">
        <ele>8.3999996185303</ele>
        <time>2021-02-28T09:11:34.000Z</time>
      </trkpt>
      <trkpt lat="47.31546" lon="-2.2951">
        <ele>8.8000001907349</ele>
        <time>2021-02-28T09:11:35.000Z</time>
      </trkpt>
      <trkpt lat="47.31548" lon="-2.29516">
        <ele>9.1999998092651</ele>
        <time>2021-02-28T09:11:36.000Z</time>
      </trkpt>
      <trkpt lat="47.3155" lon="-2.29521">
        <ele>9.6000003814697</ele>
        <time>2021-02-28T09:11:37.000Z</time>
      </trkpt>
      <trkpt lat="47.31554" lon="-2.29532">
        <ele>9.6000003814697</ele>
        <time>2021-02-28T09:11:39.000Z</time>
      </trkpt>
      <trkpt lat="47.31566" lon="-2.29555">
        <ele>9.6000003814697</ele>
        <time>2021-02-28T09:11:44.000Z</time>
      </trkpt>
      <trkpt lat="47.31582" lon="-2.29579">
        <ele>9.6000003814697</ele>
        <time>2021-02-28T09:11:50.000Z</time>
      </trkpt>
      <trkpt lat="47.31596" lon="-2.29594">
        <ele>9.6000003814697</ele>
        <time>2021-02-28T09:11:55.000Z</time>
      </trkpt>
      <trkpt lat="47.31614" lon="-2.29613">
        <ele>9.6000003814697</ele>
        <time>2021-02-28T09:12:01.000Z</time>
      </trkpt>
      <trkpt lat="47.31628" lon="-2.2964">
        <ele>9.6000003814697</ele>
        <time>2021-02-28T09:12:07.000Z</time>
      </trkpt>
      <trkpt lat="47.31642" lon="-2.29675">
        <ele>9.6000003814697</ele>
        <time>2021-02-28T09:12:14.000Z</time>
      </trkpt>
      <trkpt lat="47.31657" lon="-2.2972">
        <ele>9.6000003814697</ele>
        <time>2021-02-28T09:12:22.000Z</time>
      </trkpt>
      <trkpt lat="47.31666" lon="-2.29735">
        <ele>9.6000003814697</ele>
        <time>2021-02-28T09:12:25.000Z</time>
      </trkpt>
      <trkpt lat="47.31675" lon="-2.29737">
        <ele>9.6000003814697</ele>
        <time>2021-02-28T09:12:27.000Z</time>
      </trkpt>
      <trkpt lat="47.3168" lon="-2.29736">
        <ele>10.39999961853</ele>
        <time>2021-02-28T09:12:28.000Z</time>
      </trkpt>
      <trkpt lat="47.31684" lon="-2.29735">
        <ele>10.800000190735</ele>
        <time>2021-02-28T09:12:29.000Z</time>
      </trkpt>
      <trkpt lat="47.31688" lon="-2.29734">
        <ele>11.199999809265</ele>
        <time>2021-02-28T09:12:30.000Z</time>
      </trkpt>
      <trkpt lat="47.31692" lon="-2.29733">
        <ele>11.60000038147</ele>
        <time>2021-02-28T09:12:31.000Z</time>
      </trkpt>
      <trkpt lat="47.31696" lon="-2.29732">
        <ele>11.60000038147</ele>
        <time>2021-02-28T09:12:32.000Z</time>
      </trkpt>
      <trkpt lat="47.31703" lon="-2.29729">
        <ele>11.60000038147</ele>
        <time>2021-02-28T09:12:34.000Z</time>
      </trkpt>
      <trkpt lat="47.31715" lon="-2.29719">
        <ele>11.60000038147</ele>
        <time>2021-02-28T09:12:37.000Z</time>
      </trkpt>
      <trkpt lat="47.31749" lon="-2.29692">
        <ele>11.60000038147</ele>
        <time>2021-02-28T09:12:45.000Z</time>
      </trkpt>
      <trkpt lat="47.31763" lon="-2.2968">
        <ele>11.60000038147</ele>
        <time>2021-02-28T09:12:48.000Z</time>
      </trkpt>
      <trkpt lat="47.31778" lon="-2.29669">
        <ele>11.60000038147</ele>
        <time>2021-02-28T09:12:51.000Z</time>
      </trkpt>
      <trkpt lat="47.31817" lon="-2.29642">
        <ele>11.60000038147</ele>
        <time>2021-02-28T09:12:59.000Z</time>
      </trkpt>
      <trkpt lat="47.31851" lon="-2.29621">
        <ele>11.60000038147</ele>
        <time>2021-02-28T09:13:06.000Z</time>
      </trkpt>
      <trkpt lat="47.3186" lon="-2.29613">
        <ele>11.60000038147</ele>
        <time>2021-02-28T09:13:08.000Z</time>
      </trkpt>
      <trkpt lat="47.3187" lon="-2.29598">
        <ele>11.60000038147</ele>
        <time>2021-02-28T09:13:11.000Z</time>
      </trkpt>
      <trkpt lat="47.31872" lon="-2.29593">
        <ele>11.60000038147</ele>
        <time>2021-02-28T09:13:12.000Z</time>
      </trkpt>
      <trkpt lat="47.31873" lon="-2.29576">
        <ele>11.60000038147</ele>
        <time>2021-02-28T09:13:15.000Z</time>
      </trkpt>
      <trkpt lat="47.31869" lon="-2.29559">
        <ele>11.60000038147</ele>
        <time>2021-02-28T09:13:19.000Z</time>
      </trkpt>
      <trkpt lat="47.31868" lon="-2.29555">
        <ele>11.60000038147</ele>
        <time>2021-02-28T09:13:20.000Z</time>
      </trkpt>
      <trkpt lat="47.31867" lon="-2.29551">
        <ele>11.199999809265</ele>
        <time>2021-02-28T09:13:21.000Z</time>
      </trkpt>
      <trkpt lat="47.31866" lon="-2.29548">
        <ele>10.800000190735</ele>
        <time>2021-02-28T09:13:22.000Z</time>
      </trkpt>
      <trkpt lat="47.31864" lon="-2.29545">
        <ele>10.39999961853</ele>
        <time>2021-02-28T09:13:23.000Z</time>
      </trkpt>
      <trkpt lat="47.31863" lon="-2.29541">
        <ele>10</ele>
        <time>2021-02-28T09:13:24.000Z</time>
      </trkpt>
      <trkpt lat="47.31862" lon="-2.29538">
        <ele>9.6000003814697</ele>
        <time>2021-02-28T09:13:25.000Z</time>
      </trkpt>
      <trkpt lat="47.31857" lon="-2.29518">
        <ele>9.6000003814697</ele>
        <time>2021-02-28T09:13:32.000Z</time>
      </trkpt>
      <trkpt lat="47.3185" lon="-2.29495">
        <ele>9.6000003814697</ele>
        <time>2021-02-28T09:13:39.000Z</time>
      </trkpt>
      <trkpt lat="47.31848" lon="-2.29477">
        <ele>9.6000003814697</ele>
        <time>2021-02-28T09:13:46.000Z</time>
      </trkpt>
      <trkpt lat="47.3185" lon="-2.29458">
        <ele>9.6000003814697</ele>
        <time>2021-02-28T09:13:52.000Z</time>
      </trkpt>
      <trkpt lat="47.31854" lon="-2.29445">
        <ele>9.6000003814697</ele>
        <time>2021-02-28T09:13:58.000Z</time>
      </trkpt>
      <trkpt lat="47.31855" lon="-2.29426">
        <ele>9.6000003814697</ele>
        <time>2021-02-28T09:14:04.000Z</time>
      </trkpt>
      <trkpt lat="47.31851" lon="-2.29391">
        <ele>9.6000003814697</ele>
        <time>2021-02-28T09:14:11.000Z</time>
      </trkpt>
      <trkpt lat="47.31842" lon="-2.29347">
        <ele>9.6000003814697</ele>
        <time>2021-02-28T09:14:18.000Z</time>
      </trkpt>
      <trkpt lat="47.31835" lon="-2.29284">
        <ele>9.6000003814697</ele>
        <time>2021-02-28T09:14:26.000Z</time>
      </trkpt>
      <trkpt lat="47.3183" lon="-2.29239">
        <ele>9.1999998092651</ele>
        <time>2021-02-28T09:14:31.000Z</time>
      </trkpt>
      <trkpt lat="47.31828" lon="-2.29229">
        <ele>8.1999998092651</ele>
        <time>2021-02-28T09:14:32.000Z</time>
      </trkpt>
      <trkpt lat="47.31828" lon="-2.2922">
        <ele>7.5999999046326</ele>
        <time>2021-02-28T09:14:33.000Z</time>
      </trkpt>
      <trkpt lat="47.31827" lon="-2.2921">
        <ele>7.1999998092651</ele>
        <time>2021-02-28T09:14:34.000Z</time>
      </trkpt>
      <trkpt lat="47.31829" lon="-2.29169">
        <ele>6.8000001907349</ele>
        <time>2021-02-28T09:14:38.000Z</time>
      </trkpt>
      <trkpt lat="47.3183" lon="-2.29159">
        <ele>6.4000000953674</ele>
        <time>2021-02-28T09:14:39.000Z</time>
      </trkpt>
      <trkpt lat="47.31832" lon="-2.29148">
        <ele>6</ele>
        <time>2021-02-28T09:14:40.000Z</time>
      </trkpt>
      <trkpt lat="47.31833" lon="-2.29138">
        <ele>5.5999999046326</ele>
        <time>2021-02-28T09:14:41.000Z</time>
      </trkpt>
      <trkpt lat="47.31835" lon="-2.29126">
        <ele>5.1999998092651</ele>
        <time>2021-02-28T09:14:42.000Z</time>
      </trkpt>
      <trkpt lat="47.3184" lon="-2.29093">
        <ele>5.1999998092651</ele>
        <time>2021-02-28T09:14:45.000Z</time>
      </trkpt>
      <trkpt lat="47.31842" lon="-2.29082">
        <ele>4.8000001907349</ele>
        <time>2021-02-28T09:14:46.000Z</time>
      </trkpt>
      <trkpt lat="47.31843" lon="-2.29071">
        <ele>4.1999998092651</ele>
        <time>2021-02-28T09:14:47.000Z</time>
      </trkpt>
      <trkpt lat="47.31845" lon="-2.2906">
        <ele>3.7999999523163</ele>
        <time>2021-02-28T09:14:48.000Z</time>
      </trkpt>
      <trkpt lat="47.31846" lon="-2.2905">
        <ele>3.4000000953674</ele>
        <time>2021-02-28T09:14:49.000Z</time>
      </trkpt>
      <trkpt lat="47.31848" lon="-2.2904">
        <ele>3</ele>
        <time>2021-02-28T09:14:50.000Z</time>
      </trkpt>
      <trkpt lat="47.3185" lon="-2.29031">
        <ele>3</ele>
        <time>2021-02-28T09:14:51.000Z</time>
      </trkpt>
      <trkpt lat="47.31861" lon="-2.2897">
        <ele>3</ele>
        <time>2021-02-28T09:14:57.000Z</time>
      </trkpt>
      <trkpt lat="47.31863" lon="-2.2895">
        <ele>2.5999999046326</ele>
        <time>2021-02-28T09:14:59.000Z</time>
      </trkpt>
      <trkpt lat="47.31864" lon="-2.2894">
        <ele>2.2000000476837</ele>
        <time>2021-02-28T09:15:00.000Z</time>
      </trkpt>
      <trkpt lat="47.31865" lon="-2.2893">
        <ele>1.7999999523163</ele>
        <time>2021-02-28T09:15:01.000Z</time>
      </trkpt>
      <trkpt lat="47.31866" lon="-2.28921">
        <ele>1.3999999761581</ele>
        <time>2021-02-28T09:15:02.000Z</time>
      </trkpt>
      <trkpt lat="47.31866" lon="-2.28913">
        <ele>1</ele>
        <time>2021-02-28T09:15:03.000Z</time>
      </trkpt>
      <trkpt lat="47.31866" lon="-2.28904">
        <ele>1</ele>
        <time>2021-02-28T09:15:04.000Z</time>
      </trkpt>
      <trkpt lat="47.31866" lon="-2.28865">
        <ele>1</ele>
        <time>2021-02-28T09:15:09.000Z</time>
      </trkpt>
      <trkpt lat="47.31866" lon="-2.28851">
        <ele>1</ele>
        <time>2021-02-28T09:15:11.000Z</time>
      </trkpt>
      <trkpt lat="47.31871" lon="-2.28836">
        <ele>1</ele>
        <time>2021-02-28T09:15:14.000Z</time>
      </trkpt>
      <trkpt lat="47.31876" lon="-2.28808">
        <ele>1</ele>
        <time>2021-02-28T09:15:18.000Z</time>
      </trkpt>
      <trkpt lat="47.31882" lon="-2.28751">
        <ele>1</ele>
        <time>2021-02-28T09:15:25.000Z</time>
      </trkpt>
      <trkpt lat="47.31886" lon="-2.28703">
        <ele>1</ele>
        <time>2021-02-28T09:15:31.000Z</time>
      </trkpt>
      <trkpt lat="47.31892" lon="-2.28652">
        <ele>1</ele>
        <time>2021-02-28T09:15:38.000Z</time>
      </trkpt>
      <trkpt lat="47.31897" lon="-2.28608">
        <ele>1</ele>
        <time>2021-02-28T09:15:44.000Z</time>
      </trkpt>
      <trkpt lat="47.31898" lon="-2.28602">
        <ele>1</ele>
        <time>2021-02-28T09:15:45.000Z</time>
      </trkpt>
      <trkpt lat="47.319" lon="-2.28578">
        <ele>1</ele>
        <time>2021-02-28T09:15:48.000Z</time>
      </trkpt>
      <trkpt lat="47.319" lon="-2.28561">
        <ele>1</ele>
        <time>2021-02-28T09:15:50.000Z</time>
      </trkpt>
      <trkpt lat="47.31897" lon="-2.28518">
        <ele>1.3999999761581</ele>
        <time>2021-02-28T09:15:55.000Z</time>
      </trkpt>
      <trkpt lat="47.31896" lon="-2.2851">
        <ele>1.7999999523163</ele>
        <time>2021-02-28T09:15:56.000Z</time>
      </trkpt>
      <trkpt lat="47.31897" lon="-2.28501">
        <ele>2.2000000476837</ele>
        <time>2021-02-28T09:15:57.000Z</time>
      </trkpt>
      <trkpt lat="47.31897" lon="-2.28492">
        <ele>2.5999999046326</ele>
        <time>2021-02-28T09:15:58.000Z</time>
      </trkpt>
      <trkpt lat="47.31897" lon="-2.28484">
        <ele>3</ele>
        <time>2021-02-28T09:15:59.000Z</time>
      </trkpt>
      <trkpt lat="47.31899" lon="-2.28441">
        <ele>3</ele>
        <time>2021-02-28T09:16:04.000Z</time>
      </trkpt>
      <trkpt lat="47.31897" lon="-2.28407">
        <ele>3</ele>
        <time>2021-02-28T09:16:08.000Z</time>
      </trkpt>
      <trkpt lat="47.31895" lon="-2.28392">
        <ele>3</ele>
        <time>2021-02-28T09:16:10.000Z</time>
      </trkpt>
      <trkpt lat="47.31884" lon="-2.2834">
        <ele>3</ele>
        <time>2021-02-28T09:16:17.000Z</time>
      </trkpt>
      <trkpt lat="47.31881" lon="-2.28321">
        <ele>3</ele>
        <time>2021-02-28T09:16:20.000Z</time>
      </trkpt>
      <trkpt lat="47.31876" lon="-2.28294">
        <ele>3</ele>
        <time>2021-02-28T09:16:24.000Z</time>
      </trkpt>
      <trkpt lat="47.31874" lon="-2.28288">
        <ele>3</ele>
        <time>2021-02-28T09:16:25.000Z</time>
      </trkpt>
      <trkpt lat="47.31869" lon="-2.28255">
        <ele>3</ele>
        <time>2021-02-28T09:16:30.000Z</time>
      </trkpt>
      <trkpt lat="47.31867" lon="-2.28242">
        <ele>3</ele>
        <time>2021-02-28T09:16:32.000Z</time>
      </trkpt>
      <trkpt lat="47.31864" lon="-2.28212">
        <ele>3</ele>
        <time>2021-02-28T09:16:37.000Z</time>
      </trkpt>
      <trkpt lat="47.31862" lon="-2.28171">
        <ele>3</ele>
        <time>2021-02-28T09:16:43.000Z</time>
      </trkpt>
      <trkpt lat="47.31865" lon="-2.28128">
        <ele>3</ele>
        <time>2021-02-28T09:16:48.000Z</time>
      </trkpt>
      <trkpt lat="47.31863" lon="-2.28071">
        <ele>3</ele>
        <time>2021-02-28T09:16:55.000Z</time>
      </trkpt>
      <trkpt lat="47.31863" lon="-2.28063">
        <ele>3</ele>
        <time>2021-02-28T09:16:56.000Z</time>
      </trkpt>
      <trkpt lat="47.31863" lon="-2.28031">
        <ele>3</ele>
        <time>2021-02-28T09:17:00.000Z</time>
      </trkpt>
      <trkpt lat="47.31861" lon="-2.27965">
        <ele>3</ele>
        <time>2021-02-28T09:17:08.000Z</time>
      </trkpt>
      <trkpt lat="47.3186" lon="-2.27896">
        <ele>3</ele>
        <time>2021-02-28T09:17:16.000Z</time>
      </trkpt>
      <trkpt lat="47.31865" lon="-2.27825">
        <ele>3</ele>
        <time>2021-02-28T09:17:24.000Z</time>
      </trkpt>
      <trkpt lat="47.31867" lon="-2.27754">
        <ele>3</ele>
        <time>2021-02-28T09:17:32.000Z</time>
      </trkpt>
      <trkpt lat="47.31868" lon="-2.27694">
        <ele>3</ele>
        <time>2021-02-28T09:17:39.000Z</time>
      </trkpt>
      <trkpt lat="47.31867" lon="-2.27623">
        <ele>3</ele>
        <time>2021-02-28T09:17:47.000Z</time>
      </trkpt>
      <trkpt lat="47.31866" lon="-2.27606">
        <ele>3</ele>
        <time>2021-02-28T09:17:49.000Z</time>
      </trkpt>
      <trkpt lat="47.31866" lon="-2.27567">
        <ele>3</ele>
        <time>2021-02-28T09:17:53.000Z</time>
      </trkpt>
      <trkpt lat="47.31862" lon="-2.27478">
        <ele>3</ele>
        <time>2021-02-28T09:18:02.000Z</time>
      </trkpt>
      <trkpt lat="47.3186" lon="-2.27423">
        <ele>3</ele>
        <time>2021-02-28T09:18:08.000Z</time>
      </trkpt>
      <trkpt lat="47.31858" lon="-2.27377">
        <ele>3</ele>
        <time>2021-02-28T09:18:13.000Z</time>
      </trkpt>
      <trkpt lat="47.31856" lon="-2.27317">
        <ele>3</ele>
        <time>2021-02-28T09:18:20.000Z</time>
      </trkpt>
      <trkpt lat="47.31854" lon="-2.27275">
        <ele>3</ele>
        <time>2021-02-28T09:18:25.000Z</time>
      </trkpt>
      <trkpt lat="47.31853" lon="-2.27208">
        <ele>3</ele>
        <time>2021-02-28T09:18:33.000Z</time>
      </trkpt>
      <trkpt lat="47.31851" lon="-2.2714">
        <ele>3</ele>
        <time>2021-02-28T09:18:42.000Z</time>
      </trkpt>
      <trkpt lat="47.3185" lon="-2.27133">
        <ele>3</ele>
        <time>2021-02-28T09:18:43.000Z</time>
      </trkpt>
      <trkpt lat="47.31848" lon="-2.27098">
        <ele>3</ele>
        <time>2021-02-28T09:18:48.000Z</time>
      </trkpt>
      <trkpt lat="47.31847" lon="-2.27076">
        <ele>3</ele>
        <time>2021-02-28T09:18:52.000Z</time>
      </trkpt>
      <trkpt lat="47.31847" lon="-2.27036">
        <ele>3</ele>
        <time>2021-02-28T09:18:57.000Z</time>
      </trkpt>
      <trkpt lat="47.31844" lon="-2.26992">
        <ele>2.5999999046326</ele>
        <time>2021-02-28T09:19:02.000Z</time>
      </trkpt>
      <trkpt lat="47.31845" lon="-2.26983">
        <ele>2.2000000476837</ele>
        <time>2021-02-28T09:19:03.000Z</time>
      </trkpt>
      <trkpt lat="47.31844" lon="-2.26973">
        <ele>1.3999999761581</ele>
        <time>2021-02-28T09:19:04.000Z</time>
      </trkpt>
      <trkpt lat="47.31844" lon="-2.26963">
        <ele>1</ele>
        <time>2021-02-28T09:19:05.000Z</time>
      </trkpt>
      <trkpt lat="47.31843" lon="-2.26926">
        <ele>1</ele>
        <time>2021-02-28T09:19:09.000Z</time>
      </trkpt>
      <trkpt lat="47.31839" lon="-2.26862">
        <ele>1</ele>
        <time>2021-02-28T09:19:16.000Z</time>
      </trkpt>
      <trkpt lat="47.31837" lon="-2.26823">
        <ele>1</ele>
        <time>2021-02-28T09:19:21.000Z</time>
      </trkpt>
      <trkpt lat="47.31835" lon="-2.26811">
        <ele>1</ele>
        <time>2021-02-28T09:19:23.000Z</time>
      </trkpt>
      <trkpt lat="47.31833" lon="-2.26792">
        <ele>1.3999999761581</ele>
        <time>2021-02-28T09:19:26.000Z</time>
      </trkpt>
      <trkpt lat="47.31834" lon="-2.26784">
        <ele>1.7999999523163</ele>
        <time>2021-02-28T09:19:27.000Z</time>
      </trkpt>
      <trkpt lat="47.31834" lon="-2.26777">
        <ele>2.5999999046326</ele>
        <time>2021-02-28T09:19:28.000Z</time>
      </trkpt>
      <trkpt lat="47.31836" lon="-2.26769">
        <ele>3</ele>
        <time>2021-02-28T09:19:29.000Z</time>
      </trkpt>
      <trkpt lat="47.31843" lon="-2.26751">
        <ele>3.5999999046326</ele>
        <time>2021-02-28T09:19:32.000Z</time>
      </trkpt>
      <trkpt lat="47.31847" lon="-2.26746">
        <ele>4</ele>
        <time>2021-02-28T09:19:33.000Z</time>
      </trkpt>
      <trkpt lat="47.31851" lon="-2.26742">
        <ele>4.4000000953674</ele>
        <time>2021-02-28T09:19:34.000Z</time>
      </trkpt>
      <trkpt lat="47.31856" lon="-2.26739">
        <ele>5</ele>
        <time>2021-02-28T09:19:35.000Z</time>
      </trkpt>
      <trkpt lat="47.31861" lon="-2.26735">
        <ele>5.4000000953674</ele>
        <time>2021-02-28T09:19:36.000Z</time>
      </trkpt>
      <trkpt lat="47.31886" lon="-2.26715">
        <ele>5.4000000953674</ele>
        <time>2021-02-28T09:19:41.000Z</time>
      </trkpt>
      <trkpt lat="47.31915" lon="-2.2669">
        <ele>5.4000000953674</ele>
        <time>2021-02-28T09:19:47.000Z</time>
      </trkpt>
      <trkpt lat="47.31951" lon="-2.26659">
        <ele>5.4000000953674</ele>
        <time>2021-02-28T09:19:54.000Z</time>
      </trkpt>
      <trkpt lat="47.31994" lon="-2.26626">
        <ele>5.4000000953674</ele>
        <time>2021-02-28T09:20:01.000Z</time>
      </trkpt>
      <trkpt lat="47.32026" lon="-2.26605">
        <ele>5</ele>
        <time>2021-02-28T09:20:06.000Z</time>
      </trkpt>
      <trkpt lat="47.32032" lon="-2.26601">
        <ele>4.5999999046326</ele>
        <time>2021-02-28T09:20:07.000Z</time>
      </trkpt>
      <trkpt lat="47.32038" lon="-2.26597">
        <ele>4.1999998092651</ele>
        <time>2021-02-28T09:20:08.000Z</time>
      </trkpt>
      <trkpt lat="47.32044" lon="-2.26594">
        <ele>3.7999999523163</ele>
        <time>2021-02-28T09:20:09.000Z</time>
      </trkpt>
      <trkpt lat="47.3205" lon="-2.26591">
        <ele>3.2000000476837</ele>
        <time>2021-02-28T09:20:10.000Z</time>
      </trkpt>
      <trkpt lat="47.32072" lon="-2.26581">
        <ele>3.2000000476837</ele>
        <time>2021-02-28T09:20:14.000Z</time>
      </trkpt>
      <trkpt lat="47.3209" lon="-2.2658">
        <ele>3.2000000476837</ele>
        <time>2021-02-28T09:20:17.000Z</time>
      </trkpt>
      <trkpt lat="47.32103" lon="-2.26584">
        <ele>3.2000000476837</ele>
        <time>2021-02-28T09:20:19.000Z</time>
      </trkpt>
      <trkpt lat="47.32141" lon="-2.26599">
        <ele>3.2000000476837</ele>
        <time>2021-02-28T09:20:25.000Z</time>
      </trkpt>
      <trkpt lat="47.32173" lon="-2.26608">
        <ele>3.2000000476837</ele>
        <time>2021-02-28T09:20:31.000Z</time>
      </trkpt>
      <trkpt lat="47.32214" lon="-2.26606">
        <ele>3.2000000476837</ele>
        <time>2021-02-28T09:20:38.000Z</time>
      </trkpt>
      <trkpt lat="47.32252" lon="-2.26606">
        <ele>2.7999999523163</ele>
        <time>2021-02-28T09:20:44.000Z</time>
      </trkpt>
      <trkpt lat="47.32258" lon="-2.26606">
        <ele>2.4000000953674</ele>
        <time>2021-02-28T09:20:45.000Z</time>
      </trkpt>
      <trkpt lat="47.32265" lon="-2.26605">
        <ele>2</ele>
        <time>2021-02-28T09:20:46.000Z</time>
      </trkpt>
      <trkpt lat="47.32272" lon="-2.26604">
        <ele>1.3999999761581</ele>
        <time>2021-02-28T09:20:47.000Z</time>
      </trkpt>
      <trkpt lat="47.3228" lon="-2.26602">
        <ele>1</ele>
        <time>2021-02-28T09:20:48.000Z</time>
      </trkpt>
      <trkpt lat="47.32292" lon="-2.26596">
        <ele>1</ele>
        <time>2021-02-28T09:20:50.000Z</time>
      </trkpt>
      <trkpt lat="47.32314" lon="-2.26569">
        <ele>1</ele>
        <time>2021-02-28T09:20:54.000Z</time>
      </trkpt>
      <trkpt lat="47.32319" lon="-2.26563">
        <ele>1</ele>
        <time>2021-02-28T09:20:55.000Z</time>
      </trkpt>
      <trkpt lat="47.32347" lon="-2.26536">
        <ele>1</ele>
        <time>2021-02-28T09:21:00.000Z</time>
      </trkpt>
      <trkpt lat="47.32369" lon="-2.26526">
        <ele>1</ele>
        <time>2021-02-28T09:21:04.000Z</time>
      </trkpt>
      <trkpt lat="47.32374" lon="-2.26528">
        <ele>1</ele>
        <time>2021-02-28T09:21:05.000Z</time>
      </trkpt>
      <trkpt lat="47.3238" lon="-2.26534">
        <ele>0.20000000298023</ele>
        <time>2021-02-28T09:21:06.000Z</time>
      </trkpt>
      <trkpt lat="47.32383" lon="-2.26542">
        <ele>-0.20000000298023</ele>
        <time>2021-02-28T09:21:07.000Z</time>
      </trkpt>
      <trkpt lat="47.32385" lon="-2.26551">
        <ele>-0.60000002384186</ele>
        <time>2021-02-28T09:21:08.000Z</time>
      </trkpt>
      <trkpt lat="47.32387" lon="-2.2656">
        <ele>-1</ele>
        <time>2021-02-28T09:21:09.000Z</time>
      </trkpt>
      <trkpt lat="47.32389" lon="-2.26569">
        <ele>-1</ele>
        <time>2021-02-28T09:21:10.000Z</time>
      </trkpt>
      <trkpt lat="47.32396" lon="-2.26601">
        <ele>-1</ele>
        <time>2021-02-28T09:21:14.000Z</time>
      </trkpt>
      <trkpt lat="47.32407" lon="-2.26634">
        <ele>-1</ele>
        <time>2021-02-28T09:21:18.000Z</time>
      </trkpt>
      <trkpt lat="47.32415" lon="-2.26658">
        <ele>-1</ele>
        <time>2021-02-28T09:21:21.000Z</time>
      </trkpt>
      <trkpt lat="47.3242" lon="-2.26688">
        <ele>-1</ele>
        <time>2021-02-28T09:21:24.000Z</time>
      </trkpt>
      <trkpt lat="47.32421" lon="-2.26707">
        <ele>-1</ele>
        <time>2021-02-28T09:21:26.000Z</time>
      </trkpt>
      <trkpt lat="47.32421" lon="-2.26771">
        <ele>-1</ele>
        <time>2021-02-28T09:21:32.000Z</time>
      </trkpt>
      <trkpt lat="47.32427" lon="-2.26858">
        <ele>-1</ele>
        <time>2021-02-28T09:21:40.000Z</time>
      </trkpt>
      <trkpt lat="47.32438" lon="-2.26928">
        <ele>-1</ele>
        <time>2021-02-28T09:21:47.000Z</time>
      </trkpt>
      <trkpt lat="47.32451" lon="-2.26991">
        <ele>-1</ele>
        <time>2021-02-28T09:21:54.000Z</time>
      </trkpt>
      <trkpt lat="47.32452" lon="-2.27008">
        <ele>-1</ele>
        <time>2021-02-28T09:21:56.000Z</time>
      </trkpt>
      <trkpt lat="47.32447" lon="-2.27022">
        <ele>-1</ele>
        <time>2021-02-28T09:21:58.000Z</time>
      </trkpt>
      <trkpt lat="47.32436" lon="-2.27024">
        <ele>-1</ele>
        <time>2021-02-28T09:22:00.000Z</time>
      </trkpt>
      <trkpt lat="47.3243" lon="-2.27022">
        <ele>-1</ele>
        <time>2021-02-28T09:22:01.000Z</time>
      </trkpt>
      <trkpt lat="47.32399" lon="-2.2702">
        <ele>-1</ele>
        <time>2021-02-28T09:22:07.000Z</time>
      </trkpt>
      <trkpt lat="47.32394" lon="-2.27019">
        <ele>-0.60000002384186</ele>
        <time>2021-02-28T09:22:08.000Z</time>
      </trkpt>
      <trkpt lat="47.3239" lon="-2.27021">
        <ele>-0.20000000298023</ele>
        <time>2021-02-28T09:22:09.000Z</time>
      </trkpt>
      <trkpt lat="47.32387" lon="-2.27023">
        <ele>0.20000000298023</ele>
        <time>2021-02-28T09:22:10.000Z</time>
      </trkpt>
      <trkpt lat="47.32384" lon="-2.27028">
        <ele>0.60000002384186</ele>
        <time>2021-02-28T09:22:11.000Z</time>
      </trkpt>
      <trkpt lat="47.32383" lon="-2.27036">
        <ele>1</ele>
        <time>2021-02-28T09:22:12.000Z</time>
      </trkpt>
      <trkpt lat="47.32382" lon="-2.27042">
        <ele>1</ele>
        <time>2021-02-28T09:22:13.000Z</time>
      </trkpt>
      <trkpt lat="47.32382" lon="-2.2705">
        <ele>1</ele>
        <time>2021-02-28T09:22:14.000Z</time>
      </trkpt>
      <trkpt lat="47.32383" lon="-2.27067">
        <ele>1</ele>
        <time>2021-02-28T09:22:16.000Z</time>
      </trkpt>
      <trkpt lat="47.32384" lon="-2.27075">
        <ele>1</ele>
        <time>2021-02-28T09:22:17.000Z</time>
      </trkpt>
      <trkpt lat="47.32389" lon="-2.27126">
        <ele>1</ele>
        <time>2021-02-28T09:22:23.000Z</time>
      </trkpt>
      <trkpt lat="47.32388" lon="-2.27144">
        <ele>1</ele>
        <time>2021-02-28T09:22:25.000Z</time>
      </trkpt>
      <trkpt lat="47.32378" lon="-2.27184">
        <ele>1</ele>
        <time>2021-02-28T09:22:30.000Z</time>
      </trkpt>
      <trkpt lat="47.32366" lon="-2.27213">
        <ele>1</ele>
        <time>2021-02-28T09:22:35.000Z</time>
      </trkpt>
      <trkpt lat="47.32358" lon="-2.27234">
        <ele>1</ele>
        <time>2021-02-28T09:22:39.000Z</time>
      </trkpt>
      <trkpt lat="47.32353" lon="-2.27243">
        <ele>1</ele>
        <time>2021-02-28T09:22:41.000Z</time>
      </trkpt>
      <trkpt lat="47.32343" lon="-2.27255">
        <ele>1</ele>
        <time>2021-02-28T09:22:44.000Z</time>
      </trkpt>
      <trkpt lat="47.32327" lon="-2.2727">
        <ele>1</ele>
        <time>2021-02-28T09:22:48.000Z</time>
      </trkpt>
      <trkpt lat="47.3229" lon="-2.27293">
        <ele>1</ele>
        <time>2021-02-28T09:22:56.000Z</time>
      </trkpt>
      <trkpt lat="47.32262" lon="-2.2731">
        <ele>1</ele>
        <time>2021-02-28T09:23:02.000Z</time>
      </trkpt>
      <trkpt lat="47.32255" lon="-2.27319">
        <ele>1</ele>
        <time>2021-02-28T09:23:04.000Z</time>
      </trkpt>
      <trkpt lat="47.3225" lon="-2.27344">
        <ele>1</ele>
        <time>2021-02-28T09:23:08.000Z</time>
      </trkpt>
      <trkpt lat="47.32251" lon="-2.2735">
        <ele>1</ele>
        <time>2021-02-28T09:23:09.000Z</time>
      </trkpt>
      <trkpt lat="47.32254" lon="-2.27376">
        <ele>1</ele>
        <time>2021-02-28T09:23:13.000Z</time>
      </trkpt>
      <trkpt lat="47.32254" lon="-2.27405">
        <ele>1</ele>
        <time>2021-02-28T09:23:17.000Z</time>
      </trkpt>
      <trkpt lat="47.32253" lon="-2.27417">
        <ele>1</ele>
        <time>2021-02-28T09:23:19.000Z</time>
      </trkpt>
      <trkpt lat="47.32248" lon="-2.27448">
        <ele>1</ele>
        <time>2021-02-28T09:23:25.000Z</time>
      </trkpt>
      <trkpt lat="47.32245" lon="-2.27478">
        <ele>1</ele>
        <time>2021-02-28T09:23:30.000Z</time>
      </trkpt>
      <trkpt lat="47.32245" lon="-2.27483">
        <ele>1</ele>
        <time>2021-02-28T09:23:31.000Z</time>
      </trkpt>
      <trkpt lat="47.32251" lon="-2.27501">
        <ele>1</ele>
        <time>2021-02-28T09:23:35.000Z</time>
      </trkpt>
      <trkpt lat="47.32263" lon="-2.275">
        <ele>1</ele>
        <time>2021-02-28T09:23:38.000Z</time>
      </trkpt>
      <trkpt lat="47.32267" lon="-2.27499">
        <ele>1</ele>
        <time>2021-02-28T09:23:39.000Z</time>
      </trkpt>
      <trkpt lat="47.32289" lon="-2.275">
        <ele>1</ele>
        <time>2021-02-28T09:23:43.000Z</time>
      </trkpt>
      <trkpt lat="47.32294" lon="-2.275">
        <ele>1</ele>
        <time>2021-02-28T09:23:44.000Z</time>
      </trkpt>
      <trkpt lat="47.3231" lon="-2.27502">
        <ele>1</ele>
        <time>2021-02-28T09:23:47.000Z</time>
      </trkpt>
      <trkpt lat="47.32325" lon="-2.27505">
        <ele>1</ele>
        <time>2021-02-28T09:23:50.000Z</time>
      </trkpt>
      <trkpt lat="47.32354" lon="-2.27511">
        <ele>1</ele>
        <time>2021-02-28T09:23:56.000Z</time>
      </trkpt>
      <trkpt lat="47.32357" lon="-2.27514">
        <ele>1</ele>
        <time>2021-02-28T09:23:57.000Z</time>
      </trkpt>
      <trkpt lat="47.32364" lon="-2.27533">
        <ele>0.20000000298023</ele>
        <time>2021-02-28T09:24:00.000Z</time>
      </trkpt>
      <trkpt lat="47.32366" lon="-2.2754">
        <ele>-0.20000000298023</ele>
        <time>2021-02-28T09:24:01.000Z</time>
      </trkpt>
      <trkpt lat="47.32367" lon="-2.27547">
        <ele>-0.80000001192093</ele>
        <time>2021-02-28T09:24:02.000Z</time>
      </trkpt>
      <trkpt lat="47.32368" lon="-2.27554">
        <ele>-1.2000000476837</ele>
        <time>2021-02-28T09:24:03.000Z</time>
      </trkpt>
      <trkpt lat="47.32369" lon="-2.27568">
        <ele>-1.2000000476837</ele>
        <time>2021-02-28T09:24:05.000Z</time>
      </trkpt>
      <trkpt lat="47.32368" lon="-2.27575">
        <ele>-1.2000000476837</ele>
        <time>2021-02-28T09:24:06.000Z</time>
      </trkpt>
      <trkpt lat="47.32365" lon="-2.27606">
        <ele>-1.2000000476837</ele>
        <time>2021-02-28T09:24:10.000Z</time>
      </trkpt>
      <trkpt lat="47.32364" lon="-2.27614">
        <ele>-1.2000000476837</ele>
        <time>2021-02-28T09:24:11.000Z</time>
      </trkpt>
      <trkpt lat="47.32362" lon="-2.27638">
        <ele>-1.2000000476837</ele>
        <time>2021-02-28T09:24:14.000Z</time>
      </trkpt>
      <trkpt lat="47.32359" lon="-2.27653">
        <ele>-1.2000000476837</ele>
        <time>2021-02-28T09:24:16.000Z</time>
      </trkpt>
      <trkpt lat="47.32352" lon="-2.27695">
        <ele>-1.2000000476837</ele>
        <time>2021-02-28T09:24:21.000Z</time>
      </trkpt>
      <trkpt lat="47.32344" lon="-2.27751">
        <ele>-1.2000000476837</ele>
        <time>2021-02-28T09:24:27.000Z</time>
      </trkpt>
      <trkpt lat="47.32342" lon="-2.2776">
        <ele>-0.80000001192093</ele>
        <time>2021-02-28T09:24:28.000Z</time>
      </trkpt>
      <trkpt lat="47.32341" lon="-2.27768">
        <ele>-0.40000000596046</ele>
        <time>2021-02-28T09:24:29.000Z</time>
      </trkpt>
      <trkpt lat="47.32339" lon="-2.27776">
        <ele>2.8</ele>
        <time>2021-02-28T09:24:30.000Z</time>
      </trkpt>
      <trkpt lat="47.32337" lon="-2.27783">
        <ele>0.40000000596046</ele>
        <time>2021-02-28T09:24:31.000Z</time>
      </trkpt>
      <trkpt lat="47.32335" lon="-2.27791">
        <ele>0.80000001192093</ele>
        <time>2021-02-28T09:24:32.000Z</time>
      </trkpt>
      <trkpt lat="47.32331" lon="-2.27806">
        <ele>0.80000001192093</ele>
        <time>2021-02-28T09:24:34.000Z</time>
      </trkpt>
      <trkpt lat="47.32328" lon="-2.27811">
        <ele>0.80000001192093</ele>
        <time>2021-02-28T09:24:35.000Z</time>
      </trkpt>
      <trkpt lat="47.32324" lon="-2.27822">
        <ele>0.80000001192093</ele>
        <time>2021-02-28T09:24:38.000Z</time>
      </trkpt>
      <trkpt lat="47.32324" lon="-2.2783">
        <ele>0.80000001192093</ele>
        <time>2021-02-28T09:24:40.000Z</time>
      </trkpt>
      <trkpt lat="47.32326" lon="-2.27834">
        <ele>0.80000001192093</ele>
        <time>2021-02-28T09:24:42.000Z</time>
      </trkpt>
      <trkpt lat="47.3233" lon="-2.27835">
        <ele>0.80000001192093</ele>
        <time>2021-02-28T09:24:45.000Z</time>
      </trkpt>
      <trkpt lat="47.32336" lon="-2.27833">
        <ele>0.40000000596046</ele>
        <time>2021-02-28T09:24:48.000Z</time>
      </trkpt>
      <trkpt lat="47.32338" lon="-2.27833">
        <ele>1.9</ele>
        <time>2021-02-28T09:24:49.000Z</time>
      </trkpt>
      <trkpt lat="47.3234" lon="-2.27833">
        <ele>-0.80000001192093</ele>
        <time>2021-02-28T09:24:50.000Z</time>
      </trkpt>
      <trkpt lat="47.32341" lon="-2.27834">
        <ele>-1.2000000476837</ele>
        <time>2021-02-28T09:24:51.000Z</time>
      </trkpt>
      <trkpt lat="47.32341" lon="-2.27836">
        <ele>-1.2000000476837</ele>
        <time>2021-02-28T09:24:52.000Z</time>
      </trkpt>
      <trkpt lat="47.32341" lon="-2.27836">
        <ele>-1.2000000476837</ele>
        <time>2021-02-28T09:24:53.000Z</time>
      </trkpt>
      <trkpt lat="47.32343" lon="-2.27836">
        <ele>-1.2000000476837</ele>
        <time>2021-02-28T09:24:58.000Z</time>
      </trkpt>
      <trkpt lat="47.32346" lon="-2.27835">
        <ele>-1.2000000476837</ele>
        <time>2021-02-28T09:25:00.000Z</time>
      </trkpt>
      <trkpt lat="47.32363" lon="-2.2783">
        <ele>-1.2000000476837</ele>
        <time>2021-02-28T09:25:06.000Z</time>
      </trkpt>
      <trkpt lat="47.3238" lon="-2.27834">
        <ele>-1.2000000476837</ele>
        <time>2021-02-28T09:25:11.000Z</time>
      </trkpt>
      <trkpt lat="47.32411" lon="-2.27831">
        <ele>-1.2000000476837</ele>
        <time>2021-02-28T09:25:18.000Z</time>
      </trkpt>
      <trkpt lat="47.32452" lon="-2.27828">
        <ele>-1.2000000476837</ele>
        <time>2021-02-28T09:25:26.000Z</time>
      </trkpt>
      <trkpt lat="47.32486" lon="-2.27828">
        <ele>-1.2000000476837</ele>
        <time>2021-02-28T09:25:32.000Z</time>
      </trkpt>
      <trkpt lat="47.32492" lon="-2.27829">
        <ele>-1.2000000476837</ele>
        <time>2021-02-28T09:25:33.000Z</time>
      </trkpt>
      <trkpt lat="47.32497" lon="-2.2783">
        <ele>-1.2000000476837</ele>
        <time>2021-02-28T09:25:34.000Z</time>
      </trkpt>
      <trkpt lat="47.32512" lon="-2.27841">
        <ele>-1.2000000476837</ele>
        <time>2021-02-28T09:25:37.000Z</time>
      </trkpt>
      <trkpt lat="47.32524" lon="-2.27868">
        <ele>-1.2000000476837</ele>
        <time>2021-02-28T09:25:41.000Z</time>
      </trkpt>
      <trkpt lat="47.32528" lon="-2.2789">
        <ele>-1.2000000476837</ele>
        <time>2021-02-28T09:25:44.000Z</time>
      </trkpt>
      <trkpt lat="47.32534" lon="-2.27918">
        <ele>-1.2000000476837</ele>
        <time>2021-02-28T09:25:48.000Z</time>
      </trkpt>
      <trkpt lat="47.32543" lon="-2.27963">
        <ele>-1.2000000476837</ele>
        <time>2021-02-28T09:25:55.000Z</time>
      </trkpt>
      <trkpt lat="47.32549" lon="-2.27991">
        <ele>-1.2000000476837</ele>
        <time>2021-02-28T09:26:01.000Z</time>
      </trkpt>
      <trkpt lat="47.32557" lon="-2.28029">
        <ele>-1.2000000476837</ele>
        <time>2021-02-28T09:26:09.000Z</time>
      </trkpt>
      <trkpt lat="47.32567" lon="-2.28075">
        <ele>-1.2000000476837</ele>
        <time>2021-02-28T09:26:18.000Z</time>
      </trkpt>
      <trkpt lat="47.32572" lon="-2.28098">
        <ele>-1.2000000476837</ele>
        <time>2021-02-28T09:26:22.000Z</time>
      </trkpt>
      <trkpt lat="47.32575" lon="-2.28116">
        <ele>-1.2000000476837</ele>
        <time>2021-02-28T09:26:25.000Z</time>
      </trkpt>
      <trkpt lat="47.32588" lon="-2.28165">
        <ele>-1.2000000476837</ele>
        <time>2021-02-28T09:26:33.000Z</time>
      </trkpt>
      <trkpt lat="47.32597" lon="-2.28209">
        <ele>-1.2000000476837</ele>
        <time>2021-02-28T09:26:40.000Z</time>
      </trkpt>
      <trkpt lat="47.32609" lon="-2.28262">
        <ele>-1.2000000476837</ele>
        <time>2021-02-28T09:26:48.000Z</time>
      </trkpt>
      <trkpt lat="47.3262" lon="-2.28314">
        <ele>-1.2000000476837</ele>
        <time>2021-02-28T09:26:56.000Z</time>
      </trkpt>
      <trkpt lat="47.32623" lon="-2.2832">
        <ele>-1.2000000476837</ele>
        <time>2021-02-28T09:26:57.000Z</time>
      </trkpt>
      <trkpt lat="47.32636" lon="-2.28338">
        <ele>-1.2000000476837</ele>
        <time>2021-02-28T09:27:01.000Z</time>
      </trkpt>
      <trkpt lat="47.32651" lon="-2.28343">
        <ele>-1.2000000476837</ele>
        <time>2021-02-28T09:27:05.000Z</time>
      </trkpt>
      <trkpt lat="47.32667" lon="-2.28333">
        <ele>-1.2000000476837</ele>
        <time>2021-02-28T09:27:09.000Z</time>
      </trkpt>
      <trkpt lat="47.32674" lon="-2.28327">
        <ele>-1.2000000476837</ele>
        <time>2021-02-28T09:27:11.000Z</time>
      </trkpt>
      <trkpt lat="47.32678" lon="-2.28323">
        <ele>-1.2000000476837</ele>
        <time>2021-02-28T09:27:12.000Z</time>
      </trkpt>
      <trkpt lat="47.32685" lon="-2.28316">
        <ele>-0.80000001192093</ele>
        <time>2021-02-28T09:27:14.000Z</time>
      </trkpt>
      <trkpt lat="47.32689" lon="-2.28314">
        <ele>-0.40000000596046</ele>
        <time>2021-02-28T09:27:15.000Z</time>
      </trkpt>
      <trkpt lat="47.32693" lon="-2.28311">
        <ele>3</ele>
        <time>2021-02-28T09:27:16.000Z</time>
      </trkpt>
      <trkpt lat="47.32697" lon="-2.2831">
        <ele>0.40000000596046</ele>
        <time>2021-02-28T09:27:17.000Z</time>
      </trkpt>
      <trkpt lat="47.327" lon="-2.2831">
        <ele>0.80000001192093</ele>
        <time>2021-02-28T09:27:18.000Z</time>
      </trkpt>
      <trkpt lat="47.32703" lon="-2.28313">
        <ele>0.80000001192093</ele>
        <time>2021-02-28T09:27:19.000Z</time>
      </trkpt>
      <trkpt lat="47.32707" lon="-2.28329">
        <ele>0.80000001192093</ele>
        <time>2021-02-28T09:27:22.000Z</time>
      </trkpt>
      <trkpt lat="47.32713" lon="-2.28377">
        <ele>0.80000001192093</ele>
        <time>2021-02-28T09:27:30.000Z</time>
      </trkpt>
      <trkpt lat="47.32718" lon="-2.28421">
        <ele>0.80000001192093</ele>
        <time>2021-02-28T09:27:38.000Z</time>
      </trkpt>
      <trkpt lat="47.32721" lon="-2.28466">
        <ele>0.80000001192093</ele>
        <time>2021-02-28T09:27:46.000Z</time>
      </trkpt>
      <trkpt lat="47.32725" lon="-2.28511">
        <ele>0.80000001192093</ele>
        <time>2021-02-28T09:27:54.000Z</time>
      </trkpt>
      <trkpt lat="47.32731" lon="-2.28558">
        <ele>0.80000001192093</ele>
        <time>2021-02-28T09:28:02.000Z</time>
      </trkpt>
      <trkpt lat="47.32733" lon="-2.28569">
        <ele>0.80000001192093</ele>
        <time>2021-02-28T09:28:04.000Z</time>
      </trkpt>
      <trkpt lat="47.32741" lon="-2.2859">
        <ele>0.80000001192093</ele>
        <time>2021-02-28T09:28:08.000Z</time>
      </trkpt>
      <trkpt lat="47.32744" lon="-2.28595">
        <ele>0.80000001192093</ele>
        <time>2021-02-28T09:28:09.000Z</time>
      </trkpt>
      <trkpt lat="47.3275" lon="-2.28609">
        <ele>1.2000000476837</ele>
        <time>2021-02-28T09:28:12.000Z</time>
      </trkpt>
      <trkpt lat="47.32753" lon="-2.28614">
        <ele>1.6000000238419</ele>
        <time>2021-02-28T09:28:13.000Z</time>
      </trkpt>
      <trkpt lat="47.32755" lon="-2.28618">
        <ele>2</ele>
        <time>2021-02-28T09:28:14.000Z</time>
      </trkpt>
      <trkpt lat="47.32758" lon="-2.28623">
        <ele>2.4000000953674</ele>
        <time>2021-02-28T09:28:15.000Z</time>
      </trkpt>
      <trkpt lat="47.3276" lon="-2.28627">
        <ele>2.7999999523163</ele>
        <time>2021-02-28T09:28:16.000Z</time>
      </trkpt>
      <trkpt lat="47.3278" lon="-2.28665">
        <ele>2.7999999523163</ele>
        <time>2021-02-28T09:28:24.000Z</time>
      </trkpt>
      <trkpt lat="47.32785" lon="-2.2868">
        <ele>2.7999999523163</ele>
        <time>2021-02-28T09:28:27.000Z</time>
      </trkpt>
      <trkpt lat="47.3279" lon="-2.28697">
        <ele>2.7999999523163</ele>
        <time>2021-02-28T09:28:30.000Z</time>
      </trkpt>
      <trkpt lat="47.32796" lon="-2.2875">
        <ele>2.7999999523163</ele>
        <time>2021-02-28T09:28:39.000Z</time>
      </trkpt>
      <trkpt lat="47.32799" lon="-2.28801">
        <ele>2.7999999523163</ele>
        <time>2021-02-28T09:28:47.000Z</time>
      </trkpt>
      <trkpt lat="47.32799" lon="-2.28808">
        <ele>2.7999999523163</ele>
        <time>2021-02-28T09:28:48.000Z</time>
      </trkpt>
      <trkpt lat="47.32794" lon="-2.28838">
        <ele>2.7999999523163</ele>
        <time>2021-02-28T09:28:52.000Z</time>
      </trkpt>
      <trkpt lat="47.32779" lon="-2.28886">
        <ele>2.7999999523163</ele>
        <time>2021-02-28T09:28:59.000Z</time>
      </trkpt>
      <trkpt lat="47.32774" lon="-2.28908">
        <ele>2.7999999523163</ele>
        <time>2021-02-28T09:29:02.000Z</time>
      </trkpt>
      <trkpt lat="47.32771" lon="-2.28931">
        <ele>2.7999999523163</ele>
        <time>2021-02-28T09:29:05.000Z</time>
      </trkpt>
      <trkpt lat="47.32771" lon="-2.28939">
        <ele>2.7999999523163</ele>
        <time>2021-02-28T09:29:06.000Z</time>
      </trkpt>
      <trkpt lat="47.32766" lon="-2.28993">
        <ele>2.7999999523163</ele>
        <time>2021-02-28T09:29:14.000Z</time>
      </trkpt>
      <trkpt lat="47.32768" lon="-2.29002">
        <ele>2.7999999523163</ele>
        <time>2021-02-28T09:29:16.000Z</time>
      </trkpt>
      <trkpt lat="47.32772" lon="-2.29003">
        <ele>2.7999999523163</ele>
        <time>2021-02-28T09:29:17.000Z</time>
      </trkpt>
      <trkpt lat="47.32784" lon="-2.28997">
        <ele>2.7999999523163</ele>
        <time>2021-02-28T09:29:20.000Z</time>
      </trkpt>
      <trkpt lat="47.32788" lon="-2.28994">
        <ele>2.7999999523163</ele>
        <time>2021-02-28T09:29:21.000Z</time>
      </trkpt>
      <trkpt lat="47.32811" lon="-2.28979">
        <ele>2.7999999523163</ele>
        <time>2021-02-28T09:29:26.000Z</time>
      </trkpt>
      <trkpt lat="47.32816" lon="-2.28974">
        <ele>2.7999999523163</ele>
        <time>2021-02-28T09:29:27.000Z</time>
      </trkpt>
      <trkpt lat="47.32849" lon="-2.28946">
        <ele>2.7999999523163</ele>
        <time>2021-02-28T09:29:34.000Z</time>
      </trkpt>
      <trkpt lat="47.32863" lon="-2.28933">
        <ele>2.7999999523163</ele>
        <time>2021-02-28T09:29:37.000Z</time>
      </trkpt>
      <trkpt lat="47.32872" lon="-2.2893">
        <ele>2.7999999523163</ele>
        <time>2021-02-28T09:29:39.000Z</time>
      </trkpt>
      <trkpt lat="47.32883" lon="-2.28931">
        <ele>2.7999999523163</ele>
        <time>2021-02-28T09:29:41.000Z</time>
      </trkpt>
      <trkpt lat="47.32893" lon="-2.28933">
        <ele>3.2000000476837</ele>
        <time>2021-02-28T09:29:43.000Z</time>
      </trkpt>
      <trkpt lat="47.32899" lon="-2.28934">
        <ele>3.7999999523163</ele>
        <time>2021-02-28T09:29:44.000Z</time>
      </trkpt>
      <trkpt lat="47.32904" lon="-2.28934">
        <ele>4.1999998092651</ele>
        <time>2021-02-28T09:29:45.000Z</time>
      </trkpt>
      <trkpt lat="47.3291" lon="-2.28933">
        <ele>5</ele>
        <time>2021-02-28T09:29:46.000Z</time>
      </trkpt>
      <trkpt lat="47.32927" lon="-2.28926">
        <ele>5</ele>
        <time>2021-02-28T09:29:49.000Z</time>
      </trkpt>
      <trkpt lat="47.32936" lon="-2.28918">
        <ele>5</ele>
        <time>2021-02-28T09:29:51.000Z</time>
      </trkpt>
      <trkpt lat="47.32945" lon="-2.2891">
        <ele>5</ele>
        <time>2021-02-28T09:29:53.000Z</time>
      </trkpt>
      <trkpt lat="47.32949" lon="-2.28905">
        <ele>5</ele>
        <time>2021-02-28T09:29:54.000Z</time>
      </trkpt>
      <trkpt lat="47.32958" lon="-2.28897">
        <ele>5.4000000953674</ele>
        <time>2021-02-28T09:29:56.000Z</time>
      </trkpt>
      <trkpt lat="47.32962" lon="-2.28893">
        <ele>5.8000001907349</ele>
        <time>2021-02-28T09:29:57.000Z</time>
      </trkpt>
      <trkpt lat="47.32967" lon="-2.28889">
        <ele>6.1999998092651</ele>
        <time>2021-02-28T09:29:58.000Z</time>
      </trkpt>
      <trkpt lat="47.32973" lon="-2.28884">
        <ele>6.5999999046326</ele>
        <time>2021-02-28T09:29:59.000Z</time>
      </trkpt>
      <trkpt lat="47.32978" lon="-2.2888">
        <ele>7</ele>
        <time>2021-02-28T09:30:00.000Z</time>
      </trkpt>
      <trkpt lat="47.33015" lon="-2.28853">
        <ele>7</ele>
        <time>2021-02-28T09:30:07.000Z</time>
      </trkpt>
      <trkpt lat="47.33064" lon="-2.28824">
        <ele>7</ele>
        <time>2021-02-28T09:30:16.000Z</time>
      </trkpt>
      <trkpt lat="47.3309" lon="-2.28811">
        <ele>7</ele>
        <time>2021-02-28T09:30:21.000Z</time>
      </trkpt>
      <trkpt lat="47.33095" lon="-2.28811">
        <ele>7</ele>
        <time>2021-02-28T09:30:22.000Z</time>
      </trkpt>
      <trkpt lat="47.33105" lon="-2.28824">
        <ele>7</ele>
        <time>2021-02-28T09:30:25.000Z</time>
      </trkpt>
      <trkpt lat="47.33106" lon="-2.28831">
        <ele>7</ele>
        <time>2021-02-28T09:30:26.000Z</time>
      </trkpt>
      <trkpt lat="47.33109" lon="-2.28845">
        <ele>7</ele>
        <time>2021-02-28T09:30:28.000Z</time>
      </trkpt>
      <trkpt lat="47.33111" lon="-2.28852">
        <ele>7</ele>
        <time>2021-02-28T09:30:29.000Z</time>
      </trkpt>
      <trkpt lat="47.33122" lon="-2.28888">
        <ele>7</ele>
        <time>2021-02-28T09:30:34.000Z</time>
      </trkpt>
      <trkpt lat="47.33123" lon="-2.28896">
        <ele>7</ele>
        <time>2021-02-28T09:30:35.000Z</time>
      </trkpt>
      <trkpt lat="47.33122" lon="-2.28921">
        <ele>7</ele>
        <time>2021-02-28T09:30:38.000Z</time>
      </trkpt>
      <trkpt lat="47.33118" lon="-2.28947">
        <ele>7</ele>
        <time>2021-02-28T09:30:41.000Z</time>
      </trkpt>
      <trkpt lat="47.33113" lon="-2.28973">
        <ele>7</ele>
        <time>2021-02-28T09:30:44.000Z</time>
      </trkpt>
      <trkpt lat="47.3311" lon="-2.28992">
        <ele>7</ele>
        <time>2021-02-28T09:30:46.000Z</time>
      </trkpt>
      <trkpt lat="47.33105" lon="-2.29016">
        <ele>7</ele>
        <time>2021-02-28T09:30:49.000Z</time>
      </trkpt>
      <trkpt lat="47.331" lon="-2.29029">
        <ele>7</ele>
        <time>2021-02-28T09:30:51.000Z</time>
      </trkpt>
      <trkpt lat="47.33098" lon="-2.29037">
        <ele>7</ele>
        <time>2021-02-28T09:30:52.000Z</time>
      </trkpt>
      <trkpt lat="47.33098" lon="-2.29052">
        <ele>7</ele>
        <time>2021-02-28T09:30:54.000Z</time>
      </trkpt>
      <trkpt lat="47.33105" lon="-2.2906">
        <ele>7</ele>
        <time>2021-02-28T09:30:56.000Z</time>
      </trkpt>
      <trkpt lat="47.3312" lon="-2.29056">
        <ele>7</ele>
        <time>2021-02-28T09:30:59.000Z</time>
      </trkpt>
      <trkpt lat="47.33153" lon="-2.2905">
        <ele>7</ele>
        <time>2021-02-28T09:31:05.000Z</time>
      </trkpt>
      <trkpt lat="47.33187" lon="-2.29055">
        <ele>7</ele>
        <time>2021-02-28T09:31:12.000Z</time>
      </trkpt>
      <trkpt lat="47.33211" lon="-2.29062">
        <ele>7</ele>
        <time>2021-02-28T09:31:17.000Z</time>
      </trkpt>
      <trkpt lat="47.33218" lon="-2.29065">
        <ele>7</ele>
        <time>2021-02-28T09:31:19.000Z</time>
      </trkpt>
      <trkpt lat="47.3323" lon="-2.2907">
        <ele>7</ele>
        <time>2021-02-28T09:31:23.000Z</time>
      </trkpt>
      <trkpt lat="47.33233" lon="-2.29067">
        <ele>6.1999998092651</ele>
        <time>2021-02-28T09:31:24.000Z</time>
      </trkpt>
      <trkpt lat="47.33234" lon="-2.29064">
        <ele>5.8000001907349</ele>
        <time>2021-02-28T09:31:25.000Z</time>
      </trkpt>
      <trkpt lat="47.33235" lon="-2.29061">
        <ele>5.4000000953674</ele>
        <time>2021-02-28T09:31:26.000Z</time>
      </trkpt>
      <trkpt lat="47.33235" lon="-2.29057">
        <ele>5</ele>
        <time>2021-02-28T09:31:27.000Z</time>
      </trkpt>
      <trkpt lat="47.33235" lon="-2.29052">
        <ele>5</ele>
        <time>2021-02-28T09:31:28.000Z</time>
      </trkpt>
      <trkpt lat="47.33237" lon="-2.29029">
        <ele>5</ele>
        <time>2021-02-28T09:31:32.000Z</time>
      </trkpt>
      <trkpt lat="47.3324" lon="-2.28986">
        <ele>5</ele>
        <time>2021-02-28T09:31:38.000Z</time>
      </trkpt>
      <trkpt lat="47.33246" lon="-2.28961">
        <ele>5</ele>
        <time>2021-02-28T09:31:41.000Z</time>
      </trkpt>
      <trkpt lat="47.3325" lon="-2.28955">
        <ele>5</ele>
        <time>2021-02-28T09:31:42.000Z</time>
      </trkpt>
      <trkpt lat="47.33266" lon="-2.28939">
        <ele>5</ele>
        <time>2021-02-28T09:31:45.000Z</time>
      </trkpt>
      <trkpt lat="47.33272" lon="-2.28935">
        <ele>5</ele>
        <time>2021-02-28T09:31:46.000Z</time>
      </trkpt>
      <trkpt lat="47.33325" lon="-2.28902">
        <ele>5</ele>
        <time>2021-02-28T09:31:54.000Z</time>
      </trkpt>
      <trkpt lat="47.33366" lon="-2.28884">
        <ele>5</ele>
        <time>2021-02-28T09:32:00.000Z</time>
      </trkpt>
      <trkpt lat="47.33406" lon="-2.28865">
        <ele>4.5999999046326</ele>
        <time>2021-02-28T09:32:06.000Z</time>
      </trkpt>
      <trkpt lat="47.33412" lon="-2.28861">
        <ele>4.1999998092651</ele>
        <time>2021-02-28T09:32:07.000Z</time>
      </trkpt>
      <trkpt lat="47.33418" lon="-2.28856">
        <ele>3.7999999523163</ele>
        <time>2021-02-28T09:32:08.000Z</time>
      </trkpt>
      <trkpt lat="47.33424" lon="-2.2885">
        <ele>3.2000000476837</ele>
        <time>2021-02-28T09:32:09.000Z</time>
      </trkpt>
      <trkpt lat="47.33429" lon="-2.28844">
        <ele>2.7999999523163</ele>
        <time>2021-02-28T09:32:10.000Z</time>
      </trkpt>
      <trkpt lat="47.33442" lon="-2.28824">
        <ele>2.7999999523163</ele>
        <time>2021-02-28T09:32:13.000Z</time>
      </trkpt>
      <trkpt lat="47.33468" lon="-2.2877">
        <ele>2.7999999523163</ele>
        <time>2021-02-28T09:32:20.000Z</time>
      </trkpt>
      <trkpt lat="47.3349" lon="-2.28724">
        <ele>2.7999999523163</ele>
        <time>2021-02-28T09:32:26.000Z</time>
      </trkpt>
      <trkpt lat="47.33518" lon="-2.28688">
        <ele>2.7999999523163</ele>
        <time>2021-02-28T09:32:32.000Z</time>
      </trkpt>
      <trkpt lat="47.33524" lon="-2.28684">
        <ele>2.7999999523163</ele>
        <time>2021-02-28T09:32:33.000Z</time>
      </trkpt>
      <trkpt lat="47.33545" lon="-2.28674">
        <ele>2.7999999523163</ele>
        <time>2021-02-28T09:32:36.000Z</time>
      </trkpt>
      <trkpt lat="47.33589" lon="-2.28653">
        <ele>2.7999999523163</ele>
        <time>2021-02-28T09:32:43.000Z</time>
      </trkpt>
      <trkpt lat="47.33624" lon="-2.28636">
        <ele>2.4000000953674</ele>
        <time>2021-02-28T09:32:49.000Z</time>
      </trkpt>
      <trkpt lat="47.3363" lon="-2.28632">
        <ele>2</ele>
        <time>2021-02-28T09:32:50.000Z</time>
      </trkpt>
      <trkpt lat="47.33636" lon="-2.28628">
        <ele>1.6000000238419</ele>
        <time>2021-02-28T09:32:51.000Z</time>
      </trkpt>
      <trkpt lat="47.33642" lon="-2.28624">
        <ele>1</ele>
        <time>2021-02-28T09:32:52.000Z</time>
      </trkpt>
      <trkpt lat="47.33648" lon="-2.28619">
        <ele>0.60000002384186</ele>
        <time>2021-02-28T09:32:53.000Z</time>
      </trkpt>
      <trkpt lat="47.3366" lon="-2.28606">
        <ele>0.60000002384186</ele>
        <time>2021-02-28T09:32:55.000Z</time>
      </trkpt>
      <trkpt lat="47.33665" lon="-2.286">
        <ele>0.60000002384186</ele>
        <time>2021-02-28T09:32:56.000Z</time>
      </trkpt>
      <trkpt lat="47.33684" lon="-2.28576">
        <ele>0.60000002384186</ele>
        <time>2021-02-28T09:33:00.000Z</time>
      </trkpt>
      <trkpt lat="47.33715" lon="-2.28542">
        <ele>0.60000002384186</ele>
        <time>2021-02-28T09:33:07.000Z</time>
      </trkpt>
      <trkpt lat="47.33735" lon="-2.28523">
        <ele>0.60000002384186</ele>
        <time>2021-02-28T09:33:11.000Z</time>
      </trkpt>
      <trkpt lat="47.33751" lon="-2.28507">
        <ele>0.60000002384186</ele>
        <time>2021-02-28T09:33:14.000Z</time>
      </trkpt>
      <trkpt lat="47.33779" lon="-2.28482">
        <ele>0.60000002384186</ele>
        <time>2021-02-28T09:33:19.000Z</time>
      </trkpt>
      <trkpt lat="47.33785" lon="-2.28478">
        <ele>0.60000002384186</ele>
        <time>2021-02-28T09:33:20.000Z</time>
      </trkpt>
      <trkpt lat="47.33818" lon="-2.28455">
        <ele>0.60000002384186</ele>
        <time>2021-02-28T09:33:26.000Z</time>
      </trkpt>
      <trkpt lat="47.33836" lon="-2.28455">
        <ele>0.60000002384186</ele>
        <time>2021-02-28T09:33:29.000Z</time>
      </trkpt>
      <trkpt lat="47.33841" lon="-2.28458">
        <ele>0.20000000298023</ele>
        <time>2021-02-28T09:33:30.000Z</time>
      </trkpt>
      <trkpt lat="47.33846" lon="-2.28462">
        <ele>-0.20000000298023</ele>
        <time>2021-02-28T09:33:31.000Z</time>
      </trkpt>
      <trkpt lat="47.33852" lon="-2.28468">
        <ele>-0.60000002384186</ele>
        <time>2021-02-28T09:33:32.000Z</time>
      </trkpt>
      <trkpt lat="47.33856" lon="-2.28474">
        <ele>-1</ele>
        <time>2021-02-28T09:33:33.000Z</time>
      </trkpt>
      <trkpt lat="47.33861" lon="-2.28481">
        <ele>-1.6000000238419</ele>
        <time>2021-02-28T09:33:34.000Z</time>
      </trkpt>
      <trkpt lat="47.33869" lon="-2.28493">
        <ele>-1.6000000238419</ele>
        <time>2021-02-28T09:33:36.000Z</time>
      </trkpt>
      <trkpt lat="47.33884" lon="-2.28512">
        <ele>-1.6000000238419</ele>
        <time>2021-02-28T09:33:39.000Z</time>
      </trkpt>
      <trkpt lat="47.33921" lon="-2.28562">
        <ele>-1.6000000238419</ele>
        <time>2021-02-28T09:33:47.000Z</time>
      </trkpt>
      <trkpt lat="47.33925" lon="-2.28568">
        <ele>-1.6000000238419</ele>
        <time>2021-02-28T09:33:48.000Z</time>
      </trkpt>
      <trkpt lat="47.3395" lon="-2.286">
        <ele>-1.6000000238419</ele>
        <time>2021-02-28T09:33:54.000Z</time>
      </trkpt>
      <trkpt lat="47.33976" lon="-2.28638">
        <ele>-1.6000000238419</ele>
        <time>2021-02-28T09:34:01.000Z</time>
      </trkpt>
      <trkpt lat="47.33984" lon="-2.28652">
        <ele>-1.6000000238419</ele>
        <time>2021-02-28T09:34:04.000Z</time>
      </trkpt>
      <trkpt lat="47.33985" lon="-2.28658">
        <ele>-1.6000000238419</ele>
        <time>2021-02-28T09:34:05.000Z</time>
      </trkpt>
      <trkpt lat="47.33986" lon="-2.28664">
        <ele>-1.6000000238419</ele>
        <time>2021-02-28T09:34:06.000Z</time>
      </trkpt>
      <trkpt lat="47.33988" lon="-2.28684">
        <ele>-1.6000000238419</ele>
        <time>2021-02-28T09:34:09.000Z</time>
      </trkpt>
      <trkpt lat="47.34" lon="-2.28698">
        <ele>-1.6000000238419</ele>
        <time>2021-02-28T09:34:12.000Z</time>
      </trkpt>
      <trkpt lat="47.34005" lon="-2.287">
        <ele>-1.6000000238419</ele>
        <time>2021-02-28T09:34:13.000Z</time>
      </trkpt>
      <trkpt lat="47.34031" lon="-2.28714">
        <ele>-1.6000000238419</ele>
        <time>2021-02-28T09:34:18.000Z</time>
      </trkpt>
      <trkpt lat="47.34071" lon="-2.28729">
        <ele>-1.6000000238419</ele>
        <time>2021-02-28T09:34:25.000Z</time>
      </trkpt>
      <trkpt lat="47.34076" lon="-2.28731">
        <ele>-1.6000000238419</ele>
        <time>2021-02-28T09:34:26.000Z</time>
      </trkpt>
      <trkpt lat="47.34087" lon="-2.28732">
        <ele>-1.6000000238419</ele>
        <time>2021-02-28T09:34:28.000Z</time>
      </trkpt>
      <trkpt lat="47.34097" lon="-2.28729">
        <ele>-1.6000000238419</ele>
        <time>2021-02-28T09:34:30.000Z</time>
      </trkpt>
      <trkpt lat="47.34108" lon="-2.28711">
        <ele>-1.6000000238419</ele>
        <time>2021-02-28T09:34:33.000Z</time>
      </trkpt>
      <trkpt lat="47.34111" lon="-2.28704">
        <ele>-1.6000000238419</ele>
        <time>2021-02-28T09:34:34.000Z</time>
      </trkpt>
      <trkpt lat="47.34125" lon="-2.28693">
        <ele>-1.6000000238419</ele>
        <time>2021-02-28T09:34:37.000Z</time>
      </trkpt>
      <trkpt lat="47.34131" lon="-2.28691">
        <ele>-1.6000000238419</ele>
        <time>2021-02-28T09:34:38.000Z</time>
      </trkpt>
      <trkpt lat="47.34136" lon="-2.28691">
        <ele>-1.6000000238419</ele>
        <time>2021-02-28T09:34:39.000Z</time>
      </trkpt>
      <trkpt lat="47.34148" lon="-2.28692">
        <ele>-1.6000000238419</ele>
        <time>2021-02-28T09:34:41.000Z</time>
      </trkpt>
      <trkpt lat="47.34153" lon="-2.28693">
        <ele>-1.6000000238419</ele>
        <time>2021-02-28T09:34:42.000Z</time>
      </trkpt>
      <trkpt lat="47.34164" lon="-2.28696">
        <ele>-1.6000000238419</ele>
        <time>2021-02-28T09:34:44.000Z</time>
      </trkpt>
      <trkpt lat="47.34171" lon="-2.28706">
        <ele>-1.6000000238419</ele>
        <time>2021-02-28T09:34:46.000Z</time>
      </trkpt>
      <trkpt lat="47.34176" lon="-2.28721">
        <ele>-1.6000000238419</ele>
        <time>2021-02-28T09:34:48.000Z</time>
      </trkpt>
      <trkpt lat="47.34176" lon="-2.28729">
        <ele>-1.6000000238419</ele>
        <time>2021-02-28T09:34:49.000Z</time>
      </trkpt>
      <trkpt lat="47.34177" lon="-2.28777">
        <ele>-1.6000000238419</ele>
        <time>2021-02-28T09:34:54.000Z</time>
      </trkpt>
      <trkpt lat="47.34177" lon="-2.28787">
        <ele>-1.2000000476837</ele>
        <time>2021-02-28T09:34:55.000Z</time>
      </trkpt>
      <trkpt lat="47.34177" lon="-2.28797">
        <ele>-0.80000001192093</ele>
        <time>2021-02-28T09:34:56.000Z</time>
      </trkpt>
      <trkpt lat="47.34177" lon="-2.28807">
        <ele>-0.20000000298023</ele>
        <time>2021-02-28T09:34:57.000Z</time>
      </trkpt>
      <trkpt lat="47.34177" lon="-2.28816">
        <ele>0.20000000298023</ele>
        <time>2021-02-28T09:34:58.000Z</time>
      </trkpt>
      <trkpt lat="47.34177" lon="-2.28826">
        <ele>0.60000002384186</ele>
        <time>2021-02-28T09:34:59.000Z</time>
      </trkpt>
      <trkpt lat="47.34177" lon="-2.28855">
        <ele>0.60000002384186</ele>
        <time>2021-02-28T09:35:02.000Z</time>
      </trkpt>
      <trkpt lat="47.34178" lon="-2.28872">
        <ele>0.60000002384186</ele>
        <time>2021-02-28T09:35:04.000Z</time>
      </trkpt>
      <trkpt lat="47.34181" lon="-2.28877">
        <ele>0.60000002384186</ele>
        <time>2021-02-28T09:35:05.000Z</time>
      </trkpt>
      <trkpt lat="47.34189" lon="-2.28877">
        <ele>0.60000002384186</ele>
        <time>2021-02-28T09:35:07.000Z</time>
      </trkpt>
      <trkpt lat="47.34199" lon="-2.28871">
        <ele>0.60000002384186</ele>
        <time>2021-02-28T09:35:09.000Z</time>
      </trkpt>
      <trkpt lat="47.34215" lon="-2.28858">
        <ele>0.60000002384186</ele>
        <time>2021-02-28T09:35:12.000Z</time>
      </trkpt>
      <trkpt lat="47.34248" lon="-2.28833">
        <ele>0.60000002384186</ele>
        <time>2021-02-28T09:35:18.000Z</time>
      </trkpt>
      <trkpt lat="47.34262" lon="-2.28841">
        <ele>0.60000002384186</ele>
        <time>2021-02-28T09:35:21.000Z</time>
      </trkpt>
      <trkpt lat="47.34274" lon="-2.28868">
        <ele>0.60000002384186</ele>
        <time>2021-02-28T09:35:25.000Z</time>
      </trkpt>
      <trkpt lat="47.34275" lon="-2.28877">
        <ele>0.60000002384186</ele>
        <time>2021-02-28T09:35:26.000Z</time>
      </trkpt>
      <trkpt lat="47.34288" lon="-2.28926">
        <ele>0.60000002384186</ele>
        <time>2021-02-28T09:35:31.000Z</time>
      </trkpt>
      <trkpt lat="47.34305" lon="-2.29">
        <ele>0.60000002384186</ele>
        <time>2021-02-28T09:35:39.000Z</time>
      </trkpt>
      <trkpt lat="47.34306" lon="-2.2901">
        <ele>0.60000002384186</ele>
        <time>2021-02-28T09:35:40.000Z</time>
      </trkpt>
      <trkpt lat="47.34313" lon="-2.29043">
        <ele>0.60000002384186</ele>
        <time>2021-02-28T09:35:44.000Z</time>
      </trkpt>
      <trkpt lat="47.34315" lon="-2.29058">
        <ele>0.60000002384186</ele>
        <time>2021-02-28T09:35:47.000Z</time>
      </trkpt>
      <trkpt lat="47.34307" lon="-2.29065">
        <ele>0.60000002384186</ele>
        <time>2021-02-28T09:35:50.000Z</time>
      </trkpt>
      <trkpt lat="47.34302" lon="-2.29065">
        <ele>0.60000002384186</ele>
        <time>2021-02-28T09:35:51.000Z</time>
      </trkpt>
      <trkpt lat="47.34286" lon="-2.29066">
        <ele>0.60000002384186</ele>
        <time>2021-02-28T09:35:54.000Z</time>
      </trkpt>
      <trkpt lat="47.34275" lon="-2.29067">
        <ele>1</ele>
        <time>2021-02-28T09:35:56.000Z</time>
      </trkpt>
      <trkpt lat="47.3427" lon="-2.29068">
        <ele>1.3999999761581</ele>
        <time>2021-02-28T09:35:57.000Z</time>
      </trkpt>
      <trkpt lat="47.34264" lon="-2.29068">
        <ele>1.7999999523163</ele>
        <time>2021-02-28T09:35:58.000Z</time>
      </trkpt>
      <trkpt lat="47.34258" lon="-2.29069">
        <ele>2.2000000476837</ele>
        <time>2021-02-28T09:35:59.000Z</time>
      </trkpt>
      <trkpt lat="47.34252" lon="-2.29069">
        <ele>2.5999999046326</ele>
        <time>2021-02-28T09:36:00.000Z</time>
      </trkpt>
      <trkpt lat="47.34246" lon="-2.2907">
        <ele>2.5999999046326</ele>
        <time>2021-02-28T09:36:01.000Z</time>
      </trkpt>
      <trkpt lat="47.34208" lon="-2.2908">
        <ele>2.5999999046326</ele>
        <time>2021-02-28T09:36:08.000Z</time>
      </trkpt>
      <trkpt lat="47.3418" lon="-2.29091">
        <ele>2.5999999046326</ele>
        <time>2021-02-28T09:36:13.000Z</time>
      </trkpt>
      <trkpt lat="47.34169" lon="-2.29096">
        <ele>2.5999999046326</ele>
        <time>2021-02-28T09:36:15.000Z</time>
      </trkpt>
      <trkpt lat="47.34137" lon="-2.29116">
        <ele>2.5999999046326</ele>
        <time>2021-02-28T09:36:21.000Z</time>
      </trkpt>
      <trkpt lat="47.34127" lon="-2.29124">
        <ele>2.5999999046326</ele>
        <time>2021-02-28T09:36:23.000Z</time>
      </trkpt>
      <trkpt lat="47.34117" lon="-2.29131">
        <ele>2.5999999046326</ele>
        <time>2021-02-28T09:36:25.000Z</time>
      </trkpt>
      <trkpt lat="47.34113" lon="-2.29135">
        <ele>2.5999999046326</ele>
        <time>2021-02-28T09:36:26.000Z</time>
      </trkpt>
      <trkpt lat="47.34083" lon="-2.29159">
        <ele>2.5999999046326</ele>
        <time>2021-02-28T09:36:32.000Z</time>
      </trkpt>
      <trkpt lat="47.34052" lon="-2.29186">
        <ele>2.5999999046326</ele>
        <time>2021-02-28T09:36:38.000Z</time>
      </trkpt>
      <trkpt lat="47.34018" lon="-2.29205">
        <ele>2.5999999046326</ele>
        <time>2021-02-28T09:36:44.000Z</time>
      </trkpt>
      <trkpt lat="47.33983" lon="-2.29217">
        <ele>2.5999999046326</ele>
        <time>2021-02-28T09:36:50.000Z</time>
      </trkpt>
      <trkpt lat="47.33941" lon="-2.29224">
        <ele>2.5999999046326</ele>
        <time>2021-02-28T09:36:57.000Z</time>
      </trkpt>
      <trkpt lat="47.33905" lon="-2.29229">
        <ele>2.5999999046326</ele>
        <time>2021-02-28T09:37:03.000Z</time>
      </trkpt>
      <trkpt lat="47.33867" lon="-2.29238">
        <ele>2.5999999046326</ele>
        <time>2021-02-28T09:37:09.000Z</time>
      </trkpt>
      <trkpt lat="47.33835" lon="-2.29251">
        <ele>2.5999999046326</ele>
        <time>2021-02-28T09:37:15.000Z</time>
      </trkpt>
      <trkpt lat="47.33807" lon="-2.29272">
        <ele>2.5999999046326</ele>
        <time>2021-02-28T09:37:21.000Z</time>
      </trkpt>
      <trkpt lat="47.33803" lon="-2.29277">
        <ele>2.5999999046326</ele>
        <time>2021-02-28T09:37:22.000Z</time>
      </trkpt>
      <trkpt lat="47.33801" lon="-2.29289">
        <ele>2.5999999046326</ele>
        <time>2021-02-28T09:37:24.000Z</time>
      </trkpt>
      <trkpt lat="47.33807" lon="-2.29299">
        <ele>2.5999999046326</ele>
        <time>2021-02-28T09:37:27.000Z</time>
      </trkpt>
      <trkpt lat="47.3381" lon="-2.29302">
        <ele>2.5999999046326</ele>
        <time>2021-02-28T09:37:28.000Z</time>
      </trkpt>
      <trkpt lat="47.33829" lon="-2.29318">
        <ele>2.5999999046326</ele>
        <time>2021-02-28T09:37:33.000Z</time>
      </trkpt>
      <trkpt lat="47.33858" lon="-2.29344">
        <ele>2.5999999046326</ele>
        <time>2021-02-28T09:37:40.000Z</time>
      </trkpt>
      <trkpt lat="47.33893" lon="-2.29375">
        <ele>2.5999999046326</ele>
        <time>2021-02-28T09:37:48.000Z</time>
      </trkpt>
      <trkpt lat="47.33923" lon="-2.29407">
        <ele>2.5999999046326</ele>
        <time>2021-02-28T09:37:55.000Z</time>
      </trkpt>
      <trkpt lat="47.33948" lon="-2.29437">
        <ele>2.5999999046326</ele>
        <time>2021-02-28T09:38:01.000Z</time>
      </trkpt>
      <trkpt lat="47.3395" lon="-2.29456">
        <ele>2.5999999046326</ele>
        <time>2021-02-28T09:38:04.000Z</time>
      </trkpt>
      <trkpt lat="47.33938" lon="-2.29473">
        <ele>2.5999999046326</ele>
        <time>2021-02-28T09:38:07.000Z</time>
      </trkpt>
      <trkpt lat="47.33932" lon="-2.29479">
        <ele>2.5999999046326</ele>
        <time>2021-02-28T09:38:08.000Z</time>
      </trkpt>
      <trkpt lat="47.33902" lon="-2.29502">
        <ele>2.5999999046326</ele>
        <time>2021-02-28T09:38:13.000Z</time>
      </trkpt>
      <trkpt lat="47.33864" lon="-2.29519">
        <ele>2.5999999046326</ele>
        <time>2021-02-28T09:38:19.000Z</time>
      </trkpt>
      <trkpt lat="47.3383" lon="-2.29533">
        <ele>2.5999999046326</ele>
        <time>2021-02-28T09:38:25.000Z</time>
      </trkpt>
      <trkpt lat="47.33824" lon="-2.29535">
        <ele>2.5999999046326</ele>
        <time>2021-02-28T09:38:26.000Z</time>
      </trkpt>
      <trkpt lat="47.33801" lon="-2.29539">
        <ele>2.5999999046326</ele>
        <time>2021-02-28T09:38:30.000Z</time>
      </trkpt>
      <trkpt lat="47.3376" lon="-2.29547">
        <ele>2.5999999046326</ele>
        <time>2021-02-28T09:38:38.000Z</time>
      </trkpt>
      <trkpt lat="47.33733" lon="-2.29552">
        <ele>2.5999999046326</ele>
        <time>2021-02-28T09:38:44.000Z</time>
      </trkpt>
      <trkpt lat="47.33727" lon="-2.29551">
        <ele>2.5999999046326</ele>
        <time>2021-02-28T09:38:45.000Z</time>
      </trkpt>
      <trkpt lat="47.33713" lon="-2.29554">
        <ele>2.5999999046326</ele>
        <time>2021-02-28T09:38:48.000Z</time>
      </trkpt>
      <trkpt lat="47.33699" lon="-2.29556">
        <ele>2.5999999046326</ele>
        <time>2021-02-28T09:38:51.000Z</time>
      </trkpt>
      <trkpt lat="47.3369" lon="-2.29558">
        <ele>2.5999999046326</ele>
        <time>2021-02-28T09:38:53.000Z</time>
      </trkpt>
      <trkpt lat="47.33685" lon="-2.29558">
        <ele>2.5999999046326</ele>
        <time>2021-02-28T09:38:54.000Z</time>
      </trkpt>
      <trkpt lat="47.3367" lon="-2.29559">
        <ele>2.5999999046326</ele>
        <time>2021-02-28T09:38:57.000Z</time>
      </trkpt>
      <trkpt lat="47.33656" lon="-2.2956">
        <ele>2.5999999046326</ele>
        <time>2021-02-28T09:39:00.000Z</time>
      </trkpt>
      <trkpt lat="47.3362" lon="-2.29558">
        <ele>2.5999999046326</ele>
        <time>2021-02-28T09:39:07.000Z</time>
      </trkpt>
      <trkpt lat="47.33591" lon="-2.29553">
        <ele>2.5999999046326</ele>
        <time>2021-02-28T09:39:13.000Z</time>
      </trkpt>
      <trkpt lat="47.33559" lon="-2.2955">
        <ele>2.5999999046326</ele>
        <time>2021-02-28T09:39:20.000Z</time>
      </trkpt>
      <trkpt lat="47.33527" lon="-2.29547">
        <ele>2.5999999046326</ele>
        <time>2021-02-28T09:39:26.000Z</time>
      </trkpt>
      <trkpt lat="47.33489" lon="-2.29542">
        <ele>2.5999999046326</ele>
        <time>2021-02-28T09:39:33.000Z</time>
      </trkpt>
      <trkpt lat="47.33445" lon="-2.2954">
        <ele>2.5999999046326</ele>
        <time>2021-02-28T09:39:41.000Z</time>
      </trkpt>
      <trkpt lat="47.33409" lon="-2.29531">
        <ele>2.5999999046326</ele>
        <time>2021-02-28T09:39:48.000Z</time>
      </trkpt>
      <trkpt lat="47.33388" lon="-2.29523">
        <ele>2.5999999046326</ele>
        <time>2021-02-28T09:39:52.000Z</time>
      </trkpt>
      <trkpt lat="47.33378" lon="-2.29521">
        <ele>2.5999999046326</ele>
        <time>2021-02-28T09:39:54.000Z</time>
      </trkpt>
      <trkpt lat="47.33347" lon="-2.29522">
        <ele>2.5999999046326</ele>
        <time>2021-02-28T09:40:01.000Z</time>
      </trkpt>
      <trkpt lat="47.33323" lon="-2.29533">
        <ele>3</ele>
        <time>2021-02-28T09:40:06.000Z</time>
      </trkpt>
      <trkpt lat="47.33319" lon="-2.29535">
        <ele>3.4000000953674</ele>
        <time>2021-02-28T09:40:07.000Z</time>
      </trkpt>
      <trkpt lat="47.33314" lon="-2.29538">
        <ele>3.7999999523163</ele>
        <time>2021-02-28T09:40:08.000Z</time>
      </trkpt>
      <trkpt lat="47.3331" lon="-2.2954">
        <ele>4.1999998092651</ele>
        <time>2021-02-28T09:40:09.000Z</time>
      </trkpt>
      <trkpt lat="47.33306" lon="-2.29543">
        <ele>4.5999999046326</ele>
        <time>2021-02-28T09:40:10.000Z</time>
      </trkpt>
      <trkpt lat="47.33301" lon="-2.29546">
        <ele>4.5999999046326</ele>
        <time>2021-02-28T09:40:11.000Z</time>
      </trkpt>
      <trkpt lat="47.33292" lon="-2.29551">
        <ele>4.5999999046326</ele>
        <time>2021-02-28T09:40:13.000Z</time>
      </trkpt>
      <trkpt lat="47.33272" lon="-2.29562">
        <ele>4.5999999046326</ele>
        <time>2021-02-28T09:40:17.000Z</time>
      </trkpt>
      <trkpt lat="47.33266" lon="-2.29565">
        <ele>4.5999999046326</ele>
        <time>2021-02-28T09:40:18.000Z</time>
      </trkpt>
      <trkpt lat="47.33261" lon="-2.29569">
        <ele>4.5999999046326</ele>
        <time>2021-02-28T09:40:19.000Z</time>
      </trkpt>
      <trkpt lat="47.33247" lon="-2.29584">
        <ele>4.5999999046326</ele>
        <time>2021-02-28T09:40:22.000Z</time>
      </trkpt>
      <trkpt lat="47.33234" lon="-2.29615">
        <ele>4.5999999046326</ele>
        <time>2021-02-28T09:40:26.000Z</time>
      </trkpt>
      <trkpt lat="47.33227" lon="-2.2963">
        <ele>4.5999999046326</ele>
        <time>2021-02-28T09:40:28.000Z</time>
      </trkpt>
      <trkpt lat="47.33213" lon="-2.29648">
        <ele>4.5999999046326</ele>
        <time>2021-02-28T09:40:31.000Z</time>
      </trkpt>
      <trkpt lat="47.33197" lon="-2.29662">
        <ele>4.5999999046326</ele>
        <time>2021-02-28T09:40:34.000Z</time>
      </trkpt>
      <trkpt lat="47.33184" lon="-2.29669">
        <ele>4.5999999046326</ele>
        <time>2021-02-28T09:40:36.000Z</time>
      </trkpt>
      <trkpt lat="47.33147" lon="-2.29683">
        <ele>4.5999999046326</ele>
        <time>2021-02-28T09:40:42.000Z</time>
      </trkpt>
      <trkpt lat="47.331" lon="-2.29695">
        <ele>4.5999999046326</ele>
        <time>2021-02-28T09:40:50.000Z</time>
      </trkpt>
      <trkpt lat="47.33083" lon="-2.29698">
        <ele>5.4000000953674</ele>
        <time>2021-02-28T09:40:53.000Z</time>
      </trkpt>
      <trkpt lat="47.33077" lon="-2.29699">
        <ele>5.8000001907349</ele>
        <time>2021-02-28T09:40:54.000Z</time>
      </trkpt>
      <trkpt lat="47.33072" lon="-2.29701">
        <ele>6.1999998092651</ele>
        <time>2021-02-28T09:40:55.000Z</time>
      </trkpt>
      <trkpt lat="47.33066" lon="-2.29701">
        <ele>6.5999999046326</ele>
        <time>2021-02-28T09:40:56.000Z</time>
      </trkpt>
      <trkpt lat="47.33056" lon="-2.29704">
        <ele>6.5999999046326</ele>
        <time>2021-02-28T09:40:58.000Z</time>
      </trkpt>
      <trkpt lat="47.33025" lon="-2.29712">
        <ele>6.5999999046326</ele>
        <time>2021-02-28T09:41:05.000Z</time>
      </trkpt>
      <trkpt lat="47.33021" lon="-2.29715">
        <ele>6.5999999046326</ele>
        <time>2021-02-28T09:41:06.000Z</time>
      </trkpt>
      <trkpt lat="47.33016" lon="-2.29725">
        <ele>6.5999999046326</ele>
        <time>2021-02-28T09:41:08.000Z</time>
      </trkpt>
      <trkpt lat="47.33017" lon="-2.29741">
        <ele>6.5999999046326</ele>
        <time>2021-02-28T09:41:11.000Z</time>
      </trkpt>
      <trkpt lat="47.33017" lon="-2.2975">
        <ele>6.5999999046326</ele>
        <time>2021-02-28T09:41:13.000Z</time>
      </trkpt>
      <trkpt lat="47.33018" lon="-2.29758">
        <ele>6.5999999046326</ele>
        <time>2021-02-28T09:41:16.000Z</time>
      </trkpt>
      <trkpt lat="47.33019" lon="-2.29778">
        <ele>6.5999999046326</ele>
        <time>2021-02-28T09:41:21.000Z</time>
      </trkpt>
      <trkpt lat="47.33018" lon="-2.29785">
        <ele>6.5999999046326</ele>
        <time>2021-02-28T09:41:22.000Z</time>
      </trkpt>
      <trkpt lat="47.3301" lon="-2.29824">
        <ele>6.5999999046326</ele>
        <time>2021-02-28T09:41:27.000Z</time>
      </trkpt>
      <trkpt lat="47.33006" lon="-2.29839">
        <ele>6.5999999046326</ele>
        <time>2021-02-28T09:41:29.000Z</time>
      </trkpt>
      <trkpt lat="47.33" lon="-2.2986">
        <ele>6.5999999046326</ele>
        <time>2021-02-28T09:41:32.000Z</time>
      </trkpt>
      <trkpt lat="47.3299" lon="-2.29901">
        <ele>6.5999999046326</ele>
        <time>2021-02-28T09:41:38.000Z</time>
      </trkpt>
      <trkpt lat="47.32987" lon="-2.29906">
        <ele>6.5999999046326</ele>
        <time>2021-02-28T09:41:39.000Z</time>
      </trkpt>
      <trkpt lat="47.32985" lon="-2.29913">
        <ele>6.5999999046326</ele>
        <time>2021-02-28T09:41:40.000Z</time>
      </trkpt>
      <trkpt lat="47.32982" lon="-2.29925">
        <ele>6.5999999046326</ele>
        <time>2021-02-28T09:41:42.000Z</time>
      </trkpt>
      <trkpt lat="47.32979" lon="-2.29938">
        <ele>6.5999999046326</ele>
        <time>2021-02-28T09:41:44.000Z</time>
      </trkpt>
      <trkpt lat="47.32976" lon="-2.2995">
        <ele>6.5999999046326</ele>
        <time>2021-02-28T09:41:46.000Z</time>
      </trkpt>
      <trkpt lat="47.32971" lon="-2.29974">
        <ele>6.5999999046326</ele>
        <time>2021-02-28T09:41:50.000Z</time>
      </trkpt>
      <trkpt lat="47.32968" lon="-2.30004">
        <ele>7</ele>
        <time>2021-02-28T09:41:55.000Z</time>
      </trkpt>
      <trkpt lat="47.32968" lon="-2.3001">
        <ele>7.4000000953674</ele>
        <time>2021-02-28T09:41:56.000Z</time>
      </trkpt>
      <trkpt lat="47.32968" lon="-2.30017">
        <ele>7.8000001907349</ele>
        <time>2021-02-28T09:41:57.000Z</time>
      </trkpt>
      <trkpt lat="47.32968" lon="-2.30024">
        <ele>8.1999998092651</ele>
        <time>2021-02-28T09:41:58.000Z</time>
      </trkpt>
      <trkpt lat="47.32969" lon="-2.30031">
        <ele>8.6000003814697</ele>
        <time>2021-02-28T09:41:59.000Z</time>
      </trkpt>
      <trkpt lat="47.3297" lon="-2.30046">
        <ele>8.6000003814697</ele>
        <time>2021-02-28T09:42:01.000Z</time>
      </trkpt>
      <trkpt lat="47.32974" lon="-2.30075">
        <ele>8.6000003814697</ele>
        <time>2021-02-28T09:42:05.000Z</time>
      </trkpt>
      <trkpt lat="47.32985" lon="-2.30139">
        <ele>8.6000003814697</ele>
        <time>2021-02-28T09:42:13.000Z</time>
      </trkpt>
      <trkpt lat="47.32993" lon="-2.30197">
        <ele>8.6000003814697</ele>
        <time>2021-02-28T09:42:19.000Z</time>
      </trkpt>
      <trkpt lat="47.32994" lon="-2.30218">
        <ele>8.1999998092651</ele>
        <time>2021-02-28T09:42:21.000Z</time>
      </trkpt>
      <trkpt lat="47.32994" lon="-2.30228">
        <ele>7.8000001907349</ele>
        <time>2021-02-28T09:42:22.000Z</time>
      </trkpt>
      <trkpt lat="47.32992" lon="-2.30238">
        <ele>7.4000000953674</ele>
        <time>2021-02-28T09:42:23.000Z</time>
      </trkpt>
      <trkpt lat="47.32991" lon="-2.30248">
        <ele>7</ele>
        <time>2021-02-28T09:42:24.000Z</time>
      </trkpt>
      <trkpt lat="47.32988" lon="-2.30258">
        <ele>6.5999999046326</ele>
        <time>2021-02-28T09:42:25.000Z</time>
      </trkpt>
      <trkpt lat="47.32985" lon="-2.30268">
        <ele>6.5999999046326</ele>
        <time>2021-02-28T09:42:26.000Z</time>
      </trkpt>
      <trkpt lat="47.32978" lon="-2.30286">
        <ele>6.5999999046326</ele>
        <time>2021-02-28T09:42:28.000Z</time>
      </trkpt>
      <trkpt lat="47.32974" lon="-2.30295">
        <ele>6.5999999046326</ele>
        <time>2021-02-28T09:42:29.000Z</time>
      </trkpt>
      <trkpt lat="47.32955" lon="-2.30342">
        <ele>6.5999999046326</ele>
        <time>2021-02-28T09:42:34.000Z</time>
      </trkpt>
      <trkpt lat="47.3295" lon="-2.30362">
        <ele>6.1999998092651</ele>
        <time>2021-02-28T09:42:36.000Z</time>
      </trkpt>
      <trkpt lat="47.32948" lon="-2.30372">
        <ele>5.8000001907349</ele>
        <time>2021-02-28T09:42:37.000Z</time>
      </trkpt>
      <trkpt lat="47.32946" lon="-2.30382">
        <ele>5.4000000953674</ele>
        <time>2021-02-28T09:42:38.000Z</time>
      </trkpt>
      <trkpt lat="47.32945" lon="-2.30392">
        <ele>5</ele>
        <time>2021-02-28T09:42:39.000Z</time>
      </trkpt>
      <trkpt lat="47.32943" lon="-2.30403">
        <ele>4.5999999046326</ele>
        <time>2021-02-28T09:42:40.000Z</time>
      </trkpt>
      <trkpt lat="47.32934" lon="-2.30474">
        <ele>4.5999999046326</ele>
        <time>2021-02-28T09:42:47.000Z</time>
      </trkpt>
      <trkpt lat="47.32925" lon="-2.30555">
        <ele>4.5999999046326</ele>
        <time>2021-02-28T09:42:55.000Z</time>
      </trkpt>
      <trkpt lat="47.32923" lon="-2.30624">
        <ele>4.5999999046326</ele>
        <time>2021-02-28T09:43:02.000Z</time>
      </trkpt>
      <trkpt lat="47.32924" lon="-2.30684">
        <ele>4.5999999046326</ele>
        <time>2021-02-28T09:43:08.000Z</time>
      </trkpt>
      <trkpt lat="47.32917" lon="-2.30764">
        <ele>4.5999999046326</ele>
        <time>2021-02-28T09:43:16.000Z</time>
      </trkpt>
      <trkpt lat="47.3291" lon="-2.30844">
        <ele>4.5999999046326</ele>
        <time>2021-02-28T09:43:24.000Z</time>
      </trkpt>
      <trkpt lat="47.32909" lon="-2.30854">
        <ele>4.5999999046326</ele>
        <time>2021-02-28T09:43:25.000Z</time>
      </trkpt>
      <trkpt lat="47.32904" lon="-2.30911">
        <ele>4.5999999046326</ele>
        <time>2021-02-28T09:43:31.000Z</time>
      </trkpt>
      <trkpt lat="47.32896" lon="-2.30988">
        <ele>4.5999999046326</ele>
        <time>2021-02-28T09:43:39.000Z</time>
      </trkpt>
      <trkpt lat="47.32895" lon="-2.31038">
        <ele>4.5999999046326</ele>
        <time>2021-02-28T09:43:44.000Z</time>
      </trkpt>
      <trkpt lat="47.329" lon="-2.311">
        <ele>4.5999999046326</ele>
        <time>2021-02-28T09:43:50.000Z</time>
      </trkpt>
      <trkpt lat="47.32908" lon="-2.31138">
        <ele>4.1999998092651</ele>
        <time>2021-02-28T09:43:54.000Z</time>
      </trkpt>
      <trkpt lat="47.3291" lon="-2.31147">
        <ele>3.7999999523163</ele>
        <time>2021-02-28T09:43:55.000Z</time>
      </trkpt>
      <trkpt lat="47.32912" lon="-2.31155">
        <ele>3.4000000953674</ele>
        <time>2021-02-28T09:43:56.000Z</time>
      </trkpt>
      <trkpt lat="47.32914" lon="-2.31164">
        <ele>3</ele>
        <time>2021-02-28T09:43:57.000Z</time>
      </trkpt>
      <trkpt lat="47.32916" lon="-2.31172">
        <ele>2.5999999046326</ele>
        <time>2021-02-28T09:43:58.000Z</time>
      </trkpt>
      <trkpt lat="47.32927" lon="-2.3121">
        <ele>2.5999999046326</ele>
        <time>2021-02-28T09:44:03.000Z</time>
      </trkpt>
      <trkpt lat="47.32937" lon="-2.31245">
        <ele>2.5999999046326</ele>
        <time>2021-02-28T09:44:08.000Z</time>
      </trkpt>
      <trkpt lat="47.32941" lon="-2.31249">
        <ele>2.5999999046326</ele>
        <time>2021-02-28T09:44:09.000Z</time>
      </trkpt>
      <trkpt lat="47.3295" lon="-2.31248">
        <ele>2.5999999046326</ele>
        <time>2021-02-28T09:44:11.000Z</time>
      </trkpt>
      <trkpt lat="47.32961" lon="-2.31233">
        <ele>2.5999999046326</ele>
        <time>2021-02-28T09:44:14.000Z</time>
      </trkpt>
      <trkpt lat="47.32986" lon="-2.31198">
        <ele>2.5999999046326</ele>
        <time>2021-02-28T09:44:20.000Z</time>
      </trkpt>
      <trkpt lat="47.33026" lon="-2.3114">
        <ele>2.5999999046326</ele>
        <time>2021-02-28T09:44:29.000Z</time>
      </trkpt>
      <trkpt lat="47.33055" lon="-2.31091">
        <ele>2.5999999046326</ele>
        <time>2021-02-28T09:44:36.000Z</time>
      </trkpt>
      <trkpt lat="47.33076" lon="-2.31074">
        <ele>2.5999999046326</ele>
        <time>2021-02-28T09:44:40.000Z</time>
      </trkpt>
      <trkpt lat="47.33082" lon="-2.31072">
        <ele>2.5999999046326</ele>
        <time>2021-02-28T09:44:41.000Z</time>
      </trkpt>
      <trkpt lat="47.33106" lon="-2.31076">
        <ele>2.5999999046326</ele>
        <time>2021-02-28T09:44:45.000Z</time>
      </trkpt>
      <trkpt lat="47.33112" lon="-2.3108">
        <ele>2.5999999046326</ele>
        <time>2021-02-28T09:44:46.000Z</time>
      </trkpt>
      <trkpt lat="47.33117" lon="-2.31085">
        <ele>2.5999999046326</ele>
        <time>2021-02-28T09:44:47.000Z</time>
      </trkpt>
      <trkpt lat="47.33127" lon="-2.31097">
        <ele>2.5999999046326</ele>
        <time>2021-02-28T09:44:49.000Z</time>
      </trkpt>
      <trkpt lat="47.33139" lon="-2.31119">
        <ele>2.5999999046326</ele>
        <time>2021-02-28T09:44:52.000Z</time>
      </trkpt>
      <trkpt lat="47.33146" lon="-2.31135">
        <ele>2.5999999046326</ele>
        <time>2021-02-28T09:44:54.000Z</time>
      </trkpt>
      <trkpt lat="47.33172" lon="-2.31202">
        <ele>2.5999999046326</ele>
        <time>2021-02-28T09:45:02.000Z</time>
      </trkpt>
      <trkpt lat="47.33199" lon="-2.31265">
        <ele>2.5999999046326</ele>
        <time>2021-02-28T09:45:10.000Z</time>
      </trkpt>
      <trkpt lat="47.33224" lon="-2.31329">
        <ele>2.5999999046326</ele>
        <time>2021-02-28T09:45:18.000Z</time>
      </trkpt>
      <trkpt lat="47.33247" lon="-2.3139">
        <ele>2.5999999046326</ele>
        <time>2021-02-28T09:45:25.000Z</time>
      </trkpt>
      <trkpt lat="47.33256" lon="-2.31449">
        <ele>2.5999999046326</ele>
        <time>2021-02-28T09:45:31.000Z</time>
      </trkpt>
      <trkpt lat="47.33248" lon="-2.31478">
        <ele>2.5999999046326</ele>
        <time>2021-02-28T09:45:34.000Z</time>
      </trkpt>
      <trkpt lat="47.3324" lon="-2.31495">
        <ele>2.5999999046326</ele>
        <time>2021-02-28T09:45:36.000Z</time>
      </trkpt>
      <trkpt lat="47.33223" lon="-2.3153">
        <ele>2.5999999046326</ele>
        <time>2021-02-28T09:45:40.000Z</time>
      </trkpt>
      <trkpt lat="47.33189" lon="-2.31592">
        <ele>2.5999999046326</ele>
        <time>2021-02-28T09:45:48.000Z</time>
      </trkpt>
      <trkpt lat="47.33183" lon="-2.31597">
        <ele>2.5999999046326</ele>
        <time>2021-02-28T09:45:49.000Z</time>
      </trkpt>
      <trkpt lat="47.33165" lon="-2.31611">
        <ele>2.5999999046326</ele>
        <time>2021-02-28T09:45:52.000Z</time>
      </trkpt>
      <trkpt lat="47.33152" lon="-2.31618">
        <ele>2.5999999046326</ele>
        <time>2021-02-28T09:45:54.000Z</time>
      </trkpt>
      <trkpt lat="47.33126" lon="-2.31626">
        <ele>2.5999999046326</ele>
        <time>2021-02-28T09:45:58.000Z</time>
      </trkpt>
      <trkpt lat="47.33082" lon="-2.3164">
        <ele>2.5999999046326</ele>
        <time>2021-02-28T09:46:05.000Z</time>
      </trkpt>
      <trkpt lat="47.33076" lon="-2.31643">
        <ele>2.5999999046326</ele>
        <time>2021-02-28T09:46:06.000Z</time>
      </trkpt>
      <trkpt lat="47.33061" lon="-2.31659">
        <ele>2.5999999046326</ele>
        <time>2021-02-28T09:46:09.000Z</time>
      </trkpt>
      <trkpt lat="47.33051" lon="-2.31695">
        <ele>2.5999999046326</ele>
        <time>2021-02-28T09:46:13.000Z</time>
      </trkpt>
      <trkpt lat="47.33055" lon="-2.31731">
        <ele>2.5999999046326</ele>
        <time>2021-02-28T09:46:17.000Z</time>
      </trkpt>
      <trkpt lat="47.33061" lon="-2.31767">
        <ele>2.5999999046326</ele>
        <time>2021-02-28T09:46:21.000Z</time>
      </trkpt>
      <trkpt lat="47.33061" lon="-2.31784">
        <ele>2.5999999046326</ele>
        <time>2021-02-28T09:46:23.000Z</time>
      </trkpt>
      <trkpt lat="47.3306" lon="-2.31793">
        <ele>2.5999999046326</ele>
        <time>2021-02-28T09:46:24.000Z</time>
      </trkpt>
      <trkpt lat="47.33054" lon="-2.31809">
        <ele>2.5999999046326</ele>
        <time>2021-02-28T09:46:26.000Z</time>
      </trkpt>
      <trkpt lat="47.33036" lon="-2.31832">
        <ele>3</ele>
        <time>2021-02-28T09:46:30.000Z</time>
      </trkpt>
      <trkpt lat="47.33031" lon="-2.31836">
        <ele>3.4000000953674</ele>
        <time>2021-02-28T09:46:31.000Z</time>
      </trkpt>
      <trkpt lat="47.33025" lon="-2.31841">
        <ele>3.7999999523163</ele>
        <time>2021-02-28T09:46:32.000Z</time>
      </trkpt>
      <trkpt lat="47.3302" lon="-2.31846">
        <ele>4.1999998092651</ele>
        <time>2021-02-28T09:46:33.000Z</time>
      </trkpt>
      <trkpt lat="47.33014" lon="-2.31851">
        <ele>4.5999999046326</ele>
        <time>2021-02-28T09:46:34.000Z</time>
      </trkpt>
      <trkpt lat="47.33008" lon="-2.31856">
        <ele>4.5999999046326</ele>
        <time>2021-02-28T09:46:35.000Z</time>
      </trkpt>
      <trkpt lat="47.32961" lon="-2.31895">
        <ele>4.5999999046326</ele>
        <time>2021-02-28T09:46:43.000Z</time>
      </trkpt>
      <trkpt lat="47.32928" lon="-2.31925">
        <ele>4.5999999046326</ele>
        <time>2021-02-28T09:46:49.000Z</time>
      </trkpt>
      <trkpt lat="47.3289" lon="-2.31961">
        <ele>4.5999999046326</ele>
        <time>2021-02-28T09:46:56.000Z</time>
      </trkpt>
      <trkpt lat="47.32873" lon="-2.31976">
        <ele>5</ele>
        <time>2021-02-28T09:46:59.000Z</time>
      </trkpt>
      <trkpt lat="47.32868" lon="-2.3198">
        <ele>5.4000000953674</ele>
        <time>2021-02-28T09:47:00.000Z</time>
      </trkpt>
      <trkpt lat="47.32862" lon="-2.31985">
        <ele>5.8000001907349</ele>
        <time>2021-02-28T09:47:01.000Z</time>
      </trkpt>
      <trkpt lat="47.32856" lon="-2.31989">
        <ele>6.4000000953674</ele>
        <time>2021-02-28T09:47:02.000Z</time>
      </trkpt>
      <trkpt lat="47.3285" lon="-2.31993">
        <ele>6.8000001907349</ele>
        <time>2021-02-28T09:47:03.000Z</time>
      </trkpt>
      <trkpt lat="47.32844" lon="-2.31997">
        <ele>6.8000001907349</ele>
        <time>2021-02-28T09:47:04.000Z</time>
      </trkpt>
      <trkpt lat="47.32802" lon="-2.32022">
        <ele>6.8000001907349</ele>
        <time>2021-02-28T09:47:11.000Z</time>
      </trkpt>
      <trkpt lat="47.3277" lon="-2.32039">
        <ele>6.8000001907349</ele>
        <time>2021-02-28T09:47:16.000Z</time>
      </trkpt>
      <trkpt lat="47.32719" lon="-2.32062">
        <ele>6.8000001907349</ele>
        <time>2021-02-28T09:47:24.000Z</time>
      </trkpt>
      <trkpt lat="47.32682" lon="-2.32078">
        <ele>6.8000001907349</ele>
        <time>2021-02-28T09:47:30.000Z</time>
      </trkpt>
      <trkpt lat="47.32638" lon="-2.3209">
        <ele>6.8000001907349</ele>
        <time>2021-02-28T09:47:37.000Z</time>
      </trkpt>
      <trkpt lat="47.32604" lon="-2.32093">
        <ele>6.8000001907349</ele>
        <time>2021-02-28T09:47:43.000Z</time>
      </trkpt>
      <trkpt lat="47.326" lon="-2.32095">
        <ele>6.8000001907349</ele>
        <time>2021-02-28T09:47:44.000Z</time>
      </trkpt>
      <trkpt lat="47.32594" lon="-2.32104">
        <ele>6.8000001907349</ele>
        <time>2021-02-28T09:47:46.000Z</time>
      </trkpt>
      <trkpt lat="47.32586" lon="-2.32134">
        <ele>6.8000001907349</ele>
        <time>2021-02-28T09:47:50.000Z</time>
      </trkpt>
      <trkpt lat="47.32572" lon="-2.32187">
        <ele>6.8000001907349</ele>
        <time>2021-02-28T09:47:56.000Z</time>
      </trkpt>
      <trkpt lat="47.32553" lon="-2.32245">
        <ele>6.8000001907349</ele>
        <time>2021-02-28T09:48:02.000Z</time>
      </trkpt>
      <trkpt lat="47.32542" lon="-2.32277">
        <ele>6.8000001907349</ele>
        <time>2021-02-28T09:48:07.000Z</time>
      </trkpt>
      <trkpt lat="47.32536" lon="-2.32304">
        <ele>6.8000001907349</ele>
        <time>2021-02-28T09:48:13.000Z</time>
      </trkpt>
      <trkpt lat="47.32536" lon="-2.32307">
        <ele>7.1999998092651</ele>
        <time>2021-02-28T09:48:14.000Z</time>
      </trkpt>
      <trkpt lat="47.32536" lon="-2.32309">
        <ele>7.5999999046326</ele>
        <time>2021-02-28T09:48:15.000Z</time>
      </trkpt>
      <trkpt lat="47.32536" lon="-2.32312">
        <ele>8</ele>
        <time>2021-02-28T09:48:16.000Z</time>
      </trkpt>
      <trkpt lat="47.32537" lon="-2.32314">
        <ele>9</ele>
        <time>2021-02-28T09:48:17.000Z</time>
      </trkpt>
      <trkpt lat="47.32539" lon="-2.32316">
        <ele>9</ele>
        <time>2021-02-28T09:48:19.000Z</time>
      </trkpt>
      <trkpt lat="47.3254" lon="-2.32317">
        <ele>9</ele>
        <time>2021-02-28T09:48:22.000Z</time>
      </trkpt>
      <trkpt lat="47.32545" lon="-2.32316">
        <ele>9</ele>
        <time>2021-02-28T09:48:44.000Z</time>
      </trkpt>
      <trkpt lat="47.32549" lon="-2.32312">
        <ele>9</ele>
        <time>2021-02-28T09:48:47.000Z</time>
      </trkpt>
      <trkpt lat="47.32564" lon="-2.3231">
        <ele>9</ele>
        <time>2021-02-28T09:48:51.000Z</time>
      </trkpt>
      <trkpt lat="47.32573" lon="-2.32309">
        <ele>9.3999996185303</ele>
        <time>2021-02-28T09:48:53.000Z</time>
      </trkpt>
      <trkpt lat="47.32578" lon="-2.32309">
        <ele>9.8000001907349</ele>
        <time>2021-02-28T09:48:54.000Z</time>
      </trkpt>
      <trkpt lat="47.32582" lon="-2.32308">
        <ele>10.199999809265</ele>
        <time>2021-02-28T09:48:55.000Z</time>
      </trkpt>
      <trkpt lat="47.32587" lon="-2.32307">
        <ele>10.60000038147</ele>
        <time>2021-02-28T09:48:56.000Z</time>
      </trkpt>
      <trkpt lat="47.32592" lon="-2.32307">
        <ele>11</ele>
        <time>2021-02-28T09:48:57.000Z</time>
      </trkpt>
      <trkpt lat="47.32597" lon="-2.32307">
        <ele>11</ele>
        <time>2021-02-28T09:48:58.000Z</time>
      </trkpt>
      <trkpt lat="47.32615" lon="-2.32305">
        <ele>11</ele>
        <time>2021-02-28T09:49:03.000Z</time>
      </trkpt>
      <trkpt lat="47.32638" lon="-2.32308">
        <ele>11</ele>
        <time>2021-02-28T09:49:10.000Z</time>
      </trkpt>
      <trkpt lat="47.32642" lon="-2.32308">
        <ele>10.60000038147</ele>
        <time>2021-02-28T09:49:11.000Z</time>
      </trkpt>
      <trkpt lat="47.32646" lon="-2.32309">
        <ele>10.199999809265</ele>
        <time>2021-02-28T09:49:12.000Z</time>
      </trkpt>
      <trkpt lat="47.3265" lon="-2.32309">
        <ele>9.8000001907349</ele>
        <time>2021-02-28T09:49:13.000Z</time>
      </trkpt>
      <trkpt lat="47.32655" lon="-2.32311">
        <ele>9.3999996185303</ele>
        <time>2021-02-28T09:49:14.000Z</time>
      </trkpt>
      <trkpt lat="47.3266" lon="-2.32312">
        <ele>9</ele>
        <time>2021-02-28T09:49:15.000Z</time>
      </trkpt>
      <trkpt lat="47.3267" lon="-2.32314">
        <ele>9</ele>
        <time>2021-02-28T09:49:17.000Z</time>
      </trkpt>
      <trkpt lat="47.32681" lon="-2.32317">
        <ele>9</ele>
        <time>2021-02-28T09:49:19.000Z</time>
      </trkpt>
      <trkpt lat="47.32696" lon="-2.32323">
        <ele>9</ele>
        <time>2021-02-28T09:49:22.000Z</time>
      </trkpt>
      <trkpt lat="47.32701" lon="-2.32325">
        <ele>9</ele>
        <time>2021-02-28T09:49:23.000Z</time>
      </trkpt>
      <trkpt lat="47.32711" lon="-2.3233">
        <ele>9</ele>
        <time>2021-02-28T09:49:25.000Z</time>
      </trkpt>
      <trkpt lat="47.32738" lon="-2.32344">
        <ele>9</ele>
        <time>2021-02-28T09:49:30.000Z</time>
      </trkpt>
      <trkpt lat="47.32764" lon="-2.32362">
        <ele>8.6000003814697</ele>
        <time>2021-02-28T09:49:35.000Z</time>
      </trkpt>
      <trkpt lat="47.3277" lon="-2.32364">
        <ele>8.1999998092651</ele>
        <time>2021-02-28T09:49:36.000Z</time>
      </trkpt>
      <trkpt lat="47.32776" lon="-2.32367">
        <ele>7.8000001907349</ele>
        <time>2021-02-28T09:49:37.000Z</time>
      </trkpt>
      <trkpt lat="47.32781" lon="-2.3237">
        <ele>7.4000000953674</ele>
        <time>2021-02-28T09:49:38.000Z</time>
      </trkpt>
      <trkpt lat="47.32787" lon="-2.32373">
        <ele>7</ele>
        <time>2021-02-28T09:49:39.000Z</time>
      </trkpt>
      <trkpt lat="47.32797" lon="-2.32379">
        <ele>7</ele>
        <time>2021-02-28T09:49:41.000Z</time>
      </trkpt>
      <trkpt lat="47.32805" lon="-2.32389">
        <ele>7</ele>
        <time>2021-02-28T09:49:43.000Z</time>
      </trkpt>
      <trkpt lat="47.32836" lon="-2.3242">
        <ele>7</ele>
        <time>2021-02-28T09:49:50.000Z</time>
      </trkpt>
      <trkpt lat="47.32865" lon="-2.3244">
        <ele>7</ele>
        <time>2021-02-28T09:49:56.000Z</time>
      </trkpt>
      <trkpt lat="47.32874" lon="-2.32445">
        <ele>7</ele>
        <time>2021-02-28T09:49:58.000Z</time>
      </trkpt>
      <trkpt lat="47.32888" lon="-2.32454">
        <ele>7</ele>
        <time>2021-02-28T09:50:01.000Z</time>
      </trkpt>
      <trkpt lat="47.32892" lon="-2.32459">
        <ele>7</ele>
        <time>2021-02-28T09:50:02.000Z</time>
      </trkpt>
      <trkpt lat="47.32903" lon="-2.32485">
        <ele>7</ele>
        <time>2021-02-28T09:50:06.000Z</time>
      </trkpt>
      <trkpt lat="47.32906" lon="-2.325">
        <ele>7</ele>
        <time>2021-02-28T09:50:08.000Z</time>
      </trkpt>
      <trkpt lat="47.32911" lon="-2.32514">
        <ele>7</ele>
        <time>2021-02-28T09:50:10.000Z</time>
      </trkpt>
      <trkpt lat="47.32914" lon="-2.32528">
        <ele>7</ele>
        <time>2021-02-28T09:50:12.000Z</time>
      </trkpt>
      <trkpt lat="47.32918" lon="-2.32552">
        <ele>7</ele>
        <time>2021-02-28T09:50:15.000Z</time>
      </trkpt>
      <trkpt lat="47.32918" lon="-2.32568">
        <ele>7</ele>
        <time>2021-02-28T09:50:17.000Z</time>
      </trkpt>
      <trkpt lat="47.32919" lon="-2.32627">
        <ele>7</ele>
        <time>2021-02-28T09:50:24.000Z</time>
      </trkpt>
      <trkpt lat="47.32921" lon="-2.32635">
        <ele>7</ele>
        <time>2021-02-28T09:50:25.000Z</time>
      </trkpt>
      <trkpt lat="47.32935" lon="-2.32645">
        <ele>7</ele>
        <time>2021-02-28T09:50:28.000Z</time>
      </trkpt>
      <trkpt lat="47.32959" lon="-2.32641">
        <ele>7</ele>
        <time>2021-02-28T09:50:32.000Z</time>
      </trkpt>
      <trkpt lat="47.32979" lon="-2.32632">
        <ele>7</ele>
        <time>2021-02-28T09:50:36.000Z</time>
      </trkpt>
      <trkpt lat="47.32989" lon="-2.32624">
        <ele>7</ele>
        <time>2021-02-28T09:50:38.000Z</time>
      </trkpt>
      <trkpt lat="47.33007" lon="-2.32628">
        <ele>6.4000000953674</ele>
        <time>2021-02-28T09:50:41.000Z</time>
      </trkpt>
      <trkpt lat="47.33013" lon="-2.32631">
        <ele>5.8000001907349</ele>
        <time>2021-02-28T09:50:42.000Z</time>
      </trkpt>
      <trkpt lat="47.33018" lon="-2.32634">
        <ele>5.4000000953674</ele>
        <time>2021-02-28T09:50:43.000Z</time>
      </trkpt>
      <trkpt lat="47.33024" lon="-2.32634">
        <ele>4.8000001907349</ele>
        <time>2021-02-28T09:50:44.000Z</time>
      </trkpt>
      <trkpt lat="47.3303" lon="-2.32633">
        <ele>4.4000000953674</ele>
        <time>2021-02-28T09:50:45.000Z</time>
      </trkpt>
      <trkpt lat="47.33035" lon="-2.3263">
        <ele>4.4000000953674</ele>
        <time>2021-02-28T09:50:46.000Z</time>
      </trkpt>
      <trkpt lat="47.33048" lon="-2.32619">
        <ele>4.4000000953674</ele>
        <time>2021-02-28T09:50:49.000Z</time>
      </trkpt>
      <trkpt lat="47.33052" lon="-2.32615">
        <ele>4.4000000953674</ele>
        <time>2021-02-28T09:50:50.000Z</time>
      </trkpt>
      <trkpt lat="47.33076" lon="-2.32596">
        <ele>4.4000000953674</ele>
        <time>2021-02-28T09:50:56.000Z</time>
      </trkpt>
      <trkpt lat="47.33098" lon="-2.32577">
        <ele>4.8000001907349</ele>
        <time>2021-02-28T09:51:01.000Z</time>
      </trkpt>
      <trkpt lat="47.33102" lon="-2.32573">
        <ele>5.1999998092651</ele>
        <time>2021-02-28T09:51:02.000Z</time>
      </trkpt>
      <trkpt lat="47.33106" lon="-2.3257">
        <ele>5.5999999046326</ele>
        <time>2021-02-28T09:51:03.000Z</time>
      </trkpt>
      <trkpt lat="47.3311" lon="-2.32566">
        <ele>6</ele>
        <time>2021-02-28T09:51:04.000Z</time>
      </trkpt>
      <trkpt lat="47.33115" lon="-2.32563">
        <ele>6.4000000953674</ele>
        <time>2021-02-28T09:51:05.000Z</time>
      </trkpt>
      <trkpt lat="47.33128" lon="-2.32553">
        <ele>6.4000000953674</ele>
        <time>2021-02-28T09:51:08.000Z</time>
      </trkpt>
      <trkpt lat="47.33137" lon="-2.32547">
        <ele>6.8000001907349</ele>
        <time>2021-02-28T09:51:10.000Z</time>
      </trkpt>
      <trkpt lat="47.33141" lon="-2.32544">
        <ele>7.4000000953674</ele>
        <time>2021-02-28T09:51:11.000Z</time>
      </trkpt>
      <trkpt lat="47.33145" lon="-2.3254">
        <ele>7.8000001907349</ele>
        <time>2021-02-28T09:51:12.000Z</time>
      </trkpt>
      <trkpt lat="47.33149" lon="-2.32536">
        <ele>8.1999998092651</ele>
        <time>2021-02-28T09:51:13.000Z</time>
      </trkpt>
      <trkpt lat="47.33153" lon="-2.32533">
        <ele>8.6000003814697</ele>
        <time>2021-02-28T09:51:14.000Z</time>
      </trkpt>
      <trkpt lat="47.33175" lon="-2.32519">
        <ele>8.6000003814697</ele>
        <time>2021-02-28T09:51:19.000Z</time>
      </trkpt>
      <trkpt lat="47.3318" lon="-2.32517">
        <ele>8.6000003814697</ele>
        <time>2021-02-28T09:51:20.000Z</time>
      </trkpt>
      <trkpt lat="47.33217" lon="-2.325">
        <ele>8.6000003814697</ele>
        <time>2021-02-28T09:51:27.000Z</time>
      </trkpt>
      <trkpt lat="47.33262" lon="-2.3248">
        <ele>8.6000003814697</ele>
        <time>2021-02-28T09:51:35.000Z</time>
      </trkpt>
      <trkpt lat="47.33303" lon="-2.32461">
        <ele>8.6000003814697</ele>
        <time>2021-02-28T09:51:42.000Z</time>
      </trkpt>
      <trkpt lat="47.33333" lon="-2.32448">
        <ele>8.6000003814697</ele>
        <time>2021-02-28T09:51:47.000Z</time>
      </trkpt>
      <trkpt lat="47.33339" lon="-2.32442">
        <ele>8.6000003814697</ele>
        <time>2021-02-28T09:51:48.000Z</time>
      </trkpt>
      <trkpt lat="47.33353" lon="-2.32421">
        <ele>8.6000003814697</ele>
        <time>2021-02-28T09:51:51.000Z</time>
      </trkpt>
      <trkpt lat="47.33358" lon="-2.32415">
        <ele>8.6000003814697</ele>
        <time>2021-02-28T09:51:52.000Z</time>
      </trkpt>
      <trkpt lat="47.33386" lon="-2.32388">
        <ele>8.6000003814697</ele>
        <time>2021-02-28T09:51:57.000Z</time>
      </trkpt>
      <trkpt lat="47.33416" lon="-2.32363">
        <ele>8.6000003814697</ele>
        <time>2021-02-28T09:52:02.000Z</time>
      </trkpt>
      <trkpt lat="47.33459" lon="-2.32332">
        <ele>8.6000003814697</ele>
        <time>2021-02-28T09:52:09.000Z</time>
      </trkpt>
      <trkpt lat="47.33466" lon="-2.32328">
        <ele>8.1999998092651</ele>
        <time>2021-02-28T09:52:10.000Z</time>
      </trkpt>
      <trkpt lat="47.33473" lon="-2.32325">
        <ele>7.5999999046326</ele>
        <time>2021-02-28T09:52:11.000Z</time>
      </trkpt>
      <trkpt lat="47.3348" lon="-2.32322">
        <ele>7.1999998092651</ele>
        <time>2021-02-28T09:52:12.000Z</time>
      </trkpt>
      <trkpt lat="47.33486" lon="-2.32319">
        <ele>6.8000001907349</ele>
        <time>2021-02-28T09:52:13.000Z</time>
      </trkpt>
      <trkpt lat="47.33492" lon="-2.32317">
        <ele>6.4000000953674</ele>
        <time>2021-02-28T09:52:14.000Z</time>
      </trkpt>
      <trkpt lat="47.33505" lon="-2.32311">
        <ele>6.4000000953674</ele>
        <time>2021-02-28T09:52:16.000Z</time>
      </trkpt>
      <trkpt lat="47.33533" lon="-2.323">
        <ele>6.4000000953674</ele>
        <time>2021-02-28T09:52:21.000Z</time>
      </trkpt>
      <trkpt lat="47.33555" lon="-2.32299">
        <ele>6.4000000953674</ele>
        <time>2021-02-28T09:52:25.000Z</time>
      </trkpt>
      <trkpt lat="47.3356" lon="-2.32296">
        <ele>6.4000000953674</ele>
        <time>2021-02-28T09:52:26.000Z</time>
      </trkpt>
      <trkpt lat="47.33593" lon="-2.32288">
        <ele>6.4000000953674</ele>
        <time>2021-02-28T09:52:32.000Z</time>
      </trkpt>
      <trkpt lat="47.33627" lon="-2.32282">
        <ele>6.4000000953674</ele>
        <time>2021-02-28T09:52:38.000Z</time>
      </trkpt>
      <trkpt lat="47.33648" lon="-2.32276">
        <ele>6.8000001907349</ele>
        <time>2021-02-28T09:52:42.000Z</time>
      </trkpt>
      <trkpt lat="47.33654" lon="-2.32274">
        <ele>7.1999998092651</ele>
        <time>2021-02-28T09:52:43.000Z</time>
      </trkpt>
      <trkpt lat="47.3366" lon="-2.32271">
        <ele>7.5999999046326</ele>
        <time>2021-02-28T09:52:44.000Z</time>
      </trkpt>
      <trkpt lat="47.33666" lon="-2.32269">
        <ele>8</ele>
        <time>2021-02-28T09:52:45.000Z</time>
      </trkpt>
      <trkpt lat="47.33672" lon="-2.32265">
        <ele>8.3999996185303</ele>
        <time>2021-02-28T09:52:46.000Z</time>
      </trkpt>
      <trkpt lat="47.3369" lon="-2.32255">
        <ele>8.3999996185303</ele>
        <time>2021-02-28T09:52:49.000Z</time>
      </trkpt>
      <trkpt lat="47.33717" lon="-2.32238">
        <ele>8.3999996185303</ele>
        <time>2021-02-28T09:52:54.000Z</time>
      </trkpt>
      <trkpt lat="47.33752" lon="-2.32217">
        <ele>8.3999996185303</ele>
        <time>2021-02-28T09:53:00.000Z</time>
      </trkpt>
      <trkpt lat="47.33758" lon="-2.32214">
        <ele>8.3999996185303</ele>
        <time>2021-02-28T09:53:01.000Z</time>
      </trkpt>
      <trkpt lat="47.33802" lon="-2.32201">
        <ele>8.3999996185303</ele>
        <time>2021-02-28T09:53:08.000Z</time>
      </trkpt>
      <trkpt lat="47.33828" lon="-2.32199">
        <ele>8</ele>
        <time>2021-02-28T09:53:12.000Z</time>
      </trkpt>
      <trkpt lat="47.33835" lon="-2.32198">
        <ele>7.5999999046326</ele>
        <time>2021-02-28T09:53:13.000Z</time>
      </trkpt>
      <trkpt lat="47.33842" lon="-2.32197">
        <ele>6.8000001907349</ele>
        <time>2021-02-28T09:53:14.000Z</time>
      </trkpt>
      <trkpt lat="47.33849" lon="-2.32197">
        <ele>6.4000000953674</ele>
        <time>2021-02-28T09:53:15.000Z</time>
      </trkpt>
      <trkpt lat="47.33889" lon="-2.32194">
        <ele>6.4000000953674</ele>
        <time>2021-02-28T09:53:21.000Z</time>
      </trkpt>
      <trkpt lat="47.3392" lon="-2.32196">
        <ele>6.4000000953674</ele>
        <time>2021-02-28T09:53:26.000Z</time>
      </trkpt>
      <trkpt lat="47.33938" lon="-2.32195">
        <ele>6.4000000953674</ele>
        <time>2021-02-28T09:53:29.000Z</time>
      </trkpt>
      <trkpt lat="47.33948" lon="-2.32204">
        <ele>6.4000000953674</ele>
        <time>2021-02-28T09:53:31.000Z</time>
      </trkpt>
      <trkpt lat="47.33972" lon="-2.32217">
        <ele>6.4000000953674</ele>
        <time>2021-02-28T09:53:35.000Z</time>
      </trkpt>
      <trkpt lat="47.33978" lon="-2.32218">
        <ele>6.4000000953674</ele>
        <time>2021-02-28T09:53:36.000Z</time>
      </trkpt>
      <trkpt lat="47.33983" lon="-2.32218">
        <ele>6.4000000953674</ele>
        <time>2021-02-28T09:53:37.000Z</time>
      </trkpt>
      <trkpt lat="47.34002" lon="-2.32215">
        <ele>6.4000000953674</ele>
        <time>2021-02-28T09:53:40.000Z</time>
      </trkpt>
      <trkpt lat="47.34042" lon="-2.32216">
        <ele>6.4000000953674</ele>
        <time>2021-02-28T09:53:46.000Z</time>
      </trkpt>
      <trkpt lat="47.34061" lon="-2.3222">
        <ele>6.4000000953674</ele>
        <time>2021-02-28T09:53:49.000Z</time>
      </trkpt>
      <trkpt lat="47.34073" lon="-2.32227">
        <ele>6.4000000953674</ele>
        <time>2021-02-28T09:53:51.000Z</time>
      </trkpt>
      <trkpt lat="47.34091" lon="-2.32255">
        <ele>6.4000000953674</ele>
        <time>2021-02-28T09:53:55.000Z</time>
      </trkpt>
      <trkpt lat="47.34099" lon="-2.32288">
        <ele>6.4000000953674</ele>
        <time>2021-02-28T09:53:59.000Z</time>
      </trkpt>
      <trkpt lat="47.34104" lon="-2.32306">
        <ele>6.8000001907349</ele>
        <time>2021-02-28T09:54:01.000Z</time>
      </trkpt>
      <trkpt lat="47.34106" lon="-2.32314">
        <ele>7.1999998092651</ele>
        <time>2021-02-28T09:54:02.000Z</time>
      </trkpt>
      <trkpt lat="47.34108" lon="-2.32322">
        <ele>8</ele>
        <time>2021-02-28T09:54:03.000Z</time>
      </trkpt>
      <trkpt lat="47.3411" lon="-2.32332">
        <ele>8.3999996185303</ele>
        <time>2021-02-28T09:54:04.000Z</time>
      </trkpt>
      <trkpt lat="47.3412" lon="-2.32364">
        <ele>8.8000001907349</ele>
        <time>2021-02-28T09:54:08.000Z</time>
      </trkpt>
      <trkpt lat="47.34122" lon="-2.32371">
        <ele>9.1999998092651</ele>
        <time>2021-02-28T09:54:09.000Z</time>
      </trkpt>
      <trkpt lat="47.34125" lon="-2.32378">
        <ele>9.6000003814697</ele>
        <time>2021-02-28T09:54:10.000Z</time>
      </trkpt>
      <trkpt lat="47.34127" lon="-2.32387">
        <ele>10</ele>
        <time>2021-02-28T09:54:11.000Z</time>
      </trkpt>
      <trkpt lat="47.34129" lon="-2.32396">
        <ele>10.60000038147</ele>
        <time>2021-02-28T09:54:12.000Z</time>
      </trkpt>
      <trkpt lat="47.34131" lon="-2.32405">
        <ele>10.60000038147</ele>
        <time>2021-02-28T09:54:13.000Z</time>
      </trkpt>
      <trkpt lat="47.34148" lon="-2.32464">
        <ele>10.60000038147</ele>
        <time>2021-02-28T09:54:20.000Z</time>
      </trkpt>
      <trkpt lat="47.34159" lon="-2.32521">
        <ele>10.60000038147</ele>
        <time>2021-02-28T09:54:27.000Z</time>
      </trkpt>
      <trkpt lat="47.34159" lon="-2.32542">
        <ele>10.60000038147</ele>
        <time>2021-02-28T09:54:31.000Z</time>
      </trkpt>
      <trkpt lat="47.3416" lon="-2.32566">
        <ele>10.60000038147</ele>
        <time>2021-02-28T09:54:39.000Z</time>
      </trkpt>
      <trkpt lat="47.34163" lon="-2.32577">
        <ele>10.60000038147</ele>
        <time>2021-02-28T09:54:45.000Z</time>
      </trkpt>
      <trkpt lat="47.34164" lon="-2.32576">
        <ele>10.60000038147</ele>
        <time>2021-02-28T09:54:46.000Z</time>
      </trkpt>
      <trkpt lat="47.34171" lon="-2.32579">
        <ele>10.60000038147</ele>
        <time>2021-02-28T09:54:50.000Z</time>
      </trkpt>
      <trkpt lat="47.34186" lon="-2.32574">
        <ele>10.60000038147</ele>
        <time>2021-02-28T09:54:56.000Z</time>
      </trkpt>
      <trkpt lat="47.3421" lon="-2.32567">
        <ele>10.60000038147</ele>
        <time>2021-02-28T09:55:05.000Z</time>
      </trkpt>
      <trkpt lat="47.34225" lon="-2.32563">
        <ele>11</ele>
        <time>2021-02-28T09:55:10.000Z</time>
      </trkpt>
      <trkpt lat="47.34228" lon="-2.32562">
        <ele>11.39999961853</ele>
        <time>2021-02-28T09:55:11.000Z</time>
      </trkpt>
      <trkpt lat="47.34231" lon="-2.32561">
        <ele>12</ele>
        <time>2021-02-28T09:55:12.000Z</time>
      </trkpt>
      <trkpt lat="47.34233" lon="-2.32561">
        <ele>12.39999961853</ele>
        <time>2021-02-28T09:55:13.000Z</time>
      </trkpt>
      <trkpt lat="47.34236" lon="-2.3256">
        <ele>12.800000190735</ele>
        <time>2021-02-28T09:55:14.000Z</time>
      </trkpt>
      <trkpt lat="47.34245" lon="-2.32558">
        <ele>12</ele>
        <time>2021-02-28T09:55:17.000Z</time>
      </trkpt>
      <trkpt lat="47.34248" lon="-2.32558">
        <ele>11.60000038147</ele>
        <time>2021-02-28T09:55:18.000Z</time>
      </trkpt>
      <trkpt lat="47.34251" lon="-2.32557">
        <ele>11.199999809265</ele>
        <time>2021-02-28T09:55:19.000Z</time>
      </trkpt>
      <trkpt lat="47.34254" lon="-2.32556">
        <ele>10.800000190735</ele>
        <time>2021-02-28T09:55:20.000Z</time>
      </trkpt>
      <trkpt lat="47.34265" lon="-2.32553">
        <ele>10.800000190735</ele>
        <time>2021-02-28T09:55:24.000Z</time>
      </trkpt>
      <trkpt lat="47.34284" lon="-2.32548">
        <ele>10.800000190735</ele>
        <time>2021-02-28T09:55:30.000Z</time>
      </trkpt>
      <trkpt lat="47.34304" lon="-2.32544">
        <ele>10.800000190735</ele>
        <time>2021-02-28T09:55:36.000Z</time>
      </trkpt>
      <trkpt lat="47.34326" lon="-2.32534">
        <ele>10.800000190735</ele>
        <time>2021-02-28T09:55:43.000Z</time>
      </trkpt>
      <trkpt lat="47.3434" lon="-2.32521">
        <ele>10.800000190735</ele>
        <time>2021-02-28T09:55:47.000Z</time>
      </trkpt>
      <trkpt lat="47.34346" lon="-2.32513">
        <ele>10.800000190735</ele>
        <time>2021-02-28T09:55:49.000Z</time>
      </trkpt>
      <trkpt lat="47.34361" lon="-2.32488">
        <ele>10.800000190735</ele>
        <time>2021-02-28T09:55:54.000Z</time>
      </trkpt>
      <trkpt lat="47.34366" lon="-2.32476">
        <ele>10.800000190735</ele>
        <time>2021-02-28T09:55:56.000Z</time>
      </trkpt>
      <trkpt lat="47.34383" lon="-2.32444">
        <ele>10.39999961853</ele>
        <time>2021-02-28T09:56:02.000Z</time>
      </trkpt>
      <trkpt lat="47.34385" lon="-2.32438">
        <ele>10</ele>
        <time>2021-02-28T09:56:03.000Z</time>
      </trkpt>
      <trkpt lat="47.34388" lon="-2.32433">
        <ele>9.6000003814697</ele>
        <time>2021-02-28T09:56:04.000Z</time>
      </trkpt>
      <trkpt lat="47.34391" lon="-2.32428">
        <ele>9.1999998092651</ele>
        <time>2021-02-28T09:56:05.000Z</time>
      </trkpt>
      <trkpt lat="47.34394" lon="-2.32422">
        <ele>8.6000003814697</ele>
        <time>2021-02-28T09:56:06.000Z</time>
      </trkpt>
      <trkpt lat="47.3441" lon="-2.324">
        <ele>8.6000003814697</ele>
        <time>2021-02-28T09:56:11.000Z</time>
      </trkpt>
      <trkpt lat="47.34438" lon="-2.32367">
        <ele>8.6000003814697</ele>
        <time>2021-02-28T09:56:20.000Z</time>
      </trkpt>
      <trkpt lat="47.34464" lon="-2.32341">
        <ele>8.6000003814697</ele>
        <time>2021-02-28T09:56:27.000Z</time>
      </trkpt>
      <trkpt lat="47.34493" lon="-2.32313">
        <ele>8.6000003814697</ele>
        <time>2021-02-28T09:56:34.000Z</time>
      </trkpt>
      <trkpt lat="47.34522" lon="-2.32283">
        <ele>8.6000003814697</ele>
        <time>2021-02-28T09:56:41.000Z</time>
      </trkpt>
      <trkpt lat="47.34527" lon="-2.3228">
        <ele>8.6000003814697</ele>
        <time>2021-02-28T09:56:42.000Z</time>
      </trkpt>
      <trkpt lat="47.34551" lon="-2.3226">
        <ele>8.6000003814697</ele>
        <time>2021-02-28T09:56:47.000Z</time>
      </trkpt>
      <trkpt lat="47.34584" lon="-2.32232">
        <ele>8.6000003814697</ele>
        <time>2021-02-28T09:56:54.000Z</time>
      </trkpt>
      <trkpt lat="47.34589" lon="-2.32229">
        <ele>8.1999998092651</ele>
        <time>2021-02-28T09:56:55.000Z</time>
      </trkpt>
      <trkpt lat="47.34593" lon="-2.32225">
        <ele>7.4000000953674</ele>
        <time>2021-02-28T09:56:56.000Z</time>
      </trkpt>
      <trkpt lat="47.34598" lon="-2.32221">
        <ele>7</ele>
        <time>2021-02-28T09:56:57.000Z</time>
      </trkpt>
      <trkpt lat="47.34603" lon="-2.32217">
        <ele>6.5999999046326</ele>
        <time>2021-02-28T09:56:58.000Z</time>
      </trkpt>
      <trkpt lat="47.34616" lon="-2.32205">
        <ele>6.5999999046326</ele>
        <time>2021-02-28T09:57:01.000Z</time>
      </trkpt>
      <trkpt lat="47.34645" lon="-2.32178">
        <ele>6.5999999046326</ele>
        <time>2021-02-28T09:57:08.000Z</time>
      </trkpt>
      <trkpt lat="47.34653" lon="-2.3217">
        <ele>6.1999998092651</ele>
        <time>2021-02-28T09:57:10.000Z</time>
      </trkpt>
      <trkpt lat="47.34657" lon="-2.32166">
        <ele>5.8000001907349</ele>
        <time>2021-02-28T09:57:11.000Z</time>
      </trkpt>
      <trkpt lat="47.34661" lon="-2.32163">
        <ele>5.4000000953674</ele>
        <time>2021-02-28T09:57:12.000Z</time>
      </trkpt>
      <trkpt lat="47.34665" lon="-2.32159">
        <ele>5</ele>
        <time>2021-02-28T09:57:13.000Z</time>
      </trkpt>
      <trkpt lat="47.34669" lon="-2.32156">
        <ele>4.5999999046326</ele>
        <time>2021-02-28T09:57:14.000Z</time>
      </trkpt>
      <trkpt lat="47.34673" lon="-2.32153">
        <ele>4.5999999046326</ele>
        <time>2021-02-28T09:57:15.000Z</time>
      </trkpt>
      <trkpt lat="47.347" lon="-2.3213">
        <ele>4.1999998092651</ele>
        <time>2021-02-28T09:57:22.000Z</time>
      </trkpt>
      <trkpt lat="47.34703" lon="-2.32127">
        <ele>3.7999999523163</ele>
        <time>2021-02-28T09:57:23.000Z</time>
      </trkpt>
      <trkpt lat="47.34707" lon="-2.32124">
        <ele>3.2000000476837</ele>
        <time>2021-02-28T09:57:24.000Z</time>
      </trkpt>
      <trkpt lat="47.3471" lon="-2.32121">
        <ele>2.7999999523163</ele>
        <time>2021-02-28T09:57:25.000Z</time>
      </trkpt>
      <trkpt lat="47.34713" lon="-2.32118">
        <ele>2.4000000953674</ele>
        <time>2021-02-28T09:57:26.000Z</time>
      </trkpt>
      <trkpt lat="47.3473" lon="-2.32105">
        <ele>2.4000000953674</ele>
        <time>2021-02-28T09:57:31.000Z</time>
      </trkpt>
      <trkpt lat="47.34743" lon="-2.32094">
        <ele>2.4000000953674</ele>
        <time>2021-02-28T09:57:37.000Z</time>
      </trkpt>
      <trkpt lat="47.34746" lon="-2.32103">
        <ele>2.4000000953674</ele>
        <time>2021-02-28T09:57:41.000Z</time>
      </trkpt>
      <trkpt lat="47.3475" lon="-2.32112">
        <ele>2.4000000953674</ele>
        <time>2021-02-28T09:57:46.000Z</time>
      </trkpt>
      <trkpt lat="47.34752" lon="-2.32114">
        <ele>2.4000000953674</ele>
        <time>2021-02-28T09:57:48.000Z</time>
      </trkpt>
      <trkpt lat="47.34757" lon="-2.32117">
        <ele>2.4000000953674</ele>
        <time>2021-02-28T09:57:52.000Z</time>
      </trkpt>
      <trkpt lat="47.3476" lon="-2.32122">
        <ele>2.4000000953674</ele>
        <time>2021-02-28T09:57:55.000Z</time>
      </trkpt>
      <trkpt lat="47.34763" lon="-2.32124">
        <ele>2.4000000953674</ele>
        <time>2021-02-28T09:57:57.000Z</time>
      </trkpt>
      <trkpt lat="47.34767" lon="-2.32128">
        <ele>2.4000000953674</ele>
        <time>2021-02-28T09:58:01.000Z</time>
      </trkpt>
      <trkpt lat="47.34769" lon="-2.32131">
        <ele>2.4000000953674</ele>
        <time>2021-02-28T09:58:03.000Z</time>
      </trkpt>
      <trkpt lat="47.34769" lon="-2.32131">
        <ele>2</ele>
        <time>2021-02-28T09:58:05.000Z</time>
      </trkpt>
      <trkpt lat="47.34761" lon="-2.32151">
        <ele>0.40000000596046</ele>
        <time>2021-02-28T10:10:05.000Z</time>
      </trkpt>
      <trkpt lat="47.34762" lon="-2.32154">
        <ele>0.40000000596046</ele>
        <time>2021-02-28T10:10:06.000Z</time>
      </trkpt>
      <trkpt lat="47.34769" lon="-2.32177">
        <ele>0.80000001192093</ele>
        <time>2021-02-28T10:10:12.000Z</time>
      </trkpt>
      <trkpt lat="47.3477" lon="-2.32181">
        <ele>1.2000000476837</ele>
        <time>2021-02-28T10:10:13.000Z</time>
      </trkpt>
      <trkpt lat="47.3477" lon="-2.32185">
        <ele>1.6000000238419</ele>
        <time>2021-02-28T10:10:14.000Z</time>
      </trkpt>
      <trkpt lat="47.34771" lon="-2.32189">
        <ele>2</ele>
        <time>2021-02-28T10:10:15.000Z</time>
      </trkpt>
      <trkpt lat="47.34772" lon="-2.32193">
        <ele>2.4000000953674</ele>
        <time>2021-02-28T10:10:16.000Z</time>
      </trkpt>
      <trkpt lat="47.34775" lon="-2.32204">
        <ele>2.4000000953674</ele>
        <time>2021-02-28T10:10:19.000Z</time>
      </trkpt>
      <trkpt lat="47.3477" lon="-2.32225">
        <ele>2.4000000953674</ele>
        <time>2021-02-28T10:10:24.000Z</time>
      </trkpt>
      <trkpt lat="47.34757" lon="-2.32252">
        <ele>2.4000000953674</ele>
        <time>2021-02-28T10:10:31.000Z</time>
      </trkpt>
      <trkpt lat="47.34749" lon="-2.32272">
        <ele>2.4000000953674</ele>
        <time>2021-02-28T10:10:37.000Z</time>
      </trkpt>
      <trkpt lat="47.34738" lon="-2.32301">
        <ele>2.4000000953674</ele>
        <time>2021-02-28T10:10:44.000Z</time>
      </trkpt>
      <trkpt lat="47.3473" lon="-2.32318">
        <ele>2.7999999523163</ele>
        <time>2021-02-28T10:10:48.000Z</time>
      </trkpt>
      <trkpt lat="47.34728" lon="-2.32323">
        <ele>3.2000000476837</ele>
        <time>2021-02-28T10:10:49.000Z</time>
      </trkpt>
      <trkpt lat="47.34726" lon="-2.32327">
        <ele>3.5999999046326</ele>
        <time>2021-02-28T10:10:50.000Z</time>
      </trkpt>
      <trkpt lat="47.34725" lon="-2.32331">
        <ele>4</ele>
        <time>2021-02-28T10:10:51.000Z</time>
      </trkpt>
      <trkpt lat="47.34723" lon="-2.32335">
        <ele>4.4000000953674</ele>
        <time>2021-02-28T10:10:52.000Z</time>
      </trkpt>
      <trkpt lat="47.34714" lon="-2.32362">
        <ele>4.4000000953674</ele>
        <time>2021-02-28T10:10:58.000Z</time>
      </trkpt>
      <trkpt lat="47.3471" lon="-2.32376">
        <ele>4.8000001907349</ele>
        <time>2021-02-28T10:11:01.000Z</time>
      </trkpt>
      <trkpt lat="47.34708" lon="-2.32381">
        <ele>5.1999998092651</ele>
        <time>2021-02-28T10:11:02.000Z</time>
      </trkpt>
      <trkpt lat="47.34706" lon="-2.32386">
        <ele>5.5999999046326</ele>
        <time>2021-02-28T10:11:03.000Z</time>
      </trkpt>
      <trkpt lat="47.34704" lon="-2.32391">
        <ele>6</ele>
        <time>2021-02-28T10:11:04.000Z</time>
      </trkpt>
      <trkpt lat="47.34703" lon="-2.32396">
        <ele>6.4000000953674</ele>
        <time>2021-02-28T10:11:05.000Z</time>
      </trkpt>
      <trkpt lat="47.34694" lon="-2.32425">
        <ele>6.4000000953674</ele>
        <time>2021-02-28T10:11:11.000Z</time>
      </trkpt>
      <trkpt lat="47.34681" lon="-2.32464">
        <ele>6.4000000953674</ele>
        <time>2021-02-28T10:11:18.000Z</time>
      </trkpt>
      <trkpt lat="47.34669" lon="-2.32503">
        <ele>6.4000000953674</ele>
        <time>2021-02-28T10:11:23.000Z</time>
      </trkpt>
      <trkpt lat="47.34662" lon="-2.32521">
        <ele>6.4000000953674</ele>
        <time>2021-02-28T10:11:27.000Z</time>
      </trkpt>
      <trkpt lat="47.34661" lon="-2.32529">
        <ele>6</ele>
        <time>2021-02-28T10:11:29.000Z</time>
      </trkpt>
      <trkpt lat="47.34659" lon="-2.32532">
        <ele>5.5999999046326</ele>
        <time>2021-02-28T10:11:30.000Z</time>
      </trkpt>
      <trkpt lat="47.34658" lon="-2.32534">
        <ele>5.1999998092651</ele>
        <time>2021-02-28T10:11:31.000Z</time>
      </trkpt>
      <trkpt lat="47.34658" lon="-2.32537">
        <ele>4.8000001907349</ele>
        <time>2021-02-28T10:11:32.000Z</time>
      </trkpt>
      <trkpt lat="47.34658" lon="-2.3254">
        <ele>4.4000000953674</ele>
        <time>2021-02-28T10:11:33.000Z</time>
      </trkpt>
      <trkpt lat="47.3466" lon="-2.32545">
        <ele>4.4000000953674</ele>
        <time>2021-02-28T10:11:36.000Z</time>
      </trkpt>
      <trkpt lat="47.3466" lon="-2.32549">
        <ele>4.4000000953674</ele>
        <time>2021-02-28T10:11:38.000Z</time>
      </trkpt>
      <trkpt lat="47.34659" lon="-2.32553">
        <ele>4.4000000953674</ele>
        <time>2021-02-28T10:11:40.000Z</time>
      </trkpt>
      <trkpt lat="47.34658" lon="-2.32555">
        <ele>4.4000000953674</ele>
        <time>2021-02-28T10:11:41.000Z</time>
      </trkpt>
      <trkpt lat="47.34653" lon="-2.32569">
        <ele>4.4000000953674</ele>
        <time>2021-02-28T10:11:46.000Z</time>
      </trkpt>
      <trkpt lat="47.3465" lon="-2.32579">
        <ele>4.4000000953674</ele>
        <time>2021-02-28T10:11:48.000Z</time>
      </trkpt>
      <trkpt lat="47.34641" lon="-2.32594">
        <ele>4.4000000953674</ele>
        <time>2021-02-28T10:11:51.000Z</time>
      </trkpt>
      <trkpt lat="47.34614" lon="-2.32628">
        <ele>4.4000000953674</ele>
        <time>2021-02-28T10:11:58.000Z</time>
      </trkpt>
      <trkpt lat="47.34607" lon="-2.32637">
        <ele>4.4000000953674</ele>
        <time>2021-02-28T10:12:00.000Z</time>
      </trkpt>
      <trkpt lat="47.34592" lon="-2.32655">
        <ele>4.4000000953674</ele>
        <time>2021-02-28T10:12:04.000Z</time>
      </trkpt>
      <trkpt lat="47.3458" lon="-2.32667">
        <ele>4.8000001907349</ele>
        <time>2021-02-28T10:12:07.000Z</time>
      </trkpt>
      <trkpt lat="47.34576" lon="-2.32671">
        <ele>5.4000000953674</ele>
        <time>2021-02-28T10:12:08.000Z</time>
      </trkpt>
      <trkpt lat="47.34572" lon="-2.32675">
        <ele>5.8000001907349</ele>
        <time>2021-02-28T10:12:09.000Z</time>
      </trkpt>
      <trkpt lat="47.34568" lon="-2.32678">
        <ele>6.1999998092651</ele>
        <time>2021-02-28T10:12:10.000Z</time>
      </trkpt>
      <trkpt lat="47.34564" lon="-2.32681">
        <ele>6.5999999046326</ele>
        <time>2021-02-28T10:12:11.000Z</time>
      </trkpt>
      <trkpt lat="47.34544" lon="-2.32696">
        <ele>7</ele>
        <time>2021-02-28T10:12:16.000Z</time>
      </trkpt>
      <trkpt lat="47.3454" lon="-2.32699">
        <ele>7.4000000953674</ele>
        <time>2021-02-28T10:12:17.000Z</time>
      </trkpt>
      <trkpt lat="47.34536" lon="-2.32701">
        <ele>8</ele>
        <time>2021-02-28T10:12:18.000Z</time>
      </trkpt>
      <trkpt lat="47.34531" lon="-2.32704">
        <ele>8.3999996185303</ele>
        <time>2021-02-28T10:12:19.000Z</time>
      </trkpt>
      <trkpt lat="47.34527" lon="-2.32707">
        <ele>8.8000001907349</ele>
        <time>2021-02-28T10:12:20.000Z</time>
      </trkpt>
      <trkpt lat="47.34513" lon="-2.32719">
        <ele>8.8000001907349</ele>
        <time>2021-02-28T10:12:24.000Z</time>
      </trkpt>
      <trkpt lat="47.34483" lon="-2.32736">
        <ele>8.8000001907349</ele>
        <time>2021-02-28T10:12:31.000Z</time>
      </trkpt>
      <trkpt lat="47.34464" lon="-2.32747">
        <ele>8.8000001907349</ele>
        <time>2021-02-28T10:12:35.000Z</time>
      </trkpt>
      <trkpt lat="47.34458" lon="-2.32757">
        <ele>8.8000001907349</ele>
        <time>2021-02-28T10:12:37.000Z</time>
      </trkpt>
      <trkpt lat="47.34454" lon="-2.3278">
        <ele>8.8000001907349</ele>
        <time>2021-02-28T10:12:40.000Z</time>
      </trkpt>
      <trkpt lat="47.34455" lon="-2.32797">
        <ele>8.8000001907349</ele>
        <time>2021-02-28T10:12:42.000Z</time>
      </trkpt>
      <trkpt lat="47.34456" lon="-2.32812">
        <ele>8.8000001907349</ele>
        <time>2021-02-28T10:12:44.000Z</time>
      </trkpt>
      <trkpt lat="47.34457" lon="-2.3282">
        <ele>8.8000001907349</ele>
        <time>2021-02-28T10:12:45.000Z</time>
      </trkpt>
      <trkpt lat="47.34455" lon="-2.32826">
        <ele>8.3999996185303</ele>
        <time>2021-02-28T10:12:46.000Z</time>
      </trkpt>
      <trkpt lat="47.34451" lon="-2.32831">
        <ele>7.4000000953674</ele>
        <time>2021-02-28T10:12:47.000Z</time>
      </trkpt>
      <trkpt lat="47.34446" lon="-2.32833">
        <ele>6.8000001907349</ele>
        <time>2021-02-28T10:12:48.000Z</time>
      </trkpt>
      <trkpt lat="47.34441" lon="-2.32834">
        <ele>6.4000000953674</ele>
        <time>2021-02-28T10:12:49.000Z</time>
      </trkpt>
      <trkpt lat="47.34435" lon="-2.32837">
        <ele>6.4000000953674</ele>
        <time>2021-02-28T10:12:50.000Z</time>
      </trkpt>
      <trkpt lat="47.3443" lon="-2.3284">
        <ele>6.4000000953674</ele>
        <time>2021-02-28T10:12:51.000Z</time>
      </trkpt>
      <trkpt lat="47.34414" lon="-2.32851">
        <ele>6.4000000953674</ele>
        <time>2021-02-28T10:12:54.000Z</time>
      </trkpt>
      <trkpt lat="47.34403" lon="-2.32859">
        <ele>6.4000000953674</ele>
        <time>2021-02-28T10:12:56.000Z</time>
      </trkpt>
      <trkpt lat="47.34375" lon="-2.32883">
        <ele>6.4000000953674</ele>
        <time>2021-02-28T10:13:02.000Z</time>
      </trkpt>
      <trkpt lat="47.34358" lon="-2.32901">
        <ele>6.4000000953674</ele>
        <time>2021-02-28T10:13:06.000Z</time>
      </trkpt>
      <trkpt lat="47.34354" lon="-2.32915">
        <ele>6.4000000953674</ele>
        <time>2021-02-28T10:13:08.000Z</time>
      </trkpt>
      <trkpt lat="47.34356" lon="-2.32943">
        <ele>6.4000000953674</ele>
        <time>2021-02-28T10:13:12.000Z</time>
      </trkpt>
      <trkpt lat="47.34358" lon="-2.32951">
        <ele>6.4000000953674</ele>
        <time>2021-02-28T10:13:13.000Z</time>
      </trkpt>
      <trkpt lat="47.34359" lon="-2.32958">
        <ele>6.4000000953674</ele>
        <time>2021-02-28T10:13:14.000Z</time>
      </trkpt>
      <trkpt lat="47.34368" lon="-2.32998">
        <ele>6.4000000953674</ele>
        <time>2021-02-28T10:13:19.000Z</time>
      </trkpt>
      <trkpt lat="47.34369" lon="-2.33021">
        <ele>6.4000000953674</ele>
        <time>2021-02-28T10:13:22.000Z</time>
      </trkpt>
      <trkpt lat="47.34366" lon="-2.33027">
        <ele>6.4000000953674</ele>
        <time>2021-02-28T10:13:23.000Z</time>
      </trkpt>
      <trkpt lat="47.3435" lon="-2.33036">
        <ele>6.4000000953674</ele>
        <time>2021-02-28T10:13:26.000Z</time>
      </trkpt>
      <trkpt lat="47.34344" lon="-2.33038">
        <ele>6.4000000953674</ele>
        <time>2021-02-28T10:13:27.000Z</time>
      </trkpt>
      <trkpt lat="47.34309" lon="-2.3305">
        <ele>6.4000000953674</ele>
        <time>2021-02-28T10:13:33.000Z</time>
      </trkpt>
      <trkpt lat="47.34278" lon="-2.33064">
        <ele>6.4000000953674</ele>
        <time>2021-02-28T10:13:39.000Z</time>
      </trkpt>
      <trkpt lat="47.34268" lon="-2.33069">
        <ele>6.4000000953674</ele>
        <time>2021-02-28T10:13:41.000Z</time>
      </trkpt>
      <trkpt lat="47.34263" lon="-2.3308">
        <ele>6.4000000953674</ele>
        <time>2021-02-28T10:13:43.000Z</time>
      </trkpt>
      <trkpt lat="47.34259" lon="-2.33095">
        <ele>6.4000000953674</ele>
        <time>2021-02-28T10:13:45.000Z</time>
      </trkpt>
      <trkpt lat="47.3425" lon="-2.3312">
        <ele>6.4000000953674</ele>
        <time>2021-02-28T10:13:48.000Z</time>
      </trkpt>
      <trkpt lat="47.34234" lon="-2.33165">
        <ele>6.4000000953674</ele>
        <time>2021-02-28T10:13:54.000Z</time>
      </trkpt>
      <trkpt lat="47.34219" lon="-2.33211">
        <ele>6.4000000953674</ele>
        <time>2021-02-28T10:14:01.000Z</time>
      </trkpt>
      <trkpt lat="47.34212" lon="-2.33238">
        <ele>6.4000000953674</ele>
        <time>2021-02-28T10:14:06.000Z</time>
      </trkpt>
      <trkpt lat="47.34199" lon="-2.33278">
        <ele>6.4000000953674</ele>
        <time>2021-02-28T10:14:12.000Z</time>
      </trkpt>
      <trkpt lat="47.34194" lon="-2.33293">
        <ele>6.4000000953674</ele>
        <time>2021-02-28T10:14:14.000Z</time>
      </trkpt>
      <trkpt lat="47.34186" lon="-2.33318">
        <ele>6.4000000953674</ele>
        <time>2021-02-28T10:14:18.000Z</time>
      </trkpt>
      <trkpt lat="47.3418" lon="-2.33336">
        <ele>6.8000001907349</ele>
        <time>2021-02-28T10:14:21.000Z</time>
      </trkpt>
      <trkpt lat="47.34178" lon="-2.33342">
        <ele>7.1999998092651</ele>
        <time>2021-02-28T10:14:22.000Z</time>
      </trkpt>
      <trkpt lat="47.34176" lon="-2.33348">
        <ele>7.5999999046326</ele>
        <time>2021-02-28T10:14:23.000Z</time>
      </trkpt>
      <trkpt lat="47.34175" lon="-2.33354">
        <ele>8</ele>
        <time>2021-02-28T10:14:24.000Z</time>
      </trkpt>
      <trkpt lat="47.34173" lon="-2.3336">
        <ele>8.3999996185303</ele>
        <time>2021-02-28T10:14:25.000Z</time>
      </trkpt>
      <trkpt lat="47.34166" lon="-2.33384">
        <ele>8.3999996185303</ele>
        <time>2021-02-28T10:14:29.000Z</time>
      </trkpt>
      <trkpt lat="47.34157" lon="-2.33405">
        <ele>8.3999996185303</ele>
        <time>2021-02-28T10:14:32.000Z</time>
      </trkpt>
      <trkpt lat="47.34154" lon="-2.3341">
        <ele>8.3999996185303</ele>
        <time>2021-02-28T10:14:33.000Z</time>
      </trkpt>
      <trkpt lat="47.34139" lon="-2.33428">
        <ele>8.3999996185303</ele>
        <time>2021-02-28T10:14:37.000Z</time>
      </trkpt>
      <trkpt lat="47.34127" lon="-2.33449">
        <ele>8.3999996185303</ele>
        <time>2021-02-28T10:14:42.000Z</time>
      </trkpt>
      <trkpt lat="47.34118" lon="-2.33468">
        <ele>8.3999996185303</ele>
        <time>2021-02-28T10:14:48.000Z</time>
      </trkpt>
      <trkpt lat="47.34118" lon="-2.33468">
        <ele>8.3999996185303</ele>
        <time>2021-02-28T10:14:49.000Z</time>
      </trkpt>
      <trkpt lat="47.34118" lon="-2.33472">
        <ele>8.3999996185303</ele>
        <time>2021-02-28T10:14:53.000Z</time>
      </trkpt>
      <trkpt lat="47.34115" lon="-2.33476">
        <ele>8.3999996185303</ele>
        <time>2021-02-28T10:14:55.000Z</time>
      </trkpt>
      <trkpt lat="47.34107" lon="-2.33483">
        <ele>8.3999996185303</ele>
        <time>2021-02-28T10:14:59.000Z</time>
      </trkpt>
      <trkpt lat="47.34103" lon="-2.3349">
        <ele>8.3999996185303</ele>
        <time>2021-02-28T10:15:01.000Z</time>
      </trkpt>
      <trkpt lat="47.34092" lon="-2.33505">
        <ele>8.3999996185303</ele>
        <time>2021-02-28T10:15:07.000Z</time>
      </trkpt>
      <trkpt lat="47.3409" lon="-2.33508">
        <ele>8.8000001907349</ele>
        <time>2021-02-28T10:15:09.000Z</time>
      </trkpt>
      <trkpt lat="47.34089" lon="-2.3351">
        <ele>9.1999998092651</ele>
        <time>2021-02-28T10:15:10.000Z</time>
      </trkpt>
      <trkpt lat="47.34089" lon="-2.33512">
        <ele>9.6000003814697</ele>
        <time>2021-02-28T10:15:11.000Z</time>
      </trkpt>
      <trkpt lat="47.34088" lon="-2.33514">
        <ele>10</ele>
        <time>2021-02-28T10:15:12.000Z</time>
      </trkpt>
      <trkpt lat="47.34087" lon="-2.33516">
        <ele>10.39999961853</ele>
        <time>2021-02-28T10:15:13.000Z</time>
      </trkpt>
      <trkpt lat="47.34074" lon="-2.33538">
        <ele>10.39999961853</ele>
        <time>2021-02-28T10:15:19.000Z</time>
      </trkpt>
      <trkpt lat="47.3406" lon="-2.33564">
        <ele>10.39999961853</ele>
        <time>2021-02-28T10:15:25.000Z</time>
      </trkpt>
      <trkpt lat="47.3404" lon="-2.33597">
        <ele>10.39999961853</ele>
        <time>2021-02-28T10:15:32.000Z</time>
      </trkpt>
      <trkpt lat="47.34022" lon="-2.33628">
        <ele>10.39999961853</ele>
        <time>2021-02-28T10:15:37.000Z</time>
      </trkpt>
      <trkpt lat="47.34019" lon="-2.33633">
        <ele>10.39999961853</ele>
        <time>2021-02-28T10:15:38.000Z</time>
      </trkpt>
      <trkpt lat="47.34002" lon="-2.33665">
        <ele>10.39999961853</ele>
        <time>2021-02-28T10:15:44.000Z</time>
      </trkpt>
      <trkpt lat="47.33982" lon="-2.33699">
        <ele>10.39999961853</ele>
        <time>2021-02-28T10:15:51.000Z</time>
      </trkpt>
      <trkpt lat="47.33974" lon="-2.33714">
        <ele>10.800000190735</ele>
        <time>2021-02-28T10:15:54.000Z</time>
      </trkpt>
      <trkpt lat="47.33971" lon="-2.33719">
        <ele>11.199999809265</ele>
        <time>2021-02-28T10:15:55.000Z</time>
      </trkpt>
      <trkpt lat="47.33967" lon="-2.33724">
        <ele>11.60000038147</ele>
        <time>2021-02-28T10:15:56.000Z</time>
      </trkpt>
      <trkpt lat="47.33964" lon="-2.33729">
        <ele>12</ele>
        <time>2021-02-28T10:15:57.000Z</time>
      </trkpt>
      <trkpt lat="47.33962" lon="-2.33735">
        <ele>12.39999961853</ele>
        <time>2021-02-28T10:15:58.000Z</time>
      </trkpt>
      <trkpt lat="47.33938" lon="-2.33776">
        <ele>12.39999961853</ele>
        <time>2021-02-28T10:16:05.000Z</time>
      </trkpt>
      <trkpt lat="47.33936" lon="-2.33783">
        <ele>12.39999961853</ele>
        <time>2021-02-28T10:16:06.000Z</time>
      </trkpt>
      <trkpt lat="47.33921" lon="-2.33809">
        <ele>12.39999961853</ele>
        <time>2021-02-28T10:16:10.000Z</time>
      </trkpt>
      <trkpt lat="47.33915" lon="-2.33822">
        <ele>12.800000190735</ele>
        <time>2021-02-28T10:16:12.000Z</time>
      </trkpt>
      <trkpt lat="47.33912" lon="-2.33828">
        <ele>13.199999809265</ele>
        <time>2021-02-28T10:16:13.000Z</time>
      </trkpt>
      <trkpt lat="47.33909" lon="-2.33833">
        <ele>13.60000038147</ele>
        <time>2021-02-28T10:16:14.000Z</time>
      </trkpt>
      <trkpt lat="47.33905" lon="-2.33838">
        <ele>14.199999809265</ele>
        <time>2021-02-28T10:16:15.000Z</time>
      </trkpt>
      <trkpt lat="47.33902" lon="-2.33843">
        <ele>14.60000038147</ele>
        <time>2021-02-28T10:16:16.000Z</time>
      </trkpt>
      <trkpt lat="47.33884" lon="-2.33868">
        <ele>14.60000038147</ele>
        <time>2021-02-28T10:16:22.000Z</time>
      </trkpt>
      <trkpt lat="47.33867" lon="-2.33885">
        <ele>14.60000038147</ele>
        <time>2021-02-28T10:16:27.000Z</time>
      </trkpt>
      <trkpt lat="47.33857" lon="-2.33892">
        <ele>15</ele>
        <time>2021-02-28T10:16:29.000Z</time>
      </trkpt>
      <trkpt lat="47.33852" lon="-2.33895">
        <ele>15.39999961853</ele>
        <time>2021-02-28T10:16:30.000Z</time>
      </trkpt>
      <trkpt lat="47.33847" lon="-2.33899">
        <ele>15.800000190735</ele>
        <time>2021-02-28T10:16:31.000Z</time>
      </trkpt>
      <trkpt lat="47.33842" lon="-2.33903">
        <ele>16.200000762939</ele>
        <time>2021-02-28T10:16:32.000Z</time>
      </trkpt>
      <trkpt lat="47.33837" lon="-2.33907">
        <ele>16.60000038147</ele>
        <time>2021-02-28T10:16:33.000Z</time>
      </trkpt>
      <trkpt lat="47.33807" lon="-2.3393">
        <ele>16.60000038147</ele>
        <time>2021-02-28T10:16:39.000Z</time>
      </trkpt>
      <trkpt lat="47.338" lon="-2.33934">
        <ele>16.60000038147</ele>
        <time>2021-02-28T10:16:40.000Z</time>
      </trkpt>
      <trkpt lat="47.33757" lon="-2.3397">
        <ele>17</ele>
        <time>2021-02-28T10:16:49.000Z</time>
      </trkpt>
      <trkpt lat="47.33753" lon="-2.33974">
        <ele>17.39999961853</ele>
        <time>2021-02-28T10:16:50.000Z</time>
      </trkpt>
      <trkpt lat="47.33747" lon="-2.33978">
        <ele>17.799999237061</ele>
        <time>2021-02-28T10:16:51.000Z</time>
      </trkpt>
      <trkpt lat="47.33742" lon="-2.33983">
        <ele>18.200000762939</ele>
        <time>2021-02-28T10:16:52.000Z</time>
      </trkpt>
      <trkpt lat="47.33737" lon="-2.33987">
        <ele>18.60000038147</ele>
        <time>2021-02-28T10:16:53.000Z</time>
      </trkpt>
      <trkpt lat="47.33723" lon="-2.34">
        <ele>18.60000038147</ele>
        <time>2021-02-28T10:16:56.000Z</time>
      </trkpt>
      <trkpt lat="47.33713" lon="-2.34007">
        <ele>18.60000038147</ele>
        <time>2021-02-28T10:16:58.000Z</time>
      </trkpt>
      <trkpt lat="47.33695" lon="-2.34023">
        <ele>18.60000038147</ele>
        <time>2021-02-28T10:17:02.000Z</time>
      </trkpt>
      <trkpt lat="47.33655" lon="-2.34057">
        <ele>18.60000038147</ele>
        <time>2021-02-28T10:17:10.000Z</time>
      </trkpt>
      <trkpt lat="47.33626" lon="-2.34082">
        <ele>18.60000038147</ele>
        <time>2021-02-28T10:17:16.000Z</time>
      </trkpt>
      <trkpt lat="47.3361" lon="-2.34096">
        <ele>19</ele>
        <time>2021-02-28T10:17:19.000Z</time>
      </trkpt>
      <trkpt lat="47.33605" lon="-2.341">
        <ele>19.39999961853</ele>
        <time>2021-02-28T10:17:20.000Z</time>
      </trkpt>
      <trkpt lat="47.33601" lon="-2.34105">
        <ele>19.799999237061</ele>
        <time>2021-02-28T10:17:21.000Z</time>
      </trkpt>
      <trkpt lat="47.33596" lon="-2.34109">
        <ele>20.39999961853</ele>
        <time>2021-02-28T10:17:22.000Z</time>
      </trkpt>
      <trkpt lat="47.33591" lon="-2.34113">
        <ele>20.799999237061</ele>
        <time>2021-02-28T10:17:23.000Z</time>
      </trkpt>
      <trkpt lat="47.3356" lon="-2.34137">
        <ele>20.799999237061</ele>
        <time>2021-02-28T10:17:29.000Z</time>
      </trkpt>
      <trkpt lat="47.33518" lon="-2.34168">
        <ele>20.799999237061</ele>
        <time>2021-02-28T10:17:37.000Z</time>
      </trkpt>
      <trkpt lat="47.3348" lon="-2.34196">
        <ele>20.799999237061</ele>
        <time>2021-02-28T10:17:44.000Z</time>
      </trkpt>
      <trkpt lat="47.33458" lon="-2.3422">
        <ele>20.799999237061</ele>
        <time>2021-02-28T10:17:49.000Z</time>
      </trkpt>
      <trkpt lat="47.33454" lon="-2.34226">
        <ele>20.799999237061</ele>
        <time>2021-02-28T10:17:50.000Z</time>
      </trkpt>
      <trkpt lat="47.33435" lon="-2.34262">
        <ele>20.799999237061</ele>
        <time>2021-02-28T10:17:56.000Z</time>
      </trkpt>
      <trkpt lat="47.33433" lon="-2.34268">
        <ele>20.799999237061</ele>
        <time>2021-02-28T10:17:57.000Z</time>
      </trkpt>
      <trkpt lat="47.33422" lon="-2.34302">
        <ele>21.200000762939</ele>
        <time>2021-02-28T10:18:02.000Z</time>
      </trkpt>
      <trkpt lat="47.3342" lon="-2.34309">
        <ele>21.60000038147</ele>
        <time>2021-02-28T10:18:03.000Z</time>
      </trkpt>
      <trkpt lat="47.33418" lon="-2.34316">
        <ele>22</ele>
        <time>2021-02-28T10:18:04.000Z</time>
      </trkpt>
      <trkpt lat="47.33416" lon="-2.34324">
        <ele>22.39999961853</ele>
        <time>2021-02-28T10:18:05.000Z</time>
      </trkpt>
      <trkpt lat="47.33413" lon="-2.34331">
        <ele>23</ele>
        <time>2021-02-28T10:18:06.000Z</time>
      </trkpt>
      <trkpt lat="47.33402" lon="-2.34361">
        <ele>23</ele>
        <time>2021-02-28T10:18:10.000Z</time>
      </trkpt>
      <trkpt lat="47.33389" lon="-2.34397">
        <ele>23</ele>
        <time>2021-02-28T10:18:15.000Z</time>
      </trkpt>
      <trkpt lat="47.33373" lon="-2.34441">
        <ele>23</ele>
        <time>2021-02-28T10:18:21.000Z</time>
      </trkpt>
      <trkpt lat="47.33366" lon="-2.34467">
        <ele>23</ele>
        <time>2021-02-28T10:18:24.000Z</time>
      </trkpt>
      <trkpt lat="47.33366" lon="-2.34485">
        <ele>23</ele>
        <time>2021-02-28T10:18:26.000Z</time>
      </trkpt>
      <trkpt lat="47.33375" lon="-2.34509">
        <ele>23</ele>
        <time>2021-02-28T10:18:29.000Z</time>
      </trkpt>
      <trkpt lat="47.33379" lon="-2.34516">
        <ele>23</ele>
        <time>2021-02-28T10:18:30.000Z</time>
      </trkpt>
      <trkpt lat="47.33397" lon="-2.34549">
        <ele>23</ele>
        <time>2021-02-28T10:18:35.000Z</time>
      </trkpt>
      <trkpt lat="47.33403" lon="-2.34563">
        <ele>23</ele>
        <time>2021-02-28T10:18:37.000Z</time>
      </trkpt>
      <trkpt lat="47.33413" lon="-2.34582">
        <ele>23</ele>
        <time>2021-02-28T10:18:40.000Z</time>
      </trkpt>
      <trkpt lat="47.33424" lon="-2.34599">
        <ele>23.39999961853</ele>
        <time>2021-02-28T10:18:43.000Z</time>
      </trkpt>
      <trkpt lat="47.33427" lon="-2.34604">
        <ele>23.799999237061</ele>
        <time>2021-02-28T10:18:44.000Z</time>
      </trkpt>
      <trkpt lat="47.3343" lon="-2.3461">
        <ele>24.200000762939</ele>
        <time>2021-02-28T10:18:45.000Z</time>
      </trkpt>
      <trkpt lat="47.33433" lon="-2.34616">
        <ele>24.60000038147</ele>
        <time>2021-02-28T10:18:46.000Z</time>
      </trkpt>
      <trkpt lat="47.33436" lon="-2.34622">
        <ele>25</ele>
        <time>2021-02-28T10:18:47.000Z</time>
      </trkpt>
      <trkpt lat="47.33441" lon="-2.34633">
        <ele>25</ele>
        <time>2021-02-28T10:18:49.000Z</time>
      </trkpt>
      <trkpt lat="47.33463" lon="-2.34671">
        <ele>25.39999961853</ele>
        <time>2021-02-28T10:18:56.000Z</time>
      </trkpt>
      <trkpt lat="47.33466" lon="-2.34676">
        <ele>26.39999961853</ele>
        <time>2021-02-28T10:18:57.000Z</time>
      </trkpt>
      <trkpt lat="47.33469" lon="-2.34681">
        <ele>26.799999237061</ele>
        <time>2021-02-28T10:18:58.000Z</time>
      </trkpt>
      <trkpt lat="47.33472" lon="-2.34686">
        <ele>27.200000762939</ele>
        <time>2021-02-28T10:18:59.000Z</time>
      </trkpt>
      <trkpt lat="47.33484" lon="-2.34705">
        <ele>27.200000762939</ele>
        <time>2021-02-28T10:19:03.000Z</time>
      </trkpt>
      <trkpt lat="47.33497" lon="-2.34725">
        <ele>27.200000762939</ele>
        <time>2021-02-28T10:19:07.000Z</time>
      </trkpt>
      <trkpt lat="47.33507" lon="-2.34738">
        <ele>27.60000038147</ele>
        <time>2021-02-28T10:19:10.000Z</time>
      </trkpt>
      <trkpt lat="47.33511" lon="-2.34743">
        <ele>28</ele>
        <time>2021-02-28T10:19:11.000Z</time>
      </trkpt>
      <trkpt lat="47.33515" lon="-2.34747">
        <ele>28.39999961853</ele>
        <time>2021-02-28T10:19:12.000Z</time>
      </trkpt>
      <trkpt lat="47.33518" lon="-2.34752">
        <ele>28.799999237061</ele>
        <time>2021-02-28T10:19:13.000Z</time>
      </trkpt>
      <trkpt lat="47.33522" lon="-2.34757">
        <ele>29.200000762939</ele>
        <time>2021-02-28T10:19:14.000Z</time>
      </trkpt>
      <trkpt lat="47.33532" lon="-2.34771">
        <ele>29.200000762939</ele>
        <time>2021-02-28T10:19:17.000Z</time>
      </trkpt>
      <trkpt lat="47.33558" lon="-2.34806">
        <ele>29.200000762939</ele>
        <time>2021-02-28T10:19:24.000Z</time>
      </trkpt>
      <trkpt lat="47.33588" lon="-2.34845">
        <ele>29.200000762939</ele>
        <time>2021-02-28T10:19:31.000Z</time>
      </trkpt>
      <trkpt lat="47.33621" lon="-2.34892">
        <ele>29.200000762939</ele>
        <time>2021-02-28T10:19:39.000Z</time>
      </trkpt>
      <trkpt lat="47.33651" lon="-2.34929">
        <ele>29.200000762939</ele>
        <time>2021-02-28T10:19:45.000Z</time>
      </trkpt>
      <trkpt lat="47.33677" lon="-2.34963">
        <ele>29.200000762939</ele>
        <time>2021-02-28T10:19:50.000Z</time>
      </trkpt>
      <trkpt lat="47.33682" lon="-2.3497">
        <ele>28.799999237061</ele>
        <time>2021-02-28T10:19:51.000Z</time>
      </trkpt>
      <trkpt lat="47.33686" lon="-2.34976">
        <ele>28.39999961853</ele>
        <time>2021-02-28T10:19:52.000Z</time>
      </trkpt>
      <trkpt lat="47.33691" lon="-2.34984">
        <ele>28</ele>
        <time>2021-02-28T10:19:53.000Z</time>
      </trkpt>
      <trkpt lat="47.33695" lon="-2.3499">
        <ele>27.60000038147</ele>
        <time>2021-02-28T10:19:54.000Z</time>
      </trkpt>
      <trkpt lat="47.33699" lon="-2.34997">
        <ele>27.200000762939</ele>
        <time>2021-02-28T10:19:55.000Z</time>
      </trkpt>
      <trkpt lat="47.33708" lon="-2.35011">
        <ele>27.200000762939</ele>
        <time>2021-02-28T10:19:57.000Z</time>
      </trkpt>
      <trkpt lat="47.33744" lon="-2.3506">
        <ele>26.799999237061</ele>
        <time>2021-02-28T10:20:05.000Z</time>
      </trkpt>
      <trkpt lat="47.33749" lon="-2.35065">
        <ele>26.39999961853</ele>
        <time>2021-02-28T10:20:06.000Z</time>
      </trkpt>
      <trkpt lat="47.33754" lon="-2.35069">
        <ele>26</ele>
        <time>2021-02-28T10:20:07.000Z</time>
      </trkpt>
      <trkpt lat="47.33759" lon="-2.35073">
        <ele>25.60000038147</ele>
        <time>2021-02-28T10:20:08.000Z</time>
      </trkpt>
      <trkpt lat="47.33765" lon="-2.35077">
        <ele>25.200000762939</ele>
        <time>2021-02-28T10:20:09.000Z</time>
      </trkpt>
      <trkpt lat="47.33777" lon="-2.35083">
        <ele>25.200000762939</ele>
        <time>2021-02-28T10:20:11.000Z</time>
      </trkpt>
      <trkpt lat="47.33808" lon="-2.35101">
        <ele>25.200000762939</ele>
        <time>2021-02-28T10:20:17.000Z</time>
      </trkpt>
      <trkpt lat="47.3384" lon="-2.35122">
        <ele>25.60000038147</ele>
        <time>2021-02-28T10:20:24.000Z</time>
      </trkpt>
      <trkpt lat="47.33845" lon="-2.35125">
        <ele>26</ele>
        <time>2021-02-28T10:20:25.000Z</time>
      </trkpt>
      <trkpt lat="47.33849" lon="-2.35128">
        <ele>26.39999961853</ele>
        <time>2021-02-28T10:20:26.000Z</time>
      </trkpt>
      <trkpt lat="47.33854" lon="-2.35131">
        <ele>26.799999237061</ele>
        <time>2021-02-28T10:20:27.000Z</time>
      </trkpt>
      <trkpt lat="47.33859" lon="-2.35134">
        <ele>27.200000762939</ele>
        <time>2021-02-28T10:20:28.000Z</time>
      </trkpt>
      <trkpt lat="47.3388" lon="-2.35151">
        <ele>27.200000762939</ele>
        <time>2021-02-28T10:20:32.000Z</time>
      </trkpt>
      <trkpt lat="47.33924" lon="-2.35194">
        <ele>27.799999237061</ele>
        <time>2021-02-28T10:20:40.000Z</time>
      </trkpt>
      <trkpt lat="47.33929" lon="-2.352">
        <ele>28.200000762939</ele>
        <time>2021-02-28T10:20:41.000Z</time>
      </trkpt>
      <trkpt lat="47.33933" lon="-2.35206">
        <ele>28.60000038147</ele>
        <time>2021-02-28T10:20:42.000Z</time>
      </trkpt>
      <trkpt lat="47.33937" lon="-2.35213">
        <ele>29</ele>
        <time>2021-02-28T10:20:43.000Z</time>
      </trkpt>
      <trkpt lat="47.33941" lon="-2.35221">
        <ele>29.39999961853</ele>
        <time>2021-02-28T10:20:44.000Z</time>
      </trkpt>
      <trkpt lat="47.33943" lon="-2.35229">
        <ele>29.39999961853</ele>
        <time>2021-02-28T10:20:45.000Z</time>
      </trkpt>
      <trkpt lat="47.33946" lon="-2.35257">
        <ele>29.39999961853</ele>
        <time>2021-02-28T10:20:49.000Z</time>
      </trkpt>
      <trkpt lat="47.33936" lon="-2.3528">
        <ele>29.39999961853</ele>
        <time>2021-02-28T10:20:53.000Z</time>
      </trkpt>
      <trkpt lat="47.3392" lon="-2.3529">
        <ele>29</ele>
        <time>2021-02-28T10:20:56.000Z</time>
      </trkpt>
      <trkpt lat="47.33913" lon="-2.35293">
        <ele>28.39999961853</ele>
        <time>2021-02-28T10:20:57.000Z</time>
      </trkpt>
      <trkpt lat="47.33906" lon="-2.35296">
        <ele>28</ele>
        <time>2021-02-28T10:20:58.000Z</time>
      </trkpt>
      <trkpt lat="47.33899" lon="-2.35298">
        <ele>27.60000038147</ele>
        <time>2021-02-28T10:20:59.000Z</time>
      </trkpt>
      <trkpt lat="47.33893" lon="-2.35301">
        <ele>27.200000762939</ele>
        <time>2021-02-28T10:21:00.000Z</time>
      </trkpt>
      <trkpt lat="47.3388" lon="-2.35305">
        <ele>27.200000762939</ele>
        <time>2021-02-28T10:21:02.000Z</time>
      </trkpt>
      <trkpt lat="47.33868" lon="-2.35311">
        <ele>27.200000762939</ele>
        <time>2021-02-28T10:21:04.000Z</time>
      </trkpt>
      <trkpt lat="47.33851" lon="-2.35325">
        <ele>27.200000762939</ele>
        <time>2021-02-28T10:21:07.000Z</time>
      </trkpt>
      <trkpt lat="47.33831" lon="-2.35344">
        <ele>27.200000762939</ele>
        <time>2021-02-28T10:21:11.000Z</time>
      </trkpt>
      <trkpt lat="47.3382" lon="-2.35349">
        <ele>27.200000762939</ele>
        <time>2021-02-28T10:21:13.000Z</time>
      </trkpt>
      <trkpt lat="47.33807" lon="-2.35351">
        <ele>27.200000762939</ele>
        <time>2021-02-28T10:21:15.000Z</time>
      </trkpt>
      <trkpt lat="47.33782" lon="-2.35353">
        <ele>27.200000762939</ele>
        <time>2021-02-28T10:21:19.000Z</time>
      </trkpt>
      <trkpt lat="47.33746" lon="-2.35359">
        <ele>27.200000762939</ele>
        <time>2021-02-28T10:21:25.000Z</time>
      </trkpt>
      <trkpt lat="47.3371" lon="-2.35361">
        <ele>27.200000762939</ele>
        <time>2021-02-28T10:21:31.000Z</time>
      </trkpt>
      <trkpt lat="47.33671" lon="-2.35364">
        <ele>27.200000762939</ele>
        <time>2021-02-28T10:21:38.000Z</time>
      </trkpt>
      <trkpt lat="47.33638" lon="-2.35367">
        <ele>27.200000762939</ele>
        <time>2021-02-28T10:21:44.000Z</time>
      </trkpt>
      <trkpt lat="47.33602" lon="-2.35375">
        <ele>27.200000762939</ele>
        <time>2021-02-28T10:21:50.000Z</time>
      </trkpt>
      <trkpt lat="47.33558" lon="-2.35391">
        <ele>27.200000762939</ele>
        <time>2021-02-28T10:21:57.000Z</time>
      </trkpt>
      <trkpt lat="47.33538" lon="-2.35399">
        <ele>27.200000762939</ele>
        <time>2021-02-28T10:22:00.000Z</time>
      </trkpt>
      <trkpt lat="47.33521" lon="-2.35408">
        <ele>27.200000762939</ele>
        <time>2021-02-28T10:22:03.000Z</time>
      </trkpt>
      <trkpt lat="47.33499" lon="-2.3542">
        <ele>27.200000762939</ele>
        <time>2021-02-28T10:22:08.000Z</time>
      </trkpt>
      <trkpt lat="47.33475" lon="-2.35433">
        <ele>27.200000762939</ele>
        <time>2021-02-28T10:22:15.000Z</time>
      </trkpt>
      <trkpt lat="47.33458" lon="-2.3544">
        <ele>27.200000762939</ele>
        <time>2021-02-28T10:22:20.000Z</time>
      </trkpt>
      <trkpt lat="47.33438" lon="-2.35446">
        <ele>27.200000762939</ele>
        <time>2021-02-28T10:22:25.000Z</time>
      </trkpt>
      <trkpt lat="47.33414" lon="-2.35459">
        <ele>27.200000762939</ele>
        <time>2021-02-28T10:22:31.000Z</time>
      </trkpt>
      <trkpt lat="47.334" lon="-2.35468">
        <ele>27.200000762939</ele>
        <time>2021-02-28T10:22:34.000Z</time>
      </trkpt>
      <trkpt lat="47.33383" lon="-2.35475">
        <ele>27.200000762939</ele>
        <time>2021-02-28T10:22:37.000Z</time>
      </trkpt>
      <trkpt lat="47.33372" lon="-2.3548">
        <ele>27.200000762939</ele>
        <time>2021-02-28T10:22:39.000Z</time>
      </trkpt>
      <trkpt lat="47.3336" lon="-2.35486">
        <ele>27.60000038147</ele>
        <time>2021-02-28T10:22:41.000Z</time>
      </trkpt>
      <trkpt lat="47.33355" lon="-2.3549">
        <ele>28</ele>
        <time>2021-02-28T10:22:42.000Z</time>
      </trkpt>
      <trkpt lat="47.33349" lon="-2.35494">
        <ele>28.39999961853</ele>
        <time>2021-02-28T10:22:43.000Z</time>
      </trkpt>
      <trkpt lat="47.33344" lon="-2.35497">
        <ele>29</ele>
        <time>2021-02-28T10:22:44.000Z</time>
      </trkpt>
      <trkpt lat="47.33338" lon="-2.35501">
        <ele>29.39999961853</ele>
        <time>2021-02-28T10:22:45.000Z</time>
      </trkpt>
      <trkpt lat="47.33312" lon="-2.35515">
        <ele>29.39999961853</ele>
        <time>2021-02-28T10:22:50.000Z</time>
      </trkpt>
      <trkpt lat="47.33292" lon="-2.35533">
        <ele>29.39999961853</ele>
        <time>2021-02-28T10:22:54.000Z</time>
      </trkpt>
      <trkpt lat="47.33287" lon="-2.35538">
        <ele>29.39999961853</ele>
        <time>2021-02-28T10:22:55.000Z</time>
      </trkpt>
      <trkpt lat="47.33254" lon="-2.35575">
        <ele>29.39999961853</ele>
        <time>2021-02-28T10:23:02.000Z</time>
      </trkpt>
      <trkpt lat="47.33215" lon="-2.35606">
        <ele>29.39999961853</ele>
        <time>2021-02-28T10:23:09.000Z</time>
      </trkpt>
      <trkpt lat="47.33181" lon="-2.3563">
        <ele>29.39999961853</ele>
        <time>2021-02-28T10:23:15.000Z</time>
      </trkpt>
      <trkpt lat="47.33145" lon="-2.35639">
        <ele>29.39999961853</ele>
        <time>2021-02-28T10:23:20.000Z</time>
      </trkpt>
      <trkpt lat="47.33088" lon="-2.35649">
        <ele>29.39999961853</ele>
        <time>2021-02-28T10:23:27.000Z</time>
      </trkpt>
      <trkpt lat="47.33072" lon="-2.35651">
        <ele>28.39999961853</ele>
        <time>2021-02-28T10:23:29.000Z</time>
      </trkpt>
      <trkpt lat="47.33064" lon="-2.35653">
        <ele>28</ele>
        <time>2021-02-28T10:23:30.000Z</time>
      </trkpt>
      <trkpt lat="47.33056" lon="-2.35654">
        <ele>27.60000038147</ele>
        <time>2021-02-28T10:23:31.000Z</time>
      </trkpt>
      <trkpt lat="47.33049" lon="-2.35655">
        <ele>27</ele>
        <time>2021-02-28T10:23:32.000Z</time>
      </trkpt>
      <trkpt lat="47.33042" lon="-2.35656">
        <ele>27</ele>
        <time>2021-02-28T10:23:33.000Z</time>
      </trkpt>
      <trkpt lat="47.33035" lon="-2.35657">
        <ele>26.39999961853</ele>
        <time>2021-02-28T10:23:34.000Z</time>
      </trkpt>
      <trkpt lat="47.3303" lon="-2.35658">
        <ele>26</ele>
        <time>2021-02-28T10:23:35.000Z</time>
      </trkpt>
      <trkpt lat="47.33026" lon="-2.35659">
        <ele>25.39999961853</ele>
        <time>2021-02-28T10:23:36.000Z</time>
      </trkpt>
      <trkpt lat="47.33022" lon="-2.3566">
        <ele>24.799999237061</ele>
        <time>2021-02-28T10:23:37.000Z</time>
      </trkpt>
      <trkpt lat="47.33019" lon="-2.35661">
        <ele>24.200000762939</ele>
        <time>2021-02-28T10:23:38.000Z</time>
      </trkpt>
      <trkpt lat="47.33017" lon="-2.35664">
        <ele>23.60000038147</ele>
        <time>2021-02-28T10:23:39.000Z</time>
      </trkpt>
      <trkpt lat="47.33016" lon="-2.35668">
        <ele>23</ele>
        <time>2021-02-28T10:23:40.000Z</time>
      </trkpt>
      <trkpt lat="47.33015" lon="-2.35671">
        <ele>22.39999961853</ele>
        <time>2021-02-28T10:23:41.000Z</time>
      </trkpt>
      <trkpt lat="47.33015" lon="-2.35673">
        <ele>21.799999237061</ele>
        <time>2021-02-28T10:23:42.000Z</time>
      </trkpt>
      <trkpt lat="47.33014" lon="-2.35683">
        <ele>21.799999237061</ele>
        <time>2021-02-28T10:23:45.000Z</time>
      </trkpt>
      <trkpt lat="47.3301" lon="-2.35709">
        <ele>21.799999237061</ele>
        <time>2021-02-28T10:23:51.000Z</time>
      </trkpt>
      <trkpt lat="47.33009" lon="-2.35741">
        <ele>21.799999237061</ele>
        <time>2021-02-28T10:23:58.000Z</time>
      </trkpt>
      <trkpt lat="47.33013" lon="-2.35766">
        <ele>21.799999237061</ele>
        <time>2021-02-28T10:24:03.000Z</time>
      </trkpt>
      <trkpt lat="47.33014" lon="-2.35771">
        <ele>21.799999237061</ele>
        <time>2021-02-28T10:24:04.000Z</time>
      </trkpt>
      <trkpt lat="47.33023" lon="-2.3579">
        <ele>21.799999237061</ele>
        <time>2021-02-28T10:24:07.000Z</time>
      </trkpt>
      <trkpt lat="47.33027" lon="-2.35795">
        <ele>21.799999237061</ele>
        <time>2021-02-28T10:24:08.000Z</time>
      </trkpt>
      <trkpt lat="47.3304" lon="-2.35805">
        <ele>21.799999237061</ele>
        <time>2021-02-28T10:24:11.000Z</time>
      </trkpt>
      <trkpt lat="47.33059" lon="-2.35808">
        <ele>21.799999237061</ele>
        <time>2021-02-28T10:24:15.000Z</time>
      </trkpt>
      <trkpt lat="47.33069" lon="-2.35808">
        <ele>21.799999237061</ele>
        <time>2021-02-28T10:24:17.000Z</time>
      </trkpt>
      <trkpt lat="47.33085" lon="-2.35808">
        <ele>22.200000762939</ele>
        <time>2021-02-28T10:24:20.000Z</time>
      </trkpt>
      <trkpt lat="47.3309" lon="-2.35808">
        <ele>22.60000038147</ele>
        <time>2021-02-28T10:24:21.000Z</time>
      </trkpt>
      <trkpt lat="47.33095" lon="-2.35808">
        <ele>23.200000762939</ele>
        <time>2021-02-28T10:24:22.000Z</time>
      </trkpt>
      <trkpt lat="47.331" lon="-2.35808">
        <ele>23.60000038147</ele>
        <time>2021-02-28T10:24:23.000Z</time>
      </trkpt>
      <trkpt lat="47.33105" lon="-2.35808">
        <ele>24</ele>
        <time>2021-02-28T10:24:24.000Z</time>
      </trkpt>
      <trkpt lat="47.33114" lon="-2.35807">
        <ele>24</ele>
        <time>2021-02-28T10:24:26.000Z</time>
      </trkpt>
      <trkpt lat="47.33143" lon="-2.35807">
        <ele>24</ele>
        <time>2021-02-28T10:24:32.000Z</time>
      </trkpt>
      <trkpt lat="47.33177" lon="-2.35814">
        <ele>24</ele>
        <time>2021-02-28T10:24:39.000Z</time>
      </trkpt>
      <trkpt lat="47.33192" lon="-2.35817">
        <ele>24.39999961853</ele>
        <time>2021-02-28T10:24:42.000Z</time>
      </trkpt>
      <trkpt lat="47.33197" lon="-2.35818">
        <ele>25.200000762939</ele>
        <time>2021-02-28T10:24:43.000Z</time>
      </trkpt>
      <trkpt lat="47.33202" lon="-2.35819">
        <ele>25.60000038147</ele>
        <time>2021-02-28T10:24:44.000Z</time>
      </trkpt>
      <trkpt lat="47.33207" lon="-2.35821">
        <ele>26</ele>
        <time>2021-02-28T10:24:45.000Z</time>
      </trkpt>
      <trkpt lat="47.33212" lon="-2.35823">
        <ele>26</ele>
        <time>2021-02-28T10:24:46.000Z</time>
      </trkpt>
      <trkpt lat="47.33227" lon="-2.3583">
        <ele>26</ele>
        <time>2021-02-28T10:24:49.000Z</time>
      </trkpt>
      <trkpt lat="47.33236" lon="-2.35834">
        <ele>26</ele>
        <time>2021-02-28T10:24:51.000Z</time>
      </trkpt>
      <trkpt lat="47.33241" lon="-2.35836">
        <ele>26</ele>
        <time>2021-02-28T10:24:52.000Z</time>
      </trkpt>
      <trkpt lat="47.3325" lon="-2.35842">
        <ele>26.39999961853</ele>
        <time>2021-02-28T10:24:54.000Z</time>
      </trkpt>
      <trkpt lat="47.33254" lon="-2.35846">
        <ele>27</ele>
        <time>2021-02-28T10:24:55.000Z</time>
      </trkpt>
      <trkpt lat="47.33257" lon="-2.3585">
        <ele>27.39999961853</ele>
        <time>2021-02-28T10:24:56.000Z</time>
      </trkpt>
      <trkpt lat="47.33261" lon="-2.35855">
        <ele>27.799999237061</ele>
        <time>2021-02-28T10:24:57.000Z</time>
      </trkpt>
      <trkpt lat="47.33264" lon="-2.35859">
        <ele>28.200000762939</ele>
        <time>2021-02-28T10:24:58.000Z</time>
      </trkpt>
      <trkpt lat="47.33276" lon="-2.35873">
        <ele>28.60000038147</ele>
        <time>2021-02-28T10:25:01.000Z</time>
      </trkpt>
      <trkpt lat="47.3328" lon="-2.35877">
        <ele>29.200000762939</ele>
        <time>2021-02-28T10:25:02.000Z</time>
      </trkpt>
      <trkpt lat="47.33285" lon="-2.3588">
        <ele>29.60000038147</ele>
        <time>2021-02-28T10:25:03.000Z</time>
      </trkpt>
      <trkpt lat="47.33289" lon="-2.35883">
        <ele>30</ele>
        <time>2021-02-28T10:25:04.000Z</time>
      </trkpt>
      <trkpt lat="47.33293" lon="-2.35886">
        <ele>30.39999961853</ele>
        <time>2021-02-28T10:25:05.000Z</time>
      </trkpt>
      <trkpt lat="47.33302" lon="-2.35892">
        <ele>30.39999961853</ele>
        <time>2021-02-28T10:25:07.000Z</time>
      </trkpt>
      <trkpt lat="47.33306" lon="-2.35897">
        <ele>30.39999961853</ele>
        <time>2021-02-28T10:25:08.000Z</time>
      </trkpt>
      <trkpt lat="47.33309" lon="-2.35902">
        <ele>30.799999237061</ele>
        <time>2021-02-28T10:25:09.000Z</time>
      </trkpt>
      <trkpt lat="47.33312" lon="-2.35908">
        <ele>31.200000762939</ele>
        <time>2021-02-28T10:25:10.000Z</time>
      </trkpt>
      <trkpt lat="47.33315" lon="-2.35914">
        <ele>31.60000038147</ele>
        <time>2021-02-28T10:25:11.000Z</time>
      </trkpt>
      <trkpt lat="47.33318" lon="-2.35921">
        <ele>32.200000762939</ele>
        <time>2021-02-28T10:25:12.000Z</time>
      </trkpt>
      <trkpt lat="47.3332" lon="-2.35928">
        <ele>32.599998474121</ele>
        <time>2021-02-28T10:25:13.000Z</time>
      </trkpt>
      <trkpt lat="47.33323" lon="-2.35957">
        <ele>32.599998474121</ele>
        <time>2021-02-28T10:25:17.000Z</time>
      </trkpt>
      <trkpt lat="47.33322" lon="-2.35965">
        <ele>32.599998474121</ele>
        <time>2021-02-28T10:25:18.000Z</time>
      </trkpt>
      <trkpt lat="47.33317" lon="-2.35997">
        <ele>32.599998474121</ele>
        <time>2021-02-28T10:25:22.000Z</time>
      </trkpt>
      <trkpt lat="47.33312" lon="-2.36047">
        <ele>32.599998474121</ele>
        <time>2021-02-28T10:25:28.000Z</time>
      </trkpt>
      <trkpt lat="47.3331" lon="-2.36113">
        <ele>32.599998474121</ele>
        <time>2021-02-28T10:25:36.000Z</time>
      </trkpt>
      <trkpt lat="47.3331" lon="-2.36179">
        <ele>32.599998474121</ele>
        <time>2021-02-28T10:25:44.000Z</time>
      </trkpt>
      <trkpt lat="47.33311" lon="-2.36212">
        <ele>32.599998474121</ele>
        <time>2021-02-28T10:25:49.000Z</time>
      </trkpt>
      <trkpt lat="47.33312" lon="-2.36215">
        <ele>32.599998474121</ele>
        <time>2021-02-28T10:25:50.000Z</time>
      </trkpt>
      <trkpt lat="47.33317" lon="-2.36217">
        <ele>32.599998474121</ele>
        <time>2021-02-28T10:25:53.000Z</time>
      </trkpt>
      <trkpt lat="47.33327" lon="-2.36215">
        <ele>32.599998474121</ele>
        <time>2021-02-28T10:25:59.000Z</time>
      </trkpt>
      <trkpt lat="47.33333" lon="-2.36212">
        <ele>32.599998474121</ele>
        <time>2021-02-28T10:26:05.000Z</time>
      </trkpt>
      <trkpt lat="47.33328" lon="-2.36209">
        <ele>32.599998474121</ele>
        <time>2021-02-28T10:26:11.000Z</time>
      </trkpt>
      <trkpt lat="47.33324" lon="-2.36212">
        <ele>32.599998474121</ele>
        <time>2021-02-28T10:26:14.000Z</time>
      </trkpt>
      <trkpt lat="47.33316" lon="-2.36226">
        <ele>32.599998474121</ele>
        <time>2021-02-28T10:26:20.000Z</time>
      </trkpt>
      <trkpt lat="47.33311" lon="-2.36252">
        <ele>32.599998474121</ele>
        <time>2021-02-28T10:26:26.000Z</time>
      </trkpt>
      <trkpt lat="47.33311" lon="-2.3629">
        <ele>32.599998474121</ele>
        <time>2021-02-28T10:26:32.000Z</time>
      </trkpt>
      <trkpt lat="47.33314" lon="-2.36326">
        <ele>32.200000762939</ele>
        <time>2021-02-28T10:26:37.000Z</time>
      </trkpt>
      <trkpt lat="47.33314" lon="-2.36334">
        <ele>31.799999237061</ele>
        <time>2021-02-28T10:26:38.000Z</time>
      </trkpt>
      <trkpt lat="47.33315" lon="-2.36342">
        <ele>31.39999961853</ele>
        <time>2021-02-28T10:26:39.000Z</time>
      </trkpt>
      <trkpt lat="47.33316" lon="-2.3635">
        <ele>31</ele>
        <time>2021-02-28T10:26:40.000Z</time>
      </trkpt>
      <trkpt lat="47.33317" lon="-2.36358">
        <ele>30.39999961853</ele>
        <time>2021-02-28T10:26:41.000Z</time>
      </trkpt>
      <trkpt lat="47.33326" lon="-2.36408">
        <ele>30.39999961853</ele>
        <time>2021-02-28T10:26:47.000Z</time>
      </trkpt>
      <trkpt lat="47.33335" lon="-2.36483">
        <ele>30.39999961853</ele>
        <time>2021-02-28T10:26:55.000Z</time>
      </trkpt>
      <trkpt lat="47.33327" lon="-2.36528">
        <ele>30.39999961853</ele>
        <time>2021-02-28T10:26:59.000Z</time>
      </trkpt>
      <trkpt lat="47.33321" lon="-2.36552">
        <ele>30</ele>
        <time>2021-02-28T10:27:01.000Z</time>
      </trkpt>
      <trkpt lat="47.33318" lon="-2.36563">
        <ele>29.60000038147</ele>
        <time>2021-02-28T10:27:02.000Z</time>
      </trkpt>
      <trkpt lat="47.33316" lon="-2.36575">
        <ele>29.200000762939</ele>
        <time>2021-02-28T10:27:03.000Z</time>
      </trkpt>
      <trkpt lat="47.33312" lon="-2.36587">
        <ele>28.799999237061</ele>
        <time>2021-02-28T10:27:04.000Z</time>
      </trkpt>
      <trkpt lat="47.33309" lon="-2.36598">
        <ele>28.39999961853</ele>
        <time>2021-02-28T10:27:05.000Z</time>
      </trkpt>
      <trkpt lat="47.33302" lon="-2.36622">
        <ele>28</ele>
        <time>2021-02-28T10:27:07.000Z</time>
      </trkpt>
      <trkpt lat="47.33299" lon="-2.36634">
        <ele>27.60000038147</ele>
        <time>2021-02-28T10:27:08.000Z</time>
      </trkpt>
      <trkpt lat="47.33295" lon="-2.36646">
        <ele>27.200000762939</ele>
        <time>2021-02-28T10:27:09.000Z</time>
      </trkpt>
      <trkpt lat="47.33292" lon="-2.36659">
        <ele>26.799999237061</ele>
        <time>2021-02-28T10:27:10.000Z</time>
      </trkpt>
      <trkpt lat="47.33289" lon="-2.3667">
        <ele>26.39999961853</ele>
        <time>2021-02-28T10:27:11.000Z</time>
      </trkpt>
      <trkpt lat="47.33283" lon="-2.36689">
        <ele>26.39999961853</ele>
        <time>2021-02-28T10:27:13.000Z</time>
      </trkpt>
      <trkpt lat="47.33257" lon="-2.3675">
        <ele>26.39999961853</ele>
        <time>2021-02-28T10:27:20.000Z</time>
      </trkpt>
      <trkpt lat="47.33236" lon="-2.36773">
        <ele>26.39999961853</ele>
        <time>2021-02-28T10:27:24.000Z</time>
      </trkpt>
      <trkpt lat="47.3323" lon="-2.36778">
        <ele>26.39999961853</ele>
        <time>2021-02-28T10:27:25.000Z</time>
      </trkpt>
      <trkpt lat="47.33217" lon="-2.36788">
        <ele>26.39999961853</ele>
        <time>2021-02-28T10:27:27.000Z</time>
      </trkpt>
      <trkpt lat="47.33205" lon="-2.36801">
        <ele>26.39999961853</ele>
        <time>2021-02-28T10:27:29.000Z</time>
      </trkpt>
      <trkpt lat="47.33194" lon="-2.36814">
        <ele>26.799999237061</ele>
        <time>2021-02-28T10:27:31.000Z</time>
      </trkpt>
      <trkpt lat="47.33188" lon="-2.3682">
        <ele>27.200000762939</ele>
        <time>2021-02-28T10:27:32.000Z</time>
      </trkpt>
      <trkpt lat="47.33182" lon="-2.36825">
        <ele>27.60000038147</ele>
        <time>2021-02-28T10:27:33.000Z</time>
      </trkpt>
      <trkpt lat="47.33177" lon="-2.36831">
        <ele>28.200000762939</ele>
        <time>2021-02-28T10:27:34.000Z</time>
      </trkpt>
      <trkpt lat="47.33171" lon="-2.36836">
        <ele>28.60000038147</ele>
        <time>2021-02-28T10:27:35.000Z</time>
      </trkpt>
      <trkpt lat="47.33166" lon="-2.36841">
        <ele>28.60000038147</ele>
        <time>2021-02-28T10:27:36.000Z</time>
      </trkpt>
      <trkpt lat="47.33149" lon="-2.36857">
        <ele>29</ele>
        <time>2021-02-28T10:27:39.000Z</time>
      </trkpt>
      <trkpt lat="47.33143" lon="-2.36862">
        <ele>29.39999961853</ele>
        <time>2021-02-28T10:27:40.000Z</time>
      </trkpt>
      <trkpt lat="47.33137" lon="-2.36867">
        <ele>29.799999237061</ele>
        <time>2021-02-28T10:27:41.000Z</time>
      </trkpt>
      <trkpt lat="47.33132" lon="-2.36872">
        <ele>30.200000762939</ele>
        <time>2021-02-28T10:27:42.000Z</time>
      </trkpt>
      <trkpt lat="47.33127" lon="-2.36877">
        <ele>30.60000038147</ele>
        <time>2021-02-28T10:27:43.000Z</time>
      </trkpt>
      <trkpt lat="47.33112" lon="-2.36891">
        <ele>30.60000038147</ele>
        <time>2021-02-28T10:27:46.000Z</time>
      </trkpt>
      <trkpt lat="47.33105" lon="-2.36903">
        <ele>30.60000038147</ele>
        <time>2021-02-28T10:27:48.000Z</time>
      </trkpt>
      <trkpt lat="47.33102" lon="-2.36926">
        <ele>31</ele>
        <time>2021-02-28T10:27:51.000Z</time>
      </trkpt>
      <trkpt lat="47.33102" lon="-2.36934">
        <ele>31.39999961853</ele>
        <time>2021-02-28T10:27:52.000Z</time>
      </trkpt>
      <trkpt lat="47.33102" lon="-2.36942">
        <ele>31.799999237061</ele>
        <time>2021-02-28T10:27:53.000Z</time>
      </trkpt>
      <trkpt lat="47.33103" lon="-2.36949">
        <ele>32.200000762939</ele>
        <time>2021-02-28T10:27:54.000Z</time>
      </trkpt>
      <trkpt lat="47.33103" lon="-2.36957">
        <ele>32.599998474121</ele>
        <time>2021-02-28T10:27:55.000Z</time>
      </trkpt>
      <trkpt lat="47.33103" lon="-2.36972">
        <ele>32.599998474121</ele>
        <time>2021-02-28T10:27:57.000Z</time>
      </trkpt>
      <trkpt lat="47.33103" lon="-2.36999">
        <ele>33</ele>
        <time>2021-02-28T10:28:01.000Z</time>
      </trkpt>
      <trkpt lat="47.33102" lon="-2.37005">
        <ele>33.400001525879</ele>
        <time>2021-02-28T10:28:02.000Z</time>
      </trkpt>
      <trkpt lat="47.33102" lon="-2.37012">
        <ele>33.799999237061</ele>
        <time>2021-02-28T10:28:03.000Z</time>
      </trkpt>
      <trkpt lat="47.33102" lon="-2.37019">
        <ele>34.200000762939</ele>
        <time>2021-02-28T10:28:04.000Z</time>
      </trkpt>
      <trkpt lat="47.33102" lon="-2.37026">
        <ele>34.599998474121</ele>
        <time>2021-02-28T10:28:05.000Z</time>
      </trkpt>
      <trkpt lat="47.33103" lon="-2.37057">
        <ele>34.599998474121</ele>
        <time>2021-02-28T10:28:10.000Z</time>
      </trkpt>
      <trkpt lat="47.33107" lon="-2.371">
        <ele>34.599998474121</ele>
        <time>2021-02-28T10:28:17.000Z</time>
      </trkpt>
      <trkpt lat="47.33104" lon="-2.37148">
        <ele>34.599998474121</ele>
        <time>2021-02-28T10:28:24.000Z</time>
      </trkpt>
      <trkpt lat="47.33102" lon="-2.37185">
        <ele>34.200000762939</ele>
        <time>2021-02-28T10:28:28.000Z</time>
      </trkpt>
      <trkpt lat="47.33103" lon="-2.37196">
        <ele>33.599998474121</ele>
        <time>2021-02-28T10:28:29.000Z</time>
      </trkpt>
      <trkpt lat="47.33103" lon="-2.37205">
        <ele>33.200000762939</ele>
        <time>2021-02-28T10:28:30.000Z</time>
      </trkpt>
      <trkpt lat="47.33102" lon="-2.37214">
        <ele>32.599998474121</ele>
        <time>2021-02-28T10:28:31.000Z</time>
      </trkpt>
      <trkpt lat="47.33102" lon="-2.37223">
        <ele>32.200000762939</ele>
        <time>2021-02-28T10:28:32.000Z</time>
      </trkpt>
      <trkpt lat="47.33102" lon="-2.37233">
        <ele>31.60000038147</ele>
        <time>2021-02-28T10:28:33.000Z</time>
      </trkpt>
      <trkpt lat="47.33102" lon="-2.37244">
        <ele>31.200000762939</ele>
        <time>2021-02-28T10:28:34.000Z</time>
      </trkpt>
      <trkpt lat="47.33103" lon="-2.37255">
        <ele>30.799999237061</ele>
        <time>2021-02-28T10:28:35.000Z</time>
      </trkpt>
      <trkpt lat="47.33102" lon="-2.37267">
        <ele>30.39999961853</ele>
        <time>2021-02-28T10:28:36.000Z</time>
      </trkpt>
      <trkpt lat="47.33102" lon="-2.3728">
        <ele>29.799999237061</ele>
        <time>2021-02-28T10:28:37.000Z</time>
      </trkpt>
      <trkpt lat="47.33101" lon="-2.37293">
        <ele>29.200000762939</ele>
        <time>2021-02-28T10:28:38.000Z</time>
      </trkpt>
      <trkpt lat="47.33102" lon="-2.37306">
        <ele>28.60000038147</ele>
        <time>2021-02-28T10:28:39.000Z</time>
      </trkpt>
      <trkpt lat="47.33102" lon="-2.37319">
        <ele>28</ele>
        <time>2021-02-28T10:28:40.000Z</time>
      </trkpt>
      <trkpt lat="47.33103" lon="-2.37332">
        <ele>27.60000038147</ele>
        <time>2021-02-28T10:28:41.000Z</time>
      </trkpt>
      <trkpt lat="47.33104" lon="-2.37344">
        <ele>27</ele>
        <time>2021-02-28T10:28:42.000Z</time>
      </trkpt>
      <trkpt lat="47.33106" lon="-2.37356">
        <ele>26.39999961853</ele>
        <time>2021-02-28T10:28:43.000Z</time>
      </trkpt>
      <trkpt lat="47.33107" lon="-2.37369">
        <ele>26</ele>
        <time>2021-02-28T10:28:44.000Z</time>
      </trkpt>
      <trkpt lat="47.33107" lon="-2.3738">
        <ele>25.39999961853</ele>
        <time>2021-02-28T10:28:45.000Z</time>
      </trkpt>
      <trkpt lat="47.33108" lon="-2.37404">
        <ele>25</ele>
        <time>2021-02-28T10:28:47.000Z</time>
      </trkpt>
      <trkpt lat="47.33108" lon="-2.37415">
        <ele>24.60000038147</ele>
        <time>2021-02-28T10:28:48.000Z</time>
      </trkpt>
      <trkpt lat="47.33108" lon="-2.37427">
        <ele>24.200000762939</ele>
        <time>2021-02-28T10:28:49.000Z</time>
      </trkpt>
      <trkpt lat="47.33107" lon="-2.37438">
        <ele>23.799999237061</ele>
        <time>2021-02-28T10:28:50.000Z</time>
      </trkpt>
      <trkpt lat="47.33105" lon="-2.37449">
        <ele>23.39999961853</ele>
        <time>2021-02-28T10:28:51.000Z</time>
      </trkpt>
      <trkpt lat="47.331" lon="-2.37471">
        <ele>23.39999961853</ele>
        <time>2021-02-28T10:28:53.000Z</time>
      </trkpt>
      <trkpt lat="47.33088" lon="-2.37499">
        <ele>23.39999961853</ele>
        <time>2021-02-28T10:28:56.000Z</time>
      </trkpt>
      <trkpt lat="47.3308" lon="-2.37517">
        <ele>23.39999961853</ele>
        <time>2021-02-28T10:28:58.000Z</time>
      </trkpt>
      <trkpt lat="47.3306" lon="-2.37564">
        <ele>23.39999961853</ele>
        <time>2021-02-28T10:29:04.000Z</time>
      </trkpt>
      <trkpt lat="47.33055" lon="-2.37574">
        <ele>23.39999961853</ele>
        <time>2021-02-28T10:29:07.000Z</time>
      </trkpt>
      <trkpt lat="47.33051" lon="-2.37583">
        <ele>23.39999961853</ele>
        <time>2021-02-28T10:29:12.000Z</time>
      </trkpt>
      <trkpt lat="47.33041" lon="-2.37604">
        <ele>23.39999961853</ele>
        <time>2021-02-28T10:29:18.000Z</time>
      </trkpt>
      <trkpt lat="47.33029" lon="-2.37629">
        <ele>23.39999961853</ele>
        <time>2021-02-28T10:29:25.000Z</time>
      </trkpt>
      <trkpt lat="47.33029" lon="-2.37632">
        <ele>23.39999961853</ele>
        <time>2021-02-28T10:29:26.000Z</time>
      </trkpt>
      <trkpt lat="47.33032" lon="-2.37643">
        <ele>23.39999961853</ele>
        <time>2021-02-28T10:29:29.000Z</time>
      </trkpt>
      <trkpt lat="47.33036" lon="-2.37651">
        <ele>23.799999237061</ele>
        <time>2021-02-28T10:29:31.000Z</time>
      </trkpt>
      <trkpt lat="47.33038" lon="-2.37656">
        <ele>24.200000762939</ele>
        <time>2021-02-28T10:29:32.000Z</time>
      </trkpt>
      <trkpt lat="47.33041" lon="-2.37661">
        <ele>24.60000038147</ele>
        <time>2021-02-28T10:29:33.000Z</time>
      </trkpt>
      <trkpt lat="47.33044" lon="-2.37665">
        <ele>25</ele>
        <time>2021-02-28T10:29:34.000Z</time>
      </trkpt>
      <trkpt lat="47.33047" lon="-2.3767">
        <ele>25.39999961853</ele>
        <time>2021-02-28T10:29:35.000Z</time>
      </trkpt>
      <trkpt lat="47.3305" lon="-2.37674">
        <ele>25.39999961853</ele>
        <time>2021-02-28T10:29:36.000Z</time>
      </trkpt>
      <trkpt lat="47.33065" lon="-2.37692">
        <ele>25.39999961853</ele>
        <time>2021-02-28T10:29:41.000Z</time>
      </trkpt>
      <trkpt lat="47.3308" lon="-2.37709">
        <ele>25.39999961853</ele>
        <time>2021-02-28T10:29:47.000Z</time>
      </trkpt>
      <trkpt lat="47.33086" lon="-2.37714">
        <ele>25.39999961853</ele>
        <time>2021-02-28T10:29:51.000Z</time>
      </trkpt>
      <trkpt lat="47.33096" lon="-2.37722">
        <ele>25.39999961853</ele>
        <time>2021-02-28T10:29:56.000Z</time>
      </trkpt>
      <trkpt lat="47.33107" lon="-2.37731">
        <ele>25.39999961853</ele>
        <time>2021-02-28T10:30:01.000Z</time>
      </trkpt>
      <trkpt lat="47.33111" lon="-2.37732">
        <ele>25.39999961853</ele>
        <time>2021-02-28T10:30:05.000Z</time>
      </trkpt>
      <trkpt lat="47.33111" lon="-2.37763">
        <ele>23.39999961853</ele>
        <time>2021-02-28T10:32:03.000Z</time>
      </trkpt>
      <trkpt lat="47.331" lon="-2.37776">
        <ele>23.39999961853</ele>
        <time>2021-02-28T10:32:09.000Z</time>
      </trkpt>
      <trkpt lat="47.33083" lon="-2.37792">
        <ele>23.39999961853</ele>
        <time>2021-02-28T10:32:16.000Z</time>
      </trkpt>
      <trkpt lat="47.33078" lon="-2.37796">
        <ele>23.39999961853</ele>
        <time>2021-02-28T10:32:18.000Z</time>
      </trkpt>
      <trkpt lat="47.33071" lon="-2.37804">
        <ele>23.39999961853</ele>
        <time>2021-02-28T10:32:21.000Z</time>
      </trkpt>
      <trkpt lat="47.33058" lon="-2.37817">
        <ele>23.799999237061</ele>
        <time>2021-02-28T10:32:26.000Z</time>
      </trkpt>
      <trkpt lat="47.33056" lon="-2.3782">
        <ele>24.200000762939</ele>
        <time>2021-02-28T10:32:27.000Z</time>
      </trkpt>
      <trkpt lat="47.33053" lon="-2.37823">
        <ele>24.60000038147</ele>
        <time>2021-02-28T10:32:28.000Z</time>
      </trkpt>
      <trkpt lat="47.3305" lon="-2.37826">
        <ele>25</ele>
        <time>2021-02-28T10:32:29.000Z</time>
      </trkpt>
      <trkpt lat="47.33048" lon="-2.37829">
        <ele>25.39999961853</ele>
        <time>2021-02-28T10:32:30.000Z</time>
      </trkpt>
      <trkpt lat="47.33039" lon="-2.37838">
        <ele>25.39999961853</ele>
        <time>2021-02-28T10:32:33.000Z</time>
      </trkpt>
      <trkpt lat="47.33025" lon="-2.37856">
        <ele>25.39999961853</ele>
        <time>2021-02-28T10:32:39.000Z</time>
      </trkpt>
      <trkpt lat="47.33018" lon="-2.37874">
        <ele>25.39999961853</ele>
        <time>2021-02-28T10:32:46.000Z</time>
      </trkpt>
      <trkpt lat="47.33017" lon="-2.37876">
        <ele>25.39999961853</ele>
        <time>2021-02-28T10:32:47.000Z</time>
      </trkpt>
      <trkpt lat="47.33012" lon="-2.37882">
        <ele>25.39999961853</ele>
        <time>2021-02-28T10:32:51.000Z</time>
      </trkpt>
      <trkpt lat="47.33008" lon="-2.37888">
        <ele>25.39999961853</ele>
        <time>2021-02-28T10:32:54.000Z</time>
      </trkpt>
      <trkpt lat="47.33003" lon="-2.37896">
        <ele>25.39999961853</ele>
        <time>2021-02-28T10:32:57.000Z</time>
      </trkpt>
      <trkpt lat="47.32991" lon="-2.37918">
        <ele>25.39999961853</ele>
        <time>2021-02-28T10:33:04.000Z</time>
      </trkpt>
      <trkpt lat="47.32983" lon="-2.3793">
        <ele>25.799999237061</ele>
        <time>2021-02-28T10:33:08.000Z</time>
      </trkpt>
      <trkpt lat="47.32982" lon="-2.37933">
        <ele>26.200000762939</ele>
        <time>2021-02-28T10:33:09.000Z</time>
      </trkpt>
      <trkpt lat="47.3298" lon="-2.37936">
        <ele>26.60000038147</ele>
        <time>2021-02-28T10:33:10.000Z</time>
      </trkpt>
      <trkpt lat="47.32978" lon="-2.37939">
        <ele>27</ele>
        <time>2021-02-28T10:33:11.000Z</time>
      </trkpt>
      <trkpt lat="47.32976" lon="-2.37942">
        <ele>27.39999961853</ele>
        <time>2021-02-28T10:33:12.000Z</time>
      </trkpt>
      <trkpt lat="47.32964" lon="-2.37965">
        <ele>27.39999961853</ele>
        <time>2021-02-28T10:33:19.000Z</time>
      </trkpt>
      <trkpt lat="47.32949" lon="-2.37985">
        <ele>27.39999961853</ele>
        <time>2021-02-28T10:33:25.000Z</time>
      </trkpt>
      <trkpt lat="47.32935" lon="-2.38003">
        <ele>27.39999961853</ele>
        <time>2021-02-28T10:33:30.000Z</time>
      </trkpt>
      <trkpt lat="47.32913" lon="-2.38038">
        <ele>27.39999961853</ele>
        <time>2021-02-28T10:33:37.000Z</time>
      </trkpt>
      <trkpt lat="47.32896" lon="-2.38071">
        <ele>28</ele>
        <time>2021-02-28T10:33:43.000Z</time>
      </trkpt>
      <trkpt lat="47.32893" lon="-2.38076">
        <ele>28.39999961853</ele>
        <time>2021-02-28T10:33:44.000Z</time>
      </trkpt>
      <trkpt lat="47.32889" lon="-2.38081">
        <ele>28.799999237061</ele>
        <time>2021-02-28T10:33:45.000Z</time>
      </trkpt>
      <trkpt lat="47.32886" lon="-2.38087">
        <ele>29.39999961853</ele>
        <time>2021-02-28T10:33:46.000Z</time>
      </trkpt>
      <trkpt lat="47.32883" lon="-2.38092">
        <ele>29.799999237061</ele>
        <time>2021-02-28T10:33:47.000Z</time>
      </trkpt>
      <trkpt lat="47.3288" lon="-2.38097">
        <ele>29.799999237061</ele>
        <time>2021-02-28T10:33:48.000Z</time>
      </trkpt>
      <trkpt lat="47.32868" lon="-2.38117">
        <ele>29.799999237061</ele>
        <time>2021-02-28T10:33:52.000Z</time>
      </trkpt>
      <trkpt lat="47.32859" lon="-2.38132">
        <ele>29.799999237061</ele>
        <time>2021-02-28T10:33:55.000Z</time>
      </trkpt>
      <trkpt lat="47.32847" lon="-2.38153">
        <ele>29.799999237061</ele>
        <time>2021-02-28T10:33:59.000Z</time>
      </trkpt>
      <trkpt lat="47.32839" lon="-2.38168">
        <ele>30.200000762939</ele>
        <time>2021-02-28T10:34:02.000Z</time>
      </trkpt>
      <trkpt lat="47.32836" lon="-2.38173">
        <ele>30.60000038147</ele>
        <time>2021-02-28T10:34:03.000Z</time>
      </trkpt>
      <trkpt lat="47.32834" lon="-2.38178">
        <ele>31</ele>
        <time>2021-02-28T10:34:04.000Z</time>
      </trkpt>
      <trkpt lat="47.32831" lon="-2.38184">
        <ele>31.39999961853</ele>
        <time>2021-02-28T10:34:05.000Z</time>
      </trkpt>
      <trkpt lat="47.32829" lon="-2.38189">
        <ele>31.799999237061</ele>
        <time>2021-02-28T10:34:06.000Z</time>
      </trkpt>
      <trkpt lat="47.32813" lon="-2.38234">
        <ele>31.799999237061</ele>
        <time>2021-02-28T10:34:14.000Z</time>
      </trkpt>
      <trkpt lat="47.32806" lon="-2.38257">
        <ele>32.400001525879</ele>
        <time>2021-02-28T10:34:18.000Z</time>
      </trkpt>
      <trkpt lat="47.32806" lon="-2.38262">
        <ele>32.799999237061</ele>
        <time>2021-02-28T10:34:19.000Z</time>
      </trkpt>
      <trkpt lat="47.32806" lon="-2.38268">
        <ele>33.200000762939</ele>
        <time>2021-02-28T10:34:20.000Z</time>
      </trkpt>
      <trkpt lat="47.32805" lon="-2.38273">
        <ele>33.799999237061</ele>
        <time>2021-02-28T10:34:21.000Z</time>
      </trkpt>
      <trkpt lat="47.32803" lon="-2.38279">
        <ele>34.200000762939</ele>
        <time>2021-02-28T10:34:22.000Z</time>
      </trkpt>
      <trkpt lat="47.32798" lon="-2.38303">
        <ele>34.200000762939</ele>
        <time>2021-02-28T10:34:26.000Z</time>
      </trkpt>
      <trkpt lat="47.32796" lon="-2.38308">
        <ele>34.599998474121</ele>
        <time>2021-02-28T10:34:27.000Z</time>
      </trkpt>
      <trkpt lat="47.32795" lon="-2.38313">
        <ele>35.200000762939</ele>
        <time>2021-02-28T10:34:28.000Z</time>
      </trkpt>
      <trkpt lat="47.32794" lon="-2.38318">
        <ele>35.599998474121</ele>
        <time>2021-02-28T10:34:29.000Z</time>
      </trkpt>
      <trkpt lat="47.32793" lon="-2.38323">
        <ele>36</ele>
        <time>2021-02-28T10:34:30.000Z</time>
      </trkpt>
      <trkpt lat="47.32792" lon="-2.38328">
        <ele>36.400001525879</ele>
        <time>2021-02-28T10:34:31.000Z</time>
      </trkpt>
      <trkpt lat="47.32789" lon="-2.38345">
        <ele>36.400001525879</ele>
        <time>2021-02-28T10:34:34.000Z</time>
      </trkpt>
      <trkpt lat="47.32787" lon="-2.38356">
        <ele>37.400001525879</ele>
        <time>2021-02-28T10:34:36.000Z</time>
      </trkpt>
      <trkpt lat="47.32785" lon="-2.38362">
        <ele>37.799999237061</ele>
        <time>2021-02-28T10:34:37.000Z</time>
      </trkpt>
      <trkpt lat="47.32785" lon="-2.38367">
        <ele>38.200000762939</ele>
        <time>2021-02-28T10:34:38.000Z</time>
      </trkpt>
      <trkpt lat="47.32784" lon="-2.38372">
        <ele>38.599998474121</ele>
        <time>2021-02-28T10:34:39.000Z</time>
      </trkpt>
      <trkpt lat="47.32783" lon="-2.38376">
        <ele>38.599998474121</ele>
        <time>2021-02-28T10:34:40.000Z</time>
      </trkpt>
      <trkpt lat="47.32779" lon="-2.38391">
        <ele>39</ele>
        <time>2021-02-28T10:34:44.000Z</time>
      </trkpt>
      <trkpt lat="47.32777" lon="-2.38394">
        <ele>39.400001525879</ele>
        <time>2021-02-28T10:34:45.000Z</time>
      </trkpt>
      <trkpt lat="47.32774" lon="-2.38395">
        <ele>39.799999237061</ele>
        <time>2021-02-28T10:34:46.000Z</time>
      </trkpt>
      <trkpt lat="47.32771" lon="-2.38395">
        <ele>40.200000762939</ele>
        <time>2021-02-28T10:34:47.000Z</time>
      </trkpt>
      <trkpt lat="47.32767" lon="-2.38396">
        <ele>40.599998474121</ele>
        <time>2021-02-28T10:34:48.000Z</time>
      </trkpt>
      <trkpt lat="47.32763" lon="-2.38397">
        <ele>40.599998474121</ele>
        <time>2021-02-28T10:34:49.000Z</time>
      </trkpt>
      <trkpt lat="47.32759" lon="-2.38398">
        <ele>40.599998474121</ele>
        <time>2021-02-28T10:34:50.000Z</time>
      </trkpt>
      <trkpt lat="47.3273" lon="-2.38405">
        <ele>40.599998474121</ele>
        <time>2021-02-28T10:34:57.000Z</time>
      </trkpt>
      <trkpt lat="47.32715" lon="-2.38409">
        <ele>40.599998474121</ele>
        <time>2021-02-28T10:35:00.000Z</time>
      </trkpt>
      <trkpt lat="47.32704" lon="-2.38407">
        <ele>40.599998474121</ele>
        <time>2021-02-28T10:35:02.000Z</time>
      </trkpt>
      <trkpt lat="47.32682" lon="-2.38389">
        <ele>40.599998474121</ele>
        <time>2021-02-28T10:35:06.000Z</time>
      </trkpt>
      <trkpt lat="47.32677" lon="-2.38381">
        <ele>40.200000762939</ele>
        <time>2021-02-28T10:35:07.000Z</time>
      </trkpt>
      <trkpt lat="47.32672" lon="-2.38373">
        <ele>39.799999237061</ele>
        <time>2021-02-28T10:35:08.000Z</time>
      </trkpt>
      <trkpt lat="47.32666" lon="-2.38365">
        <ele>39.400001525879</ele>
        <time>2021-02-28T10:35:09.000Z</time>
      </trkpt>
      <trkpt lat="47.3266" lon="-2.38357">
        <ele>39</ele>
        <time>2021-02-28T10:35:10.000Z</time>
      </trkpt>
      <trkpt lat="47.32654" lon="-2.38348">
        <ele>38.599998474121</ele>
        <time>2021-02-28T10:35:11.000Z</time>
      </trkpt>
      <trkpt lat="47.32628" lon="-2.38315">
        <ele>38.200000762939</ele>
        <time>2021-02-28T10:35:15.000Z</time>
      </trkpt>
      <trkpt lat="47.32622" lon="-2.38306">
        <ele>37.799999237061</ele>
        <time>2021-02-28T10:35:16.000Z</time>
      </trkpt>
      <trkpt lat="47.32616" lon="-2.383">
        <ele>37.200000762939</ele>
        <time>2021-02-28T10:35:17.000Z</time>
      </trkpt>
      <trkpt lat="47.32608" lon="-2.38296">
        <ele>36.599998474121</ele>
        <time>2021-02-28T10:35:18.000Z</time>
      </trkpt>
      <trkpt lat="47.326" lon="-2.38294">
        <ele>36</ele>
        <time>2021-02-28T10:35:19.000Z</time>
      </trkpt>
      <trkpt lat="47.32592" lon="-2.38295">
        <ele>35.200000762939</ele>
        <time>2021-02-28T10:35:20.000Z</time>
      </trkpt>
      <trkpt lat="47.32584" lon="-2.38297">
        <ele>34.599998474121</ele>
        <time>2021-02-28T10:35:21.000Z</time>
      </trkpt>
      <trkpt lat="47.32576" lon="-2.38299">
        <ele>34</ele>
        <time>2021-02-28T10:35:22.000Z</time>
      </trkpt>
      <trkpt lat="47.32569" lon="-2.38302">
        <ele>34</ele>
        <time>2021-02-28T10:35:23.000Z</time>
      </trkpt>
      <trkpt lat="47.32562" lon="-2.38305">
        <ele>33.599998474121</ele>
        <time>2021-02-28T10:35:24.000Z</time>
      </trkpt>
      <trkpt lat="47.32555" lon="-2.38307">
        <ele>32.799999237061</ele>
        <time>2021-02-28T10:35:25.000Z</time>
      </trkpt>
      <trkpt lat="47.32549" lon="-2.38309">
        <ele>32.400001525879</ele>
        <time>2021-02-28T10:35:26.000Z</time>
      </trkpt>
      <trkpt lat="47.32544" lon="-2.38311">
        <ele>32</ele>
        <time>2021-02-28T10:35:27.000Z</time>
      </trkpt>
      <trkpt lat="47.32531" lon="-2.38316">
        <ele>32</ele>
        <time>2021-02-28T10:35:31.000Z</time>
      </trkpt>
      <trkpt lat="47.32529" lon="-2.3833">
        <ele>32</ele>
        <time>2021-02-28T10:35:35.000Z</time>
      </trkpt>
      <trkpt lat="47.32526" lon="-2.38362">
        <ele>32</ele>
        <time>2021-02-28T10:35:41.000Z</time>
      </trkpt>
      <trkpt lat="47.32526" lon="-2.38367">
        <ele>32.400001525879</ele>
        <time>2021-02-28T10:35:42.000Z</time>
      </trkpt>
      <trkpt lat="47.32525" lon="-2.38372">
        <ele>32.799999237061</ele>
        <time>2021-02-28T10:35:43.000Z</time>
      </trkpt>
      <trkpt lat="47.32524" lon="-2.38377">
        <ele>33.200000762939</ele>
        <time>2021-02-28T10:35:44.000Z</time>
      </trkpt>
      <trkpt lat="47.32523" lon="-2.38382">
        <ele>33.599998474121</ele>
        <time>2021-02-28T10:35:45.000Z</time>
      </trkpt>
      <trkpt lat="47.32521" lon="-2.38387">
        <ele>34</ele>
        <time>2021-02-28T10:35:46.000Z</time>
      </trkpt>
      <trkpt lat="47.32517" lon="-2.38389">
        <ele>34</ele>
        <time>2021-02-28T10:35:47.000Z</time>
      </trkpt>
      <trkpt lat="47.32504" lon="-2.38386">
        <ele>34</ele>
        <time>2021-02-28T10:35:50.000Z</time>
      </trkpt>
      <trkpt lat="47.32476" lon="-2.38373">
        <ele>34</ele>
        <time>2021-02-28T10:35:57.000Z</time>
      </trkpt>
      <trkpt lat="47.32452" lon="-2.38364">
        <ele>34</ele>
        <time>2021-02-28T10:36:04.000Z</time>
      </trkpt>
      <trkpt lat="47.32422" lon="-2.3835">
        <ele>34</ele>
        <time>2021-02-28T10:36:12.000Z</time>
      </trkpt>
      <trkpt lat="47.32392" lon="-2.38335">
        <ele>34</ele>
        <time>2021-02-28T10:36:19.000Z</time>
      </trkpt>
      <trkpt lat="47.32379" lon="-2.38329">
        <ele>34</ele>
        <time>2021-02-28T10:36:22.000Z</time>
      </trkpt>
      <trkpt lat="47.32369" lon="-2.38325">
        <ele>34</ele>
        <time>2021-02-28T10:36:24.000Z</time>
      </trkpt>
      <trkpt lat="47.32335" lon="-2.38311">
        <ele>34</ele>
        <time>2021-02-28T10:36:30.000Z</time>
      </trkpt>
      <trkpt lat="47.32299" lon="-2.38298">
        <ele>33.599998474121</ele>
        <time>2021-02-28T10:36:36.000Z</time>
      </trkpt>
      <trkpt lat="47.32294" lon="-2.38296">
        <ele>33.200000762939</ele>
        <time>2021-02-28T10:36:37.000Z</time>
      </trkpt>
      <trkpt lat="47.32289" lon="-2.38295">
        <ele>32.799999237061</ele>
        <time>2021-02-28T10:36:38.000Z</time>
      </trkpt>
      <trkpt lat="47.32285" lon="-2.38295">
        <ele>32.400001525879</ele>
        <time>2021-02-28T10:36:39.000Z</time>
      </trkpt>
      <trkpt lat="47.32281" lon="-2.38295">
        <ele>32</ele>
        <time>2021-02-28T10:36:40.000Z</time>
      </trkpt>
      <trkpt lat="47.32276" lon="-2.38294">
        <ele>32</ele>
        <time>2021-02-28T10:36:41.000Z</time>
      </trkpt>
      <trkpt lat="47.32267" lon="-2.38293">
        <ele>32</ele>
        <time>2021-02-28T10:36:43.000Z</time>
      </trkpt>
      <trkpt lat="47.32256" lon="-2.38295">
        <ele>32</ele>
        <time>2021-02-28T10:36:45.000Z</time>
      </trkpt>
      <trkpt lat="47.3222" lon="-2.38296">
        <ele>32</ele>
        <time>2021-02-28T10:36:51.000Z</time>
      </trkpt>
      <trkpt lat="47.32216" lon="-2.38297">
        <ele>32</ele>
        <time>2021-02-28T10:36:52.000Z</time>
      </trkpt>
      <trkpt lat="47.32211" lon="-2.38299">
        <ele>31.60000038147</ele>
        <time>2021-02-28T10:36:54.000Z</time>
      </trkpt>
      <trkpt lat="47.32209" lon="-2.38302">
        <ele>31</ele>
        <time>2021-02-28T10:36:55.000Z</time>
      </trkpt>
      <trkpt lat="47.32207" lon="-2.38305">
        <ele>30.60000038147</ele>
        <time>2021-02-28T10:36:56.000Z</time>
      </trkpt>
      <trkpt lat="47.32205" lon="-2.38307">
        <ele>30.200000762939</ele>
        <time>2021-02-28T10:36:57.000Z</time>
      </trkpt>
      <trkpt lat="47.32203" lon="-2.3831">
        <ele>29.799999237061</ele>
        <time>2021-02-28T10:36:58.000Z</time>
      </trkpt>
      <trkpt lat="47.322" lon="-2.38315">
        <ele>29.799999237061</ele>
        <time>2021-02-28T10:37:00.000Z</time>
      </trkpt>
      <trkpt lat="47.32188" lon="-2.38332">
        <ele>29.799999237061</ele>
        <time>2021-02-28T10:37:05.000Z</time>
      </trkpt>
      <trkpt lat="47.32175" lon="-2.38354">
        <ele>29.799999237061</ele>
        <time>2021-02-28T10:37:10.000Z</time>
      </trkpt>
      <trkpt lat="47.32165" lon="-2.38366">
        <ele>29.799999237061</ele>
        <time>2021-02-28T10:37:13.000Z</time>
      </trkpt>
      <trkpt lat="47.32162" lon="-2.3837">
        <ele>29.799999237061</ele>
        <time>2021-02-28T10:37:14.000Z</time>
      </trkpt>
      <trkpt lat="47.32147" lon="-2.38391">
        <ele>29.799999237061</ele>
        <time>2021-02-28T10:37:19.000Z</time>
      </trkpt>
      <trkpt lat="47.3213" lon="-2.38413">
        <ele>29.799999237061</ele>
        <time>2021-02-28T10:37:25.000Z</time>
      </trkpt>
      <trkpt lat="47.32112" lon="-2.38424">
        <ele>29.799999237061</ele>
        <time>2021-02-28T10:37:30.000Z</time>
      </trkpt>
      <trkpt lat="47.32107" lon="-2.38426">
        <ele>29.799999237061</ele>
        <time>2021-02-28T10:37:31.000Z</time>
      </trkpt>
      <trkpt lat="47.32092" lon="-2.38434">
        <ele>29.799999237061</ele>
        <time>2021-02-28T10:37:35.000Z</time>
      </trkpt>
      <trkpt lat="47.32069" lon="-2.38444">
        <ele>29.799999237061</ele>
        <time>2021-02-28T10:37:42.000Z</time>
      </trkpt>
      <trkpt lat="47.32066" lon="-2.38446">
        <ele>30.200000762939</ele>
        <time>2021-02-28T10:37:43.000Z</time>
      </trkpt>
      <trkpt lat="47.32062" lon="-2.38447">
        <ele>30.799999237061</ele>
        <time>2021-02-28T10:37:44.000Z</time>
      </trkpt>
      <trkpt lat="47.32058" lon="-2.38448">
        <ele>31.200000762939</ele>
        <time>2021-02-28T10:37:45.000Z</time>
      </trkpt>
      <trkpt lat="47.32054" lon="-2.38449">
        <ele>31.60000038147</ele>
        <time>2021-02-28T10:37:46.000Z</time>
      </trkpt>
      <trkpt lat="47.32049" lon="-2.3845">
        <ele>32</ele>
        <time>2021-02-28T10:37:47.000Z</time>
      </trkpt>
      <trkpt lat="47.32015" lon="-2.38463">
        <ele>32</ele>
        <time>2021-02-28T10:37:54.000Z</time>
      </trkpt>
      <trkpt lat="47.32007" lon="-2.38467">
        <ele>32</ele>
        <time>2021-02-28T10:37:56.000Z</time>
      </trkpt>
      <trkpt lat="47.32002" lon="-2.38469">
        <ele>32.400001525879</ele>
        <time>2021-02-28T10:37:57.000Z</time>
      </trkpt>
      <trkpt lat="47.31997" lon="-2.38471">
        <ele>32.799999237061</ele>
        <time>2021-02-28T10:37:58.000Z</time>
      </trkpt>
      <trkpt lat="47.31992" lon="-2.38472">
        <ele>33.200000762939</ele>
        <time>2021-02-28T10:37:59.000Z</time>
      </trkpt>
      <trkpt lat="47.31988" lon="-2.38474">
        <ele>33.799999237061</ele>
        <time>2021-02-28T10:38:00.000Z</time>
      </trkpt>
      <trkpt lat="47.31983" lon="-2.38476">
        <ele>34.200000762939</ele>
        <time>2021-02-28T10:38:01.000Z</time>
      </trkpt>
      <trkpt lat="47.31958" lon="-2.38485">
        <ele>34.200000762939</ele>
        <time>2021-02-28T10:38:07.000Z</time>
      </trkpt>
      <trkpt lat="47.31945" lon="-2.38489">
        <ele>34.599998474121</ele>
        <time>2021-02-28T10:38:10.000Z</time>
      </trkpt>
      <trkpt lat="47.31941" lon="-2.38489">
        <ele>35</ele>
        <time>2021-02-28T10:38:11.000Z</time>
      </trkpt>
      <trkpt lat="47.31937" lon="-2.3849">
        <ele>35.400001525879</ele>
        <time>2021-02-28T10:38:12.000Z</time>
      </trkpt>
      <trkpt lat="47.31932" lon="-2.38491">
        <ele>35.799999237061</ele>
        <time>2021-02-28T10:38:13.000Z</time>
      </trkpt>
      <trkpt lat="47.31928" lon="-2.38492">
        <ele>36.200000762939</ele>
        <time>2021-02-28T10:38:14.000Z</time>
      </trkpt>
      <trkpt lat="47.31908" lon="-2.38501">
        <ele>36.200000762939</ele>
        <time>2021-02-28T10:38:19.000Z</time>
      </trkpt>
      <trkpt lat="47.31885" lon="-2.38513">
        <ele>36.599998474121</ele>
        <time>2021-02-28T10:38:25.000Z</time>
      </trkpt>
      <trkpt lat="47.31882" lon="-2.38514">
        <ele>37</ele>
        <time>2021-02-28T10:38:26.000Z</time>
      </trkpt>
      <trkpt lat="47.31878" lon="-2.38516">
        <ele>37.400001525879</ele>
        <time>2021-02-28T10:38:27.000Z</time>
      </trkpt>
      <trkpt lat="47.31874" lon="-2.38517">
        <ele>37.799999237061</ele>
        <time>2021-02-28T10:38:28.000Z</time>
      </trkpt>
      <trkpt lat="47.3187" lon="-2.38519">
        <ele>38.200000762939</ele>
        <time>2021-02-28T10:38:29.000Z</time>
      </trkpt>
      <trkpt lat="47.3186" lon="-2.38522">
        <ele>38.200000762939</ele>
        <time>2021-02-28T10:38:32.000Z</time>
      </trkpt>
      <trkpt lat="47.31844" lon="-2.3853">
        <ele>38.599998474121</ele>
        <time>2021-02-28T10:38:37.000Z</time>
      </trkpt>
      <trkpt lat="47.3184" lon="-2.38531">
        <ele>39</ele>
        <time>2021-02-28T10:38:38.000Z</time>
      </trkpt>
      <trkpt lat="47.31837" lon="-2.38532">
        <ele>39.400001525879</ele>
        <time>2021-02-28T10:38:39.000Z</time>
      </trkpt>
      <trkpt lat="47.31834" lon="-2.38532">
        <ele>39.799999237061</ele>
        <time>2021-02-28T10:38:40.000Z</time>
      </trkpt>
      <trkpt lat="47.31831" lon="-2.38533">
        <ele>40.400001525879</ele>
        <time>2021-02-28T10:38:41.000Z</time>
      </trkpt>
      <trkpt lat="47.3182" lon="-2.38536">
        <ele>40.400001525879</ele>
        <time>2021-02-28T10:38:45.000Z</time>
      </trkpt>
      <trkpt lat="47.31818" lon="-2.38536">
        <ele>40.799999237061</ele>
        <time>2021-02-28T10:38:46.000Z</time>
      </trkpt>
      <trkpt lat="47.31816" lon="-2.38537">
        <ele>41.200000762939</ele>
        <time>2021-02-28T10:38:47.000Z</time>
      </trkpt>
      <trkpt lat="47.31813" lon="-2.38537">
        <ele>41.599998474121</ele>
        <time>2021-02-28T10:38:48.000Z</time>
      </trkpt>
      <trkpt lat="47.31811" lon="-2.38537">
        <ele>42</ele>
        <time>2021-02-28T10:38:49.000Z</time>
      </trkpt>
      <trkpt lat="47.31809" lon="-2.38537">
        <ele>42.400001525879</ele>
        <time>2021-02-28T10:38:50.000Z</time>
      </trkpt>
      <trkpt lat="47.31808" lon="-2.38537">
        <ele>42.400001525879</ele>
        <time>2021-02-28T10:38:51.000Z</time>
      </trkpt>
      <trkpt lat="47.31799" lon="-2.38538">
        <ele>42.400001525879</ele>
        <time>2021-02-28T10:38:55.000Z</time>
      </trkpt>
      <trkpt lat="47.31796" lon="-2.3854">
        <ele>42.400001525879</ele>
        <time>2021-02-28T10:38:56.000Z</time>
      </trkpt>
      <trkpt lat="47.31774" lon="-2.38553">
        <ele>42.400001525879</ele>
        <time>2021-02-28T10:39:03.000Z</time>
      </trkpt>
      <trkpt lat="47.31748" lon="-2.38568">
        <ele>42.400001525879</ele>
        <time>2021-02-28T10:39:10.000Z</time>
      </trkpt>
      <trkpt lat="47.31713" lon="-2.38589">
        <ele>42.400001525879</ele>
        <time>2021-02-28T10:39:18.000Z</time>
      </trkpt>
      <trkpt lat="47.31669" lon="-2.38615">
        <ele>42.400001525879</ele>
        <time>2021-02-28T10:39:27.000Z</time>
      </trkpt>
      <trkpt lat="47.3164" lon="-2.38644">
        <ele>42.400001525879</ele>
        <time>2021-02-28T10:39:33.000Z</time>
      </trkpt>
      <trkpt lat="47.31602" lon="-2.38701">
        <ele>42.400001525879</ele>
        <time>2021-02-28T10:39:42.000Z</time>
      </trkpt>
      <trkpt lat="47.31572" lon="-2.38747">
        <ele>42.400001525879</ele>
        <time>2021-02-28T10:39:49.000Z</time>
      </trkpt>
      <trkpt lat="47.31539" lon="-2.38798">
        <ele>42.400001525879</ele>
        <time>2021-02-28T10:39:57.000Z</time>
      </trkpt>
      <trkpt lat="47.31518" lon="-2.38839">
        <ele>42.400001525879</ele>
        <time>2021-02-28T10:40:03.000Z</time>
      </trkpt>
      <trkpt lat="47.31501" lon="-2.38873">
        <ele>42.400001525879</ele>
        <time>2021-02-28T10:40:08.000Z</time>
      </trkpt>
      <trkpt lat="47.31475" lon="-2.38921">
        <ele>42.400001525879</ele>
        <time>2021-02-28T10:40:15.000Z</time>
      </trkpt>
      <trkpt lat="47.31471" lon="-2.38928">
        <ele>42.799999237061</ele>
        <time>2021-02-28T10:40:16.000Z</time>
      </trkpt>
      <trkpt lat="47.31467" lon="-2.38935">
        <ele>43.200000762939</ele>
        <time>2021-02-28T10:40:17.000Z</time>
      </trkpt>
      <trkpt lat="47.31464" lon="-2.38943">
        <ele>43.599998474121</ele>
        <time>2021-02-28T10:40:18.000Z</time>
      </trkpt>
      <trkpt lat="47.3146" lon="-2.3895">
        <ele>44</ele>
        <time>2021-02-28T10:40:19.000Z</time>
      </trkpt>
      <trkpt lat="47.31457" lon="-2.38956">
        <ele>44.400001525879</ele>
        <time>2021-02-28T10:40:20.000Z</time>
      </trkpt>
      <trkpt lat="47.3145" lon="-2.3897">
        <ele>44.400001525879</ele>
        <time>2021-02-28T10:40:22.000Z</time>
      </trkpt>
      <trkpt lat="47.31433" lon="-2.39006">
        <ele>44.400001525879</ele>
        <time>2021-02-28T10:40:27.000Z</time>
      </trkpt>
      <trkpt lat="47.31431" lon="-2.39014">
        <ele>44.400001525879</ele>
        <time>2021-02-28T10:40:28.000Z</time>
      </trkpt>
      <trkpt lat="47.31411" lon="-2.39058">
        <ele>44.400001525879</ele>
        <time>2021-02-28T10:40:34.000Z</time>
      </trkpt>
      <trkpt lat="47.3139" lon="-2.3909">
        <ele>45</ele>
        <time>2021-02-28T10:40:39.000Z</time>
      </trkpt>
      <trkpt lat="47.31386" lon="-2.39095">
        <ele>45.400001525879</ele>
        <time>2021-02-28T10:40:40.000Z</time>
      </trkpt>
      <trkpt lat="47.31382" lon="-2.391">
        <ele>45.799999237061</ele>
        <time>2021-02-28T10:40:41.000Z</time>
      </trkpt>
      <trkpt lat="47.31378" lon="-2.39105">
        <ele>46.200000762939</ele>
        <time>2021-02-28T10:40:42.000Z</time>
      </trkpt>
      <trkpt lat="47.31374" lon="-2.3911">
        <ele>46.599998474121</ele>
        <time>2021-02-28T10:40:43.000Z</time>
      </trkpt>
      <trkpt lat="47.31361" lon="-2.39124">
        <ele>46.599998474121</ele>
        <time>2021-02-28T10:40:46.000Z</time>
      </trkpt>
      <trkpt lat="47.31319" lon="-2.39168">
        <ele>46.599998474121</ele>
        <time>2021-02-28T10:40:55.000Z</time>
      </trkpt>
      <trkpt lat="47.31291" lon="-2.392">
        <ele>46.599998474121</ele>
        <time>2021-02-28T10:41:01.000Z</time>
      </trkpt>
      <trkpt lat="47.31286" lon="-2.39205">
        <ele>46.599998474121</ele>
        <time>2021-02-28T10:41:02.000Z</time>
      </trkpt>
      <trkpt lat="47.31258" lon="-2.39244">
        <ele>46.599998474121</ele>
        <time>2021-02-28T10:41:09.000Z</time>
      </trkpt>
      <trkpt lat="47.31236" lon="-2.39274">
        <ele>46.599998474121</ele>
        <time>2021-02-28T10:41:15.000Z</time>
      </trkpt>
      <trkpt lat="47.31231" lon="-2.39278">
        <ele>46.599998474121</ele>
        <time>2021-02-28T10:41:16.000Z</time>
      </trkpt>
      <trkpt lat="47.31212" lon="-2.39297">
        <ele>46.599998474121</ele>
        <time>2021-02-28T10:41:20.000Z</time>
      </trkpt>
      <trkpt lat="47.31179" lon="-2.39321">
        <ele>46.599998474121</ele>
        <time>2021-02-28T10:41:26.000Z</time>
      </trkpt>
      <trkpt lat="47.31144" lon="-2.39347">
        <ele>46.200000762939</ele>
        <time>2021-02-28T10:41:32.000Z</time>
      </trkpt>
      <trkpt lat="47.31139" lon="-2.39353">
        <ele>45.799999237061</ele>
        <time>2021-02-28T10:41:33.000Z</time>
      </trkpt>
      <trkpt lat="47.31134" lon="-2.39358">
        <ele>45</ele>
        <time>2021-02-28T10:41:34.000Z</time>
      </trkpt>
      <trkpt lat="47.31129" lon="-2.39364">
        <ele>44.599998474121</ele>
        <time>2021-02-28T10:41:35.000Z</time>
      </trkpt>
      <trkpt lat="47.31115" lon="-2.39381">
        <ele>44.599998474121</ele>
        <time>2021-02-28T10:41:38.000Z</time>
      </trkpt>
      <trkpt lat="47.31074" lon="-2.39436">
        <ele>44.599998474121</ele>
        <time>2021-02-28T10:41:47.000Z</time>
      </trkpt>
      <trkpt lat="47.3106" lon="-2.39454">
        <ele>44</ele>
        <time>2021-02-28T10:41:50.000Z</time>
      </trkpt>
      <trkpt lat="47.31056" lon="-2.39458">
        <ele>43.599998474121</ele>
        <time>2021-02-28T10:41:51.000Z</time>
      </trkpt>
      <trkpt lat="47.31052" lon="-2.39462">
        <ele>43.200000762939</ele>
        <time>2021-02-28T10:41:52.000Z</time>
      </trkpt>
      <trkpt lat="47.31048" lon="-2.39465">
        <ele>42.799999237061</ele>
        <time>2021-02-28T10:41:53.000Z</time>
      </trkpt>
      <trkpt lat="47.31046" lon="-2.39467">
        <ele>42.400001525879</ele>
        <time>2021-02-28T10:41:54.000Z</time>
      </trkpt>
      <trkpt lat="47.3104" lon="-2.39468">
        <ele>42.400001525879</ele>
        <time>2021-02-28T10:41:56.000Z</time>
      </trkpt>
      <trkpt lat="47.31038" lon="-2.39464">
        <ele>42.400001525879</ele>
        <time>2021-02-28T10:41:57.000Z</time>
      </trkpt>
      <trkpt lat="47.31033" lon="-2.39453">
        <ele>42.400001525879</ele>
        <time>2021-02-28T10:42:00.000Z</time>
      </trkpt>
      <trkpt lat="47.31029" lon="-2.39443">
        <ele>42.400001525879</ele>
        <time>2021-02-28T10:42:02.000Z</time>
      </trkpt>
      <trkpt lat="47.31018" lon="-2.39408">
        <ele>42.400001525879</ele>
        <time>2021-02-28T10:42:08.000Z</time>
      </trkpt>
      <trkpt lat="47.31014" lon="-2.39396">
        <ele>42.400001525879</ele>
        <time>2021-02-28T10:42:10.000Z</time>
      </trkpt>
      <trkpt lat="47.31005" lon="-2.3937">
        <ele>42.400001525879</ele>
        <time>2021-02-28T10:42:14.000Z</time>
      </trkpt>
      <trkpt lat="47.31003" lon="-2.39363">
        <ele>42.799999237061</ele>
        <time>2021-02-28T10:42:15.000Z</time>
      </trkpt>
      <trkpt lat="47.31001" lon="-2.39357">
        <ele>43.200000762939</ele>
        <time>2021-02-28T10:42:16.000Z</time>
      </trkpt>
      <trkpt lat="47.30999" lon="-2.3935">
        <ele>43.599998474121</ele>
        <time>2021-02-28T10:42:17.000Z</time>
      </trkpt>
      <trkpt lat="47.30996" lon="-2.39344">
        <ele>44</ele>
        <time>2021-02-28T10:42:18.000Z</time>
      </trkpt>
      <trkpt lat="47.30994" lon="-2.39338">
        <ele>44.400001525879</ele>
        <time>2021-02-28T10:42:19.000Z</time>
      </trkpt>
      <trkpt lat="47.3099" lon="-2.39326">
        <ele>44.400001525879</ele>
        <time>2021-02-28T10:42:21.000Z</time>
      </trkpt>
      <trkpt lat="47.30976" lon="-2.39286">
        <ele>44.400001525879</ele>
        <time>2021-02-28T10:42:28.000Z</time>
      </trkpt>
      <trkpt lat="47.30957" lon="-2.39239">
        <ele>44.400001525879</ele>
        <time>2021-02-28T10:42:36.000Z</time>
      </trkpt>
      <trkpt lat="47.30939" lon="-2.39199">
        <ele>44.400001525879</ele>
        <time>2021-02-28T10:42:43.000Z</time>
      </trkpt>
      <trkpt lat="47.30916" lon="-2.39144">
        <ele>44.400001525879</ele>
        <time>2021-02-28T10:42:52.000Z</time>
      </trkpt>
      <trkpt lat="47.30903" lon="-2.39104">
        <ele>44.400001525879</ele>
        <time>2021-02-28T10:42:59.000Z</time>
      </trkpt>
      <trkpt lat="47.30897" lon="-2.39081">
        <ele>44.400001525879</ele>
        <time>2021-02-28T10:43:03.000Z</time>
      </trkpt>
      <trkpt lat="47.30895" lon="-2.39067">
        <ele>44.400001525879</ele>
        <time>2021-02-28T10:43:05.000Z</time>
      </trkpt>
      <trkpt lat="47.30897" lon="-2.3902">
        <ele>44.400001525879</ele>
        <time>2021-02-28T10:43:11.000Z</time>
      </trkpt>
      <trkpt lat="47.309" lon="-2.38986">
        <ele>44.400001525879</ele>
        <time>2021-02-28T10:43:16.000Z</time>
      </trkpt>
      <trkpt lat="47.30902" lon="-2.3898">
        <ele>44.400001525879</ele>
        <time>2021-02-28T10:43:17.000Z</time>
      </trkpt>
      <trkpt lat="47.30915" lon="-2.38944">
        <ele>44.400001525879</ele>
        <time>2021-02-28T10:43:23.000Z</time>
      </trkpt>
      <trkpt lat="47.30922" lon="-2.38926">
        <ele>44.400001525879</ele>
        <time>2021-02-28T10:43:26.000Z</time>
      </trkpt>
      <trkpt lat="47.30922" lon="-2.38911">
        <ele>44.400001525879</ele>
        <time>2021-02-28T10:43:28.000Z</time>
      </trkpt>
      <trkpt lat="47.30912" lon="-2.38894">
        <ele>44.400001525879</ele>
        <time>2021-02-28T10:43:31.000Z</time>
      </trkpt>
      <trkpt lat="47.30893" lon="-2.38888">
        <ele>44.400001525879</ele>
        <time>2021-02-28T10:43:35.000Z</time>
      </trkpt>
      <trkpt lat="47.30889" lon="-2.3889">
        <ele>44.400001525879</ele>
        <time>2021-02-28T10:43:36.000Z</time>
      </trkpt>
      <trkpt lat="47.30884" lon="-2.3889">
        <ele>44.400001525879</ele>
        <time>2021-02-28T10:43:37.000Z</time>
      </trkpt>
      <trkpt lat="47.30867" lon="-2.38889">
        <ele>44.400001525879</ele>
        <time>2021-02-28T10:43:40.000Z</time>
      </trkpt>
      <trkpt lat="47.30861" lon="-2.3889">
        <ele>44.400001525879</ele>
        <time>2021-02-28T10:43:41.000Z</time>
      </trkpt>
      <trkpt lat="47.30842" lon="-2.38899">
        <ele>44</ele>
        <time>2021-02-28T10:43:44.000Z</time>
      </trkpt>
      <trkpt lat="47.30835" lon="-2.38903">
        <ele>43.599998474121</ele>
        <time>2021-02-28T10:43:45.000Z</time>
      </trkpt>
      <trkpt lat="47.30827" lon="-2.38909">
        <ele>43.200000762939</ele>
        <time>2021-02-28T10:43:46.000Z</time>
      </trkpt>
      <trkpt lat="47.3082" lon="-2.38916">
        <ele>42.599998474121</ele>
        <time>2021-02-28T10:43:47.000Z</time>
      </trkpt>
      <trkpt lat="47.30812" lon="-2.38922">
        <ele>42.200000762939</ele>
        <time>2021-02-28T10:43:48.000Z</time>
      </trkpt>
      <trkpt lat="47.30804" lon="-2.38927">
        <ele>41.599998474121</ele>
        <time>2021-02-28T10:43:49.000Z</time>
      </trkpt>
      <trkpt lat="47.30796" lon="-2.38933">
        <ele>41</ele>
        <time>2021-02-28T10:43:50.000Z</time>
      </trkpt>
      <trkpt lat="47.30788" lon="-2.38939">
        <ele>40.400001525879</ele>
        <time>2021-02-28T10:43:51.000Z</time>
      </trkpt>
      <trkpt lat="47.30781" lon="-2.38945">
        <ele>40</ele>
        <time>2021-02-28T10:43:52.000Z</time>
      </trkpt>
      <trkpt lat="47.30762" lon="-2.3896">
        <ele>40</ele>
        <time>2021-02-28T10:43:55.000Z</time>
      </trkpt>
      <trkpt lat="47.30752" lon="-2.38974">
        <ele>40</ele>
        <time>2021-02-28T10:43:57.000Z</time>
      </trkpt>
      <trkpt lat="47.30745" lon="-2.3899">
        <ele>40</ele>
        <time>2021-02-28T10:43:59.000Z</time>
      </trkpt>
      <trkpt lat="47.3074" lon="-2.38996">
        <ele>40</ele>
        <time>2021-02-28T10:44:00.000Z</time>
      </trkpt>
      <trkpt lat="47.30728" lon="-2.39">
        <ele>40</ele>
        <time>2021-02-28T10:44:02.000Z</time>
      </trkpt>
      <trkpt lat="47.30722" lon="-2.38997">
        <ele>40.799999237061</ele>
        <time>2021-02-28T10:44:03.000Z</time>
      </trkpt>
      <trkpt lat="47.30717" lon="-2.38992">
        <ele>41.400001525879</ele>
        <time>2021-02-28T10:44:04.000Z</time>
      </trkpt>
      <trkpt lat="47.30713" lon="-2.38986">
        <ele>42</ele>
        <time>2021-02-28T10:44:05.000Z</time>
      </trkpt>
      <trkpt lat="47.30709" lon="-2.38979">
        <ele>42.599998474121</ele>
        <time>2021-02-28T10:44:06.000Z</time>
      </trkpt>
      <trkpt lat="47.30705" lon="-2.38972">
        <ele>43.400001525879</ele>
        <time>2021-02-28T10:44:07.000Z</time>
      </trkpt>
      <trkpt lat="47.307" lon="-2.38965">
        <ele>44</ele>
        <time>2021-02-28T10:44:08.000Z</time>
      </trkpt>
      <trkpt lat="47.30696" lon="-2.38958">
        <ele>44.599998474121</ele>
        <time>2021-02-28T10:44:09.000Z</time>
      </trkpt>
      <trkpt lat="47.30692" lon="-2.38931">
        <ele>44.599998474121</ele>
        <time>2021-02-28T10:44:12.000Z</time>
      </trkpt>
      <trkpt lat="47.30692" lon="-2.38924">
        <ele>44.599998474121</ele>
        <time>2021-02-28T10:44:13.000Z</time>
      </trkpt>
      <trkpt lat="47.30692" lon="-2.38917">
        <ele>44.599998474121</ele>
        <time>2021-02-28T10:44:14.000Z</time>
      </trkpt>
      <trkpt lat="47.30685" lon="-2.3891">
        <ele>44.599998474121</ele>
        <time>2021-02-28T10:44:16.000Z</time>
      </trkpt>
      <trkpt lat="47.30674" lon="-2.38917">
        <ele>44.599998474121</ele>
        <time>2021-02-28T10:44:19.000Z</time>
      </trkpt>
      <trkpt lat="47.30662" lon="-2.38929">
        <ele>44.599998474121</ele>
        <time>2021-02-28T10:44:22.000Z</time>
      </trkpt>
      <trkpt lat="47.30658" lon="-2.38932">
        <ele>44.599998474121</ele>
        <time>2021-02-28T10:44:23.000Z</time>
      </trkpt>
      <trkpt lat="47.30653" lon="-2.38936">
        <ele>44.599998474121</ele>
        <time>2021-02-28T10:44:24.000Z</time>
      </trkpt>
      <trkpt lat="47.30636" lon="-2.38952">
        <ele>44.599998474121</ele>
        <time>2021-02-28T10:44:28.000Z</time>
      </trkpt>
      <trkpt lat="47.30627" lon="-2.38959">
        <ele>44.599998474121</ele>
        <time>2021-02-28T10:44:30.000Z</time>
      </trkpt>
      <trkpt lat="47.3059" lon="-2.38997">
        <ele>44.599998474121</ele>
        <time>2021-02-28T10:44:38.000Z</time>
      </trkpt>
      <trkpt lat="47.30581" lon="-2.3901">
        <ele>44.200000762939</ele>
        <time>2021-02-28T10:44:40.000Z</time>
      </trkpt>
      <trkpt lat="47.30577" lon="-2.39016">
        <ele>43.799999237061</ele>
        <time>2021-02-28T10:44:41.000Z</time>
      </trkpt>
      <trkpt lat="47.30572" lon="-2.39022">
        <ele>43.400001525879</ele>
        <time>2021-02-28T10:44:42.000Z</time>
      </trkpt>
      <trkpt lat="47.30568" lon="-2.39028">
        <ele>43</ele>
        <time>2021-02-28T10:44:43.000Z</time>
      </trkpt>
      <trkpt lat="47.30563" lon="-2.39034">
        <ele>42.599998474121</ele>
        <time>2021-02-28T10:44:44.000Z</time>
      </trkpt>
      <trkpt lat="47.30534" lon="-2.39066">
        <ele>42.200000762939</ele>
        <time>2021-02-28T10:44:50.000Z</time>
      </trkpt>
      <trkpt lat="47.30528" lon="-2.39071">
        <ele>41.599998474121</ele>
        <time>2021-02-28T10:44:51.000Z</time>
      </trkpt>
      <trkpt lat="47.30523" lon="-2.39076">
        <ele>40.799999237061</ele>
        <time>2021-02-28T10:44:52.000Z</time>
      </trkpt>
      <trkpt lat="47.30518" lon="-2.39081">
        <ele>40.400001525879</ele>
        <time>2021-02-28T10:44:53.000Z</time>
      </trkpt>
      <trkpt lat="47.30496" lon="-2.39102">
        <ele>40.400001525879</ele>
        <time>2021-02-28T10:44:57.000Z</time>
      </trkpt>
      <trkpt lat="47.30457" lon="-2.39144">
        <ele>40.400001525879</ele>
        <time>2021-02-28T10:45:04.000Z</time>
      </trkpt>
      <trkpt lat="47.30451" lon="-2.39151">
        <ele>40</ele>
        <time>2021-02-28T10:45:05.000Z</time>
      </trkpt>
      <trkpt lat="47.30446" lon="-2.39157">
        <ele>39.599998474121</ele>
        <time>2021-02-28T10:45:06.000Z</time>
      </trkpt>
      <trkpt lat="47.3044" lon="-2.39164">
        <ele>39.200000762939</ele>
        <time>2021-02-28T10:45:07.000Z</time>
      </trkpt>
      <trkpt lat="47.30434" lon="-2.39169">
        <ele>38.799999237061</ele>
        <time>2021-02-28T10:45:08.000Z</time>
      </trkpt>
      <trkpt lat="47.30427" lon="-2.39173">
        <ele>38.400001525879</ele>
        <time>2021-02-28T10:45:09.000Z</time>
      </trkpt>
      <trkpt lat="47.30419" lon="-2.39176">
        <ele>38.400001525879</ele>
        <time>2021-02-28T10:45:10.000Z</time>
      </trkpt>
      <trkpt lat="47.30396" lon="-2.39172">
        <ele>38.400001525879</ele>
        <time>2021-02-28T10:45:13.000Z</time>
      </trkpt>
      <trkpt lat="47.30378" lon="-2.39154">
        <ele>38.400001525879</ele>
        <time>2021-02-28T10:45:16.000Z</time>
      </trkpt>
      <trkpt lat="47.30373" lon="-2.39146">
        <ele>37.400001525879</ele>
        <time>2021-02-28T10:45:17.000Z</time>
      </trkpt>
      <trkpt lat="47.3037" lon="-2.39138">
        <ele>37</ele>
        <time>2021-02-28T10:45:18.000Z</time>
      </trkpt>
      <trkpt lat="47.30367" lon="-2.39129">
        <ele>36.400001525879</ele>
        <time>2021-02-28T10:45:19.000Z</time>
      </trkpt>
      <trkpt lat="47.30364" lon="-2.3912">
        <ele>36</ele>
        <time>2021-02-28T10:45:20.000Z</time>
      </trkpt>
      <trkpt lat="47.30352" lon="-2.39069">
        <ele>36</ele>
        <time>2021-02-28T10:45:26.000Z</time>
      </trkpt>
      <trkpt lat="47.30347" lon="-2.39044">
        <ele>36.400001525879</ele>
        <time>2021-02-28T10:45:29.000Z</time>
      </trkpt>
      <trkpt lat="47.30345" lon="-2.39037">
        <ele>36.799999237061</ele>
        <time>2021-02-28T10:45:30.000Z</time>
      </trkpt>
      <trkpt lat="47.30343" lon="-2.39029">
        <ele>37.200000762939</ele>
        <time>2021-02-28T10:45:31.000Z</time>
      </trkpt>
      <trkpt lat="47.30341" lon="-2.39022">
        <ele>37.599998474121</ele>
        <time>2021-02-28T10:45:32.000Z</time>
      </trkpt>
      <trkpt lat="47.30339" lon="-2.39013">
        <ele>38</ele>
        <time>2021-02-28T10:45:33.000Z</time>
      </trkpt>
      <trkpt lat="47.30321" lon="-2.38967">
        <ele>38</ele>
        <time>2021-02-28T10:45:39.000Z</time>
      </trkpt>
      <trkpt lat="47.30311" lon="-2.38954">
        <ele>37.599998474121</ele>
        <time>2021-02-28T10:45:41.000Z</time>
      </trkpt>
      <trkpt lat="47.30306" lon="-2.38947">
        <ele>36.599998474121</ele>
        <time>2021-02-28T10:45:42.000Z</time>
      </trkpt>
      <trkpt lat="47.30303" lon="-2.38938">
        <ele>36</ele>
        <time>2021-02-28T10:45:43.000Z</time>
      </trkpt>
      <trkpt lat="47.30299" lon="-2.3893">
        <ele>35.599998474121</ele>
        <time>2021-02-28T10:45:44.000Z</time>
      </trkpt>
      <trkpt lat="47.3028" lon="-2.3888">
        <ele>35.599998474121</ele>
        <time>2021-02-28T10:45:50.000Z</time>
      </trkpt>
      <trkpt lat="47.30255" lon="-2.3882">
        <ele>35.599998474121</ele>
        <time>2021-02-28T10:45:58.000Z</time>
      </trkpt>
      <trkpt lat="47.30242" lon="-2.38798">
        <ele>35</ele>
        <time>2021-02-28T10:46:01.000Z</time>
      </trkpt>
      <trkpt lat="47.30236" lon="-2.38791">
        <ele>34.599998474121</ele>
        <time>2021-02-28T10:46:02.000Z</time>
      </trkpt>
      <trkpt lat="47.3023" lon="-2.38785">
        <ele>34</ele>
        <time>2021-02-28T10:46:03.000Z</time>
      </trkpt>
      <trkpt lat="47.30223" lon="-2.38778">
        <ele>33.599998474121</ele>
        <time>2021-02-28T10:46:04.000Z</time>
      </trkpt>
      <trkpt lat="47.30217" lon="-2.38772">
        <ele>32.799999237061</ele>
        <time>2021-02-28T10:46:05.000Z</time>
      </trkpt>
      <trkpt lat="47.3021" lon="-2.38768">
        <ele>31.60000038147</ele>
        <time>2021-02-28T10:46:06.000Z</time>
      </trkpt>
      <trkpt lat="47.30203" lon="-2.38766">
        <ele>30.799999237061</ele>
        <time>2021-02-28T10:46:07.000Z</time>
      </trkpt>
      <trkpt lat="47.30195" lon="-2.38768">
        <ele>30</ele>
        <time>2021-02-28T10:46:08.000Z</time>
      </trkpt>
      <trkpt lat="47.30188" lon="-2.38773">
        <ele>29.200000762939</ele>
        <time>2021-02-28T10:46:09.000Z</time>
      </trkpt>
      <trkpt lat="47.30182" lon="-2.38778">
        <ele>28.60000038147</ele>
        <time>2021-02-28T10:46:10.000Z</time>
      </trkpt>
      <trkpt lat="47.30176" lon="-2.38785">
        <ele>27.799999237061</ele>
        <time>2021-02-28T10:46:11.000Z</time>
      </trkpt>
      <trkpt lat="47.30169" lon="-2.38795">
        <ele>27</ele>
        <time>2021-02-28T10:46:12.000Z</time>
      </trkpt>
      <trkpt lat="47.30162" lon="-2.38804">
        <ele>26.200000762939</ele>
        <time>2021-02-28T10:46:13.000Z</time>
      </trkpt>
      <trkpt lat="47.30156" lon="-2.38815">
        <ele>25.60000038147</ele>
        <time>2021-02-28T10:46:14.000Z</time>
      </trkpt>
      <trkpt lat="47.30149" lon="-2.38826">
        <ele>25</ele>
        <time>2021-02-28T10:46:15.000Z</time>
      </trkpt>
      <trkpt lat="47.30143" lon="-2.38838">
        <ele>24.39999961853</ele>
        <time>2021-02-28T10:46:16.000Z</time>
      </trkpt>
      <trkpt lat="47.30138" lon="-2.3885">
        <ele>23.799999237061</ele>
        <time>2021-02-28T10:46:17.000Z</time>
      </trkpt>
      <trkpt lat="47.30131" lon="-2.38861">
        <ele>23.200000762939</ele>
        <time>2021-02-28T10:46:18.000Z</time>
      </trkpt>
      <trkpt lat="47.30125" lon="-2.38872">
        <ele>23.200000762939</ele>
        <time>2021-02-28T10:46:19.000Z</time>
      </trkpt>
      <trkpt lat="47.30107" lon="-2.38902">
        <ele>22.60000038147</ele>
        <time>2021-02-28T10:46:22.000Z</time>
      </trkpt>
      <trkpt lat="47.301" lon="-2.38911">
        <ele>22.200000762939</ele>
        <time>2021-02-28T10:46:23.000Z</time>
      </trkpt>
      <trkpt lat="47.30093" lon="-2.38918">
        <ele>21.200000762939</ele>
        <time>2021-02-28T10:46:24.000Z</time>
      </trkpt>
      <trkpt lat="47.30085" lon="-2.38924">
        <ele>20.39999961853</ele>
        <time>2021-02-28T10:46:25.000Z</time>
      </trkpt>
      <trkpt lat="47.30077" lon="-2.38931">
        <ele>19.39999961853</ele>
        <time>2021-02-28T10:46:26.000Z</time>
      </trkpt>
      <trkpt lat="47.30069" lon="-2.38937">
        <ele>18.39999961853</ele>
        <time>2021-02-28T10:46:27.000Z</time>
      </trkpt>
      <trkpt lat="47.30062" lon="-2.38942">
        <ele>17.60000038147</ele>
        <time>2021-02-28T10:46:28.000Z</time>
      </trkpt>
      <trkpt lat="47.30049" lon="-2.38955">
        <ele>17</ele>
        <time>2021-02-28T10:46:30.000Z</time>
      </trkpt>
      <trkpt lat="47.30043" lon="-2.3896">
        <ele>16</ele>
        <time>2021-02-28T10:46:31.000Z</time>
      </trkpt>
      <trkpt lat="47.30038" lon="-2.38966">
        <ele>15.39999961853</ele>
        <time>2021-02-28T10:46:32.000Z</time>
      </trkpt>
      <trkpt lat="47.30032" lon="-2.3897">
        <ele>15</ele>
        <time>2021-02-28T10:46:33.000Z</time>
      </trkpt>
      <trkpt lat="47.30026" lon="-2.38971">
        <ele>14.39999961853</ele>
        <time>2021-02-28T10:46:34.000Z</time>
      </trkpt>
      <trkpt lat="47.3002" lon="-2.38968">
        <ele>14</ele>
        <time>2021-02-28T10:46:35.000Z</time>
      </trkpt>
      <trkpt lat="47.30015" lon="-2.38966">
        <ele>13.39999961853</ele>
        <time>2021-02-28T10:46:36.000Z</time>
      </trkpt>
      <trkpt lat="47.3001" lon="-2.38966">
        <ele>13</ele>
        <time>2021-02-28T10:46:37.000Z</time>
      </trkpt>
      <trkpt lat="47.30006" lon="-2.38966">
        <ele>12.39999961853</ele>
        <time>2021-02-28T10:46:38.000Z</time>
      </trkpt>
      <trkpt lat="47.30003" lon="-2.38961">
        <ele>12.39999961853</ele>
        <time>2021-02-28T10:46:39.000Z</time>
      </trkpt>
      <trkpt lat="47.3" lon="-2.38941">
        <ele>12.39999961853</ele>
        <time>2021-02-28T10:46:42.000Z</time>
      </trkpt>
      <trkpt lat="47.3" lon="-2.38934">
        <ele>12.39999961853</ele>
        <time>2021-02-28T10:46:43.000Z</time>
      </trkpt>
      <trkpt lat="47.30001" lon="-2.38927">
        <ele>12.39999961853</ele>
        <time>2021-02-28T10:46:44.000Z</time>
      </trkpt>
      <trkpt lat="47.30001" lon="-2.38912">
        <ele>12.39999961853</ele>
        <time>2021-02-28T10:46:46.000Z</time>
      </trkpt>
      <trkpt lat="47.30001" lon="-2.38905">
        <ele>12.39999961853</ele>
        <time>2021-02-28T10:46:47.000Z</time>
      </trkpt>
      <trkpt lat="47.30003" lon="-2.38862">
        <ele>12.800000190735</ele>
        <time>2021-02-28T10:46:53.000Z</time>
      </trkpt>
      <trkpt lat="47.30003" lon="-2.38855">
        <ele>13.199999809265</ele>
        <time>2021-02-28T10:46:54.000Z</time>
      </trkpt>
      <trkpt lat="47.30003" lon="-2.38848">
        <ele>14</ele>
        <time>2021-02-28T10:46:55.000Z</time>
      </trkpt>
      <trkpt lat="47.30004" lon="-2.3884">
        <ele>14.39999961853</ele>
        <time>2021-02-28T10:46:56.000Z</time>
      </trkpt>
      <trkpt lat="47.30007" lon="-2.38804">
        <ele>15</ele>
        <time>2021-02-28T10:47:01.000Z</time>
      </trkpt>
      <trkpt lat="47.30008" lon="-2.38797">
        <ele>15.39999961853</ele>
        <time>2021-02-28T10:47:02.000Z</time>
      </trkpt>
      <trkpt lat="47.30009" lon="-2.3879">
        <ele>15.800000190735</ele>
        <time>2021-02-28T10:47:03.000Z</time>
      </trkpt>
      <trkpt lat="47.3001" lon="-2.38783">
        <ele>16.200000762939</ele>
        <time>2021-02-28T10:47:04.000Z</time>
      </trkpt>
      <trkpt lat="47.30011" lon="-2.38776">
        <ele>16.799999237061</ele>
        <time>2021-02-28T10:47:05.000Z</time>
      </trkpt>
      <trkpt lat="47.30013" lon="-2.38765">
        <ele>16.799999237061</ele>
        <time>2021-02-28T10:47:07.000Z</time>
      </trkpt>
      <trkpt lat="47.30016" lon="-2.38744">
        <ele>17.200000762939</ele>
        <time>2021-02-28T10:47:11.000Z</time>
      </trkpt>
      <trkpt lat="47.30017" lon="-2.38739">
        <ele>17.60000038147</ele>
        <time>2021-02-28T10:47:12.000Z</time>
      </trkpt>
      <trkpt lat="47.30018" lon="-2.38734">
        <ele>18</ele>
        <time>2021-02-28T10:47:13.000Z</time>
      </trkpt>
      <trkpt lat="47.30018" lon="-2.38728">
        <ele>18.39999961853</ele>
        <time>2021-02-28T10:47:14.000Z</time>
      </trkpt>
      <trkpt lat="47.30019" lon="-2.38723">
        <ele>19</ele>
        <time>2021-02-28T10:47:15.000Z</time>
      </trkpt>
      <trkpt lat="47.30021" lon="-2.38706">
        <ele>19.39999961853</ele>
        <time>2021-02-28T10:47:18.000Z</time>
      </trkpt>
      <trkpt lat="47.30022" lon="-2.387">
        <ele>20.200000762939</ele>
        <time>2021-02-28T10:47:19.000Z</time>
      </trkpt>
      <trkpt lat="47.30023" lon="-2.38695">
        <ele>20.60000038147</ele>
        <time>2021-02-28T10:47:20.000Z</time>
      </trkpt>
      <trkpt lat="47.30023" lon="-2.38689">
        <ele>21</ele>
        <time>2021-02-28T10:47:21.000Z</time>
      </trkpt>
      <trkpt lat="47.30023" lon="-2.38667">
        <ele>21</ele>
        <time>2021-02-28T10:47:25.000Z</time>
      </trkpt>
      <trkpt lat="47.30021" lon="-2.38642">
        <ele>21.39999961853</ele>
        <time>2021-02-28T10:47:30.000Z</time>
      </trkpt>
      <trkpt lat="47.30021" lon="-2.38637">
        <ele>21.799999237061</ele>
        <time>2021-02-28T10:47:31.000Z</time>
      </trkpt>
      <trkpt lat="47.3002" lon="-2.38632">
        <ele>22.200000762939</ele>
        <time>2021-02-28T10:47:32.000Z</time>
      </trkpt>
      <trkpt lat="47.3002" lon="-2.38628">
        <ele>22.60000038147</ele>
        <time>2021-02-28T10:47:33.000Z</time>
      </trkpt>
      <trkpt lat="47.30019" lon="-2.38623">
        <ele>23</ele>
        <time>2021-02-28T10:47:34.000Z</time>
      </trkpt>
      <trkpt lat="47.30021" lon="-2.38603">
        <ele>23</ele>
        <time>2021-02-28T10:47:38.000Z</time>
      </trkpt>
      <trkpt lat="47.30019" lon="-2.38579">
        <ele>23.39999961853</ele>
        <time>2021-02-28T10:47:43.000Z</time>
      </trkpt>
      <trkpt lat="47.30019" lon="-2.38573">
        <ele>24.39999961853</ele>
        <time>2021-02-28T10:47:44.000Z</time>
      </trkpt>
      <trkpt lat="47.30018" lon="-2.38568">
        <ele>24.799999237061</ele>
        <time>2021-02-28T10:47:45.000Z</time>
      </trkpt>
      <trkpt lat="47.30018" lon="-2.38563">
        <ele>25.200000762939</ele>
        <time>2021-02-28T10:47:46.000Z</time>
      </trkpt>
      <trkpt lat="47.30017" lon="-2.38558">
        <ele>25.60000038147</ele>
        <time>2021-02-28T10:47:47.000Z</time>
      </trkpt>
      <trkpt lat="47.30017" lon="-2.38553">
        <ele>26</ele>
        <time>2021-02-28T10:47:48.000Z</time>
      </trkpt>
      <trkpt lat="47.30016" lon="-2.38548">
        <ele>26.39999961853</ele>
        <time>2021-02-28T10:47:49.000Z</time>
      </trkpt>
      <trkpt lat="47.30015" lon="-2.38543">
        <ele>26.799999237061</ele>
        <time>2021-02-28T10:47:50.000Z</time>
      </trkpt>
      <trkpt lat="47.30014" lon="-2.38539">
        <ele>27.200000762939</ele>
        <time>2021-02-28T10:47:51.000Z</time>
      </trkpt>
      <trkpt lat="47.30014" lon="-2.38534">
        <ele>27.200000762939</ele>
        <time>2021-02-28T10:47:52.000Z</time>
      </trkpt>
      <trkpt lat="47.3001" lon="-2.38514">
        <ele>27.60000038147</ele>
        <time>2021-02-28T10:47:56.000Z</time>
      </trkpt>
      <trkpt lat="47.30009" lon="-2.38509">
        <ele>28.200000762939</ele>
        <time>2021-02-28T10:47:57.000Z</time>
      </trkpt>
      <trkpt lat="47.30008" lon="-2.38504">
        <ele>28.60000038147</ele>
        <time>2021-02-28T10:47:58.000Z</time>
      </trkpt>
      <trkpt lat="47.30007" lon="-2.38499">
        <ele>29</ele>
        <time>2021-02-28T10:47:59.000Z</time>
      </trkpt>
      <trkpt lat="47.30007" lon="-2.38494">
        <ele>29.39999961853</ele>
        <time>2021-02-28T10:48:00.000Z</time>
      </trkpt>
      <trkpt lat="47.30004" lon="-2.38474">
        <ele>29.799999237061</ele>
        <time>2021-02-28T10:48:04.000Z</time>
      </trkpt>
      <trkpt lat="47.30003" lon="-2.38468">
        <ele>30.200000762939</ele>
        <time>2021-02-28T10:48:05.000Z</time>
      </trkpt>
      <trkpt lat="47.30003" lon="-2.38463">
        <ele>30.60000038147</ele>
        <time>2021-02-28T10:48:06.000Z</time>
      </trkpt>
      <trkpt lat="47.30002" lon="-2.38457">
        <ele>31</ele>
        <time>2021-02-28T10:48:07.000Z</time>
      </trkpt>
      <trkpt lat="47.30002" lon="-2.38452">
        <ele>31.39999961853</ele>
        <time>2021-02-28T10:48:08.000Z</time>
      </trkpt>
      <trkpt lat="47.29998" lon="-2.38421">
        <ele>31.39999961853</ele>
        <time>2021-02-28T10:48:13.000Z</time>
      </trkpt>
      <trkpt lat="47.29994" lon="-2.38383">
        <ele>31.39999961853</ele>
        <time>2021-02-28T10:48:19.000Z</time>
      </trkpt>
      <trkpt lat="47.29992" lon="-2.38324">
        <ele>31.39999961853</ele>
        <time>2021-02-28T10:48:28.000Z</time>
      </trkpt>
      <trkpt lat="47.29991" lon="-2.38259">
        <ele>31.39999961853</ele>
        <time>2021-02-28T10:48:37.000Z</time>
      </trkpt>
      <trkpt lat="47.29988" lon="-2.38191">
        <ele>31.39999961853</ele>
        <time>2021-02-28T10:48:46.000Z</time>
      </trkpt>
      <trkpt lat="47.29985" lon="-2.38151">
        <ele>31</ele>
        <time>2021-02-28T10:48:51.000Z</time>
      </trkpt>
      <trkpt lat="47.29985" lon="-2.38143">
        <ele>30.60000038147</ele>
        <time>2021-02-28T10:48:52.000Z</time>
      </trkpt>
      <trkpt lat="47.29984" lon="-2.38134">
        <ele>30.200000762939</ele>
        <time>2021-02-28T10:48:53.000Z</time>
      </trkpt>
      <trkpt lat="47.29983" lon="-2.38126">
        <ele>29.799999237061</ele>
        <time>2021-02-28T10:48:54.000Z</time>
      </trkpt>
      <trkpt lat="47.29983" lon="-2.38117">
        <ele>29.39999961853</ele>
        <time>2021-02-28T10:48:55.000Z</time>
      </trkpt>
      <trkpt lat="47.29983" lon="-2.38088">
        <ele>28.60000038147</ele>
        <time>2021-02-28T10:48:58.000Z</time>
      </trkpt>
      <trkpt lat="47.29983" lon="-2.38078">
        <ele>28.200000762939</ele>
        <time>2021-02-28T10:48:59.000Z</time>
      </trkpt>
      <trkpt lat="47.29983" lon="-2.38067">
        <ele>27.799999237061</ele>
        <time>2021-02-28T10:49:00.000Z</time>
      </trkpt>
      <trkpt lat="47.29983" lon="-2.38057">
        <ele>27.39999961853</ele>
        <time>2021-02-28T10:49:01.000Z</time>
      </trkpt>
      <trkpt lat="47.29984" lon="-2.38013">
        <ele>27</ele>
        <time>2021-02-28T10:49:05.000Z</time>
      </trkpt>
      <trkpt lat="47.29984" lon="-2.38003">
        <ele>26.60000038147</ele>
        <time>2021-02-28T10:49:06.000Z</time>
      </trkpt>
      <trkpt lat="47.29985" lon="-2.37993">
        <ele>26.200000762939</ele>
        <time>2021-02-28T10:49:07.000Z</time>
      </trkpt>
      <trkpt lat="47.29985" lon="-2.37984">
        <ele>25.799999237061</ele>
        <time>2021-02-28T10:49:08.000Z</time>
      </trkpt>
      <trkpt lat="47.29986" lon="-2.37976">
        <ele>25.200000762939</ele>
        <time>2021-02-28T10:49:09.000Z</time>
      </trkpt>
      <trkpt lat="47.29985" lon="-2.37959">
        <ele>25.200000762939</ele>
        <time>2021-02-28T10:49:11.000Z</time>
      </trkpt>
      <trkpt lat="47.29981" lon="-2.37943">
        <ele>25.200000762939</ele>
        <time>2021-02-28T10:49:13.000Z</time>
      </trkpt>
      <trkpt lat="47.29967" lon="-2.37926">
        <ele>25.200000762939</ele>
        <time>2021-02-28T10:49:16.000Z</time>
      </trkpt>
      <trkpt lat="47.29962" lon="-2.3792">
        <ele>25.200000762939</ele>
        <time>2021-02-28T10:49:17.000Z</time>
      </trkpt>
      <trkpt lat="47.29926" lon="-2.37878">
        <ele>25.200000762939</ele>
        <time>2021-02-28T10:49:25.000Z</time>
      </trkpt>
      <trkpt lat="47.299" lon="-2.37845">
        <ele>25.200000762939</ele>
        <time>2021-02-28T10:49:32.000Z</time>
      </trkpt>
      <trkpt lat="47.29896" lon="-2.37842">
        <ele>25.200000762939</ele>
        <time>2021-02-28T10:49:33.000Z</time>
      </trkpt>
      <trkpt lat="47.29892" lon="-2.37839">
        <ele>25.799999237061</ele>
        <time>2021-02-28T10:49:34.000Z</time>
      </trkpt>
      <trkpt lat="47.29889" lon="-2.37835">
        <ele>26.39999961853</ele>
        <time>2021-02-28T10:49:35.000Z</time>
      </trkpt>
      <trkpt lat="47.29886" lon="-2.37831">
        <ele>26.799999237061</ele>
        <time>2021-02-28T10:49:36.000Z</time>
      </trkpt>
      <trkpt lat="47.29883" lon="-2.37828">
        <ele>27.39999961853</ele>
        <time>2021-02-28T10:49:37.000Z</time>
      </trkpt>
      <trkpt lat="47.29879" lon="-2.37824">
        <ele>27.799999237061</ele>
        <time>2021-02-28T10:49:38.000Z</time>
      </trkpt>
      <trkpt lat="47.29874" lon="-2.37818">
        <ele>28.39999961853</ele>
        <time>2021-02-28T10:49:40.000Z</time>
      </trkpt>
      <trkpt lat="47.29872" lon="-2.37815">
        <ele>28.799999237061</ele>
        <time>2021-02-28T10:49:41.000Z</time>
      </trkpt>
      <trkpt lat="47.29868" lon="-2.37814">
        <ele>29.200000762939</ele>
        <time>2021-02-28T10:49:42.000Z</time>
      </trkpt>
      <trkpt lat="47.29865" lon="-2.37817">
        <ele>29.60000038147</ele>
        <time>2021-02-28T10:49:43.000Z</time>
      </trkpt>
      <trkpt lat="47.29862" lon="-2.37822">
        <ele>30.200000762939</ele>
        <time>2021-02-28T10:49:44.000Z</time>
      </trkpt>
      <trkpt lat="47.29859" lon="-2.37833">
        <ele>30.200000762939</ele>
        <time>2021-02-28T10:49:46.000Z</time>
      </trkpt>
      <trkpt lat="47.2985" lon="-2.37855">
        <ele>30.200000762939</ele>
        <time>2021-02-28T10:49:50.000Z</time>
      </trkpt>
      <trkpt lat="47.29842" lon="-2.37871">
        <ele>30.200000762939</ele>
        <time>2021-02-28T10:49:53.000Z</time>
      </trkpt>
      <trkpt lat="47.29828" lon="-2.37886">
        <ele>30.200000762939</ele>
        <time>2021-02-28T10:49:57.000Z</time>
      </trkpt>
      <trkpt lat="47.29824" lon="-2.37888">
        <ele>30.200000762939</ele>
        <time>2021-02-28T10:49:58.000Z</time>
      </trkpt>
      <trkpt lat="47.29821" lon="-2.37891">
        <ele>30.60000038147</ele>
        <time>2021-02-28T10:49:59.000Z</time>
      </trkpt>
      <trkpt lat="47.29816" lon="-2.37894">
        <ele>31</ele>
        <time>2021-02-28T10:50:00.000Z</time>
      </trkpt>
      <trkpt lat="47.29813" lon="-2.37897">
        <ele>31.39999961853</ele>
        <time>2021-02-28T10:50:01.000Z</time>
      </trkpt>
      <trkpt lat="47.29809" lon="-2.37899">
        <ele>31.799999237061</ele>
        <time>2021-02-28T10:50:02.000Z</time>
      </trkpt>
      <trkpt lat="47.29804" lon="-2.37901">
        <ele>32.200000762939</ele>
        <time>2021-02-28T10:50:03.000Z</time>
      </trkpt>
      <trkpt lat="47.29791" lon="-2.37907">
        <ele>32.200000762939</ele>
        <time>2021-02-28T10:50:06.000Z</time>
      </trkpt>
      <trkpt lat="47.29765" lon="-2.37926">
        <ele>32.200000762939</ele>
        <time>2021-02-28T10:50:12.000Z</time>
      </trkpt>
      <trkpt lat="47.29743" lon="-2.37954">
        <ele>32.200000762939</ele>
        <time>2021-02-28T10:50:17.000Z</time>
      </trkpt>
      <trkpt lat="47.29735" lon="-2.37975">
        <ele>31.799999237061</ele>
        <time>2021-02-28T10:50:20.000Z</time>
      </trkpt>
      <trkpt lat="47.29733" lon="-2.37981">
        <ele>31.39999961853</ele>
        <time>2021-02-28T10:50:21.000Z</time>
      </trkpt>
      <trkpt lat="47.2973" lon="-2.37987">
        <ele>30.799999237061</ele>
        <time>2021-02-28T10:50:22.000Z</time>
      </trkpt>
      <trkpt lat="47.29729" lon="-2.37994">
        <ele>30.200000762939</ele>
        <time>2021-02-28T10:50:23.000Z</time>
      </trkpt>
      <trkpt lat="47.29729" lon="-2.38003">
        <ele>29.60000038147</ele>
        <time>2021-02-28T10:50:24.000Z</time>
      </trkpt>
      <trkpt lat="47.2973" lon="-2.3801">
        <ele>29</ele>
        <time>2021-02-28T10:50:25.000Z</time>
      </trkpt>
      <trkpt lat="47.29732" lon="-2.38018">
        <ele>28.200000762939</ele>
        <time>2021-02-28T10:50:26.000Z</time>
      </trkpt>
      <trkpt lat="47.29733" lon="-2.38025">
        <ele>27.39999961853</ele>
        <time>2021-02-28T10:50:27.000Z</time>
      </trkpt>
      <trkpt lat="47.29733" lon="-2.38032">
        <ele>26.60000038147</ele>
        <time>2021-02-28T10:50:28.000Z</time>
      </trkpt>
      <trkpt lat="47.29731" lon="-2.38037">
        <ele>25.799999237061</ele>
        <time>2021-02-28T10:50:29.000Z</time>
      </trkpt>
      <trkpt lat="47.29727" lon="-2.38042">
        <ele>25</ele>
        <time>2021-02-28T10:50:30.000Z</time>
      </trkpt>
      <trkpt lat="47.29722" lon="-2.38046">
        <ele>24.200000762939</ele>
        <time>2021-02-28T10:50:31.000Z</time>
      </trkpt>
      <trkpt lat="47.29715" lon="-2.38051">
        <ele>23.39999961853</ele>
        <time>2021-02-28T10:50:32.000Z</time>
      </trkpt>
      <trkpt lat="47.29709" lon="-2.38057">
        <ele>22.60000038147</ele>
        <time>2021-02-28T10:50:33.000Z</time>
      </trkpt>
      <trkpt lat="47.29702" lon="-2.38063">
        <ele>21.799999237061</ele>
        <time>2021-02-28T10:50:34.000Z</time>
      </trkpt>
      <trkpt lat="47.29695" lon="-2.3807">
        <ele>20.60000038147</ele>
        <time>2021-02-28T10:50:35.000Z</time>
      </trkpt>
      <trkpt lat="47.29687" lon="-2.38076">
        <ele>20.200000762939</ele>
        <time>2021-02-28T10:50:36.000Z</time>
      </trkpt>
      <trkpt lat="47.29678" lon="-2.38081">
        <ele>19.39999961853</ele>
        <time>2021-02-28T10:50:37.000Z</time>
      </trkpt>
      <trkpt lat="47.29669" lon="-2.38087">
        <ele>18.60000038147</ele>
        <time>2021-02-28T10:50:38.000Z</time>
      </trkpt>
      <trkpt lat="47.29659" lon="-2.38092">
        <ele>17.799999237061</ele>
        <time>2021-02-28T10:50:39.000Z</time>
      </trkpt>
      <trkpt lat="47.2965" lon="-2.38096">
        <ele>17</ele>
        <time>2021-02-28T10:50:40.000Z</time>
      </trkpt>
      <trkpt lat="47.29642" lon="-2.38101">
        <ele>16.200000762939</ele>
        <time>2021-02-28T10:50:41.000Z</time>
      </trkpt>
      <trkpt lat="47.29633" lon="-2.38105">
        <ele>15.199999809265</ele>
        <time>2021-02-28T10:50:42.000Z</time>
      </trkpt>
      <trkpt lat="47.29625" lon="-2.38109">
        <ele>14.39999961853</ele>
        <time>2021-02-28T10:50:43.000Z</time>
      </trkpt>
      <trkpt lat="47.29616" lon="-2.38112">
        <ele>14</ele>
        <time>2021-02-28T10:50:44.000Z</time>
      </trkpt>
      <trkpt lat="47.29608" lon="-2.38114">
        <ele>13.60000038147</ele>
        <time>2021-02-28T10:50:45.000Z</time>
      </trkpt>
      <trkpt lat="47.29599" lon="-2.38116">
        <ele>13.199999809265</ele>
        <time>2021-02-28T10:50:46.000Z</time>
      </trkpt>
      <trkpt lat="47.29591" lon="-2.38118">
        <ele>12.800000190735</ele>
        <time>2021-02-28T10:50:47.000Z</time>
      </trkpt>
      <trkpt lat="47.29583" lon="-2.3812">
        <ele>12.39999961853</ele>
        <time>2021-02-28T10:50:48.000Z</time>
      </trkpt>
      <trkpt lat="47.29574" lon="-2.38122">
        <ele>12</ele>
        <time>2021-02-28T10:50:49.000Z</time>
      </trkpt>
      <trkpt lat="47.29565" lon="-2.38124">
        <ele>11.60000038147</ele>
        <time>2021-02-28T10:50:50.000Z</time>
      </trkpt>
      <trkpt lat="47.29557" lon="-2.38125">
        <ele>11.199999809265</ele>
        <time>2021-02-28T10:50:51.000Z</time>
      </trkpt>
      <trkpt lat="47.29548" lon="-2.38126">
        <ele>10.60000038147</ele>
        <time>2021-02-28T10:50:52.000Z</time>
      </trkpt>
      <trkpt lat="47.29539" lon="-2.38126">
        <ele>10.199999809265</ele>
        <time>2021-02-28T10:50:53.000Z</time>
      </trkpt>
      <trkpt lat="47.2953" lon="-2.38126">
        <ele>9.8000001907349</ele>
        <time>2021-02-28T10:50:54.000Z</time>
      </trkpt>
      <trkpt lat="47.29522" lon="-2.38125">
        <ele>9.1999998092651</ele>
        <time>2021-02-28T10:50:55.000Z</time>
      </trkpt>
      <trkpt lat="47.29513" lon="-2.38124">
        <ele>8.8000001907349</ele>
        <time>2021-02-28T10:50:56.000Z</time>
      </trkpt>
      <trkpt lat="47.29504" lon="-2.38122">
        <ele>8.1999998092651</ele>
        <time>2021-02-28T10:50:57.000Z</time>
      </trkpt>
      <trkpt lat="47.29496" lon="-2.38121">
        <ele>7.8000001907349</ele>
        <time>2021-02-28T10:50:58.000Z</time>
      </trkpt>
      <trkpt lat="47.29488" lon="-2.38124">
        <ele>7.1999998092651</ele>
        <time>2021-02-28T10:50:59.000Z</time>
      </trkpt>
      <trkpt lat="47.2948" lon="-2.38127">
        <ele>6.1999998092651</ele>
        <time>2021-02-28T10:51:00.000Z</time>
      </trkpt>
      <trkpt lat="47.29473" lon="-2.38131">
        <ele>5.5999999046326</ele>
        <time>2021-02-28T10:51:01.000Z</time>
      </trkpt>
      <trkpt lat="47.29467" lon="-2.38136">
        <ele>5.5999999046326</ele>
        <time>2021-02-28T10:51:02.000Z</time>
      </trkpt>
      <trkpt lat="47.2946" lon="-2.3814">
        <ele>5.5999999046326</ele>
        <time>2021-02-28T10:51:03.000Z</time>
      </trkpt>
      <trkpt lat="47.29454" lon="-2.38145">
        <ele>5.1999998092651</ele>
        <time>2021-02-28T10:51:04.000Z</time>
      </trkpt>
      <trkpt lat="47.2945" lon="-2.38148">
        <ele>4.8000001907349</ele>
        <time>2021-02-28T10:51:05.000Z</time>
      </trkpt>
      <trkpt lat="47.29447" lon="-2.3815">
        <ele>4.1999998092651</ele>
        <time>2021-02-28T10:51:06.000Z</time>
      </trkpt>
      <trkpt lat="47.29445" lon="-2.38149">
        <ele>3.7999999523163</ele>
        <time>2021-02-28T10:51:07.000Z</time>
      </trkpt>
      <trkpt lat="47.29444" lon="-2.38149">
        <ele>3.4000000953674</ele>
        <time>2021-02-28T10:51:08.000Z</time>
      </trkpt>
      <trkpt lat="47.29445" lon="-2.38149">
        <ele>2.7999999523163</ele>
        <time>2021-02-28T10:51:09.000Z</time>
      </trkpt>
      <trkpt lat="47.29444" lon="-2.38149">
        <ele>2.4000000953674</ele>
        <time>2021-02-28T10:51:10.000Z</time>
      </trkpt>
      <trkpt lat="47.29441" lon="-2.38148">
        <ele>1.2000000476837</ele>
        <time>2021-02-28T10:51:12.000Z</time>
      </trkpt>
      <trkpt lat="47.29439" lon="-2.38145">
        <ele>0.80000001192093</ele>
        <time>2021-02-28T10:51:13.000Z</time>
      </trkpt>
      <trkpt lat="47.29436" lon="-2.38142">
        <ele>0.80000001192093</ele>
        <time>2021-02-28T10:51:14.000Z</time>
      </trkpt>
      <trkpt lat="47.29431" lon="-2.38124">
        <ele>0.80000001192093</ele>
        <time>2021-02-28T10:51:17.000Z</time>
      </trkpt>
      <trkpt lat="47.29429" lon="-2.38118">
        <ele>0.80000001192093</ele>
        <time>2021-02-28T10:51:18.000Z</time>
      </trkpt>
      <trkpt lat="47.29423" lon="-2.38094">
        <ele>0.80000001192093</ele>
        <time>2021-02-28T10:51:22.000Z</time>
      </trkpt>
      <trkpt lat="47.29418" lon="-2.38083">
        <ele>0.80000001192093</ele>
        <time>2021-02-28T10:51:24.000Z</time>
      </trkpt>
      <trkpt lat="47.29408" lon="-2.3805">
        <ele>0.80000001192093</ele>
        <time>2021-02-28T10:51:30.000Z</time>
      </trkpt>
      <trkpt lat="47.29403" lon="-2.38034">
        <ele>0.80000001192093</ele>
        <time>2021-02-28T10:51:33.000Z</time>
      </trkpt>
      <trkpt lat="47.29395" lon="-2.38011">
        <ele>0.80000001192093</ele>
        <time>2021-02-28T10:51:37.000Z</time>
      </trkpt>
      <trkpt lat="47.2939" lon="-2.38">
        <ele>0.80000001192093</ele>
        <time>2021-02-28T10:51:39.000Z</time>
      </trkpt>
      <trkpt lat="47.29384" lon="-2.37981">
        <ele>0.80000001192093</ele>
        <time>2021-02-28T10:51:43.000Z</time>
      </trkpt>
      <trkpt lat="47.29377" lon="-2.3796">
        <ele>1.2000000476837</ele>
        <time>2021-02-28T10:51:47.000Z</time>
      </trkpt>
      <trkpt lat="47.29375" lon="-2.37955">
        <ele>1.6000000238419</ele>
        <time>2021-02-28T10:51:48.000Z</time>
      </trkpt>
      <trkpt lat="47.29374" lon="-2.37951">
        <ele>2</ele>
        <time>2021-02-28T10:51:49.000Z</time>
      </trkpt>
      <trkpt lat="47.29373" lon="-2.37947">
        <ele>2.7999999523163</ele>
        <time>2021-02-28T10:51:50.000Z</time>
      </trkpt>
      <trkpt lat="47.29367" lon="-2.37932">
        <ele>2.7999999523163</ele>
        <time>2021-02-28T10:51:55.000Z</time>
      </trkpt>
      <trkpt lat="47.29357" lon="-2.37905">
        <ele>2.7999999523163</ele>
        <time>2021-02-28T10:52:01.000Z</time>
      </trkpt>
      <trkpt lat="47.29351" lon="-2.37886">
        <ele>3.2000000476837</ele>
        <time>2021-02-28T10:52:05.000Z</time>
      </trkpt>
      <trkpt lat="47.2935" lon="-2.37882">
        <ele>3.5999999046326</ele>
        <time>2021-02-28T10:52:06.000Z</time>
      </trkpt>
      <trkpt lat="47.29349" lon="-2.37877">
        <ele>4</ele>
        <time>2021-02-28T10:52:07.000Z</time>
      </trkpt>
      <trkpt lat="47.29347" lon="-2.37872">
        <ele>4.4000000953674</ele>
        <time>2021-02-28T10:52:08.000Z</time>
      </trkpt>
      <trkpt lat="47.29345" lon="-2.37868">
        <ele>4.8000001907349</ele>
        <time>2021-02-28T10:52:09.000Z</time>
      </trkpt>
      <trkpt lat="47.29336" lon="-2.37837">
        <ele>4.8000001907349</ele>
        <time>2021-02-28T10:52:16.000Z</time>
      </trkpt>
      <trkpt lat="47.29333" lon="-2.37805">
        <ele>4.8000001907349</ele>
        <time>2021-02-28T10:52:23.000Z</time>
      </trkpt>
      <trkpt lat="47.29332" lon="-2.37799">
        <ele>5.1999998092651</ele>
        <time>2021-02-28T10:52:24.000Z</time>
      </trkpt>
      <trkpt lat="47.29332" lon="-2.37794">
        <ele>5.8000001907349</ele>
        <time>2021-02-28T10:52:25.000Z</time>
      </trkpt>
      <trkpt lat="47.29331" lon="-2.37789">
        <ele>6.1999998092651</ele>
        <time>2021-02-28T10:52:26.000Z</time>
      </trkpt>
      <trkpt lat="47.29331" lon="-2.37784">
        <ele>6.5999999046326</ele>
        <time>2021-02-28T10:52:27.000Z</time>
      </trkpt>
      <trkpt lat="47.29331" lon="-2.3778">
        <ele>7</ele>
        <time>2021-02-28T10:52:28.000Z</time>
      </trkpt>
      <trkpt lat="47.29331" lon="-2.3777">
        <ele>7</ele>
        <time>2021-02-28T10:52:30.000Z</time>
      </trkpt>
      <trkpt lat="47.2933" lon="-2.37748">
        <ele>7.4000000953674</ele>
        <time>2021-02-28T10:52:35.000Z</time>
      </trkpt>
      <trkpt lat="47.2933" lon="-2.37744">
        <ele>7.8000001907349</ele>
        <time>2021-02-28T10:52:36.000Z</time>
      </trkpt>
      <trkpt lat="47.29329" lon="-2.3774">
        <ele>8.1999998092651</ele>
        <time>2021-02-28T10:52:37.000Z</time>
      </trkpt>
      <trkpt lat="47.29329" lon="-2.37736">
        <ele>8.6000003814697</ele>
        <time>2021-02-28T10:52:38.000Z</time>
      </trkpt>
      <trkpt lat="47.29329" lon="-2.37732">
        <ele>9</ele>
        <time>2021-02-28T10:52:39.000Z</time>
      </trkpt>
      <trkpt lat="47.29328" lon="-2.37709">
        <ele>9</ele>
        <time>2021-02-28T10:52:44.000Z</time>
      </trkpt>
      <trkpt lat="47.29327" lon="-2.37695">
        <ele>9.3999996185303</ele>
        <time>2021-02-28T10:52:47.000Z</time>
      </trkpt>
      <trkpt lat="47.29327" lon="-2.3769">
        <ele>9.8000001907349</ele>
        <time>2021-02-28T10:52:48.000Z</time>
      </trkpt>
      <trkpt lat="47.29327" lon="-2.37686">
        <ele>10.39999961853</ele>
        <time>2021-02-28T10:52:49.000Z</time>
      </trkpt>
      <trkpt lat="47.29327" lon="-2.37681">
        <ele>10.800000190735</ele>
        <time>2021-02-28T10:52:50.000Z</time>
      </trkpt>
      <trkpt lat="47.29327" lon="-2.37676">
        <ele>11.199999809265</ele>
        <time>2021-02-28T10:52:51.000Z</time>
      </trkpt>
      <trkpt lat="47.29326" lon="-2.37656">
        <ele>11.199999809265</ele>
        <time>2021-02-28T10:52:55.000Z</time>
      </trkpt>
      <trkpt lat="47.29323" lon="-2.3764">
        <ele>11.60000038147</ele>
        <time>2021-02-28T10:52:58.000Z</time>
      </trkpt>
      <trkpt lat="47.29322" lon="-2.37634">
        <ele>12</ele>
        <time>2021-02-28T10:52:59.000Z</time>
      </trkpt>
      <trkpt lat="47.2932" lon="-2.37629">
        <ele>12.39999961853</ele>
        <time>2021-02-28T10:53:00.000Z</time>
      </trkpt>
      <trkpt lat="47.29319" lon="-2.37623">
        <ele>12.800000190735</ele>
        <time>2021-02-28T10:53:01.000Z</time>
      </trkpt>
      <trkpt lat="47.29317" lon="-2.37619">
        <ele>13.199999809265</ele>
        <time>2021-02-28T10:53:02.000Z</time>
      </trkpt>
      <trkpt lat="47.29307" lon="-2.376">
        <ele>13.199999809265</ele>
        <time>2021-02-28T10:53:06.000Z</time>
      </trkpt>
      <trkpt lat="47.29301" lon="-2.37588">
        <ele>13.199999809265</ele>
        <time>2021-02-28T10:53:08.000Z</time>
      </trkpt>
      <trkpt lat="47.29279" lon="-2.37557">
        <ele>13.199999809265</ele>
        <time>2021-02-28T10:53:15.000Z</time>
      </trkpt>
      <trkpt lat="47.29261" lon="-2.37525">
        <ele>13.199999809265</ele>
        <time>2021-02-28T10:53:21.000Z</time>
      </trkpt>
      <trkpt lat="47.29254" lon="-2.37515">
        <ele>13.199999809265</ele>
        <time>2021-02-28T10:53:23.000Z</time>
      </trkpt>
      <trkpt lat="47.29243" lon="-2.37501">
        <ele>13.199999809265</ele>
        <time>2021-02-28T10:53:26.000Z</time>
      </trkpt>
      <trkpt lat="47.2923" lon="-2.3748">
        <ele>13.60000038147</ele>
        <time>2021-02-28T10:53:30.000Z</time>
      </trkpt>
      <trkpt lat="47.29227" lon="-2.37474">
        <ele>14</ele>
        <time>2021-02-28T10:53:31.000Z</time>
      </trkpt>
      <trkpt lat="47.29224" lon="-2.37468">
        <ele>14.39999961853</ele>
        <time>2021-02-28T10:53:32.000Z</time>
      </trkpt>
      <trkpt lat="47.29221" lon="-2.37463">
        <ele>14.800000190735</ele>
        <time>2021-02-28T10:53:33.000Z</time>
      </trkpt>
      <trkpt lat="47.29218" lon="-2.37457">
        <ele>15.199999809265</ele>
        <time>2021-02-28T10:53:34.000Z</time>
      </trkpt>
      <trkpt lat="47.29197" lon="-2.37427">
        <ele>15.199999809265</ele>
        <time>2021-02-28T10:53:40.000Z</time>
      </trkpt>
      <trkpt lat="47.29194" lon="-2.37422">
        <ele>15.60000038147</ele>
        <time>2021-02-28T10:53:41.000Z</time>
      </trkpt>
      <trkpt lat="47.29191" lon="-2.37417">
        <ele>16.200000762939</ele>
        <time>2021-02-28T10:53:42.000Z</time>
      </trkpt>
      <trkpt lat="47.29188" lon="-2.37412">
        <ele>16.60000038147</ele>
        <time>2021-02-28T10:53:43.000Z</time>
      </trkpt>
      <trkpt lat="47.29185" lon="-2.37407">
        <ele>17</ele>
        <time>2021-02-28T10:53:44.000Z</time>
      </trkpt>
      <trkpt lat="47.29182" lon="-2.37402">
        <ele>17.39999961853</ele>
        <time>2021-02-28T10:53:45.000Z</time>
      </trkpt>
      <trkpt lat="47.2917" lon="-2.37383">
        <ele>17.39999961853</ele>
        <time>2021-02-28T10:53:49.000Z</time>
      </trkpt>
      <trkpt lat="47.29155" lon="-2.37354">
        <ele>17.799999237061</ele>
        <time>2021-02-28T10:53:54.000Z</time>
      </trkpt>
      <trkpt lat="47.29153" lon="-2.37347">
        <ele>18.200000762939</ele>
        <time>2021-02-28T10:53:55.000Z</time>
      </trkpt>
      <trkpt lat="47.2915" lon="-2.37341">
        <ele>18.60000038147</ele>
        <time>2021-02-28T10:53:56.000Z</time>
      </trkpt>
      <trkpt lat="47.29148" lon="-2.37335">
        <ele>19</ele>
        <time>2021-02-28T10:53:57.000Z</time>
      </trkpt>
      <trkpt lat="47.29146" lon="-2.37329">
        <ele>19.39999961853</ele>
        <time>2021-02-28T10:53:58.000Z</time>
      </trkpt>
      <trkpt lat="47.29143" lon="-2.37324">
        <ele>19.39999961853</ele>
        <time>2021-02-28T10:53:59.000Z</time>
      </trkpt>
      <trkpt lat="47.29136" lon="-2.37314">
        <ele>19.39999961853</ele>
        <time>2021-02-28T10:54:01.000Z</time>
      </trkpt>
      <trkpt lat="47.29128" lon="-2.37306">
        <ele>19.39999961853</ele>
        <time>2021-02-28T10:54:03.000Z</time>
      </trkpt>
      <trkpt lat="47.29112" lon="-2.37288">
        <ele>19.39999961853</ele>
        <time>2021-02-28T10:54:07.000Z</time>
      </trkpt>
      <trkpt lat="47.29091" lon="-2.37265">
        <ele>19.39999961853</ele>
        <time>2021-02-28T10:54:12.000Z</time>
      </trkpt>
      <trkpt lat="47.29082" lon="-2.37257">
        <ele>19.39999961853</ele>
        <time>2021-02-28T10:54:14.000Z</time>
      </trkpt>
      <trkpt lat="47.29044" lon="-2.37219">
        <ele>19.39999961853</ele>
        <time>2021-02-28T10:54:22.000Z</time>
      </trkpt>
      <trkpt lat="47.29034" lon="-2.37207">
        <ele>19</ele>
        <time>2021-02-28T10:54:24.000Z</time>
      </trkpt>
      <trkpt lat="47.29028" lon="-2.37202">
        <ele>18.60000038147</ele>
        <time>2021-02-28T10:54:25.000Z</time>
      </trkpt>
      <trkpt lat="47.29023" lon="-2.37196">
        <ele>18</ele>
        <time>2021-02-28T10:54:26.000Z</time>
      </trkpt>
      <trkpt lat="47.29018" lon="-2.37189">
        <ele>17.60000038147</ele>
        <time>2021-02-28T10:54:27.000Z</time>
      </trkpt>
      <trkpt lat="47.29013" lon="-2.37183">
        <ele>17.200000762939</ele>
        <time>2021-02-28T10:54:28.000Z</time>
      </trkpt>
      <trkpt lat="47.29001" lon="-2.37172">
        <ele>17.200000762939</ele>
        <time>2021-02-28T10:54:31.000Z</time>
      </trkpt>
      <trkpt lat="47.28998" lon="-2.37172">
        <ele>16.60000038147</ele>
        <time>2021-02-28T10:54:32.000Z</time>
      </trkpt>
      <trkpt lat="47.28995" lon="-2.37172">
        <ele>16.200000762939</ele>
        <time>2021-02-28T10:54:33.000Z</time>
      </trkpt>
      <trkpt lat="47.28993" lon="-2.37173">
        <ele>15.60000038147</ele>
        <time>2021-02-28T10:54:34.000Z</time>
      </trkpt>
      <trkpt lat="47.28991" lon="-2.37174">
        <ele>15.199999809265</ele>
        <time>2021-02-28T10:54:35.000Z</time>
      </trkpt>
      <trkpt lat="47.2899" lon="-2.37175">
        <ele>14.60000038147</ele>
        <time>2021-02-28T10:54:36.000Z</time>
      </trkpt>
      <trkpt lat="47.28988" lon="-2.37176">
        <ele>14</ele>
        <time>2021-02-28T10:54:37.000Z</time>
      </trkpt>
      <trkpt lat="47.28987" lon="-2.37177">
        <ele>13.39999961853</ele>
        <time>2021-02-28T10:54:38.000Z</time>
      </trkpt>
      <trkpt lat="47.28986" lon="-2.37178">
        <ele>13</ele>
        <time>2021-02-28T10:54:39.000Z</time>
      </trkpt>
      <trkpt lat="47.28984" lon="-2.37178">
        <ele>12.39999961853</ele>
        <time>2021-02-28T10:54:40.000Z</time>
      </trkpt>
      <trkpt lat="47.2898" lon="-2.37181">
        <ele>12.39999961853</ele>
        <time>2021-02-28T10:54:42.000Z</time>
      </trkpt>
      <trkpt lat="47.28975" lon="-2.37186">
        <ele>12</ele>
        <time>2021-02-28T10:54:45.000Z</time>
      </trkpt>
      <trkpt lat="47.28975" lon="-2.37187">
        <ele>11.39999961853</ele>
        <time>2021-02-28T10:54:46.000Z</time>
      </trkpt>
      <trkpt lat="47.28974" lon="-2.37188">
        <ele>11</ele>
        <time>2021-02-28T10:54:47.000Z</time>
      </trkpt>
      <trkpt lat="47.28974" lon="-2.3719">
        <ele>10.60000038147</ele>
        <time>2021-02-28T10:54:48.000Z</time>
      </trkpt>
      <trkpt lat="47.28973" lon="-2.37191">
        <ele>10.199999809265</ele>
        <time>2021-02-28T10:54:49.000Z</time>
      </trkpt>
      <trkpt lat="47.28973" lon="-2.37194">
        <ele>10.199999809265</ele>
        <time>2021-02-28T10:55:00.000Z</time>
      </trkpt>
      <trkpt lat="47.28973" lon="-2.37196">
        <ele>10.199999809265</ele>
        <time>2021-02-28T10:55:01.000Z</time>
      </trkpt>
      <trkpt lat="47.28967" lon="-2.37201">
        <ele>10.199999809265</ele>
        <time>2021-02-28T10:55:03.000Z</time>
      </trkpt>
      <trkpt lat="47.28964" lon="-2.37202">
        <ele>10.199999809265</ele>
        <time>2021-02-28T10:55:04.000Z</time>
      </trkpt>
      <trkpt lat="47.28961" lon="-2.37202">
        <ele>10.199999809265</ele>
        <time>2021-02-28T10:55:07.000Z</time>
      </trkpt>
      <trkpt lat="47.28959" lon="-2.37202">
        <ele>10.199999809265</ele>
        <time>2021-02-28T10:55:58.000Z</time>
      </trkpt>
      <trkpt lat="47.28947" lon="-2.37206">
        <ele>10.199999809265</ele>
        <time>2021-02-28T10:56:02.000Z</time>
      </trkpt>
      <trkpt lat="47.28943" lon="-2.37207">
        <ele>10.199999809265</ele>
        <time>2021-02-28T10:56:03.000Z</time>
      </trkpt>
      <trkpt lat="47.28927" lon="-2.37212">
        <ele>9.8000001907349</ele>
        <time>2021-02-28T10:56:06.000Z</time>
      </trkpt>
      <trkpt lat="47.28922" lon="-2.37214">
        <ele>9.1999998092651</ele>
        <time>2021-02-28T10:56:07.000Z</time>
      </trkpt>
      <trkpt lat="47.28917" lon="-2.37217">
        <ele>8.8000001907349</ele>
        <time>2021-02-28T10:56:08.000Z</time>
      </trkpt>
      <trkpt lat="47.28912" lon="-2.3722">
        <ele>8.3999996185303</ele>
        <time>2021-02-28T10:56:09.000Z</time>
      </trkpt>
      <trkpt lat="47.28907" lon="-2.37222">
        <ele>8</ele>
        <time>2021-02-28T10:56:10.000Z</time>
      </trkpt>
      <trkpt lat="47.28898" lon="-2.37226">
        <ele>8</ele>
        <time>2021-02-28T10:56:12.000Z</time>
      </trkpt>
      <trkpt lat="47.28887" lon="-2.37231">
        <ele>7.4000000953674</ele>
        <time>2021-02-28T10:56:15.000Z</time>
      </trkpt>
      <trkpt lat="47.28883" lon="-2.37233">
        <ele>7</ele>
        <time>2021-02-28T10:56:16.000Z</time>
      </trkpt>
      <trkpt lat="47.28879" lon="-2.37235">
        <ele>6.5999999046326</ele>
        <time>2021-02-28T10:56:17.000Z</time>
      </trkpt>
      <trkpt lat="47.28875" lon="-2.37237">
        <ele>6</ele>
        <time>2021-02-28T10:56:18.000Z</time>
      </trkpt>
      <trkpt lat="47.28871" lon="-2.37238">
        <ele>5.5999999046326</ele>
        <time>2021-02-28T10:56:19.000Z</time>
      </trkpt>
      <trkpt lat="47.28855" lon="-2.37245">
        <ele>5.5999999046326</ele>
        <time>2021-02-28T10:56:24.000Z</time>
      </trkpt>
      <trkpt lat="47.28847" lon="-2.37242">
        <ele>5.5999999046326</ele>
        <time>2021-02-28T10:56:28.000Z</time>
      </trkpt>
      <trkpt lat="47.28844" lon="-2.37235">
        <ele>5.5999999046326</ele>
        <time>2021-02-28T10:56:31.000Z</time>
      </trkpt>
      <trkpt lat="47.28843" lon="-2.37223">
        <ele>5.5999999046326</ele>
        <time>2021-02-28T10:56:34.000Z</time>
      </trkpt>
      <trkpt lat="47.28839" lon="-2.37202">
        <ele>5.5999999046326</ele>
        <time>2021-02-28T10:56:39.000Z</time>
      </trkpt>
      <trkpt lat="47.28833" lon="-2.37168">
        <ele>5.5999999046326</ele>
        <time>2021-02-28T10:56:45.000Z</time>
      </trkpt>
      <trkpt lat="47.28828" lon="-2.37143">
        <ele>5.5999999046326</ele>
        <time>2021-02-28T10:56:51.000Z</time>
      </trkpt>
      <trkpt lat="47.28829" lon="-2.37137">
        <ele>5.5999999046326</ele>
        <time>2021-02-28T10:56:57.000Z</time>
      </trkpt>
      <trkpt lat="47.2883" lon="-2.37131">
        <ele>5.5999999046326</ele>
        <time>2021-02-28T10:57:00.000Z</time>
      </trkpt>
      <trkpt lat="47.2883" lon="-2.37125">
        <ele>5.5999999046326</ele>
        <time>2021-02-28T10:57:02.000Z</time>
      </trkpt>
      <trkpt lat="47.28831" lon="-2.37123">
        <ele>5.5999999046326</ele>
        <time>2021-02-28T10:57:03.000Z</time>
      </trkpt>
      <trkpt lat="47.28831" lon="-2.37115">
        <ele>5.5999999046326</ele>
        <time>2021-02-28T10:57:07.000Z</time>
      </trkpt>
      <trkpt lat="47.28831" lon="-2.37115">
        <ele>5.5999999046326</ele>
        <time>2021-02-28T10:57:08.000Z</time>
      </trkpt>
      <trkpt lat="47.28829" lon="-2.37117">
        <ele>6</ele>
        <time>2021-02-28T10:57:10.000Z</time>
      </trkpt>
      <trkpt lat="47.28828" lon="-2.37118">
        <ele>6.4000000953674</ele>
        <time>2021-02-28T10:57:11.000Z</time>
      </trkpt>
      <trkpt lat="47.28827" lon="-2.37119">
        <ele>6.8000001907349</ele>
        <time>2021-02-28T10:57:12.000Z</time>
      </trkpt>
      <trkpt lat="47.28826" lon="-2.37119">
        <ele>7.1999998092651</ele>
        <time>2021-02-28T10:57:13.000Z</time>
      </trkpt>
      <trkpt lat="47.28824" lon="-2.3712">
        <ele>7.8000001907349</ele>
        <time>2021-02-28T10:57:14.000Z</time>
      </trkpt>
      <trkpt lat="47.28819" lon="-2.3712">
        <ele>8.1999998092651</ele>
        <time>2021-02-28T10:57:17.000Z</time>
      </trkpt>
      <trkpt lat="47.28817" lon="-2.3712">
        <ele>8.6000003814697</ele>
        <time>2021-02-28T10:57:18.000Z</time>
      </trkpt>
      <trkpt lat="47.28816" lon="-2.3712">
        <ele>9</ele>
        <time>2021-02-28T10:57:19.000Z</time>
      </trkpt>
      <trkpt lat="47.28814" lon="-2.3712">
        <ele>9.3999996185303</ele>
        <time>2021-02-28T10:57:20.000Z</time>
      </trkpt>
      <trkpt lat="47.28812" lon="-2.3712">
        <ele>9.8000001907349</ele>
        <time>2021-02-28T10:57:21.000Z</time>
      </trkpt>
      <trkpt lat="47.28808" lon="-2.37119">
        <ele>10.199999809265</ele>
        <time>2021-02-28T10:57:23.000Z</time>
      </trkpt>
      <trkpt lat="47.28806" lon="-2.37119">
        <ele>10.60000038147</ele>
        <time>2021-02-28T10:57:24.000Z</time>
      </trkpt>
      <trkpt lat="47.28804" lon="-2.37117">
        <ele>11</ele>
        <time>2021-02-28T10:57:25.000Z</time>
      </trkpt>
      <trkpt lat="47.28804" lon="-2.37114">
        <ele>11.39999961853</ele>
        <time>2021-02-28T10:57:26.000Z</time>
      </trkpt>
      <trkpt lat="47.28803" lon="-2.37112">
        <ele>11.800000190735</ele>
        <time>2021-02-28T10:57:27.000Z</time>
      </trkpt>
      <trkpt lat="47.28802" lon="-2.3711">
        <ele>11.800000190735</ele>
        <time>2021-02-28T10:57:28.000Z</time>
      </trkpt>
      <trkpt lat="47.28799" lon="-2.37094">
        <ele>11.800000190735</ele>
        <time>2021-02-28T10:57:35.000Z</time>
      </trkpt>
      <trkpt lat="47.28798" lon="-2.37088">
        <ele>12.199999809265</ele>
        <time>2021-02-28T10:57:38.000Z</time>
      </trkpt>
      <trkpt lat="47.28798" lon="-2.37086">
        <ele>12.60000038147</ele>
        <time>2021-02-28T10:57:39.000Z</time>
      </trkpt>
      <trkpt lat="47.28798" lon="-2.37083">
        <ele>13</ele>
        <time>2021-02-28T10:57:40.000Z</time>
      </trkpt>
      <trkpt lat="47.28797" lon="-2.3708">
        <ele>13.60000038147</ele>
        <time>2021-02-28T10:57:41.000Z</time>
      </trkpt>
      <trkpt lat="47.28795" lon="-2.37076">
        <ele>14</ele>
        <time>2021-02-28T10:57:42.000Z</time>
      </trkpt>
      <trkpt lat="47.28793" lon="-2.37066">
        <ele>14.39999961853</ele>
        <time>2021-02-28T10:57:45.000Z</time>
      </trkpt>
      <trkpt lat="47.28792" lon="-2.37062">
        <ele>14.800000190735</ele>
        <time>2021-02-28T10:57:46.000Z</time>
      </trkpt>
      <trkpt lat="47.28791" lon="-2.37058">
        <ele>15.199999809265</ele>
        <time>2021-02-28T10:57:47.000Z</time>
      </trkpt>
      <trkpt lat="47.2879" lon="-2.37055">
        <ele>15.60000038147</ele>
        <time>2021-02-28T10:57:48.000Z</time>
      </trkpt>
      <trkpt lat="47.28789" lon="-2.37051">
        <ele>16.200000762939</ele>
        <time>2021-02-28T10:57:49.000Z</time>
      </trkpt>
      <trkpt lat="47.28783" lon="-2.37032">
        <ele>16.200000762939</ele>
        <time>2021-02-28T10:57:54.000Z</time>
      </trkpt>
      <trkpt lat="47.28775" lon="-2.37015">
        <ele>17</ele>
        <time>2021-02-28T10:57:59.000Z</time>
      </trkpt>
      <trkpt lat="47.28773" lon="-2.37013">
        <ele>17.39999961853</ele>
        <time>2021-02-28T10:58:00.000Z</time>
      </trkpt>
      <trkpt lat="47.2877" lon="-2.37009">
        <ele>17.799999237061</ele>
        <time>2021-02-28T10:58:01.000Z</time>
      </trkpt>
      <trkpt lat="47.28767" lon="-2.37005">
        <ele>18.200000762939</ele>
        <time>2021-02-28T10:58:02.000Z</time>
      </trkpt>
      <trkpt lat="47.28761" lon="-2.36989">
        <ele>18.200000762939</ele>
        <time>2021-02-28T10:58:06.000Z</time>
      </trkpt>
      <trkpt lat="47.28759" lon="-2.36968">
        <ele>18.200000762939</ele>
        <time>2021-02-28T10:58:11.000Z</time>
      </trkpt>
      <trkpt lat="47.28757" lon="-2.36962">
        <ele>17.799999237061</ele>
        <time>2021-02-28T10:58:12.000Z</time>
      </trkpt>
      <trkpt lat="47.28755" lon="-2.36958">
        <ele>17.39999961853</ele>
        <time>2021-02-28T10:58:13.000Z</time>
      </trkpt>
      <trkpt lat="47.28752" lon="-2.36953">
        <ele>17</ele>
        <time>2021-02-28T10:58:14.000Z</time>
      </trkpt>
      <trkpt lat="47.28749" lon="-2.36948">
        <ele>16.60000038147</ele>
        <time>2021-02-28T10:58:15.000Z</time>
      </trkpt>
      <trkpt lat="47.28746" lon="-2.36943">
        <ele>16</ele>
        <time>2021-02-28T10:58:16.000Z</time>
      </trkpt>
      <trkpt lat="47.28743" lon="-2.36938">
        <ele>15.60000038147</ele>
        <time>2021-02-28T10:58:17.000Z</time>
      </trkpt>
      <trkpt lat="47.28739" lon="-2.36934">
        <ele>15</ele>
        <time>2021-02-28T10:58:18.000Z</time>
      </trkpt>
      <trkpt lat="47.28734" lon="-2.36929">
        <ele>14.39999961853</ele>
        <time>2021-02-28T10:58:19.000Z</time>
      </trkpt>
      <trkpt lat="47.28729" lon="-2.36926">
        <ele>14</ele>
        <time>2021-02-28T10:58:20.000Z</time>
      </trkpt>
      <trkpt lat="47.28717" lon="-2.3691">
        <ele>14</ele>
        <time>2021-02-28T10:58:24.000Z</time>
      </trkpt>
      <trkpt lat="47.2871" lon="-2.36895">
        <ele>14</ele>
        <time>2021-02-28T10:58:27.000Z</time>
      </trkpt>
      <trkpt lat="47.28706" lon="-2.36885">
        <ele>14</ele>
        <time>2021-02-28T10:58:29.000Z</time>
      </trkpt>
      <trkpt lat="47.28699" lon="-2.3687">
        <ele>14.39999961853</ele>
        <time>2021-02-28T10:58:32.000Z</time>
      </trkpt>
      <trkpt lat="47.28696" lon="-2.36864">
        <ele>14.800000190735</ele>
        <time>2021-02-28T10:58:33.000Z</time>
      </trkpt>
      <trkpt lat="47.28693" lon="-2.36859">
        <ele>15.199999809265</ele>
        <time>2021-02-28T10:58:34.000Z</time>
      </trkpt>
      <trkpt lat="47.28691" lon="-2.36853">
        <ele>15.800000190735</ele>
        <time>2021-02-28T10:58:35.000Z</time>
      </trkpt>
      <trkpt lat="47.28688" lon="-2.36848">
        <ele>16.200000762939</ele>
        <time>2021-02-28T10:58:36.000Z</time>
      </trkpt>
      <trkpt lat="47.2868" lon="-2.36829">
        <ele>16.200000762939</ele>
        <time>2021-02-28T10:58:40.000Z</time>
      </trkpt>
      <trkpt lat="47.2867" lon="-2.36808">
        <ele>16.200000762939</ele>
        <time>2021-02-28T10:58:46.000Z</time>
      </trkpt>
      <trkpt lat="47.28667" lon="-2.36801">
        <ele>17</ele>
        <time>2021-02-28T10:58:48.000Z</time>
      </trkpt>
      <trkpt lat="47.28664" lon="-2.36799">
        <ele>17.39999961853</ele>
        <time>2021-02-28T10:58:49.000Z</time>
      </trkpt>
      <trkpt lat="47.2866" lon="-2.36798">
        <ele>17.799999237061</ele>
        <time>2021-02-28T10:58:50.000Z</time>
      </trkpt>
      <trkpt lat="47.28656" lon="-2.36798">
        <ele>18.200000762939</ele>
        <time>2021-02-28T10:58:51.000Z</time>
      </trkpt>
      <trkpt lat="47.28644" lon="-2.36805">
        <ele>18.200000762939</ele>
        <time>2021-02-28T10:58:54.000Z</time>
      </trkpt>
      <trkpt lat="47.28633" lon="-2.36816">
        <ele>18.200000762939</ele>
        <time>2021-02-28T10:58:57.000Z</time>
      </trkpt>
      <trkpt lat="47.28625" lon="-2.36826">
        <ele>18.200000762939</ele>
        <time>2021-02-28T10:58:59.000Z</time>
      </trkpt>
      <trkpt lat="47.28608" lon="-2.36841">
        <ele>17.799999237061</ele>
        <time>2021-02-28T10:59:04.000Z</time>
      </trkpt>
      <trkpt lat="47.28606" lon="-2.3684">
        <ele>17.39999961853</ele>
        <time>2021-02-28T10:59:05.000Z</time>
      </trkpt>
      <trkpt lat="47.28604" lon="-2.36838">
        <ele>17</ele>
        <time>2021-02-28T10:59:06.000Z</time>
      </trkpt>
      <trkpt lat="47.28601" lon="-2.36835">
        <ele>16.39999961853</ele>
        <time>2021-02-28T10:59:07.000Z</time>
      </trkpt>
      <trkpt lat="47.28599" lon="-2.36831">
        <ele>16</ele>
        <time>2021-02-28T10:59:08.000Z</time>
      </trkpt>
      <trkpt lat="47.28584" lon="-2.36804">
        <ele>16</ele>
        <time>2021-02-28T10:59:14.000Z</time>
      </trkpt>
      <trkpt lat="47.28581" lon="-2.36801">
        <ele>16</ele>
        <time>2021-02-28T10:59:15.000Z</time>
      </trkpt>
      <trkpt lat="47.28574" lon="-2.36793">
        <ele>16</ele>
        <time>2021-02-28T10:59:17.000Z</time>
      </trkpt>
      <trkpt lat="47.28566" lon="-2.36777">
        <ele>16</ele>
        <time>2021-02-28T10:59:20.000Z</time>
      </trkpt>
      <trkpt lat="47.28549" lon="-2.36743">
        <ele>16</ele>
        <time>2021-02-28T10:59:27.000Z</time>
      </trkpt>
      <trkpt lat="47.28547" lon="-2.36739">
        <ele>16.39999961853</ele>
        <time>2021-02-28T10:59:28.000Z</time>
      </trkpt>
      <trkpt lat="47.28544" lon="-2.36735">
        <ele>16.799999237061</ele>
        <time>2021-02-28T10:59:29.000Z</time>
      </trkpt>
      <trkpt lat="47.28542" lon="-2.36731">
        <ele>17.200000762939</ele>
        <time>2021-02-28T10:59:30.000Z</time>
      </trkpt>
      <trkpt lat="47.2854" lon="-2.36727">
        <ele>17.60000038147</ele>
        <time>2021-02-28T10:59:31.000Z</time>
      </trkpt>
      <trkpt lat="47.28537" lon="-2.36723">
        <ele>18</ele>
        <time>2021-02-28T10:59:32.000Z</time>
      </trkpt>
      <trkpt lat="47.28533" lon="-2.36717">
        <ele>18</ele>
        <time>2021-02-28T10:59:34.000Z</time>
      </trkpt>
      <trkpt lat="47.28521" lon="-2.36699">
        <ele>18.39999961853</ele>
        <time>2021-02-28T10:59:39.000Z</time>
      </trkpt>
      <trkpt lat="47.28519" lon="-2.36696">
        <ele>18.799999237061</ele>
        <time>2021-02-28T10:59:40.000Z</time>
      </trkpt>
      <trkpt lat="47.28517" lon="-2.36692">
        <ele>19.200000762939</ele>
        <time>2021-02-28T10:59:41.000Z</time>
      </trkpt>
      <trkpt lat="47.28515" lon="-2.3669">
        <ele>19.60000038147</ele>
        <time>2021-02-28T10:59:42.000Z</time>
      </trkpt>
      <trkpt lat="47.28512" lon="-2.36687">
        <ele>20</ele>
        <time>2021-02-28T10:59:43.000Z</time>
      </trkpt>
      <trkpt lat="47.28504" lon="-2.3668">
        <ele>20</ele>
        <time>2021-02-28T10:59:46.000Z</time>
      </trkpt>
      <trkpt lat="47.28498" lon="-2.36675">
        <ele>20</ele>
        <time>2021-02-28T10:59:48.000Z</time>
      </trkpt>
      <trkpt lat="47.28496" lon="-2.3667">
        <ele>20.39999961853</ele>
        <time>2021-02-28T10:59:49.000Z</time>
      </trkpt>
      <trkpt lat="47.28494" lon="-2.36665">
        <ele>20.799999237061</ele>
        <time>2021-02-28T10:59:50.000Z</time>
      </trkpt>
      <trkpt lat="47.28492" lon="-2.36659">
        <ele>21.200000762939</ele>
        <time>2021-02-28T10:59:51.000Z</time>
      </trkpt>
      <trkpt lat="47.28491" lon="-2.36653">
        <ele>21.799999237061</ele>
        <time>2021-02-28T10:59:52.000Z</time>
      </trkpt>
      <trkpt lat="47.28489" lon="-2.36648">
        <ele>22.200000762939</ele>
        <time>2021-02-28T10:59:53.000Z</time>
      </trkpt>
      <trkpt lat="47.28485" lon="-2.36637">
        <ele>22.200000762939</ele>
        <time>2021-02-28T10:59:55.000Z</time>
      </trkpt>
      <trkpt lat="47.28484" lon="-2.36631">
        <ele>22.200000762939</ele>
        <time>2021-02-28T10:59:56.000Z</time>
      </trkpt>
      <trkpt lat="47.28473" lon="-2.36595">
        <ele>22.200000762939</ele>
        <time>2021-02-28T11:00:03.000Z</time>
      </trkpt>
      <trkpt lat="47.28469" lon="-2.36569">
        <ele>22.200000762939</ele>
        <time>2021-02-28T11:00:08.000Z</time>
      </trkpt>
      <trkpt lat="47.2848" lon="-2.3655">
        <ele>22.200000762939</ele>
        <time>2021-02-28T11:00:12.000Z</time>
      </trkpt>
      <trkpt lat="47.285" lon="-2.36527">
        <ele>22.200000762939</ele>
        <time>2021-02-28T11:00:18.000Z</time>
      </trkpt>
      <trkpt lat="47.28504" lon="-2.36524">
        <ele>22.200000762939</ele>
        <time>2021-02-28T11:00:19.000Z</time>
      </trkpt>
      <trkpt lat="47.2851" lon="-2.36517">
        <ele>22.60000038147</ele>
        <time>2021-02-28T11:00:21.000Z</time>
      </trkpt>
      <trkpt lat="47.28513" lon="-2.36514">
        <ele>23</ele>
        <time>2021-02-28T11:00:22.000Z</time>
      </trkpt>
      <trkpt lat="47.28515" lon="-2.36511">
        <ele>23.39999961853</ele>
        <time>2021-02-28T11:00:23.000Z</time>
      </trkpt>
      <trkpt lat="47.28518" lon="-2.36507">
        <ele>23.799999237061</ele>
        <time>2021-02-28T11:00:24.000Z</time>
      </trkpt>
      <trkpt lat="47.2852" lon="-2.36504">
        <ele>24.200000762939</ele>
        <time>2021-02-28T11:00:25.000Z</time>
      </trkpt>
      <trkpt lat="47.28521" lon="-2.36497">
        <ele>24.60000038147</ele>
        <time>2021-02-28T11:00:27.000Z</time>
      </trkpt>
      <trkpt lat="47.2852" lon="-2.36493">
        <ele>25</ele>
        <time>2021-02-28T11:00:28.000Z</time>
      </trkpt>
      <trkpt lat="47.28519" lon="-2.36489">
        <ele>25.39999961853</ele>
        <time>2021-02-28T11:00:29.000Z</time>
      </trkpt>
      <trkpt lat="47.28519" lon="-2.36485">
        <ele>25.799999237061</ele>
        <time>2021-02-28T11:00:30.000Z</time>
      </trkpt>
      <trkpt lat="47.28518" lon="-2.36481">
        <ele>26.200000762939</ele>
        <time>2021-02-28T11:00:31.000Z</time>
      </trkpt>
      <trkpt lat="47.28516" lon="-2.36472">
        <ele>26.200000762939</ele>
        <time>2021-02-28T11:00:33.000Z</time>
      </trkpt>
      <trkpt lat="47.28508" lon="-2.36453">
        <ele>26.200000762939</ele>
        <time>2021-02-28T11:00:37.000Z</time>
      </trkpt>
      <trkpt lat="47.28494" lon="-2.36443">
        <ele>26.200000762939</ele>
        <time>2021-02-28T11:00:41.000Z</time>
      </trkpt>
      <trkpt lat="47.28481" lon="-2.36433">
        <ele>26.200000762939</ele>
        <time>2021-02-28T11:00:45.000Z</time>
      </trkpt>
      <trkpt lat="47.28477" lon="-2.36426">
        <ele>26.200000762939</ele>
        <time>2021-02-28T11:00:48.000Z</time>
      </trkpt>
      <trkpt lat="47.28475" lon="-2.36425">
        <ele>26.200000762939</ele>
        <time>2021-02-28T11:00:49.000Z</time>
      </trkpt>
      <trkpt lat="47.28473" lon="-2.36423">
        <ele>26.60000038147</ele>
        <time>2021-02-28T11:00:50.000Z</time>
      </trkpt>
      <trkpt lat="47.28471" lon="-2.36421">
        <ele>27</ele>
        <time>2021-02-28T11:00:51.000Z</time>
      </trkpt>
      <trkpt lat="47.2847" lon="-2.36419">
        <ele>27.39999961853</ele>
        <time>2021-02-28T11:00:52.000Z</time>
      </trkpt>
      <trkpt lat="47.28468" lon="-2.36416">
        <ele>27.799999237061</ele>
        <time>2021-02-28T11:00:53.000Z</time>
      </trkpt>
      <trkpt lat="47.28467" lon="-2.36412">
        <ele>28.200000762939</ele>
        <time>2021-02-28T11:00:54.000Z</time>
      </trkpt>
      <trkpt lat="47.28457" lon="-2.36403">
        <ele>28.200000762939</ele>
        <time>2021-02-28T11:00:57.000Z</time>
      </trkpt>
      <trkpt lat="47.28453" lon="-2.36398">
        <ele>28.200000762939</ele>
        <time>2021-02-28T11:00:58.000Z</time>
      </trkpt>
      <trkpt lat="47.28434" lon="-2.36383">
        <ele>28.200000762939</ele>
        <time>2021-02-28T11:01:02.000Z</time>
      </trkpt>
      <trkpt lat="47.28421" lon="-2.36373">
        <ele>28.200000762939</ele>
        <time>2021-02-28T11:01:05.000Z</time>
      </trkpt>
      <trkpt lat="47.28415" lon="-2.36364">
        <ele>28.200000762939</ele>
        <time>2021-02-28T11:01:07.000Z</time>
      </trkpt>
      <trkpt lat="47.28412" lon="-2.36358">
        <ele>27.799999237061</ele>
        <time>2021-02-28T11:01:08.000Z</time>
      </trkpt>
      <trkpt lat="47.28409" lon="-2.36352">
        <ele>27.39999961853</ele>
        <time>2021-02-28T11:01:09.000Z</time>
      </trkpt>
      <trkpt lat="47.28405" lon="-2.36348">
        <ele>27</ele>
        <time>2021-02-28T11:01:10.000Z</time>
      </trkpt>
      <trkpt lat="47.28402" lon="-2.36345">
        <ele>26.60000038147</ele>
        <time>2021-02-28T11:01:11.000Z</time>
      </trkpt>
      <trkpt lat="47.28398" lon="-2.36341">
        <ele>26.200000762939</ele>
        <time>2021-02-28T11:01:12.000Z</time>
      </trkpt>
      <trkpt lat="47.28375" lon="-2.36324">
        <ele>26.200000762939</ele>
        <time>2021-02-28T11:01:18.000Z</time>
      </trkpt>
      <trkpt lat="47.28371" lon="-2.36321">
        <ele>25.799999237061</ele>
        <time>2021-02-28T11:01:19.000Z</time>
      </trkpt>
      <trkpt lat="47.28367" lon="-2.36319">
        <ele>25.39999961853</ele>
        <time>2021-02-28T11:01:20.000Z</time>
      </trkpt>
      <trkpt lat="47.28364" lon="-2.36316">
        <ele>25</ele>
        <time>2021-02-28T11:01:21.000Z</time>
      </trkpt>
      <trkpt lat="47.28361" lon="-2.36312">
        <ele>24.60000038147</ele>
        <time>2021-02-28T11:01:22.000Z</time>
      </trkpt>
      <trkpt lat="47.28358" lon="-2.36307">
        <ele>24.200000762939</ele>
        <time>2021-02-28T11:01:23.000Z</time>
      </trkpt>
      <trkpt lat="47.28358" lon="-2.363">
        <ele>24.200000762939</ele>
        <time>2021-02-28T11:01:24.000Z</time>
      </trkpt>
      <trkpt lat="47.28359" lon="-2.36288">
        <ele>24.200000762939</ele>
        <time>2021-02-28T11:01:26.000Z</time>
      </trkpt>
      <trkpt lat="47.28358" lon="-2.36277">
        <ele>23.60000038147</ele>
        <time>2021-02-28T11:01:28.000Z</time>
      </trkpt>
      <trkpt lat="47.28355" lon="-2.36273">
        <ele>23.200000762939</ele>
        <time>2021-02-28T11:01:29.000Z</time>
      </trkpt>
      <trkpt lat="47.28351" lon="-2.36271">
        <ele>22.799999237061</ele>
        <time>2021-02-28T11:01:30.000Z</time>
      </trkpt>
      <trkpt lat="47.28347" lon="-2.36269">
        <ele>22.39999961853</ele>
        <time>2021-02-28T11:01:31.000Z</time>
      </trkpt>
      <trkpt lat="47.28341" lon="-2.36267">
        <ele>22</ele>
        <time>2021-02-28T11:01:32.000Z</time>
      </trkpt>
      <trkpt lat="47.28336" lon="-2.36264">
        <ele>22</ele>
        <time>2021-02-28T11:01:33.000Z</time>
      </trkpt>
      <trkpt lat="47.28307" lon="-2.36252">
        <ele>22</ele>
        <time>2021-02-28T11:01:38.000Z</time>
      </trkpt>
      <trkpt lat="47.28289" lon="-2.36246">
        <ele>22</ele>
        <time>2021-02-28T11:01:41.000Z</time>
      </trkpt>
      <trkpt lat="47.28278" lon="-2.36236">
        <ele>22</ele>
        <time>2021-02-28T11:01:43.000Z</time>
      </trkpt>
      <trkpt lat="47.2827" lon="-2.36223">
        <ele>21.60000038147</ele>
        <time>2021-02-28T11:01:45.000Z</time>
      </trkpt>
      <trkpt lat="47.28266" lon="-2.36216">
        <ele>21.200000762939</ele>
        <time>2021-02-28T11:01:46.000Z</time>
      </trkpt>
      <trkpt lat="47.28263" lon="-2.36208">
        <ele>20.60000038147</ele>
        <time>2021-02-28T11:01:47.000Z</time>
      </trkpt>
      <trkpt lat="47.2826" lon="-2.362">
        <ele>20.200000762939</ele>
        <time>2021-02-28T11:01:48.000Z</time>
      </trkpt>
      <trkpt lat="47.28257" lon="-2.36192">
        <ele>19.799999237061</ele>
        <time>2021-02-28T11:01:49.000Z</time>
      </trkpt>
      <trkpt lat="47.28248" lon="-2.36162">
        <ele>19.799999237061</ele>
        <time>2021-02-28T11:01:53.000Z</time>
      </trkpt>
      <trkpt lat="47.28245" lon="-2.36156">
        <ele>19.799999237061</ele>
        <time>2021-02-28T11:01:54.000Z</time>
      </trkpt>
      <trkpt lat="47.28237" lon="-2.36135">
        <ele>19.799999237061</ele>
        <time>2021-02-28T11:01:58.000Z</time>
      </trkpt>
      <trkpt lat="47.28229" lon="-2.36113">
        <ele>20.60000038147</ele>
        <time>2021-02-28T11:02:04.000Z</time>
      </trkpt>
      <trkpt lat="47.28228" lon="-2.36109">
        <ele>21</ele>
        <time>2021-02-28T11:02:05.000Z</time>
      </trkpt>
      <trkpt lat="47.28225" lon="-2.36104">
        <ele>21.39999961853</ele>
        <time>2021-02-28T11:02:06.000Z</time>
      </trkpt>
      <trkpt lat="47.28222" lon="-2.36098">
        <ele>21.799999237061</ele>
        <time>2021-02-28T11:02:07.000Z</time>
      </trkpt>
      <trkpt lat="47.28219" lon="-2.36091">
        <ele>21.799999237061</ele>
        <time>2021-02-28T11:02:08.000Z</time>
      </trkpt>
      <trkpt lat="47.2821" lon="-2.36071">
        <ele>21.39999961853</ele>
        <time>2021-02-28T11:02:11.000Z</time>
      </trkpt>
      <trkpt lat="47.28208" lon="-2.36065">
        <ele>21</ele>
        <time>2021-02-28T11:02:12.000Z</time>
      </trkpt>
      <trkpt lat="47.28206" lon="-2.36059">
        <ele>20.39999961853</ele>
        <time>2021-02-28T11:02:13.000Z</time>
      </trkpt>
      <trkpt lat="47.28204" lon="-2.36053">
        <ele>20</ele>
        <time>2021-02-28T11:02:14.000Z</time>
      </trkpt>
      <trkpt lat="47.28202" lon="-2.36048">
        <ele>19.60000038147</ele>
        <time>2021-02-28T11:02:15.000Z</time>
      </trkpt>
      <trkpt lat="47.28199" lon="-2.36034">
        <ele>19.60000038147</ele>
        <time>2021-02-28T11:02:18.000Z</time>
      </trkpt>
      <trkpt lat="47.2819" lon="-2.36012">
        <ele>19.60000038147</ele>
        <time>2021-02-28T11:02:23.000Z</time>
      </trkpt>
      <trkpt lat="47.2818" lon="-2.35987">
        <ele>19.60000038147</ele>
        <time>2021-02-28T11:02:28.000Z</time>
      </trkpt>
      <trkpt lat="47.28173" lon="-2.35965">
        <ele>19.60000038147</ele>
        <time>2021-02-28T11:02:33.000Z</time>
      </trkpt>
      <trkpt lat="47.28175" lon="-2.35947">
        <ele>19.60000038147</ele>
        <time>2021-02-28T11:02:38.000Z</time>
      </trkpt>
      <trkpt lat="47.28175" lon="-2.35943">
        <ele>19.60000038147</ele>
        <time>2021-02-28T11:02:39.000Z</time>
      </trkpt>
      <trkpt lat="47.28174" lon="-2.35919">
        <ele>19.60000038147</ele>
        <time>2021-02-28T11:02:45.000Z</time>
      </trkpt>
      <trkpt lat="47.28174" lon="-2.35915">
        <ele>20</ele>
        <time>2021-02-28T11:02:46.000Z</time>
      </trkpt>
      <trkpt lat="47.28174" lon="-2.35911">
        <ele>20.39999961853</ele>
        <time>2021-02-28T11:02:47.000Z</time>
      </trkpt>
      <trkpt lat="47.28173" lon="-2.35907">
        <ele>20.799999237061</ele>
        <time>2021-02-28T11:02:48.000Z</time>
      </trkpt>
      <trkpt lat="47.28172" lon="-2.35902">
        <ele>21.200000762939</ele>
        <time>2021-02-28T11:02:49.000Z</time>
      </trkpt>
      <trkpt lat="47.28171" lon="-2.35897">
        <ele>21.60000038147</ele>
        <time>2021-02-28T11:02:50.000Z</time>
      </trkpt>
      <trkpt lat="47.2817" lon="-2.35876">
        <ele>21.60000038147</ele>
        <time>2021-02-28T11:02:55.000Z</time>
      </trkpt>
      <trkpt lat="47.28169" lon="-2.35856">
        <ele>21.60000038147</ele>
        <time>2021-02-28T11:03:00.000Z</time>
      </trkpt>
      <trkpt lat="47.28168" lon="-2.35854">
        <ele>21.60000038147</ele>
        <time>2021-02-28T11:03:01.000Z</time>
      </trkpt>
      <trkpt lat="47.28161" lon="-2.35845">
        <ele>21.60000038147</ele>
        <time>2021-02-28T11:03:04.000Z</time>
      </trkpt>
      <trkpt lat="47.28157" lon="-2.35841">
        <ele>22</ele>
        <time>2021-02-28T11:03:05.000Z</time>
      </trkpt>
      <trkpt lat="47.28154" lon="-2.35837">
        <ele>22.39999961853</ele>
        <time>2021-02-28T11:03:06.000Z</time>
      </trkpt>
      <trkpt lat="47.28152" lon="-2.35833">
        <ele>22.799999237061</ele>
        <time>2021-02-28T11:03:07.000Z</time>
      </trkpt>
      <trkpt lat="47.28149" lon="-2.35829">
        <ele>23.200000762939</ele>
        <time>2021-02-28T11:03:08.000Z</time>
      </trkpt>
      <trkpt lat="47.28146" lon="-2.35825">
        <ele>23.60000038147</ele>
        <time>2021-02-28T11:03:09.000Z</time>
      </trkpt>
      <trkpt lat="47.28141" lon="-2.35814">
        <ele>23.60000038147</ele>
        <time>2021-02-28T11:03:11.000Z</time>
      </trkpt>
      <trkpt lat="47.28134" lon="-2.35777">
        <ele>23.60000038147</ele>
        <time>2021-02-28T11:03:17.000Z</time>
      </trkpt>
      <trkpt lat="47.2813" lon="-2.35761">
        <ele>23.60000038147</ele>
        <time>2021-02-28T11:03:21.000Z</time>
      </trkpt>
      <trkpt lat="47.28127" lon="-2.35759">
        <ele>23.200000762939</ele>
        <time>2021-02-28T11:03:22.000Z</time>
      </trkpt>
      <trkpt lat="47.28124" lon="-2.35757">
        <ele>22.799999237061</ele>
        <time>2021-02-28T11:03:23.000Z</time>
      </trkpt>
      <trkpt lat="47.28119" lon="-2.35755">
        <ele>22.39999961853</ele>
        <time>2021-02-28T11:03:24.000Z</time>
      </trkpt>
      <trkpt lat="47.28115" lon="-2.35754">
        <ele>21.799999237061</ele>
        <time>2021-02-28T11:03:25.000Z</time>
      </trkpt>
      <trkpt lat="47.28112" lon="-2.35755">
        <ele>21.39999961853</ele>
        <time>2021-02-28T11:03:26.000Z</time>
      </trkpt>
      <trkpt lat="47.28106" lon="-2.35762">
        <ele>21.39999961853</ele>
        <time>2021-02-28T11:03:29.000Z</time>
      </trkpt>
      <trkpt lat="47.281" lon="-2.35773">
        <ele>21.39999961853</ele>
        <time>2021-02-28T11:03:33.000Z</time>
      </trkpt>
      <trkpt lat="47.28096" lon="-2.35782">
        <ele>21.39999961853</ele>
        <time>2021-02-28T11:03:35.000Z</time>
      </trkpt>
      <trkpt lat="47.28086" lon="-2.35801">
        <ele>21.39999961853</ele>
        <time>2021-02-28T11:03:40.000Z</time>
      </trkpt>
      <trkpt lat="47.28084" lon="-2.35802">
        <ele>21.39999961853</ele>
        <time>2021-02-28T11:03:41.000Z</time>
      </trkpt>
      <trkpt lat="47.2808" lon="-2.35799">
        <ele>21.39999961853</ele>
        <time>2021-02-28T11:03:43.000Z</time>
      </trkpt>
      <trkpt lat="47.28078" lon="-2.35787">
        <ele>21.39999961853</ele>
        <time>2021-02-28T11:03:47.000Z</time>
      </trkpt>
      <trkpt lat="47.28079" lon="-2.35781">
        <ele>21.799999237061</ele>
        <time>2021-02-28T11:03:49.000Z</time>
      </trkpt>
      <trkpt lat="47.2808" lon="-2.35778">
        <ele>22.39999961853</ele>
        <time>2021-02-28T11:03:50.000Z</time>
      </trkpt>
      <trkpt lat="47.28081" lon="-2.35775">
        <ele>22.799999237061</ele>
        <time>2021-02-28T11:03:51.000Z</time>
      </trkpt>
      <trkpt lat="47.28082" lon="-2.35772">
        <ele>23.200000762939</ele>
        <time>2021-02-28T11:03:52.000Z</time>
      </trkpt>
      <trkpt lat="47.28083" lon="-2.35768">
        <ele>23.799999237061</ele>
        <time>2021-02-28T11:03:53.000Z</time>
      </trkpt>
      <trkpt lat="47.28083" lon="-2.35764">
        <ele>23.799999237061</ele>
        <time>2021-02-28T11:03:54.000Z</time>
      </trkpt>
      <trkpt lat="47.28086" lon="-2.35735">
        <ele>23.799999237061</ele>
        <time>2021-02-28T11:04:00.000Z</time>
      </trkpt>
      <trkpt lat="47.28088" lon="-2.35731">
        <ele>24.200000762939</ele>
        <time>2021-02-28T11:04:01.000Z</time>
      </trkpt>
      <trkpt lat="47.28089" lon="-2.35727">
        <ele>24.60000038147</ele>
        <time>2021-02-28T11:04:02.000Z</time>
      </trkpt>
      <trkpt lat="47.2809" lon="-2.35724">
        <ele>25</ele>
        <time>2021-02-28T11:04:03.000Z</time>
      </trkpt>
      <trkpt lat="47.28092" lon="-2.3572">
        <ele>25.60000038147</ele>
        <time>2021-02-28T11:04:04.000Z</time>
      </trkpt>
      <trkpt lat="47.28092" lon="-2.35717">
        <ele>26</ele>
        <time>2021-02-28T11:04:05.000Z</time>
      </trkpt>
      <trkpt lat="47.28092" lon="-2.35713">
        <ele>26</ele>
        <time>2021-02-28T11:04:06.000Z</time>
      </trkpt>
      <trkpt lat="47.28088" lon="-2.35694">
        <ele>26</ele>
        <time>2021-02-28T11:04:10.000Z</time>
      </trkpt>
      <trkpt lat="47.28086" lon="-2.35688">
        <ele>26</ele>
        <time>2021-02-28T11:04:11.000Z</time>
      </trkpt>
      <trkpt lat="47.28077" lon="-2.35649">
        <ele>26</ele>
        <time>2021-02-28T11:04:16.000Z</time>
      </trkpt>
      <trkpt lat="47.28073" lon="-2.35633">
        <ele>26</ele>
        <time>2021-02-28T11:04:18.000Z</time>
      </trkpt>
      <trkpt lat="47.28072" lon="-2.35625">
        <ele>25.39999961853</ele>
        <time>2021-02-28T11:04:19.000Z</time>
      </trkpt>
      <trkpt lat="47.28072" lon="-2.35617">
        <ele>25</ele>
        <time>2021-02-28T11:04:20.000Z</time>
      </trkpt>
      <trkpt lat="47.28071" lon="-2.35608">
        <ele>24.60000038147</ele>
        <time>2021-02-28T11:04:21.000Z</time>
      </trkpt>
      <trkpt lat="47.28069" lon="-2.35602">
        <ele>23.799999237061</ele>
        <time>2021-02-28T11:04:22.000Z</time>
      </trkpt>
      <trkpt lat="47.28068" lon="-2.35597">
        <ele>23</ele>
        <time>2021-02-28T11:04:23.000Z</time>
      </trkpt>
      <trkpt lat="47.28066" lon="-2.35594">
        <ele>22.39999961853</ele>
        <time>2021-02-28T11:04:24.000Z</time>
      </trkpt>
      <trkpt lat="47.28065" lon="-2.35592">
        <ele>21.60000038147</ele>
        <time>2021-02-28T11:04:25.000Z</time>
      </trkpt>
      <trkpt lat="47.28065" lon="-2.35589">
        <ele>21</ele>
        <time>2021-02-28T11:04:26.000Z</time>
      </trkpt>
      <trkpt lat="47.28065" lon="-2.35584">
        <ele>21</ele>
        <time>2021-02-28T11:04:28.000Z</time>
      </trkpt>
      <trkpt lat="47.28067" lon="-2.35584">
        <ele>21</ele>
        <time>2021-02-28T11:04:29.000Z</time>
      </trkpt>
      <trkpt lat="47.28069" lon="-2.35587">
        <ele>21</ele>
        <time>2021-02-28T11:04:33.000Z</time>
      </trkpt>
      <trkpt lat="47.28069" lon="-2.35586">
        <ele>21</ele>
        <time>2021-02-28T11:07:01.000Z</time>
      </trkpt>
      <trkpt lat="47.28062" lon="-2.35582">
        <ele>21</ele>
        <time>2021-02-28T11:07:04.000Z</time>
      </trkpt>
      <trkpt lat="47.28059" lon="-2.35582">
        <ele>21</ele>
        <time>2021-02-28T11:07:05.000Z</time>
      </trkpt>
      <trkpt lat="47.28043" lon="-2.35578">
        <ele>21</ele>
        <time>2021-02-28T11:07:09.000Z</time>
      </trkpt>
      <trkpt lat="47.28034" lon="-2.35578">
        <ele>21</ele>
        <time>2021-02-28T11:07:11.000Z</time>
      </trkpt>
      <trkpt lat="47.28016" lon="-2.35579">
        <ele>21</ele>
        <time>2021-02-28T11:07:15.000Z</time>
      </trkpt>
      <trkpt lat="47.28011" lon="-2.35581">
        <ele>21</ele>
        <time>2021-02-28T11:07:16.000Z</time>
      </trkpt>
      <trkpt lat="47.28002" lon="-2.35583">
        <ele>21</ele>
        <time>2021-02-28T11:07:18.000Z</time>
      </trkpt>
      <trkpt lat="47.27997" lon="-2.35584">
        <ele>20.60000038147</ele>
        <time>2021-02-28T11:07:19.000Z</time>
      </trkpt>
      <trkpt lat="47.27993" lon="-2.35586">
        <ele>20.200000762939</ele>
        <time>2021-02-28T11:07:20.000Z</time>
      </trkpt>
      <trkpt lat="47.27989" lon="-2.35587">
        <ele>19.799999237061</ele>
        <time>2021-02-28T11:07:21.000Z</time>
      </trkpt>
      <trkpt lat="47.27985" lon="-2.35588">
        <ele>19.200000762939</ele>
        <time>2021-02-28T11:07:22.000Z</time>
      </trkpt>
      <trkpt lat="47.27981" lon="-2.35589">
        <ele>18.799999237061</ele>
        <time>2021-02-28T11:07:23.000Z</time>
      </trkpt>
      <trkpt lat="47.27978" lon="-2.35588">
        <ele>18.799999237061</ele>
        <time>2021-02-28T11:07:24.000Z</time>
      </trkpt>
      <trkpt lat="47.27955" lon="-2.35583">
        <ele>18.799999237061</ele>
        <time>2021-02-28T11:07:29.000Z</time>
      </trkpt>
      <trkpt lat="47.2795" lon="-2.35583">
        <ele>18.799999237061</ele>
        <time>2021-02-28T11:07:30.000Z</time>
      </trkpt>
      <trkpt lat="47.27919" lon="-2.35589">
        <ele>18.799999237061</ele>
        <time>2021-02-28T11:07:36.000Z</time>
      </trkpt>
      <trkpt lat="47.27876" lon="-2.35595">
        <ele>18.799999237061</ele>
        <time>2021-02-28T11:07:43.000Z</time>
      </trkpt>
      <trkpt lat="47.27869" lon="-2.35597">
        <ele>18.39999961853</ele>
        <time>2021-02-28T11:07:44.000Z</time>
      </trkpt>
      <trkpt lat="47.27862" lon="-2.356">
        <ele>18</ele>
        <time>2021-02-28T11:07:45.000Z</time>
      </trkpt>
      <trkpt lat="47.27856" lon="-2.35602">
        <ele>17.60000038147</ele>
        <time>2021-02-28T11:07:46.000Z</time>
      </trkpt>
      <trkpt lat="47.27849" lon="-2.35604">
        <ele>17.200000762939</ele>
        <time>2021-02-28T11:07:47.000Z</time>
      </trkpt>
      <trkpt lat="47.27842" lon="-2.35606">
        <ele>16.799999237061</ele>
        <time>2021-02-28T11:07:48.000Z</time>
      </trkpt>
      <trkpt lat="47.27835" lon="-2.35608">
        <ele>16.799999237061</ele>
        <time>2021-02-28T11:07:49.000Z</time>
      </trkpt>
      <trkpt lat="47.27821" lon="-2.35612">
        <ele>16.39999961853</ele>
        <time>2021-02-28T11:07:51.000Z</time>
      </trkpt>
      <trkpt lat="47.27813" lon="-2.35614">
        <ele>16</ele>
        <time>2021-02-28T11:07:52.000Z</time>
      </trkpt>
      <trkpt lat="47.27806" lon="-2.35616">
        <ele>15.60000038147</ele>
        <time>2021-02-28T11:07:53.000Z</time>
      </trkpt>
      <trkpt lat="47.27799" lon="-2.35618">
        <ele>15.199999809265</ele>
        <time>2021-02-28T11:07:54.000Z</time>
      </trkpt>
      <trkpt lat="47.27792" lon="-2.35621">
        <ele>14.800000190735</ele>
        <time>2021-02-28T11:07:55.000Z</time>
      </trkpt>
      <trkpt lat="47.27786" lon="-2.35625">
        <ele>14.800000190735</ele>
        <time>2021-02-28T11:07:56.000Z</time>
      </trkpt>
      <trkpt lat="47.27768" lon="-2.35641">
        <ele>14.800000190735</ele>
        <time>2021-02-28T11:07:59.000Z</time>
      </trkpt>
      <trkpt lat="47.27763" lon="-2.35647">
        <ele>14.800000190735</ele>
        <time>2021-02-28T11:08:00.000Z</time>
      </trkpt>
      <trkpt lat="47.27758" lon="-2.35653">
        <ele>14.800000190735</ele>
        <time>2021-02-28T11:08:01.000Z</time>
      </trkpt>
      <trkpt lat="47.27744" lon="-2.35674">
        <ele>14.39999961853</ele>
        <time>2021-02-28T11:08:04.000Z</time>
      </trkpt>
      <trkpt lat="47.2774" lon="-2.35681">
        <ele>13.800000190735</ele>
        <time>2021-02-28T11:08:05.000Z</time>
      </trkpt>
      <trkpt lat="47.27735" lon="-2.35688">
        <ele>13.39999961853</ele>
        <time>2021-02-28T11:08:06.000Z</time>
      </trkpt>
      <trkpt lat="47.2773" lon="-2.35694">
        <ele>13</ele>
        <time>2021-02-28T11:08:07.000Z</time>
      </trkpt>
      <trkpt lat="47.27725" lon="-2.35701">
        <ele>12.60000038147</ele>
        <time>2021-02-28T11:08:08.000Z</time>
      </trkpt>
      <trkpt lat="47.27696" lon="-2.3573">
        <ele>12.60000038147</ele>
        <time>2021-02-28T11:08:13.000Z</time>
      </trkpt>
      <trkpt lat="47.27685" lon="-2.35741">
        <ele>12.60000038147</ele>
        <time>2021-02-28T11:08:15.000Z</time>
      </trkpt>
      <trkpt lat="47.27674" lon="-2.35747">
        <ele>12.60000038147</ele>
        <time>2021-02-28T11:08:17.000Z</time>
      </trkpt>
      <trkpt lat="47.27664" lon="-2.3574">
        <ele>12.60000038147</ele>
        <time>2021-02-28T11:08:19.000Z</time>
      </trkpt>
      <trkpt lat="47.27644" lon="-2.35722">
        <ele>12.60000038147</ele>
        <time>2021-02-28T11:08:23.000Z</time>
      </trkpt>
      <trkpt lat="47.27638" lon="-2.3572">
        <ele>12.199999809265</ele>
        <time>2021-02-28T11:08:24.000Z</time>
      </trkpt>
      <trkpt lat="47.27632" lon="-2.35717">
        <ele>11.800000190735</ele>
        <time>2021-02-28T11:08:25.000Z</time>
      </trkpt>
      <trkpt lat="47.27625" lon="-2.35715">
        <ele>11.199999809265</ele>
        <time>2021-02-28T11:08:26.000Z</time>
      </trkpt>
      <trkpt lat="47.27619" lon="-2.35713">
        <ele>10.800000190735</ele>
        <time>2021-02-28T11:08:27.000Z</time>
      </trkpt>
      <trkpt lat="47.27612" lon="-2.35711">
        <ele>10.39999961853</ele>
        <time>2021-02-28T11:08:28.000Z</time>
      </trkpt>
      <trkpt lat="47.27592" lon="-2.35704">
        <ele>10.39999961853</ele>
        <time>2021-02-28T11:08:31.000Z</time>
      </trkpt>
      <trkpt lat="47.27558" lon="-2.35698">
        <ele>10.39999961853</ele>
        <time>2021-02-28T11:08:36.000Z</time>
      </trkpt>
      <trkpt lat="47.27532" lon="-2.35692">
        <ele>10</ele>
        <time>2021-02-28T11:08:40.000Z</time>
      </trkpt>
      <trkpt lat="47.27525" lon="-2.3569">
        <ele>9.6000003814697</ele>
        <time>2021-02-28T11:08:41.000Z</time>
      </trkpt>
      <trkpt lat="47.27518" lon="-2.35689">
        <ele>9.1999998092651</ele>
        <time>2021-02-28T11:08:42.000Z</time>
      </trkpt>
      <trkpt lat="47.27511" lon="-2.35687">
        <ele>8.8000001907349</ele>
        <time>2021-02-28T11:08:43.000Z</time>
      </trkpt>
      <trkpt lat="47.27503" lon="-2.35685">
        <ele>8.3999996185303</ele>
        <time>2021-02-28T11:08:44.000Z</time>
      </trkpt>
      <trkpt lat="47.27476" lon="-2.35677">
        <ele>8</ele>
        <time>2021-02-28T11:08:48.000Z</time>
      </trkpt>
      <trkpt lat="47.27469" lon="-2.35676">
        <ele>7.4000000953674</ele>
        <time>2021-02-28T11:08:49.000Z</time>
      </trkpt>
      <trkpt lat="47.27462" lon="-2.35675">
        <ele>7</ele>
        <time>2021-02-28T11:08:50.000Z</time>
      </trkpt>
      <trkpt lat="47.27455" lon="-2.35673">
        <ele>6.5999999046326</ele>
        <time>2021-02-28T11:08:51.000Z</time>
      </trkpt>
      <trkpt lat="47.27448" lon="-2.35671">
        <ele>6.1999998092651</ele>
        <time>2021-02-28T11:08:52.000Z</time>
      </trkpt>
      <trkpt lat="47.27416" lon="-2.35665">
        <ele>6.1999998092651</ele>
        <time>2021-02-28T11:08:57.000Z</time>
      </trkpt>
      <trkpt lat="47.27409" lon="-2.35665">
        <ele>6.1999998092651</ele>
        <time>2021-02-28T11:08:58.000Z</time>
      </trkpt>
      <trkpt lat="47.27384" lon="-2.35679">
        <ele>6.1999998092651</ele>
        <time>2021-02-28T11:09:02.000Z</time>
      </trkpt>
      <trkpt lat="47.27353" lon="-2.35702">
        <ele>5.8000001907349</ele>
        <time>2021-02-28T11:09:07.000Z</time>
      </trkpt>
      <trkpt lat="47.27347" lon="-2.35707">
        <ele>5.4000000953674</ele>
        <time>2021-02-28T11:09:08.000Z</time>
      </trkpt>
      <trkpt lat="47.27341" lon="-2.35712">
        <ele>5</ele>
        <time>2021-02-28T11:09:09.000Z</time>
      </trkpt>
      <trkpt lat="47.27335" lon="-2.35717">
        <ele>4.5999999046326</ele>
        <time>2021-02-28T11:09:10.000Z</time>
      </trkpt>
      <trkpt lat="47.2733" lon="-2.35722">
        <ele>4.1999998092651</ele>
        <time>2021-02-28T11:09:11.000Z</time>
      </trkpt>
      <trkpt lat="47.27322" lon="-2.35733">
        <ele>4.1999998092651</ele>
        <time>2021-02-28T11:09:13.000Z</time>
      </trkpt>
      <trkpt lat="47.2731" lon="-2.35739">
        <ele>4.1999998092651</ele>
        <time>2021-02-28T11:09:16.000Z</time>
      </trkpt>
      <trkpt lat="47.27303" lon="-2.35729">
        <ele>4.5999999046326</ele>
        <time>2021-02-28T11:09:18.000Z</time>
      </trkpt>
      <trkpt lat="47.27301" lon="-2.35722">
        <ele>5</ele>
        <time>2021-02-28T11:09:19.000Z</time>
      </trkpt>
      <trkpt lat="47.27299" lon="-2.35714">
        <ele>5.4000000953674</ele>
        <time>2021-02-28T11:09:20.000Z</time>
      </trkpt>
      <trkpt lat="47.27296" lon="-2.35706">
        <ele>5.8000001907349</ele>
        <time>2021-02-28T11:09:21.000Z</time>
      </trkpt>
      <trkpt lat="47.27293" lon="-2.35699">
        <ele>6.1999998092651</ele>
        <time>2021-02-28T11:09:22.000Z</time>
      </trkpt>
      <trkpt lat="47.27289" lon="-2.35693">
        <ele>6.1999998092651</ele>
        <time>2021-02-28T11:09:23.000Z</time>
      </trkpt>
      <trkpt lat="47.27276" lon="-2.35664">
        <ele>6.5999999046326</ele>
        <time>2021-02-28T11:09:27.000Z</time>
      </trkpt>
      <trkpt lat="47.27272" lon="-2.35656">
        <ele>7</ele>
        <time>2021-02-28T11:09:28.000Z</time>
      </trkpt>
      <trkpt lat="47.27269" lon="-2.35649">
        <ele>7.4000000953674</ele>
        <time>2021-02-28T11:09:29.000Z</time>
      </trkpt>
      <trkpt lat="47.27265" lon="-2.35641">
        <ele>7.8000001907349</ele>
        <time>2021-02-28T11:09:30.000Z</time>
      </trkpt>
      <trkpt lat="47.27262" lon="-2.35634">
        <ele>8.3999996185303</ele>
        <time>2021-02-28T11:09:31.000Z</time>
      </trkpt>
      <trkpt lat="47.27245" lon="-2.35594">
        <ele>8.3999996185303</ele>
        <time>2021-02-28T11:09:37.000Z</time>
      </trkpt>
      <trkpt lat="47.27223" lon="-2.35549">
        <ele>8.3999996185303</ele>
        <time>2021-02-28T11:09:44.000Z</time>
      </trkpt>
      <trkpt lat="47.272" lon="-2.35501">
        <ele>8.3999996185303</ele>
        <time>2021-02-28T11:09:51.000Z</time>
      </trkpt>
      <trkpt lat="47.2717" lon="-2.3544">
        <ele>8.3999996185303</ele>
        <time>2021-02-28T11:10:00.000Z</time>
      </trkpt>
      <trkpt lat="47.27146" lon="-2.35393">
        <ele>8.3999996185303</ele>
        <time>2021-02-28T11:10:07.000Z</time>
      </trkpt>
      <trkpt lat="47.27111" lon="-2.35334">
        <ele>8.3999996185303</ele>
        <time>2021-02-28T11:10:16.000Z</time>
      </trkpt>
      <trkpt lat="47.2708" lon="-2.35285">
        <ele>8.3999996185303</ele>
        <time>2021-02-28T11:10:24.000Z</time>
      </trkpt>
      <trkpt lat="47.27047" lon="-2.35232">
        <ele>8.3999996185303</ele>
        <time>2021-02-28T11:10:32.000Z</time>
      </trkpt>
      <trkpt lat="47.27015" lon="-2.35181">
        <ele>8.3999996185303</ele>
        <time>2021-02-28T11:10:40.000Z</time>
      </trkpt>
      <trkpt lat="47.26986" lon="-2.35136">
        <ele>8.3999996185303</ele>
        <time>2021-02-28T11:10:47.000Z</time>
      </trkpt>
      <trkpt lat="47.26946" lon="-2.35076">
        <ele>8.3999996185303</ele>
        <time>2021-02-28T11:10:57.000Z</time>
      </trkpt>
      <trkpt lat="47.26909" lon="-2.35021">
        <ele>8.3999996185303</ele>
        <time>2021-02-28T11:11:06.000Z</time>
      </trkpt>
      <trkpt lat="47.26881" lon="-2.34974">
        <ele>8.3999996185303</ele>
        <time>2021-02-28T11:11:13.000Z</time>
      </trkpt>
      <trkpt lat="47.26872" lon="-2.34961">
        <ele>8</ele>
        <time>2021-02-28T11:11:15.000Z</time>
      </trkpt>
      <trkpt lat="47.26868" lon="-2.34954">
        <ele>7.4000000953674</ele>
        <time>2021-02-28T11:11:16.000Z</time>
      </trkpt>
      <trkpt lat="47.26863" lon="-2.34948">
        <ele>7</ele>
        <time>2021-02-28T11:11:17.000Z</time>
      </trkpt>
      <trkpt lat="47.26859" lon="-2.34942">
        <ele>6.5999999046326</ele>
        <time>2021-02-28T11:11:18.000Z</time>
      </trkpt>
      <trkpt lat="47.26854" lon="-2.34935">
        <ele>6.1999998092651</ele>
        <time>2021-02-28T11:11:19.000Z</time>
      </trkpt>
      <trkpt lat="47.26836" lon="-2.34909">
        <ele>6.1999998092651</ele>
        <time>2021-02-28T11:11:23.000Z</time>
      </trkpt>
      <trkpt lat="47.26801" lon="-2.34857">
        <ele>6.1999998092651</ele>
        <time>2021-02-28T11:11:32.000Z</time>
      </trkpt>
      <trkpt lat="47.26761" lon="-2.34802">
        <ele>6.1999998092651</ele>
        <time>2021-02-28T11:11:41.000Z</time>
      </trkpt>
      <trkpt lat="47.26729" lon="-2.34762">
        <ele>6.1999998092651</ele>
        <time>2021-02-28T11:11:48.000Z</time>
      </trkpt>
      <trkpt lat="47.2669" lon="-2.34713">
        <ele>6.1999998092651</ele>
        <time>2021-02-28T11:11:56.000Z</time>
      </trkpt>
      <trkpt lat="47.26651" lon="-2.34666">
        <ele>6.1999998092651</ele>
        <time>2021-02-28T11:12:04.000Z</time>
      </trkpt>
      <trkpt lat="47.2662" lon="-2.34629">
        <ele>6.1999998092651</ele>
        <time>2021-02-28T11:12:11.000Z</time>
      </trkpt>
      <trkpt lat="47.26592" lon="-2.34594">
        <ele>6.1999998092651</ele>
        <time>2021-02-28T11:12:18.000Z</time>
      </trkpt>
      <trkpt lat="47.26557" lon="-2.34556">
        <ele>6.1999998092651</ele>
        <time>2021-02-28T11:12:25.000Z</time>
      </trkpt>
      <trkpt lat="47.26507" lon="-2.34512">
        <ele>6.1999998092651</ele>
        <time>2021-02-28T11:12:34.000Z</time>
      </trkpt>
      <trkpt lat="47.26455" lon="-2.34475">
        <ele>6.1999998092651</ele>
        <time>2021-02-28T11:12:43.000Z</time>
      </trkpt>
      <trkpt lat="47.26424" lon="-2.34453">
        <ele>6.1999998092651</ele>
        <time>2021-02-28T11:12:49.000Z</time>
      </trkpt>
      <trkpt lat="47.26381" lon="-2.34418">
        <ele>6.1999998092651</ele>
        <time>2021-02-28T11:12:57.000Z</time>
      </trkpt>
      <trkpt lat="47.26337" lon="-2.34382">
        <ele>6.8000001907349</ele>
        <time>2021-02-28T11:13:05.000Z</time>
      </trkpt>
      <trkpt lat="47.26331" lon="-2.3438">
        <ele>7.1999998092651</ele>
        <time>2021-02-28T11:13:06.000Z</time>
      </trkpt>
      <trkpt lat="47.26326" lon="-2.34377">
        <ele>7.5999999046326</ele>
        <time>2021-02-28T11:13:07.000Z</time>
      </trkpt>
      <trkpt lat="47.26321" lon="-2.34371">
        <ele>8</ele>
        <time>2021-02-28T11:13:08.000Z</time>
      </trkpt>
      <trkpt lat="47.26317" lon="-2.34365">
        <ele>8.3999996185303</ele>
        <time>2021-02-28T11:13:09.000Z</time>
      </trkpt>
      <trkpt lat="47.26308" lon="-2.34351">
        <ele>8.3999996185303</ele>
        <time>2021-02-28T11:13:11.000Z</time>
      </trkpt>
      <trkpt lat="47.26292" lon="-2.34335">
        <ele>8.3999996185303</ele>
        <time>2021-02-28T11:13:14.000Z</time>
      </trkpt>
      <trkpt lat="47.2625" lon="-2.34288">
        <ele>8.3999996185303</ele>
        <time>2021-02-28T11:13:22.000Z</time>
      </trkpt>
      <trkpt lat="47.26206" lon="-2.34243">
        <ele>8.3999996185303</ele>
        <time>2021-02-28T11:13:30.000Z</time>
      </trkpt>
      <trkpt lat="47.26179" lon="-2.34215">
        <ele>8</ele>
        <time>2021-02-28T11:13:35.000Z</time>
      </trkpt>
      <trkpt lat="47.26174" lon="-2.3421">
        <ele>7.5999999046326</ele>
        <time>2021-02-28T11:13:36.000Z</time>
      </trkpt>
      <trkpt lat="47.26168" lon="-2.34205">
        <ele>7.1999998092651</ele>
        <time>2021-02-28T11:13:37.000Z</time>
      </trkpt>
      <trkpt lat="47.26163" lon="-2.342">
        <ele>6.8000001907349</ele>
        <time>2021-02-28T11:13:38.000Z</time>
      </trkpt>
      <trkpt lat="47.26158" lon="-2.34196">
        <ele>6.4000000953674</ele>
        <time>2021-02-28T11:13:39.000Z</time>
      </trkpt>
      <trkpt lat="47.26142" lon="-2.34184">
        <ele>6.4000000953674</ele>
        <time>2021-02-28T11:13:42.000Z</time>
      </trkpt>
      <trkpt lat="47.26136" lon="-2.34181">
        <ele>6.4000000953674</ele>
        <time>2021-02-28T11:13:43.000Z</time>
      </trkpt>
      <trkpt lat="47.26131" lon="-2.34177">
        <ele>6.4000000953674</ele>
        <time>2021-02-28T11:13:44.000Z</time>
      </trkpt>
      <trkpt lat="47.26114" lon="-2.34162">
        <ele>6.4000000953674</ele>
        <time>2021-02-28T11:13:47.000Z</time>
      </trkpt>
      <trkpt lat="47.26078" lon="-2.34141">
        <ele>6.4000000953674</ele>
        <time>2021-02-28T11:13:53.000Z</time>
      </trkpt>
      <trkpt lat="47.26032" lon="-2.34114">
        <ele>6.4000000953674</ele>
        <time>2021-02-28T11:14:01.000Z</time>
      </trkpt>
      <trkpt lat="47.25992" lon="-2.34095">
        <ele>6.4000000953674</ele>
        <time>2021-02-28T11:14:08.000Z</time>
      </trkpt>
      <trkpt lat="47.2595" lon="-2.34078">
        <ele>6.4000000953674</ele>
        <time>2021-02-28T11:14:16.000Z</time>
      </trkpt>
      <trkpt lat="47.25925" lon="-2.3407">
        <ele>6.4000000953674</ele>
        <time>2021-02-28T11:14:21.000Z</time>
      </trkpt>
      <trkpt lat="47.25915" lon="-2.34074">
        <ele>6.4000000953674</ele>
        <time>2021-02-28T11:14:23.000Z</time>
      </trkpt>
      <trkpt lat="47.25906" lon="-2.34084">
        <ele>6</ele>
        <time>2021-02-28T11:14:25.000Z</time>
      </trkpt>
      <trkpt lat="47.25902" lon="-2.34091">
        <ele>5.5999999046326</ele>
        <time>2021-02-28T11:14:26.000Z</time>
      </trkpt>
      <trkpt lat="47.25899" lon="-2.34098">
        <ele>5</ele>
        <time>2021-02-28T11:14:27.000Z</time>
      </trkpt>
      <trkpt lat="47.25895" lon="-2.34105">
        <ele>4.5999999046326</ele>
        <time>2021-02-28T11:14:28.000Z</time>
      </trkpt>
      <trkpt lat="47.25892" lon="-2.34112">
        <ele>4.1999998092651</ele>
        <time>2021-02-28T11:14:29.000Z</time>
      </trkpt>
      <trkpt lat="47.25881" lon="-2.34142">
        <ele>4.1999998092651</ele>
        <time>2021-02-28T11:14:33.000Z</time>
      </trkpt>
      <trkpt lat="47.25876" lon="-2.34157">
        <ele>4.1999998092651</ele>
        <time>2021-02-28T11:14:35.000Z</time>
      </trkpt>
      <trkpt lat="47.25869" lon="-2.34164">
        <ele>4.1999998092651</ele>
        <time>2021-02-28T11:14:37.000Z</time>
      </trkpt>
      <trkpt lat="47.25857" lon="-2.34159">
        <ele>4.1999998092651</ele>
        <time>2021-02-28T11:14:40.000Z</time>
      </trkpt>
      <trkpt lat="47.25837" lon="-2.34152">
        <ele>4.1999998092651</ele>
        <time>2021-02-28T11:14:46.000Z</time>
      </trkpt>
      <trkpt lat="47.25833" lon="-2.34165">
        <ele>4.1999998092651</ele>
        <time>2021-02-28T11:14:49.000Z</time>
      </trkpt>
      <trkpt lat="47.25827" lon="-2.34174">
        <ele>4.1999998092651</ele>
        <time>2021-02-28T11:14:51.000Z</time>
      </trkpt>
      <trkpt lat="47.25823" lon="-2.34175">
        <ele>4.1999998092651</ele>
        <time>2021-02-28T11:14:52.000Z</time>
      </trkpt>
      <trkpt lat="47.25815" lon="-2.34176">
        <ele>4.1999998092651</ele>
        <time>2021-02-28T11:14:54.000Z</time>
      </trkpt>
      <trkpt lat="47.25801" lon="-2.34173">
        <ele>4.1999998092651</ele>
        <time>2021-02-28T11:14:57.000Z</time>
      </trkpt>
      <trkpt lat="47.25785" lon="-2.34173">
        <ele>4.1999998092651</ele>
        <time>2021-02-28T11:15:02.000Z</time>
      </trkpt>
      <trkpt lat="47.25769" lon="-2.34174">
        <ele>4.1999998092651</ele>
        <time>2021-02-28T11:15:06.000Z</time>
      </trkpt>
      <trkpt lat="47.25743" lon="-2.34179">
        <ele>4.1999998092651</ele>
        <time>2021-02-28T11:15:11.000Z</time>
      </trkpt>
      <trkpt lat="47.25707" lon="-2.34188">
        <ele>4.1999998092651</ele>
        <time>2021-02-28T11:15:18.000Z</time>
      </trkpt>
      <trkpt lat="47.25677" lon="-2.3419">
        <ele>4.1999998092651</ele>
        <time>2021-02-28T11:15:24.000Z</time>
      </trkpt>
      <trkpt lat="47.25672" lon="-2.34186">
        <ele>4.1999998092651</ele>
        <time>2021-02-28T11:15:25.000Z</time>
      </trkpt>
      <trkpt lat="47.25662" lon="-2.3417">
        <ele>4.5999999046326</ele>
        <time>2021-02-28T11:15:28.000Z</time>
      </trkpt>
      <trkpt lat="47.25659" lon="-2.34164">
        <ele>5</ele>
        <time>2021-02-28T11:15:29.000Z</time>
      </trkpt>
      <trkpt lat="47.25656" lon="-2.34158">
        <ele>5.4000000953674</ele>
        <time>2021-02-28T11:15:30.000Z</time>
      </trkpt>
      <trkpt lat="47.25653" lon="-2.34152">
        <ele>5.8000001907349</ele>
        <time>2021-02-28T11:15:31.000Z</time>
      </trkpt>
      <trkpt lat="47.2565" lon="-2.34146">
        <ele>6.1999998092651</ele>
        <time>2021-02-28T11:15:32.000Z</time>
      </trkpt>
      <trkpt lat="47.25648" lon="-2.34139">
        <ele>6.1999998092651</ele>
        <time>2021-02-28T11:15:33.000Z</time>
      </trkpt>
      <trkpt lat="47.25642" lon="-2.34119">
        <ele>6.1999998092651</ele>
        <time>2021-02-28T11:15:36.000Z</time>
      </trkpt>
      <trkpt lat="47.2564" lon="-2.34105">
        <ele>6.1999998092651</ele>
        <time>2021-02-28T11:15:38.000Z</time>
      </trkpt>
      <trkpt lat="47.25638" lon="-2.34083">
        <ele>6.1999998092651</ele>
        <time>2021-02-28T11:15:41.000Z</time>
      </trkpt>
      <trkpt lat="47.25638" lon="-2.34076">
        <ele>6.5999999046326</ele>
        <time>2021-02-28T11:15:42.000Z</time>
      </trkpt>
      <trkpt lat="47.25639" lon="-2.3407">
        <ele>7</ele>
        <time>2021-02-28T11:15:43.000Z</time>
      </trkpt>
      <trkpt lat="47.2564" lon="-2.34063">
        <ele>7.4000000953674</ele>
        <time>2021-02-28T11:15:44.000Z</time>
      </trkpt>
      <trkpt lat="47.25641" lon="-2.34056">
        <ele>7.8000001907349</ele>
        <time>2021-02-28T11:15:45.000Z</time>
      </trkpt>
      <trkpt lat="47.25642" lon="-2.34049">
        <ele>8.1999998092651</ele>
        <time>2021-02-28T11:15:46.000Z</time>
      </trkpt>
      <trkpt lat="47.25651" lon="-2.34">
        <ele>8.1999998092651</ele>
        <time>2021-02-28T11:15:53.000Z</time>
      </trkpt>
      <trkpt lat="47.25661" lon="-2.33956">
        <ele>8.1999998092651</ele>
        <time>2021-02-28T11:15:59.000Z</time>
      </trkpt>
      <trkpt lat="47.25658" lon="-2.33932">
        <ele>8.1999998092651</ele>
        <time>2021-02-28T11:16:02.000Z</time>
      </trkpt>
      <trkpt lat="47.25657" lon="-2.33924">
        <ele>8.1999998092651</ele>
        <time>2021-02-28T11:16:03.000Z</time>
      </trkpt>
      <trkpt lat="47.25647" lon="-2.33869">
        <ele>8.1999998092651</ele>
        <time>2021-02-28T11:16:10.000Z</time>
      </trkpt>
      <trkpt lat="47.25638" lon="-2.33822">
        <ele>8.1999998092651</ele>
        <time>2021-02-28T11:16:16.000Z</time>
      </trkpt>
      <trkpt lat="47.25634" lon="-2.338">
        <ele>8.1999998092651</ele>
        <time>2021-02-28T11:16:19.000Z</time>
      </trkpt>
      <trkpt lat="47.2563" lon="-2.33786">
        <ele>8.1999998092651</ele>
        <time>2021-02-28T11:16:21.000Z</time>
      </trkpt>
      <trkpt lat="47.25622" lon="-2.33771">
        <ele>8.1999998092651</ele>
        <time>2021-02-28T11:16:24.000Z</time>
      </trkpt>
      <trkpt lat="47.25614" lon="-2.33765">
        <ele>8.1999998092651</ele>
        <time>2021-02-28T11:16:26.000Z</time>
      </trkpt>
      <trkpt lat="47.25589" lon="-2.33759">
        <ele>8.1999998092651</ele>
        <time>2021-02-28T11:16:31.000Z</time>
      </trkpt>
      <trkpt lat="47.25584" lon="-2.33758">
        <ele>8.1999998092651</ele>
        <time>2021-02-28T11:16:32.000Z</time>
      </trkpt>
      <trkpt lat="47.25539" lon="-2.33759">
        <ele>8.1999998092651</ele>
        <time>2021-02-28T11:16:40.000Z</time>
      </trkpt>
      <trkpt lat="47.25502" lon="-2.33758">
        <ele>8.1999998092651</ele>
        <time>2021-02-28T11:16:46.000Z</time>
      </trkpt>
      <trkpt lat="47.25478" lon="-2.33754">
        <ele>8.1999998092651</ele>
        <time>2021-02-28T11:16:50.000Z</time>
      </trkpt>
      <trkpt lat="47.25473" lon="-2.33752">
        <ele>8.1999998092651</ele>
        <time>2021-02-28T11:16:51.000Z</time>
      </trkpt>
      <trkpt lat="47.25457" lon="-2.3374">
        <ele>8.1999998092651</ele>
        <time>2021-02-28T11:16:54.000Z</time>
      </trkpt>
      <trkpt lat="47.25455" lon="-2.33733">
        <ele>8.1999998092651</ele>
        <time>2021-02-28T11:16:55.000Z</time>
      </trkpt>
      <trkpt lat="47.25451" lon="-2.33707">
        <ele>8.1999998092651</ele>
        <time>2021-02-28T11:16:58.000Z</time>
      </trkpt>
      <trkpt lat="47.25446" lon="-2.33659">
        <ele>8.1999998092651</ele>
        <time>2021-02-28T11:17:04.000Z</time>
      </trkpt>
      <trkpt lat="47.25442" lon="-2.33636">
        <ele>8.1999998092651</ele>
        <time>2021-02-28T11:17:07.000Z</time>
      </trkpt>
      <trkpt lat="47.25441" lon="-2.3362">
        <ele>8.1999998092651</ele>
        <time>2021-02-28T11:17:09.000Z</time>
      </trkpt>
      <trkpt lat="47.2544" lon="-2.33585">
        <ele>8.1999998092651</ele>
        <time>2021-02-28T11:17:15.000Z</time>
      </trkpt>
      <trkpt lat="47.25443" lon="-2.33578">
        <ele>8.1999998092651</ele>
        <time>2021-02-28T11:17:17.000Z</time>
      </trkpt>
      <trkpt lat="47.2545" lon="-2.33576">
        <ele>8.1999998092651</ele>
        <time>2021-02-28T11:17:19.000Z</time>
      </trkpt>
      <trkpt lat="47.25453" lon="-2.33564">
        <ele>8.1999998092651</ele>
        <time>2021-02-28T11:17:22.000Z</time>
      </trkpt>
      <trkpt lat="47.25452" lon="-2.33558">
        <ele>8.1999998092651</ele>
        <time>2021-02-28T11:17:23.000Z</time>
      </trkpt>
      <trkpt lat="47.25449" lon="-2.33546">
        <ele>8.1999998092651</ele>
        <time>2021-02-28T11:17:25.000Z</time>
      </trkpt>
      <trkpt lat="47.25448" lon="-2.33535">
        <ele>8.1999998092651</ele>
        <time>2021-02-28T11:17:27.000Z</time>
      </trkpt>
      <trkpt lat="47.25442" lon="-2.33498">
        <ele>8.1999998092651</ele>
        <time>2021-02-28T11:17:33.000Z</time>
      </trkpt>
      <trkpt lat="47.25438" lon="-2.33485">
        <ele>8.1999998092651</ele>
        <time>2021-02-28T11:17:35.000Z</time>
      </trkpt>
      <trkpt lat="47.25431" lon="-2.33465">
        <ele>8.1999998092651</ele>
        <time>2021-02-28T11:17:38.000Z</time>
      </trkpt>
      <trkpt lat="47.2543" lon="-2.3345">
        <ele>8.1999998092651</ele>
        <time>2021-02-28T11:17:40.000Z</time>
      </trkpt>
      <trkpt lat="47.2543" lon="-2.33426">
        <ele>8.1999998092651</ele>
        <time>2021-02-28T11:17:43.000Z</time>
      </trkpt>
      <trkpt lat="47.25429" lon="-2.33374">
        <ele>8.1999998092651</ele>
        <time>2021-02-28T11:17:50.000Z</time>
      </trkpt>
      <trkpt lat="47.25432" lon="-2.33345">
        <ele>8.1999998092651</ele>
        <time>2021-02-28T11:17:54.000Z</time>
      </trkpt>
      <trkpt lat="47.25436" lon="-2.33332">
        <ele>8.1999998092651</ele>
        <time>2021-02-28T11:17:56.000Z</time>
      </trkpt>
      <trkpt lat="47.25448" lon="-2.33293">
        <ele>8.1999998092651</ele>
        <time>2021-02-28T11:18:02.000Z</time>
      </trkpt>
      <trkpt lat="47.25448" lon="-2.33286">
        <ele>8.1999998092651</ele>
        <time>2021-02-28T11:18:03.000Z</time>
      </trkpt>
      <trkpt lat="47.25442" lon="-2.33266">
        <ele>8.1999998092651</ele>
        <time>2021-02-28T11:18:06.000Z</time>
      </trkpt>
      <trkpt lat="47.25422" lon="-2.33223">
        <ele>8.1999998092651</ele>
        <time>2021-02-28T11:18:13.000Z</time>
      </trkpt>
      <trkpt lat="47.25404" lon="-2.33177">
        <ele>8.1999998092651</ele>
        <time>2021-02-28T11:18:20.000Z</time>
      </trkpt>
      <trkpt lat="47.25388" lon="-2.33147">
        <ele>8.1999998092651</ele>
        <time>2021-02-28T11:18:26.000Z</time>
      </trkpt>
      <trkpt lat="47.25382" lon="-2.33137">
        <ele>8.1999998092651</ele>
        <time>2021-02-28T11:18:29.000Z</time>
      </trkpt>
      <trkpt lat="47.2538" lon="-2.33132">
        <ele>8.1999998092651</ele>
        <time>2021-02-28T11:18:30.000Z</time>
      </trkpt>
      <trkpt lat="47.2537" lon="-2.33104">
        <ele>8.1999998092651</ele>
        <time>2021-02-28T11:18:37.000Z</time>
      </trkpt>
      <trkpt lat="47.25366" lon="-2.33097">
        <ele>8.1999998092651</ele>
        <time>2021-02-28T11:18:41.000Z</time>
      </trkpt>
      <trkpt lat="47.25365" lon="-2.33096">
        <ele>8.1999998092651</ele>
        <time>2021-02-28T11:18:42.000Z</time>
      </trkpt>
      <trkpt lat="47.25365" lon="-2.33097">
        <ele>8.1999998092651</ele>
        <time>2021-02-28T11:18:43.000Z</time>
      </trkpt>
      <trkpt lat="47.25364" lon="-2.33085">
        <ele>8.1999998092651</ele>
        <time>2021-02-28T11:37:14.000Z</time>
      </trkpt>
      <trkpt lat="47.25363" lon="-2.33081">
        <ele>8.1999998092651</ele>
        <time>2021-02-28T11:37:16.000Z</time>
      </trkpt>
      <trkpt lat="47.2536" lon="-2.33075">
        <ele>8.1999998092651</ele>
        <time>2021-02-28T11:37:18.000Z</time>
      </trkpt>
      <trkpt lat="47.25355" lon="-2.33066">
        <ele>8.1999998092651</ele>
        <time>2021-02-28T11:37:21.000Z</time>
      </trkpt>
      <trkpt lat="47.25346" lon="-2.33043">
        <ele>8.1999998092651</ele>
        <time>2021-02-28T11:37:27.000Z</time>
      </trkpt>
      <trkpt lat="47.25336" lon="-2.33017">
        <ele>8.1999998092651</ele>
        <time>2021-02-28T11:37:33.000Z</time>
      </trkpt>
      <trkpt lat="47.25325" lon="-2.32987">
        <ele>8.1999998092651</ele>
        <time>2021-02-28T11:37:39.000Z</time>
      </trkpt>
      <trkpt lat="47.25308" lon="-2.32943">
        <ele>8.1999998092651</ele>
        <time>2021-02-28T11:37:47.000Z</time>
      </trkpt>
      <trkpt lat="47.25307" lon="-2.32937">
        <ele>8.1999998092651</ele>
        <time>2021-02-28T11:37:48.000Z</time>
      </trkpt>
      <trkpt lat="47.25309" lon="-2.32919">
        <ele>8.1999998092651</ele>
        <time>2021-02-28T11:37:51.000Z</time>
      </trkpt>
      <trkpt lat="47.25322" lon="-2.32903">
        <ele>8.1999998092651</ele>
        <time>2021-02-28T11:37:55.000Z</time>
      </trkpt>
      <trkpt lat="47.25351" lon="-2.32878">
        <ele>8.1999998092651</ele>
        <time>2021-02-28T11:38:03.000Z</time>
      </trkpt>
      <trkpt lat="47.25355" lon="-2.32874">
        <ele>8.6000003814697</ele>
        <time>2021-02-28T11:38:04.000Z</time>
      </trkpt>
      <trkpt lat="47.25358" lon="-2.32871">
        <ele>9</ele>
        <time>2021-02-28T11:38:05.000Z</time>
      </trkpt>
      <trkpt lat="47.25362" lon="-2.32868">
        <ele>9.3999996185303</ele>
        <time>2021-02-28T11:38:06.000Z</time>
      </trkpt>
      <trkpt lat="47.25365" lon="-2.32865">
        <ele>9.8000001907349</ele>
        <time>2021-02-28T11:38:07.000Z</time>
      </trkpt>
      <trkpt lat="47.25369" lon="-2.32861">
        <ele>10.199999809265</ele>
        <time>2021-02-28T11:38:08.000Z</time>
      </trkpt>
      <trkpt lat="47.25389" lon="-2.32838">
        <ele>10.199999809265</ele>
        <time>2021-02-28T11:38:14.000Z</time>
      </trkpt>
      <trkpt lat="47.25413" lon="-2.32806">
        <ele>10.199999809265</ele>
        <time>2021-02-28T11:38:22.000Z</time>
      </trkpt>
      <trkpt lat="47.25426" lon="-2.32781">
        <ele>10.199999809265</ele>
        <time>2021-02-28T11:38:28.000Z</time>
      </trkpt>
      <trkpt lat="47.25426" lon="-2.32776">
        <ele>10.199999809265</ele>
        <time>2021-02-28T11:38:29.000Z</time>
      </trkpt>
      <trkpt lat="47.2543" lon="-2.32769">
        <ele>10.199999809265</ele>
        <time>2021-02-28T11:38:31.000Z</time>
      </trkpt>
      <trkpt lat="47.25434" lon="-2.32766">
        <ele>10.199999809265</ele>
        <time>2021-02-28T11:38:32.000Z</time>
      </trkpt>
      <trkpt lat="47.25437" lon="-2.32762">
        <ele>10.199999809265</ele>
        <time>2021-02-28T11:38:33.000Z</time>
      </trkpt>
      <trkpt lat="47.25444" lon="-2.32753">
        <ele>10.800000190735</ele>
        <time>2021-02-28T11:38:35.000Z</time>
      </trkpt>
      <trkpt lat="47.25446" lon="-2.32748">
        <ele>11.199999809265</ele>
        <time>2021-02-28T11:38:36.000Z</time>
      </trkpt>
      <trkpt lat="47.25449" lon="-2.32744">
        <ele>11.60000038147</ele>
        <time>2021-02-28T11:38:37.000Z</time>
      </trkpt>
      <trkpt lat="47.25452" lon="-2.32739">
        <ele>12</ele>
        <time>2021-02-28T11:38:38.000Z</time>
      </trkpt>
      <trkpt lat="47.25455" lon="-2.32735">
        <ele>12.60000038147</ele>
        <time>2021-02-28T11:38:39.000Z</time>
      </trkpt>
      <trkpt lat="47.25469" lon="-2.32719">
        <ele>12.60000038147</ele>
        <time>2021-02-28T11:38:43.000Z</time>
      </trkpt>
      <trkpt lat="47.25478" lon="-2.32707">
        <ele>12.60000038147</ele>
        <time>2021-02-28T11:38:46.000Z</time>
      </trkpt>
      <trkpt lat="47.25487" lon="-2.32686">
        <ele>12.60000038147</ele>
        <time>2021-02-28T11:38:50.000Z</time>
      </trkpt>
      <trkpt lat="47.25488" lon="-2.3268">
        <ele>12.60000038147</ele>
        <time>2021-02-28T11:38:51.000Z</time>
      </trkpt>
      <trkpt lat="47.2549" lon="-2.32662">
        <ele>12.60000038147</ele>
        <time>2021-02-28T11:38:54.000Z</time>
      </trkpt>
      <trkpt lat="47.25488" lon="-2.32651">
        <ele>12.60000038147</ele>
        <time>2021-02-28T11:38:56.000Z</time>
      </trkpt>
      <trkpt lat="47.25485" lon="-2.32639">
        <ele>12.60000038147</ele>
        <time>2021-02-28T11:38:58.000Z</time>
      </trkpt>
      <trkpt lat="47.25483" lon="-2.32627">
        <ele>12.60000038147</ele>
        <time>2021-02-28T11:39:00.000Z</time>
      </trkpt>
      <trkpt lat="47.25482" lon="-2.32614">
        <ele>12.60000038147</ele>
        <time>2021-02-28T11:39:02.000Z</time>
      </trkpt>
      <trkpt lat="47.25481" lon="-2.32581">
        <ele>12.60000038147</ele>
        <time>2021-02-28T11:39:07.000Z</time>
      </trkpt>
      <trkpt lat="47.25482" lon="-2.32575">
        <ele>12.60000038147</ele>
        <time>2021-02-28T11:39:08.000Z</time>
      </trkpt>
      <trkpt lat="47.25491" lon="-2.32552">
        <ele>12.60000038147</ele>
        <time>2021-02-28T11:39:12.000Z</time>
      </trkpt>
      <trkpt lat="47.25507" lon="-2.32535">
        <ele>12.60000038147</ele>
        <time>2021-02-28T11:39:16.000Z</time>
      </trkpt>
      <trkpt lat="47.25515" lon="-2.32526">
        <ele>12.60000038147</ele>
        <time>2021-02-28T11:39:18.000Z</time>
      </trkpt>
      <trkpt lat="47.25534" lon="-2.3251">
        <ele>12.60000038147</ele>
        <time>2021-02-28T11:39:22.000Z</time>
      </trkpt>
      <trkpt lat="47.2557" lon="-2.32478">
        <ele>12.60000038147</ele>
        <time>2021-02-28T11:39:29.000Z</time>
      </trkpt>
      <trkpt lat="47.2558" lon="-2.32467">
        <ele>12</ele>
        <time>2021-02-28T11:39:31.000Z</time>
      </trkpt>
      <trkpt lat="47.25585" lon="-2.32462">
        <ele>11.60000038147</ele>
        <time>2021-02-28T11:39:32.000Z</time>
      </trkpt>
      <trkpt lat="47.2559" lon="-2.32456">
        <ele>11.199999809265</ele>
        <time>2021-02-28T11:39:33.000Z</time>
      </trkpt>
      <trkpt lat="47.25595" lon="-2.3245">
        <ele>10.60000038147</ele>
        <time>2021-02-28T11:39:34.000Z</time>
      </trkpt>
      <trkpt lat="47.256" lon="-2.32444">
        <ele>10.199999809265</ele>
        <time>2021-02-28T11:39:35.000Z</time>
      </trkpt>
      <trkpt lat="47.25604" lon="-2.32438">
        <ele>10.199999809265</ele>
        <time>2021-02-28T11:39:36.000Z</time>
      </trkpt>
      <trkpt lat="47.2563" lon="-2.32411">
        <ele>9.8000001907349</ele>
        <time>2021-02-28T11:39:41.000Z</time>
      </trkpt>
      <trkpt lat="47.25636" lon="-2.32406">
        <ele>9.3999996185303</ele>
        <time>2021-02-28T11:39:42.000Z</time>
      </trkpt>
      <trkpt lat="47.25641" lon="-2.32402">
        <ele>9</ele>
        <time>2021-02-28T11:39:43.000Z</time>
      </trkpt>
      <trkpt lat="47.25645" lon="-2.324">
        <ele>8.6000003814697</ele>
        <time>2021-02-28T11:39:44.000Z</time>
      </trkpt>
      <trkpt lat="47.25647" lon="-2.32398">
        <ele>8</ele>
        <time>2021-02-28T11:39:45.000Z</time>
      </trkpt>
      <trkpt lat="47.25648" lon="-2.32398">
        <ele>7.4000000953674</ele>
        <time>2021-02-28T11:39:46.000Z</time>
      </trkpt>
      <trkpt lat="47.25648" lon="-2.32398">
        <ele>6.8000001907349</ele>
        <time>2021-02-28T11:39:47.000Z</time>
      </trkpt>
      <trkpt lat="47.25649" lon="-2.32398">
        <ele>5.5999999046326</ele>
        <time>2021-02-28T11:39:50.000Z</time>
      </trkpt>
      <trkpt lat="47.25654" lon="-2.32397">
        <ele>5.5999999046326</ele>
        <time>2021-02-28T11:39:52.000Z</time>
      </trkpt>
      <trkpt lat="47.25663" lon="-2.32402">
        <ele>5.5999999046326</ele>
        <time>2021-02-28T11:39:55.000Z</time>
      </trkpt>
      <trkpt lat="47.25667" lon="-2.32406">
        <ele>5.5999999046326</ele>
        <time>2021-02-28T11:39:56.000Z</time>
      </trkpt>
      <trkpt lat="47.25676" lon="-2.32413">
        <ele>5.5999999046326</ele>
        <time>2021-02-28T11:39:58.000Z</time>
      </trkpt>
      <trkpt lat="47.25687" lon="-2.32415">
        <ele>5.5999999046326</ele>
        <time>2021-02-28T11:40:00.000Z</time>
      </trkpt>
      <trkpt lat="47.25716" lon="-2.32418">
        <ele>5.5999999046326</ele>
        <time>2021-02-28T11:40:05.000Z</time>
      </trkpt>
      <trkpt lat="47.25727" lon="-2.32419">
        <ele>5.5999999046326</ele>
        <time>2021-02-28T11:40:07.000Z</time>
      </trkpt>
      <trkpt lat="47.25758" lon="-2.32418">
        <ele>5.5999999046326</ele>
        <time>2021-02-28T11:40:13.000Z</time>
      </trkpt>
      <trkpt lat="47.25762" lon="-2.32417">
        <ele>5.5999999046326</ele>
        <time>2021-02-28T11:40:14.000Z</time>
      </trkpt>
      <trkpt lat="47.25776" lon="-2.32412">
        <ele>5.5999999046326</ele>
        <time>2021-02-28T11:40:18.000Z</time>
      </trkpt>
      <trkpt lat="47.25788" lon="-2.32423">
        <ele>5.5999999046326</ele>
        <time>2021-02-28T11:40:21.000Z</time>
      </trkpt>
      <trkpt lat="47.25802" lon="-2.32446">
        <ele>5.5999999046326</ele>
        <time>2021-02-28T11:40:25.000Z</time>
      </trkpt>
      <trkpt lat="47.25817" lon="-2.32458">
        <ele>5.5999999046326</ele>
        <time>2021-02-28T11:40:28.000Z</time>
      </trkpt>
      <trkpt lat="47.25822" lon="-2.32461">
        <ele>5.5999999046326</ele>
        <time>2021-02-28T11:40:29.000Z</time>
      </trkpt>
      <trkpt lat="47.25844" lon="-2.3247">
        <ele>5.5999999046326</ele>
        <time>2021-02-28T11:40:33.000Z</time>
      </trkpt>
      <trkpt lat="47.25855" lon="-2.32472">
        <ele>5.5999999046326</ele>
        <time>2021-02-28T11:40:35.000Z</time>
      </trkpt>
      <trkpt lat="47.25887" lon="-2.32467">
        <ele>5.5999999046326</ele>
        <time>2021-02-28T11:40:41.000Z</time>
      </trkpt>
      <trkpt lat="47.25892" lon="-2.32464">
        <ele>5.5999999046326</ele>
        <time>2021-02-28T11:40:42.000Z</time>
      </trkpt>
      <trkpt lat="47.25906" lon="-2.32451">
        <ele>5.5999999046326</ele>
        <time>2021-02-28T11:40:45.000Z</time>
      </trkpt>
      <trkpt lat="47.25918" lon="-2.32435">
        <ele>5.5999999046326</ele>
        <time>2021-02-28T11:40:48.000Z</time>
      </trkpt>
      <trkpt lat="47.2593" lon="-2.3242">
        <ele>5.5999999046326</ele>
        <time>2021-02-28T11:40:51.000Z</time>
      </trkpt>
      <trkpt lat="47.25962" lon="-2.32379">
        <ele>5.5999999046326</ele>
        <time>2021-02-28T11:40:59.000Z</time>
      </trkpt>
      <trkpt lat="47.25984" lon="-2.32349">
        <ele>5.5999999046326</ele>
        <time>2021-02-28T11:41:05.000Z</time>
      </trkpt>
      <trkpt lat="47.25993" lon="-2.32339">
        <ele>5.5999999046326</ele>
        <time>2021-02-28T11:41:07.000Z</time>
      </trkpt>
      <trkpt lat="47.26015" lon="-2.3231">
        <ele>5.5999999046326</ele>
        <time>2021-02-28T11:41:13.000Z</time>
      </trkpt>
      <trkpt lat="47.26042" lon="-2.32278">
        <ele>5.5999999046326</ele>
        <time>2021-02-28T11:41:20.000Z</time>
      </trkpt>
      <trkpt lat="47.26072" lon="-2.32241">
        <ele>5.5999999046326</ele>
        <time>2021-02-28T11:41:28.000Z</time>
      </trkpt>
      <trkpt lat="47.26094" lon="-2.32212">
        <ele>5.5999999046326</ele>
        <time>2021-02-28T11:41:34.000Z</time>
      </trkpt>
      <trkpt lat="47.26098" lon="-2.32206">
        <ele>5.5999999046326</ele>
        <time>2021-02-28T11:41:35.000Z</time>
      </trkpt>
      <trkpt lat="47.26115" lon="-2.32168">
        <ele>5.5999999046326</ele>
        <time>2021-02-28T11:41:41.000Z</time>
      </trkpt>
      <trkpt lat="47.26117" lon="-2.32162">
        <ele>5.5999999046326</ele>
        <time>2021-02-28T11:41:42.000Z</time>
      </trkpt>
      <trkpt lat="47.26132" lon="-2.32115">
        <ele>5.5999999046326</ele>
        <time>2021-02-28T11:41:49.000Z</time>
      </trkpt>
      <trkpt lat="47.26145" lon="-2.32061">
        <ele>5.1999998092651</ele>
        <time>2021-02-28T11:41:57.000Z</time>
      </trkpt>
      <trkpt lat="47.26148" lon="-2.32054">
        <ele>4.8000001907349</ele>
        <time>2021-02-28T11:41:58.000Z</time>
      </trkpt>
      <trkpt lat="47.2615" lon="-2.32047">
        <ele>4.4000000953674</ele>
        <time>2021-02-28T11:41:59.000Z</time>
      </trkpt>
      <trkpt lat="47.26152" lon="-2.3204">
        <ele>3.5999999046326</ele>
        <time>2021-02-28T11:42:00.000Z</time>
      </trkpt>
      <trkpt lat="47.26156" lon="-2.32028">
        <ele>3.5999999046326</ele>
        <time>2021-02-28T11:42:02.000Z</time>
      </trkpt>
      <trkpt lat="47.26159" lon="-2.32023">
        <ele>3.5999999046326</ele>
        <time>2021-02-28T11:42:03.000Z</time>
      </trkpt>
      <trkpt lat="47.26171" lon="-2.32017">
        <ele>3.5999999046326</ele>
        <time>2021-02-28T11:42:06.000Z</time>
      </trkpt>
      <trkpt lat="47.26182" lon="-2.32019">
        <ele>3.5999999046326</ele>
        <time>2021-02-28T11:42:09.000Z</time>
      </trkpt>
      <trkpt lat="47.26187" lon="-2.32021">
        <ele>3.5999999046326</ele>
        <time>2021-02-28T11:42:11.000Z</time>
      </trkpt>
      <trkpt lat="47.26194" lon="-2.32021">
        <ele>3.5999999046326</ele>
        <time>2021-02-28T11:42:14.000Z</time>
      </trkpt>
      <trkpt lat="47.26196" lon="-2.32019">
        <ele>3.5999999046326</ele>
        <time>2021-02-28T11:42:15.000Z</time>
      </trkpt>
      <trkpt lat="47.26198" lon="-2.3201">
        <ele>3.5999999046326</ele>
        <time>2021-02-28T11:42:18.000Z</time>
      </trkpt>
      <trkpt lat="47.262" lon="-2.32005">
        <ele>3.5999999046326</ele>
        <time>2021-02-28T11:42:20.000Z</time>
      </trkpt>
      <trkpt lat="47.26211" lon="-2.31993">
        <ele>3.5999999046326</ele>
        <time>2021-02-28T11:42:25.000Z</time>
      </trkpt>
      <trkpt lat="47.26225" lon="-2.31979">
        <ele>3.5999999046326</ele>
        <time>2021-02-28T11:42:30.000Z</time>
      </trkpt>
      <trkpt lat="47.26238" lon="-2.31972">
        <ele>3.5999999046326</ele>
        <time>2021-02-28T11:42:34.000Z</time>
      </trkpt>
      <trkpt lat="47.2624" lon="-2.31967">
        <ele>3.5999999046326</ele>
        <time>2021-02-28T11:42:35.000Z</time>
      </trkpt>
      <trkpt lat="47.26247" lon="-2.3195">
        <ele>3.5999999046326</ele>
        <time>2021-02-28T11:42:39.000Z</time>
      </trkpt>
      <trkpt lat="47.2625" lon="-2.31944">
        <ele>3.5999999046326</ele>
        <time>2021-02-28T11:42:41.000Z</time>
      </trkpt>
      <trkpt lat="47.26255" lon="-2.31936">
        <ele>3.5999999046326</ele>
        <time>2021-02-28T11:42:44.000Z</time>
      </trkpt>
      <trkpt lat="47.26268" lon="-2.31911">
        <ele>3.5999999046326</ele>
        <time>2021-02-28T11:42:50.000Z</time>
      </trkpt>
      <trkpt lat="47.26289" lon="-2.31893">
        <ele>3.5999999046326</ele>
        <time>2021-02-28T11:42:56.000Z</time>
      </trkpt>
      <trkpt lat="47.26292" lon="-2.31889">
        <ele>3.5999999046326</ele>
        <time>2021-02-28T11:42:57.000Z</time>
      </trkpt>
      <trkpt lat="47.26295" lon="-2.3188">
        <ele>3.5999999046326</ele>
        <time>2021-02-28T11:42:59.000Z</time>
      </trkpt>
      <trkpt lat="47.26299" lon="-2.31844">
        <ele>3.5999999046326</ele>
        <time>2021-02-28T11:43:06.000Z</time>
      </trkpt>
      <trkpt lat="47.26302" lon="-2.31809">
        <ele>3.5999999046326</ele>
        <time>2021-02-28T11:43:12.000Z</time>
      </trkpt>
      <trkpt lat="47.26303" lon="-2.3178">
        <ele>3.5999999046326</ele>
        <time>2021-02-28T11:43:17.000Z</time>
      </trkpt>
      <trkpt lat="47.26301" lon="-2.31748">
        <ele>3.5999999046326</ele>
        <time>2021-02-28T11:43:22.000Z</time>
      </trkpt>
      <trkpt lat="47.26301" lon="-2.31724">
        <ele>3.5999999046326</ele>
        <time>2021-02-28T11:43:26.000Z</time>
      </trkpt>
      <trkpt lat="47.26303" lon="-2.31718">
        <ele>3.5999999046326</ele>
        <time>2021-02-28T11:43:27.000Z</time>
      </trkpt>
      <trkpt lat="47.26313" lon="-2.31711">
        <ele>3.5999999046326</ele>
        <time>2021-02-28T11:43:30.000Z</time>
      </trkpt>
      <trkpt lat="47.2633" lon="-2.31697">
        <ele>3.5999999046326</ele>
        <time>2021-02-28T11:43:35.000Z</time>
      </trkpt>
      <trkpt lat="47.26332" lon="-2.31693">
        <ele>3.5999999046326</ele>
        <time>2021-02-28T11:43:36.000Z</time>
      </trkpt>
      <trkpt lat="47.26334" lon="-2.31689">
        <ele>4</ele>
        <time>2021-02-28T11:43:37.000Z</time>
      </trkpt>
      <trkpt lat="47.26338" lon="-2.31687">
        <ele>4.4000000953674</ele>
        <time>2021-02-28T11:43:38.000Z</time>
      </trkpt>
      <trkpt lat="47.26341" lon="-2.31686">
        <ele>5.1999998092651</ele>
        <time>2021-02-28T11:43:39.000Z</time>
      </trkpt>
      <trkpt lat="47.26344" lon="-2.31685">
        <ele>5.5999999046326</ele>
        <time>2021-02-28T11:43:40.000Z</time>
      </trkpt>
      <trkpt lat="47.26346" lon="-2.31683">
        <ele>5.5999999046326</ele>
        <time>2021-02-28T11:43:41.000Z</time>
      </trkpt>
      <trkpt lat="47.26359" lon="-2.31675">
        <ele>5.5999999046326</ele>
        <time>2021-02-28T11:43:45.000Z</time>
      </trkpt>
      <trkpt lat="47.26369" lon="-2.31672">
        <ele>6</ele>
        <time>2021-02-28T11:43:48.000Z</time>
      </trkpt>
      <trkpt lat="47.26372" lon="-2.31671">
        <ele>6.4000000953674</ele>
        <time>2021-02-28T11:43:49.000Z</time>
      </trkpt>
      <trkpt lat="47.26375" lon="-2.3167">
        <ele>6.8000001907349</ele>
        <time>2021-02-28T11:43:50.000Z</time>
      </trkpt>
      <trkpt lat="47.26378" lon="-2.31668">
        <ele>7.1999998092651</ele>
        <time>2021-02-28T11:43:51.000Z</time>
      </trkpt>
      <trkpt lat="47.26381" lon="-2.31666">
        <ele>7.5999999046326</ele>
        <time>2021-02-28T11:43:52.000Z</time>
      </trkpt>
      <trkpt lat="47.26402" lon="-2.31654">
        <ele>7.5999999046326</ele>
        <time>2021-02-28T11:43:59.000Z</time>
      </trkpt>
      <trkpt lat="47.26411" lon="-2.31646">
        <ele>7.5999999046326</ele>
        <time>2021-02-28T11:44:02.000Z</time>
      </trkpt>
      <trkpt lat="47.26411" lon="-2.31641">
        <ele>7.5999999046326</ele>
        <time>2021-02-28T11:44:03.000Z</time>
      </trkpt>
      <trkpt lat="47.26412" lon="-2.31617">
        <ele>7.5999999046326</ele>
        <time>2021-02-28T11:44:08.000Z</time>
      </trkpt>
      <trkpt lat="47.2641" lon="-2.31583">
        <ele>7.5999999046326</ele>
        <time>2021-02-28T11:44:15.000Z</time>
      </trkpt>
      <trkpt lat="47.26413" lon="-2.31552">
        <ele>7.5999999046326</ele>
        <time>2021-02-28T11:44:23.000Z</time>
      </trkpt>
      <trkpt lat="47.26415" lon="-2.31551">
        <ele>7.5999999046326</ele>
        <time>2021-02-28T11:44:26.000Z</time>
      </trkpt>
      <trkpt lat="47.26427" lon="-2.31551">
        <ele>9.6000003814697</ele>
        <time>2021-02-28T11:45:03.000Z</time>
      </trkpt>
      <trkpt lat="47.26423" lon="-2.3155">
        <ele>9.6000003814697</ele>
        <time>2021-02-28T11:45:07.000Z</time>
      </trkpt>
      <trkpt lat="47.26423" lon="-2.3155">
        <ele>9.6000003814697</ele>
        <time>2021-02-28T11:45:08.000Z</time>
      </trkpt>
      <trkpt lat="47.26423" lon="-2.31552">
        <ele>9.6000003814697</ele>
        <time>2021-02-28T11:45:11.000Z</time>
      </trkpt>
    </trkseg>
  </trk>
</gpx>